# Wetter Temperatur Luftdruck Luftfeuchtigkeit Sichtweite Windgeschwindigkeit Windrichtung Zeit
1 Clouds 31 1012 42 10000 3.6 320 21:19 12.07.2020
2 Clouds 30 1012 51 10000 4.1 340 20:57 12.07.2020
3 Clouds 31 1012 51 10000 4.1 340 20:37 12.07.2020
4 Clouds 31 1012 51 10000 4.1 340 20:19 12.07.2020
5 Clouds 31 1012 40 10000 6.2 320 19:40 12.07.2020
6 Clouds 31 1012 40 10000 6.2 320 19:21 12.07.2020
7 Clouds 30 1012 40 10000 4.1 350 18:57 12.07.2020
8 Clouds 31 1012 40 10000 4.1 350 18:38 12.07.2020
9 Clouds 31 1013 42 10000 6.2 310 18:18 12.07.2020
10 Clouds 31 1013 42 10000 6.2 310 17:39 12.07.2020
11 Clouds 31 1013 42 10000 6.2 310 17:21 12.07.2020
12 Clouds 29 1014 61 10000 2.6 350 16:48 12.07.2020
13 Clouds 28 1014 61 10000 2.6 350 16:23 12.07.2020
14 Clouds 27 1014 57 10000 4.6 330 15:58 12.07.2020
15 Clouds 27 1014 57 10000 4.6 330 15:40 12.07.2020
16 Clouds 27 1014 57 10000 4.6 330 15:20 12.07.2020
17 Clouds 24 1014 69 10000 2.6 350 14:41 12.07.2020
18 Clouds 24 1014 69 10000 2.6 350 14:23 12.07.2020
19 Clouds 24 1014 60 10000 2.6 310 13:41 12.07.2020
20 Clouds 23 1014 60 10000 2.6 310 13:22 12.07.2020
21 Clouds 21 1014 64 10000 3.1 300 12:58 12.07.2020
22 Clouds 21 1014 64 10000 3.1 300 12:39 12.07.2020
23 Clouds 21 1014 64 10000 3.1 300 12:19 12.07.2020
24 Clouds 20 1013 73 10000 3.1 310 11:55 12.07.2020
25 Clouds 20 1013 73 10000 3.1 310 11:36 12.07.2020
26 Clouds 20 1013 73 10000 3.1 310 11:18 12.07.2020
27 Clouds 18 1014 82 10000 1 350 10:41 12.07.2020
28 Clouds 18 1014 82 10000 1 350 10:19 12.07.2020
29 Clouds 18 1013 88 10000 1 320 09:43 12.07.2020
30 Clouds 18 1013 88 10000 1 320 09:22 12.07.2020
31 Clouds 19 1014 82 10000 1.5 0 08:57 12.07.2020
32 Clouds 19 1014 82 10000 1.5 0 08:38 12.07.2020
33 Clouds 19 1014 82 10000 1.5 0 08:19 12.07.2020
34 Clouds 19 1014 82 10000 1 110 07:47 12.07.2020
35 Clouds 19 1014 82 10000 1 110 07:28 12.07.2020
36 Clouds 19 1015 82 10000 1 180 06:53 12.07.2020
37 Clouds 19 1015 82 10000 1 180 06:53 12.07.2020
38 Clouds 19 1015 82 10000 1 180 06:22 12.07.2020
39 Clouds 19 1015 82 10000 1 100 05:59 12.07.2020
40 Clouds 22 1015 69 10000 2.6 320 04:58 12.07.2020
41 Clouds 22 1015 69 10000 2.6 320 04:29 12.07.2020
42 Clouds 22 1015 64 10000 3.6 310 03:45 12.07.2020
43 Clouds 22 1015 64 10000 3.6 310 03:24 12.07.2020
44 Clouds 23 1015 64 10000 3.1 340 02:21 12.07.2020
45 Clear 23 1015 69 10000 2.6 330 01:28 12.07.2020
46 Clear 25 1015 65 10000 1.5 330 00:39 12.07.2020
47 Clear 25 1015 65 10000 1.5 330 00:20 12.07.2020
48 Clear 26 1015 65 10000 2.6 340 23:41 11.07.2020
49 Clear 26 1015 65 10000 2.6 340 23:22 11.07.2020
50 Clear 27 1015 54 10000 2.1 320 22:57 11.07.2020
51 Clear 28 1015 54 10000 2.1 320 22:38 11.07.2020
52 Clear 28 1015 54 10000 2.1 320 22:20 11.07.2020
53 Clear 29 1015 48 10000 2.1 340 21:55 11.07.2020
54 Clear 28 1015 48 10000 2.1 340 21:36 11.07.2020
55 Clear 28 1015 48 10000 2.1 340 21:18 11.07.2020
56 Clear 27 1015 51 10000 2.6 340 20:54 11.07.2020
57 Clear 29 1015 51 10000 2.6 340 20:36 11.07.2020
58 Clear 29 1015 51 10000 2.6 340 20:18 11.07.2020
59 Clear 28 1015 57 10000 3.1 360 19:46 11.07.2020
60 Clear 27 1015 57 10000 3.1 360 19:27 11.07.2020
61 Clear 26 1017 65 10000 4.1 20 18:58 11.07.2020
62 Clear 27 1017 65 10000 4.1 20 18:39 11.07.2020
63 Clear 27 1017 65 10000 4.1 20 18:20 11.07.2020
64 Clear 27 1018 69 10000 3.6 10 17:57 11.07.2020
65 Clear 26 1018 69 10000 3.6 10 17:38 11.07.2020
66 Clear 26 1018 69 10000 3.6 10 17:19 11.07.2020
67 Clear 25 1019 73 10000 4.6 10 16:56 11.07.2020
68 Clear 24 1019 73 10000 4.6 10 16:36 11.07.2020
69 Clear 24 1019 73 10000 4.6 10 16:18 11.07.2020
70 Clear 21 1020 77 10000 4.1 360 15:41 11.07.2020
71 Clear 22 1020 77 10000 4.1 360 15:21 11.07.2020
72 Clear 22 1020 77 10000 4.1 360 15:21 11.07.2020
73 Clear 21 1020 82 10000 5.1 360 14:58 11.07.2020
74 Clear 20 1020 82 10000 5.1 360 14:39 11.07.2020
75 Clear 20 1020 82 10000 5.1 360 14:21 11.07.2020
76 Clear 19 1019 77 10000 4.6 360 13:44 11.07.2020
77 Clear 19 1019 77 10000 4.6 360 13:22 11.07.2020
78 Clear 18 1019 77 10000 4.1 20 12:59 11.07.2020
79 Clear 18 1019 77 10000 4.1 20 12:41 11.07.2020
80 Clear 18 1019 77 10000 4.1 20 12:22 11.07.2020
81 Clear 18 1019 77 10000 3.6 20 11:57 11.07.2020
82 Clear 18 1019 77 10000 3.6 20 11:39 11.07.2020
83 Clear 18 1019 77 10000 3.6 20 11:19 11.07.2020
84 Clear 15 1019 87 10000 1.63 14 10:44 11.07.2020
85 Clear 15 1019 87 10000 1.63 14 10:44 11.07.2020
86 Clear 15 1019 87 10000 1.48 8 10:25 11.07.2020
87 Clear 16 1019 87 10000 1.5 220 09:55 11.07.2020
88 Clear 16 1019 87 10000 1.5 220 09:36 11.07.2020
89 Clouds 16 1019 87 10000 1.5 220 09:18 11.07.2020
90 Clouds 16 1019 82 10000 1 300 08:37 11.07.2020
91 Clear 16 1019 82 10000 1 300 08:19 11.07.2020
92 Clear 17 1020 82 10000 1.5 50 07:46 11.07.2020
93 Clear 17 1020 82 10000 1.5 50 07:27 11.07.2020
94 Clear 18 1020 77 10000 2.1 100 06:56 11.07.2020
95 Clear 18 1020 77 10000 2.1 100 06:22 11.07.2020
96 Clear 19 1021 68 10000 2.6 50 05:36 11.07.2020
97 Clouds 20 1021 68 10000 2.6 50 04:57 11.07.2020
98 Clouds 20 1021 68 10000 2.6 50 04:33 11.07.2020
99 Clouds 20 1021 64 10000 2.6 60 03:38 11.07.2020
100 Clear 21 1021 68 10000 2.1 40 02:51 11.07.2020
101 Clouds 21 1021 68 10000 3.1 90 01:53 11.07.2020
102 Clouds 21 1021 68 10000 3.1 90 01:20 11.07.2020
103 Clouds 21 1020 73 10000 3.6 110 00:41 11.07.2020
104 Clouds 21 1020 73 10000 3.6 110 00:22 11.07.2020
105 Clouds 22 1020 68 10000 4.6 110 23:58 10.07.2020
106 Clouds 22 1020 68 10000 4.6 110 23:58 10.07.2020
107 Clouds 22 1020 68 10000 4.6 110 23:40 10.07.2020
108 Clouds 22 1020 68 10000 4.6 110 23:20 10.07.2020
109 Clouds 22 1020 68 10000 5.1 110 22:47 10.07.2020
110 Clouds 22 1020 68 10000 5.1 110 22:23 10.07.2020
111 Clouds 22 1020 68 10000 4.1 140 21:59 10.07.2020
112 Clouds 23 1020 68 10000 4.1 140 21:38 10.07.2020
113 Clouds 23 1020 68 10000 4.1 140 21:19 10.07.2020
114 Clouds 23 1020 64 10000 4.1 160 20:43 10.07.2020
115 Clouds 23 1020 64 10000 4.1 160 20:24 10.07.2020
116 Clouds 23 1021 64 10000 3.1 160 19:59 10.07.2020
117 Clouds 23 1021 64 10000 3.1 160 19:41 10.07.2020
118 Clouds 23 1021 64 10000 3.1 150 19:21 10.07.2020
119 Clouds 23 1021 64 10000 3.1 150 18:54 10.07.2020
120 Clouds 23 1021 64 10000 3.1 150 18:36 10.07.2020
121 Clouds 23 1022 64 10000 1 30 18:18 10.07.2020
122 Clouds 23 1022 64 10000 1 30 17:41 10.07.2020
123 Clouds 23 1022 64 10000 1 30 17:22 10.07.2020
124 Clouds 22 1023 68 10000 1.5 10 16:57 10.07.2020
125 Clouds 22 1023 68 10000 1.5 10 16:38 10.07.2020
126 Clouds 22 1023 68 10000 1.5 10 16:18 10.07.2020
127 Clouds 21 1023 83 10000 1.5 350 15:43 10.07.2020
128 Clouds 21 1023 83 10000 1.5 350 15:20 10.07.2020
129 Clouds 20 1022 68 10000 2.1 330 14:43 10.07.2020
130 Clouds 20 1022 68 10000 2.1 330 14:23 10.07.2020
131 Clouds 19 1022 72 10000 1 260 13:58 10.07.2020
132 Clouds 19 1022 72 10000 1 260 13:40 10.07.2020
133 Clouds 19 1022 72 10000 1 260 13:22 10.07.2020
134 Clouds 18 1021 72 10000 1.5 220 12:59 10.07.2020
135 Clouds 20 1021 72 10000 1.5 220 12:41 10.07.2020
136 Clouds 20 1021 72 10000 1.5 220 12:22 10.07.2020
137 Clouds 20 1021 72 10000 3.6 200 11:58 10.07.2020
138 Clouds 20 1021 72 10000 3.6 200 11:38 10.07.2020
139 Clouds 18 1021 82 10000 1.5 200 11:18 10.07.2020
140 Clouds 18 1021 82 10000 1 260 10:41 10.07.2020
141 Clouds 18 1021 82 10000 1 260 10:21 10.07.2020
142 Clouds 18 1021 82 10000 1 260 09:56 10.07.2020
143 Clouds 18 1021 82 10000 1 260 09:36 10.07.2020
144 Clouds 18 1021 82 10000 1 260 09:18 10.07.2020
145 Clouds 18 1021 82 10000 1 270 08:55 10.07.2020
146 Clouds 18 1021 82 10000 1 270 08:36 10.07.2020
147 Clouds 20 1021 77 10000 3.1 210 08:18 10.07.2020
148 Clouds 20 1021 77 10000 3.1 210 07:41 10.07.2020
149 Clouds 20 1021 77 10000 3.1 210 07:20 10.07.2020
150 Clouds 20 1022 77 10000 2.1 200 06:48 10.07.2020
151 Clouds 20 1022 77 10000 2.1 230 05:55 10.07.2020
152 Clouds 21 1021 77 10000 3.6 200 04:33 10.07.2020
153 Clouds 21 1021 77 10000 6.2 190 03:31 10.07.2020
154 Clouds 22 1021 73 10000 4.1 210 02:51 10.07.2020
155 Clouds 22 1020 73 10000 4.6 200 01:49 10.07.2020
156 Clouds 22 1019 68 10000 4.6 190 00:48 10.07.2020
157 Clouds 22 1019 68 10000 4.6 190 00:20 10.07.2020
158 Clouds 22 1019 73 10000 4.1 200 23:46 09.07.2020
159 Clouds 22 1019 73 10000 4.1 200 23:22 09.07.2020
160 Clouds 22 1019 73 10000 5.7 210 22:58 09.07.2020
161 Clouds 22 1019 73 10000 5.7 210 22:40 09.07.2020
162 Clouds 22 1019 73 10000 5.7 210 22:21 09.07.2020
163 Clouds 23 1019 69 10000 5.7 200 21:56 09.07.2020
164 Clouds 23 1019 69 10000 5.7 200 21:38 09.07.2020
165 Clouds 23 1019 69 10000 5.7 200 21:19 09.07.2020
166 Clouds 23 1019 73 10000 6.7 200 20:45 09.07.2020
167 Clouds 23 1019 73 10000 6.7 200 20:26 09.07.2020
168 Clouds 24 1018 69 10000 8.7 200 19:59 09.07.2020
169 Clouds 24 1018 69 10000 8.7 200 19:41 09.07.2020
170 Clouds 24 1018 69 10000 8.7 200 19:21 09.07.2020
171 Clouds 25 1018 69 10000 9.3 200 18:43 09.07.2020
172 Clouds 26 1018 65 10000 6.7 190 18:22 09.07.2020
173 Clouds 26 1018 65 10000 6.7 190 17:56 09.07.2020
174 Clouds 27 1018 65 10000 6.7 190 17:38 09.07.2020
175 Clouds 27 1018 65 10000 6.7 190 17:19 09.07.2020
176 Clouds 27 1018 57 10000 5.1 190 16:56 09.07.2020
177 Clouds 27 1018 57 10000 5.1 190 16:38 09.07.2020
178 Clouds 27 1018 57 10000 5.1 190 16:19 09.07.2020
179 Clear 27 1017 69 10000 3.6 60 15:56 09.07.2020
180 Clear 27 1017 69 10000 3.6 60 15:37 09.07.2020
181 Clear 26 1016 73 10000 5.1 40 15:18 09.07.2020
182 Clear 26 1016 73 10000 5.1 40 14:57 09.07.2020
183 Clear 25 1016 73 10000 5.1 40 14:39 09.07.2020
184 Clear 25 1016 73 10000 5.1 40 14:20 09.07.2020
185 Clear 23 1015 73 10000 3.6 60 13:56 09.07.2020
186 Clear 23 1015 73 10000 3.6 60 13:37 09.07.2020
187 Clear 23 1015 73 10000 3.6 60 13:18 09.07.2020
188 Clear 20 1014 83 10000 4.6 340 12:41 09.07.2020
189 Clear 20 1014 83 10000 4.6 340 12:22 09.07.2020
190 Clear 20 1013 83 10000 3.1 320 11:56 09.07.2020
191 Clear 20 1013 83 10000 3.1 320 11:38 09.07.2020
192 Clear 20 1013 83 10000 3.1 320 11:18 09.07.2020
193 Clear 18 1013 88 10000 2.1 50 10:55 09.07.2020
194 Clear 18 1013 88 10000 2.1 50 10:37 09.07.2020
195 Clear 18 1013 88 10000 2.1 50 10:18 09.07.2020
196 Clear 18 1013 88 10000 1 360 09:41 09.07.2020
197 Clear 18 1013 88 10000 1 360 09:22 09.07.2020
198 Clear 18 1013 88 10000 1.5 80 08:49 09.07.2020
199 Clouds 18 1013 88 10000 1.5 80 08:26 09.07.2020
200 Clouds 18 1013 82 10000 1 70 07:50 09.07.2020
201 Clouds 18 1013 82 10000 1 70 07:30 09.07.2020
202 Clouds 19 1013 82 10000 1 50 06:58 09.07.2020
203 Clouds 19 1013 82 10000 1 50 06:20 09.07.2020
204 Clouds 19 1013 82 10000 1 100 05:47 09.07.2020
205 Clouds 21 1012 69 10000 2.6 320 04:28 09.07.2020
206 Clouds 23 1012 78 10000 2.1 130 02:45 09.07.2020
207 Clouds 23 1011 60 10000 3.1 190 01:54 09.07.2020
208 Clouds 23 1011 73 10000 4.1 180 00:59 09.07.2020
209 Clouds 24 1011 73 10000 4.1 180 00:38 09.07.2020
210 Clouds 24 1011 73 10000 4.1 180 00:19 09.07.2020
211 Clouds 25 1011 65 10000 4.6 190 23:43 08.07.2020
212 Clouds 25 1011 65 10000 4.6 190 23:24 08.07.2020
213 Clouds 28 1010 48 10000 4.6 210 22:55 08.07.2020
214 Clouds 30 1010 48 10000 4.6 210 22:36 08.07.2020
215 Clouds 30 1010 48 10000 4.6 210 22:18 08.07.2020
216 Clouds 31 1010 51 10000 3.1 170 21:40 08.07.2020
217 Clouds 31 1010 51 10000 3.1 170 21:22 08.07.2020
218 Clouds 31 1010 51 10000 3.1 50 20:59 08.07.2020
219 Clouds 30 1010 51 10000 3.1 50 20:41 08.07.2020
220 Clouds 30 1010 51 10000 3.1 50 20:23 08.07.2020
221 Clouds 30 1010 51 10000 2.6 20 19:54 08.07.2020
222 Clouds 31 1010 51 10000 2.6 20 19:36 08.07.2020
223 Clouds 31 1010 51 10000 2.6 20 19:18 08.07.2020
224 Clouds 31 1010 40 10000 4.6 340 18:40 08.07.2020
225 Clouds 31 1011 37 10000 5.7 340 18:21 08.07.2020
226 Clouds 31 1011 37 10000 5.7 340 17:57 08.07.2020
227 Clouds 31 1011 37 10000 5.7 340 17:38 08.07.2020
228 Clouds 31 1011 37 10000 5.7 340 17:38 08.07.2020
229 Clouds 31 1011 37 10000 5.7 340 17:20 08.07.2020
230 Clouds 31 1011 37 10000 5.7 340 17:20 08.07.2020
231 Clouds 31 1011 37 10000 5.7 340 17:20 08.07.2020
232 Clouds 30 1012 57 10000 4.6 10 16:57 08.07.2020
233 Clouds 29 1012 57 10000 4.6 10 16:38 08.07.2020
234 Clouds 29 1012 57 10000 4.6 10 16:18 08.07.2020
235 Clouds 27 1013 65 10000 3.1 20 15:57 08.07.2020
236 Clouds 27 1013 65 10000 3.1 20 15:38 08.07.2020
237 Clouds 27 1013 65 10000 3.1 20 15:19 08.07.2020
238 Clouds 24 1013 73 10000 3.1 360 14:42 08.07.2020
239 Clouds 24 1013 73 10000 3.1 360 14:21 08.07.2020
240 Clouds 22 1012 78 10000 1.5 10 13:56 08.07.2020
241 Clouds 22 1012 78 10000 1.5 10 13:37 08.07.2020
242 Clouds 22 1012 78 10000 1.5 10 13:18 08.07.2020
243 Clouds 20 1012 88 10000 3.1 350 12:40 08.07.2020
244 Clouds 20 1012 88 10000 3.1 350 12:20 08.07.2020
245 Clouds 20 1012 88 10000 3.1 350 12:20 08.07.2020
246 Clouds 19 1012 94 10000 2.1 330 11:55 08.07.2020
247 Clouds 19 1012 94 10000 2.1 330 11:37 08.07.2020
248 Clouds 19 1012 94 10000 2.1 330 11:19 08.07.2020
249 Clouds 17 1012 93 10000 1 210 10:42 08.07.2020
250 Clouds 17 1012 93 10000 1 210 10:23 08.07.2020
251 Clouds 18 1012 88 10000 1 350 09:45 08.07.2020
252 Clouds 18 1012 88 10000 1 350 09:25 08.07.2020
253 Clouds 18 1013 93 10000 1.5 50 08:44 08.07.2020
254 Clear 18 1013 93 10000 1.5 50 08:25 08.07.2020
255 Clear 18 1013 93 10000 1 240 07:57 08.07.2020
256 Clear 18 1013 93 10000 1 240 07:38 08.07.2020
257 Clear 18 1013 93 10000 1 240 07:19 08.07.2020
258 Clear 19 1013 88 10000 1 220 06:43 08.07.2020
259 Clear 19 1013 88 10000 1 220 06:24 08.07.2020
260 Clear 20 1013 88 10000 1 120 05:44 08.07.2020
261 Clear 21 1013 94 10000 1 0 05:44 08.07.2020
262 Clear 21 1013 94 10000 1 0 04:44 08.07.2020
263 Clear 22 1013 94 10000 1 110 03:33 08.07.2020
264 Clear 22 1013 94 10000 1 0 02:19 08.07.2020
265 Clear 22 1013 94 10000 1.5 150 01:38 08.07.2020
266 Clear 22 1013 94 10000 4.6 180 00:50 08.07.2020
267 Clear 23 1013 94 10000 4.6 180 00:19 08.07.2020
268 Clear 23 1013 88 10000 6.2 190 23:43 07.07.2020
269 Clouds 24 1013 88 10000 6.2 190 23:22 07.07.2020
270 Clouds 24 1012 83 10000 4.6 170 22:56 07.07.2020
271 Clouds 25 1012 83 10000 4.6 170 22:38 07.07.2020
272 Clouds 25 1012 83 10000 4.6 170 22:19 07.07.2020
273 Clouds 25 1012 83 10000 4.6 160 21:56 07.07.2020
274 Clouds 25 1012 83 10000 4.6 160 21:38 07.07.2020
275 Clear 25 1012 83 10000 4.6 160 21:18 07.07.2020
276 Clear 26 1013 78 10000 2.6 160 20:42 07.07.2020
277 Clear 26 1013 78 10000 2.6 160 20:23 07.07.2020
278 Clear 27 1014 78 9000 4.6 150 19:58 07.07.2020
279 Clear 27 1014 78 9000 4.6 150 19:39 07.07.2020
280 Clear 27 1014 78 9000 4.6 150 19:39 07.07.2020
281 Clear 24 1015 78 6000 2.6 140 19:20 07.07.2020
282 Clear 24 1015 78 6000 2.6 140 18:55 07.07.2020
283 Clear 24 1015 78 6000 2.6 140 18:37 07.07.2020
284 Clear 24 1015 78 6000 2.6 140 18:19 07.07.2020
285 Clear 25 1015 69 6000 1.5 130 17:56 07.07.2020
286 Haze 25 1016 69 5000 1.5 20 17:37 07.07.2020
287 Haze 25 1016 69 5000 1.5 20 17:18 07.07.2020
288 Haze 24 1017 78 5000 2.1 340 16:42 07.07.2020
289 Haze 25 1017 78 5000 2.1 340 16:22 07.07.2020
290 Mist 24 1018 78 5000 2.1 350 15:56 07.07.2020
291 Mist 23 1018 78 5000 2.1 350 15:37 07.07.2020
292 Mist 23 1018 78 5000 2.1 350 15:19 07.07.2020
293 Mist 23 1018 83 5000 1.5 340 14:43 07.07.2020
294 Mist 22 1018 83 5000 1.5 340 14:24 07.07.2020
295 Mist 21 1018 88 5000 2.1 30 13:44 07.07.2020
296 Mist 21 1018 88 5000 2.1 30 13:21 07.07.2020
297 Mist 20 1018 88 5000 2.6 20 12:57 07.07.2020
298 Mist 20 1018 88 5000 2.6 20 12:39 07.07.2020
299 Mist 20 1018 88 5000 2.6 20 12:21 07.07.2020
300 Mist 21 1017 88 5000 2.6 360 11:46 07.07.2020
301 Mist 21 1017 88 4000 2.6 10 11:24 07.07.2020
302 Clouds 20 1018 88 8000 2.6 10 10:58 07.07.2020
303 Clouds 20 1018 88 8000 2.6 10 10:58 07.07.2020
304 Clouds 20 1018 88 8000 2.6 10 10:40 07.07.2020
305 Clouds 20 1018 88 8000 2.6 10 10:21 07.07.2020
306 Mist 20 1018 88 5000 1.5 30 09:55 07.07.2020
307 Mist 20 1018 88 5000 1.5 30 09:37 07.07.2020
308 Mist 20 1018 88 5000 1.5 30 09:18 07.07.2020
309 Clouds 20 1018 94 8000 2.1 330 08:40 07.07.2020
310 Clouds 20 1018 94 8000 2.1 330 08:20 07.07.2020
311 Clouds 21 1018 88 9000 1.5 270 07:39 07.07.2020
312 Clouds 21 1018 88 9000 1.5 270 07:20 07.07.2020
313 Clear 21 1018 88 10000 2.1 270 06:48 07.07.2020
314 Clear 21 1018 88 10000 2.1 270 06:27 07.07.2020
315 Clear 22 1018 83 10000 2.6 310 05:51 07.07.2020
316 Clear 23 1018 83 10000 2.1 190 05:20 07.07.2020
317 Clear 23 1018 83 10000 2.1 190 04:38 07.07.2020
318 Clear 23 1018 78 10000 2.1 210 03:35 07.07.2020
319 Clear 23 1018 78 10000 3.1 190 02:21 07.07.2020
320 Clear 23 1017 73 10000 1 200 01:22 07.07.2020
321 Clear 25 1016 65 10000 1.5 130 00:42 07.07.2020
322 Clear 24 1016 65 10000 1.5 130 00:24 07.07.2020
323 Clear 24 1016 65 10000 2.1 200 23:55 06.07.2020
324 Clear 25 1016 65 10000 2.1 200 23:36 06.07.2020
325 Clear 25 1016 65 10000 2.1 200 23:18 06.07.2020
326 Clear 26 1015 57 10000 3.6 190 22:41 06.07.2020
327 Clear 26 1015 57 10000 3.6 190 22:20 06.07.2020
328 Clear 28 1014 42 10000 4.1 200 21:57 06.07.2020
329 Clear 29 1014 42 10000 4.1 200 21:39 06.07.2020
330 Clear 29 1014 42 10000 4.1 200 21:39 06.07.2020
331 Clear 29 1014 42 10000 4.1 200 21:19 06.07.2020
332 Clear 29 1014 54 10000 3.6 160 20:59 06.07.2020
333 Clear 30 1014 54 10000 3.6 160 20:38 06.07.2020
334 Clear 30 1014 54 10000 3.6 160 20:20 06.07.2020
335 Clear 29 1014 61 10000 4.1 160 19:57 06.07.2020
336 Clear 29 1014 61 10000 4.1 160 19:39 06.07.2020
337 Clear 29 1014 61 10000 4.1 160 19:20 06.07.2020
338 Clear 30 1014 54 10000 1 0 18:55 06.07.2020
339 Clear 30 1014 54 10000 1 0 18:37 06.07.2020
340 Clear 30 1014 54 10000 1 0 18:18 06.07.2020
341 Clear 27 1015 69 10000 2.6 360 17:42 06.07.2020
342 Clear 27 1015 69 10000 2.6 360 17:24 06.07.2020
343 Clear 25 1016 69 10000 3.6 10 16:57 06.07.2020
344 Clear 26 1016 69 10000 3.6 10 16:39 06.07.2020
345 Clear 26 1016 69 10000 3.6 10 16:21 06.07.2020
346 Clear 24 1016 73 10000 3.6 360 15:42 06.07.2020
347 Clear 25 1016 73 10000 3.6 360 15:24 06.07.2020
348 Clear 25 1016 73 10000 3.6 360 15:24 06.07.2020
349 Clear 24 1016 83 10000 4.6 360 14:57 06.07.2020
350 Clear 22 1016 83 10000 4.6 360 14:38 06.07.2020
351 Clear 22 1016 83 10000 4.6 360 14:19 06.07.2020
352 Clear 21 1015 88 10000 3.6 340 13:55 06.07.2020
353 Clear 21 1015 88 10000 3.6 340 13:36 06.07.2020
354 Clear 21 1015 88 10000 3.6 340 13:36 06.07.2020
355 Clear 21 1015 88 10000 3.6 340 13:18 06.07.2020
356 Clear 20 1015 83 10000 4.1 340 12:42 06.07.2020
357 Clear 20 1015 83 10000 4.1 340 12:19 06.07.2020
358 Clear 19 1014 88 10000 3.1 320 11:58 06.07.2020
359 Clear 19 1014 88 10000 3.1 320 11:38 06.07.2020
360 Clear 19 1014 88 10000 3.1 320 11:20 06.07.2020
361 Clear 17 1014 93 10000 2.45 346 10:56 06.07.2020
362 Clear 17 1014 93 10000 2.45 346 10:37 06.07.2020
363 Clear 17 1014 93 10000 2.43 344 10:18 06.07.2020
364 Clear 17 1014 93 10000 1 40 09:41 06.07.2020
365 Clear 17 1014 93 10000 1 40 09:21 06.07.2020
366 Clear 18 1014 88 10000 1 80 08:56 06.07.2020
367 Clear 18 1014 88 10000 1 80 08:38 06.07.2020
368 Clear 18 1014 88 10000 1 80 08:19 06.07.2020
369 Clear 18 1015 88 10000 2.62 356 07:46 06.07.2020
370 Clear 18 1015 88 10000 2.54 1 07:24 06.07.2020
371 Clear 18 1016 88 10000 1.5 80 06:42 06.07.2020
372 Clear 18 1016 88 10000 1.5 80 06:23 06.07.2020
373 Clear 21 1016 69 10000 2.6 320 05:41 06.07.2020
374 Clear 22 1016 69 10000 2.6 320 04:55 06.07.2020
375 Clear 21 1016 73 10000 3.1 290 03:42 06.07.2020
376 Clear 22 1015 78 10000 2.1 340 02:24 06.07.2020
377 Clear 22 1015 73 10000 1.5 20 01:39 06.07.2020
378 Clear 24 1015 61 10000 1.5 310 00:39 06.07.2020
379 Clear 24 1015 61 10000 1.5 310 00:20 06.07.2020
380 Clear 24 1015 54 10000 2.6 300 23:44 05.07.2020
381 Clear 25 1015 54 10000 2.6 300 23:25 05.07.2020
382 Clear 26 1015 54 10000 2.1 320 22:59 05.07.2020
383 Clear 27 1015 54 10000 2.1 320 22:40 05.07.2020
384 Clear 27 1015 54 10000 2.1 320 22:20 05.07.2020
385 Clear 28 1015 54 10000 1.5 340 21:58 05.07.2020
386 Clear 27 1015 54 10000 1.5 340 21:40 05.07.2020
387 Clear 27 1015 54 10000 1.5 340 21:18 05.07.2020
388 Clear 27 1015 57 10000 1.5 340 20:58 05.07.2020
389 Clear 28 1015 57 10000 1.5 340 20:39 05.07.2020
390 Clear 28 1015 57 10000 1.5 340 20:20 05.07.2020
391 Clear 26 1016 61 10000 2.1 330 19:43 05.07.2020
392 Clear 27 1016 61 10000 2.1 330 19:22 05.07.2020
393 Clear 27 1017 69 10000 2.6 340 18:58 05.07.2020
394 Clear 25 1017 69 10000 2.6 340 18:40 05.07.2020
395 Clear 25 1017 69 10000 2.6 340 18:21 05.07.2020
396 Clear 23 1018 73 10000 3.1 340 17:55 05.07.2020
397 Clear 25 1018 73 10000 3.1 340 17:37 05.07.2020
398 Clear 25 1018 73 10000 3.1 340 17:18 05.07.2020
399 Clear 23 1019 78 7000 3.6 330 16:42 05.07.2020
400 Clear 23 1019 78 7000 3.6 330 16:24 05.07.2020
401 Mist 20 1020 88 5000 2.6 10 15:55 05.07.2020
402 Mist 21 1020 88 5000 2.6 10 15:37 05.07.2020
403 Mist 21 1020 88 5000 2.6 10 15:18 05.07.2020
404 Mist 20 1020 88 5000 2.6 10 14:41 05.07.2020
405 Mist 19 1020 88 5000 2.6 10 14:21 05.07.2020
406 Mist 18 1019 93 5000 2.1 10 13:42 05.07.2020
407 Mist 18 1019 93 5000 2.1 10 13:24 05.07.2020
408 Clouds 17 1019 93 7000 1.5 320 12:56 05.07.2020
409 Clouds 18 1019 93 7000 1.5 320 12:38 05.07.2020
410 Clouds 18 1019 93 7000 1.5 320 12:20 05.07.2020
411 Clouds 18 1019 88 7000 2.1 10 11:54 05.07.2020
412 Clouds 18 1019 88 7000 2.1 10 11:36 05.07.2020
413 Clear 17 1019 93 7000 2.1 330 11:18 05.07.2020
414 Clear 17 1019 93 7000 2.1 330 10:42 05.07.2020
415 Clear 17 1019 93 8000 1.5 360 10:19 05.07.2020
416 Clear 17 1019 93 8000 1.5 360 09:58 05.07.2020
417 Clear 17 1019 93 8000 1.5 360 09:40 05.07.2020
418 Clear 17 1019 93 8000 1.5 360 09:20 05.07.2020
419 Clear 16 1019 93 10000 2.6 120 08:47 05.07.2020
420 Clear 16 1019 93 10000 2.6 120 08:29 05.07.2020
421 Clouds 17 1019 93 10000 2.6 50 07:48 05.07.2020
422 Clouds 17 1019 93 10000 2.6 50 07:29 05.07.2020
423 Clouds 18 1019 88 10000 3.6 100 06:52 05.07.2020
424 Clear 19 1020 82 10000 3.1 100 05:48 05.07.2020
425 Clear 20 1019 77 10000 1.5 120 03:35 05.07.2020
426 Clouds 20 1018 77 10000 4.6 70 02:43 05.07.2020
427 Clouds 20 1018 77 10000 4.6 70 02:25 05.07.2020
428 Clouds 21 1018 77 10000 6.2 60 01:41 05.07.2020
429 Clouds 21 1018 77 10000 6.2 60 01:20 05.07.2020
430 Clouds 20 1018 73 10000 1.5 80 00:41 05.07.2020
431 Clouds 20 1018 73 10000 1.5 80 00:23 05.07.2020
432 Clouds 21 1018 77 10000 2.6 80 23:48 04.07.2020
433 Clouds 21 1018 77 10000 2.6 80 23:30 04.07.2020
434 Clouds 22 1018 73 10000 3.6 100 22:58 04.07.2020
435 Clouds 22 1018 73 10000 3.6 100 22:40 04.07.2020
436 Clouds 22 1018 73 10000 3.6 100 22:21 04.07.2020
437 Clouds 22 1018 73 10000 4.1 110 21:55 04.07.2020
438 Clouds 22 1018 73 10000 4.1 110 21:36 04.07.2020
439 Clouds 22 1018 73 10000 4.1 110 21:18 04.07.2020
440 Clouds 22 1018 73 10000 4.1 110 20:41 04.07.2020
441 Clouds 23 1018 73 10000 4.1 110 20:20 04.07.2020
442 Clouds 23 1018 73 10000 3.6 120 19:55 04.07.2020
443 Clouds 23 1018 73 10000 3.6 120 19:37 04.07.2020
444 Clouds 22 1019 73 10000 4.1 110 19:19 04.07.2020
445 Clouds 22 1019 73 10000 4.1 110 18:42 04.07.2020
446 Clouds 21 1020 77 10000 3.6 140 18:22 04.07.2020
447 Clouds 21 1020 77 10000 3.6 140 17:45 04.07.2020
448 Clouds 21 1020 77 10000 3.6 140 17:26 04.07.2020
449 Clouds 21 1021 77 10000 2.1 180 16:59 04.07.2020
450 Clouds 21 1021 77 10000 2.1 180 16:59 04.07.2020
451 Clouds 21 1021 77 10000 2.1 180 16:39 04.07.2020
452 Clouds 21 1021 77 10000 2.1 180 16:21 04.07.2020
453 Clouds 21 1021 77 10000 1 0 15:58 04.07.2020
454 Clouds 21 1021 77 10000 1 0 15:40 04.07.2020
455 Clouds 21 1021 77 10000 1 0 15:21 04.07.2020
456 Clouds 20 1021 82 10000 1 0 14:56 04.07.2020
457 Clouds 19 1021 82 10000 1 0 14:36 04.07.2020
458 Clouds 19 1021 82 10000 1 0 14:18 04.07.2020
459 Clouds 19 1020 88 10000 1.5 20 13:41 04.07.2020
460 Clouds 19 1020 88 10000 1.5 20 13:19 04.07.2020
461 Clouds 19 1020 88 8000 3.1 30 12:56 04.07.2020
462 Clouds 19 1020 88 8000 3.1 30 12:38 04.07.2020
463 Rain 19 1019 88 6000 3.1 320 12:18 04.07.2020
464 Rain 19 1019 88 6000 3.1 320 11:43 04.07.2020
465 Rain 19 1019 88 6000 3.1 320 11:23 04.07.2020
466 Clouds 18 1020 88 8000 2.1 330 10:55 04.07.2020
467 Clouds 18 1020 88 8000 2.1 330 10:36 04.07.2020
468 Clouds 18 1020 88 8000 2.1 330 10:18 04.07.2020
469 Clouds 18 1020 88 8000 2.1 330 10:18 04.07.2020
470 Clouds 18 1020 88 8000 3.6 320 09:41 04.07.2020
471 Clouds 18 1020 88 8000 3.6 320 09:21 04.07.2020
472 Clouds 19 1020 82 8000 2.1 350 08:58 04.07.2020
473 Clouds 19 1020 82 8000 2.1 350 08:39 04.07.2020
474 Clouds 19 1020 82 8000 2.1 350 08:20 04.07.2020
475 Clouds 18 1020 88 9000 1 0 07:40 04.07.2020
476 Clouds 19 1020 77 9000 1 200 07:18 04.07.2020
477 Clouds 19 1020 77 9000 1 200 06:38 04.07.2020
478 Clouds 19 1020 77 8000 2.1 160 06:18 04.07.2020
479 Clouds 19 1020 88 10000 2.6 180 05:28 04.07.2020
480 Rain 19 1020 88 8000 3.6 110 03:56 04.07.2020
481 Rain 20 1020 82 7000 2.6 150 02:41 04.07.2020
482 Clouds 20 1019 82 10000 3.6 200 01:40 04.07.2020
483 Rain 20 1018 82 10000 4.6 190 00:54 04.07.2020
484 Rain 20 1018 82 10000 4.6 190 00:36 04.07.2020
485 Rain 20 1018 82 10000 4.6 190 00:18 04.07.2020
486 Clouds 21 1018 73 10000 6.7 190 23:39 03.07.2020
487 Clouds 21 1018 73 10000 6.7 190 23:18 03.07.2020
488 Clouds 21 1017 73 10000 6.2 190 22:42 03.07.2020
489 Clouds 21 1017 73 10000 6.2 190 22:24 03.07.2020
490 Clouds 22 1017 68 10000 6.2 190 21:59 03.07.2020
491 Clouds 22 1017 68 10000 6.2 190 21:38 03.07.2020
492 Clouds 22 1017 68 10000 6.2 190 21:19 03.07.2020
493 Clouds 22 1016 68 10000 7.2 190 20:43 03.07.2020
494 Clouds 22 1016 68 10000 7.2 190 20:25 03.07.2020
495 Clouds 22 1016 68 10000 7.7 190 19:59 03.07.2020
496 Clouds 22 1016 68 10000 5.1 190 19:39 03.07.2020
497 Clouds 22 1016 68 10000 5.1 190 19:18 03.07.2020
498 Clouds 22 1016 68 10000 5.1 190 18:45 03.07.2020
499 Clouds 22 1017 68 10000 5.1 190 18:24 03.07.2020
500 Clouds 22 1017 68 10000 5.1 190 17:59 03.07.2020
501 Clouds 22 1017 68 10000 5.1 190 17:41 03.07.2020
502 Clouds 22 1017 68 10000 5.1 190 17:20 03.07.2020
503 Clouds 22 1017 68 10000 0.5 130 16:41 03.07.2020
504 Clouds 22 1017 68 10000 0.5 130 16:23 03.07.2020
505 Clouds 22 1018 68 10000 2.1 70 15:46 03.07.2020
506 Clouds 22 1018 68 10000 2.1 70 15:24 03.07.2020
507 Clouds 21 1018 68 10000 1 200 14:58 03.07.2020
508 Clouds 21 1018 68 10000 1 200 14:39 03.07.2020
509 Clouds 21 1018 68 10000 1 200 14:20 03.07.2020
510 Clouds 20 1017 68 10000 2.1 270 13:47 03.07.2020
511 Clouds 20 1017 68 10000 2.1 270 13:29 03.07.2020
512 Clouds 19 1017 72 10000 2.6 310 12:57 03.07.2020
513 Clouds 20 1016 72 10000 1.5 230 12:39 03.07.2020
514 Clouds 20 1016 72 10000 1.5 230 12:20 03.07.2020
515 Clouds 20 1015 77 10000 2.6 310 11:43 03.07.2020
516 Clouds 20 1015 77 10000 2.6 310 11:25 03.07.2020
517 Clouds 19 1015 77 10000 1 320 10:58 03.07.2020
518 Clouds 19 1015 77 10000 1 320 10:39 03.07.2020
519 Clouds 19 1015 77 10000 1 320 10:20 03.07.2020
520 Clouds 19 1016 77 10000 1 250 09:56 03.07.2020
521 Clouds 19 1016 77 10000 1 250 09:37 03.07.2020
522 Clouds 19 1016 77 10000 1 250 09:18 03.07.2020
523 Clouds 19 1016 77 10000 1.5 280 08:40 03.07.2020
524 Clouds 19 1016 77 10000 1.5 280 08:19 03.07.2020
525 Clouds 19 1016 77 10000 1 300 07:50 03.07.2020
526 Clouds 19 1016 77 10000 1 300 07:28 03.07.2020
527 Clouds 19 1017 77 10000 2.1 210 06:58 03.07.2020
528 Clouds 19 1017 77 10000 2.1 210 06:25 03.07.2020
529 Clouds 19 1017 77 10000 2.1 210 06:25 03.07.2020
530 Clouds 20 1017 77 10000 3.6 190 05:22 03.07.2020
531 Clouds 21 1017 68 10000 3.6 190 03:46 03.07.2020
532 Clouds 21 1016 68 10000 3.1 170 02:49 03.07.2020
533 Clouds 21 1016 68 10000 3.1 170 02:30 03.07.2020
534 Clouds 21 1016 68 10000 3.1 160 01:30 03.07.2020
535 Clouds 21 1016 68 10000 4.1 170 00:58 03.07.2020
536 Clouds 21 1016 68 10000 4.1 170 00:39 03.07.2020
537 Clouds 21 1015 64 10000 4.1 170 23:53 02.07.2020
538 Clouds 21 1015 64 10000 4.1 170 23:21 02.07.2020
539 Clouds 21 1015 68 10000 4.1 180 22:59 02.07.2020
540 Clouds 22 1015 68 10000 4.1 180 22:41 02.07.2020
541 Clouds 22 1015 68 10000 4.1 180 22:21 02.07.2020
542 Clouds 22 1014 60 10000 5.1 180 21:59 02.07.2020
543 Clouds 22 1014 60 10000 5.1 180 21:41 02.07.2020
544 Clouds 22 1014 60 10000 5.1 180 21:19 02.07.2020
545 Clouds 22 1014 64 10000 5.1 180 20:58 02.07.2020
546 Clouds 23 1014 64 10000 5.1 180 20:39 02.07.2020
547 Clouds 23 1014 64 10000 5.1 180 20:39 02.07.2020
548 Clouds 23 1014 64 10000 5.1 180 20:19 02.07.2020
549 Clouds 23 1014 60 10000 4.6 170 19:43 02.07.2020
550 Clouds 23 1015 60 10000 4.1 180 19:24 02.07.2020
551 Clouds 22 1015 60 10000 4.1 180 18:59 02.07.2020
552 Clouds 23 1015 60 10000 4.1 180 18:40 02.07.2020
553 Clouds 23 1015 60 10000 4.1 180 18:22 02.07.2020
554 Clouds 23 1015 60 10000 4.1 160 17:57 02.07.2020
555 Clouds 23 1015 60 10000 4.1 160 17:38 02.07.2020
556 Clouds 23 1015 60 10000 4.1 160 17:18 02.07.2020
557 Clouds 22 1016 64 10000 3.1 130 16:42 02.07.2020
558 Clouds 22 1016 64 10000 3.1 130 16:21 02.07.2020
559 Clouds 22 1016 60 10000 1.5 30 15:58 02.07.2020
560 Clouds 23 1016 60 10000 1.5 30 15:38 02.07.2020
561 Clouds 22 1016 60 10000 1.5 30 15:20 02.07.2020
562 Clouds 21 1016 68 10000 1.5 330 14:45 02.07.2020
563 Clouds 21 1016 68 10000 1.5 330 14:23 02.07.2020
564 Clouds 21 1015 64 10000 1.5 320 13:57 02.07.2020
565 Clouds 20 1015 64 10000 1.5 320 13:39 02.07.2020
566 Clouds 20 1015 64 10000 1.5 320 13:19 02.07.2020
567 Clouds 20 1015 60 10000 1 220 12:57 02.07.2020
568 Clouds 21 1015 60 10000 1 220 12:38 02.07.2020
569 Clouds 21 1015 60 10000 1 220 12:19 02.07.2020
570 Clouds 21 1014 64 10000 0.5 250 11:42 02.07.2020
571 Clouds 21 1014 64 10000 0.5 250 11:24 02.07.2020
572 Clouds 20 1014 64 10000 4.1 200 10:47 02.07.2020
573 Clouds 20 1014 64 10000 4.1 200 10:27 02.07.2020
574 Clouds 21 1014 60 10000 3.1 230 09:57 02.07.2020
575 Clouds 21 1014 60 10000 3.1 230 09:37 02.07.2020
576 Clouds 21 1014 60 10000 3.1 230 09:19 02.07.2020
577 Clouds 21 1014 60 10000 4.1 210 08:43 02.07.2020
578 Clouds 21 1014 60 10000 4.1 210 08:24 02.07.2020
579 Clouds 20 1015 57 0 2.66 225 07:56 02.07.2020
580 Clouds 22 1014 60 10000 5.1 220 07:37 02.07.2020
581 Clouds 22 1014 60 10000 5.1 220 07:18 02.07.2020
582 Clouds 22 1014 60 10000 5.1 220 06:40 02.07.2020
583 Clouds 22 1014 60 10000 5.1 220 06:20 02.07.2020
584 Clouds 22 1014 56 10000 3.6 230 05:44 02.07.2020
585 Clouds 22 1013 49 10000 3.6 220 03:55 02.07.2020
586 Clouds 22 1013 49 10000 3.6 220 03:31 02.07.2020
587 Clouds 23 1010 60 10000 6.7 200 00:54 02.07.2020
588 Clouds 23 1010 60 10000 6.7 200 00:25 02.07.2020
589 Clouds 24 1009 60 10000 8.7 210 23:48 01.07.2020
590 Clouds 24 1009 60 10000 8.7 210 23:30 01.07.2020
591 Clouds 26 1008 69 10000 9.8 190 22:57 01.07.2020
592 Clouds 27 1008 69 10000 9.8 190 22:38 01.07.2020
593 Clouds 27 1008 69 10000 9.8 190 22:19 01.07.2020
594 Clouds 29 1006 48 10000 3.1 310 21:58 01.07.2020
595 Clouds 29 1006 48 10000 3.1 310 21:40 01.07.2020
596 Clouds 29 1006 48 10000 3.1 310 21:22 01.07.2020
597 Clouds 28 1006 54 10000 5.1 340 20:58 01.07.2020
598 Clouds 29 1006 54 10000 5.1 340 20:40 01.07.2020
599 Clouds 29 1006 54 10000 5.1 340 20:21 01.07.2020
600 Clouds 30 1006 42 10000 4.6 320 19:55 01.07.2020
601 Clouds 29 1006 42 10000 4.6 320 19:37 01.07.2020
602 Clouds 29 1006 42 10000 4.6 320 19:18 01.07.2020
603 Clouds 29 1005 42 10000 5.1 300 18:42 01.07.2020
604 Clouds 29 1005 42 10000 5.1 300 18:21 01.07.2020
605 Clouds 29 1005 42 10000 5.1 300 18:21 01.07.2020
606 Clouds 29 1007 42 10000 4.1 300 17:59 01.07.2020
607 Clouds 28 1007 42 10000 4.1 300 17:39 01.07.2020
608 Clouds 28 1007 42 10000 4.1 300 17:19 01.07.2020
609 Clouds 28 1007 42 10000 5.1 320 16:46 01.07.2020
610 Clouds 28 1007 42 10000 5.1 320 16:28 01.07.2020
611 Clouds 28 1007 48 10000 5.1 310 15:56 01.07.2020
612 Clouds 28 1007 48 10000 5.1 310 15:38 01.07.2020
613 Clouds 28 1007 48 10000 5.1 310 15:20 01.07.2020
614 Clouds 26 1007 69 10000 3.1 20 14:44 01.07.2020
615 Clouds 26 1007 69 10000 3.1 20 14:22 01.07.2020
616 Clouds 25 1007 73 10000 3.1 40 13:59 01.07.2020
617 Clouds 25 1007 73 10000 3.1 40 13:39 01.07.2020
618 Clouds 24 1006 73 10000 3.6 350 13:20 01.07.2020
619 Clouds 23 1006 73 10000 3.6 350 12:57 01.07.2020
620 Clouds 22 1006 73 10000 3.6 350 12:39 01.07.2020
621 Clouds 22 1006 73 10000 3.6 350 12:20 01.07.2020
622 Clouds 22 1006 73 10000 5.1 340 11:44 01.07.2020
623 Clouds 22 1006 73 10000 5.1 340 11:44 01.07.2020
624 Clouds 22 1006 73 10000 5.1 340 11:44 01.07.2020
625 Clouds 22 1006 73 10000 5.1 340 11:25 01.07.2020
626 Clouds 21 1008 77 10000 4.1 280 10:59 01.07.2020
627 Clouds 21 1008 77 10000 4.1 280 10:41 01.07.2020
628 Clouds 21 1008 77 10000 4.1 280 10:22 01.07.2020
629 Clouds 22 1008 73 10000 5.7 240 09:58 01.07.2020
630 Clouds 22 1008 73 10000 5.7 240 09:37 01.07.2020
631 Clouds 22 1008 73 10000 5.7 240 09:18 01.07.2020
632 Clouds 25 1009 53 10000 7.7 270 08:41 01.07.2020
633 Clouds 25 1009 53 10000 7.7 270 08:23 01.07.2020
634 Clouds 26 1009 50 10000 6.7 240 07:58 01.07.2020
635 Clouds 26 1009 50 10000 6.7 240 07:38 01.07.2020
636 Clouds 26 1009 50 10000 6.7 240 07:20 01.07.2020
637 Clouds 25 1009 57 10000 4.1 360 06:49 01.07.2020
638 Clouds 25 1009 57 10000 4.1 360 06:27 01.07.2020
639 Clouds 24 1009 69 10000 7.2 20 04:56 01.07.2020
640 Clouds 24 1010 64 10000 2.6 320 03:48 01.07.2020
641 Clouds 24 1010 64 10000 2.6 320 03:27 01.07.2020
642 Clouds 25 1010 64 10000 3.98 4 02:41 01.07.2020
643 Clouds 25 1010 65 10000 3.1 240 01:48 01.07.2020
644 Clouds 25 1009 65 10000 3.6 20 00:43 01.07.2020
645 Clouds 24 1009 65 10000 3.6 20 00:25 01.07.2020
646 Clouds 25 1009 54 10000 2.1 10 23:42 30.06.2020
647 Clouds 26 1009 54 10000 2.1 10 23:23 30.06.2020
648 Clouds 26 1009 61 10000 4.1 10 22:59 30.06.2020
649 Clouds 26 1009 61 10000 4.1 10 22:40 30.06.2020
650 Clouds 27 1009 61 10000 4.1 10 22:18 30.06.2020
651 Clouds 28 1010 51 10000 5.1 360 21:41 30.06.2020
652 Clouds 28 1010 51 10000 5.1 360 21:41 30.06.2020
653 Clouds 28 1010 51 10000 5.1 360 21:19 30.06.2020
654 Clouds 28 1010 54 10000 2.1 360 20:55 30.06.2020
655 Clouds 28 1010 54 10000 2.1 360 20:37 30.06.2020
656 Clouds 28 1010 54 10000 2.1 360 20:19 30.06.2020
657 Clouds 28 1011 51 10000 2.1 40 19:42 30.06.2020
658 Clouds 27 1011 51 10000 2.1 40 19:19 30.06.2020
659 Clouds 27 1011 51 10000 2.1 40 19:19 30.06.2020
660 Clouds 26 1013 61 10000 3.1 340 18:46 30.06.2020
661 Clouds 26 1013 61 10000 3.1 340 18:21 30.06.2020
662 Clouds 25 1014 69 10000 2.6 340 17:59 30.06.2020
663 Clouds 25 1014 69 10000 2.6 340 17:38 30.06.2020
664 Clouds 25 1014 69 10000 2.6 340 17:19 30.06.2020
665 Clouds 25 1014 69 10000 2.6 340 17:19 30.06.2020
666 Clouds 22 1016 69 10000 2.6 320 16:54 30.06.2020
667 Clouds 22 1016 69 10000 2.6 320 16:36 30.06.2020
668 Clouds 22 1016 69 10000 2.6 320 16:18 30.06.2020
669 Clouds 22 1017 73 10000 2.1 350 15:41 30.06.2020
670 Clouds 22 1017 73 10000 2.1 350 15:22 30.06.2020
671 Clouds 22 1017 68 10000 0.5 0 14:56 30.06.2020
672 Clouds 21 1017 68 10000 0.5 0 14:38 30.06.2020
673 Clouds 21 1017 68 10000 0.5 0 14:18 30.06.2020
674 Clouds 20 1017 77 10000 2.1 340 13:41 30.06.2020
675 Clouds 20 1017 77 10000 2.1 340 13:21 30.06.2020
676 Clouds 18 1017 82 10000 1.5 290 12:59 30.06.2020
677 Clouds 18 1017 82 10000 1.5 290 12:40 30.06.2020
678 Clouds 18 1017 82 10000 1.5 290 12:21 30.06.2020
679 Clouds 18 1017 82 10000 1.5 290 12:21 30.06.2020
680 Clouds 18 1017 77 10000 2.1 360 11:58 30.06.2020
681 Clouds 18 1017 77 10000 2.1 360 11:39 30.06.2020
682 Clouds 18 1017 77 10000 2.1 360 11:39 30.06.2020
683 Clouds 18 1017 77 10000 2.1 360 11:19 30.06.2020
684 Clouds 16 1017 93 10000 1 30 10:58 30.06.2020
685 Clouds 23 1020 73 10000 1.5 50 16:43 28.06.2020
686 Clouds 23 1020 73 10000 1.5 50 16:24 28.06.2020
687 Clouds 22 1020 73 10000 2.6 360 15:56 28.06.2020
688 Clouds 22 1020 73 10000 2.6 360 15:38 28.06.2020
689 Clouds 22 1020 73 10000 2.6 360 15:18 28.06.2020
690 Clouds 22 1020 78 10000 3.1 360 14:46 28.06.2020
691 Clouds 21 1020 78 10000 3.1 360 14:28 28.06.2020
692 Clouds 20 1019 77 10000 2.6 350 13:58 28.06.2020
693 Clouds 20 1019 77 10000 2.6 350 13:38 28.06.2020
694 Clouds 20 1019 82 10000 2.1 340 13:19 28.06.2020
695 Clouds 20 1019 82 10000 2.1 340 12:56 28.06.2020
696 Clouds 20 1019 82 10000 2.1 340 12:37 28.06.2020
697 Clouds 20 1019 82 10000 2.1 340 12:19 28.06.2020
698 Clouds 19 1018 82 10000 2.1 320 11:56 28.06.2020
699 Clouds 19 1018 82 10000 2.1 320 11:37 28.06.2020
700 Clouds 19 1018 82 10000 2.1 320 11:19 28.06.2020
701 Clouds 19 1018 82 10000 1.5 320 10:55 28.06.2020
702 Clouds 19 1018 82 10000 1.5 320 10:36 28.06.2020
703 Clouds 19 1018 82 10000 1.5 320 10:18 28.06.2020
704 Clouds 19 1018 88 10000 2.1 20 09:39 28.06.2020
705 Clouds 19 1018 88 10000 2.1 20 09:21 28.06.2020
706 Clouds 19 1018 82 10000 1.5 330 08:48 28.06.2020
707 Clouds 19 1018 82 10000 1.5 330 08:26 28.06.2020
708 Clouds 19 1018 88 10000 2.6 320 07:49 28.06.2020
709 Clouds 19 1018 88 10000 2.6 320 07:29 28.06.2020
710 Clouds 20 1018 77 10000 3.1 270 06:44 28.06.2020
711 Clouds 20 1018 77 10000 3.1 270 06:24 28.06.2020
712 Clouds 25 1017 77 10000 1.5 140 05:26 28.06.2020
713 Clouds 21 1017 73 10000 1 210 03:33 28.06.2020
714 Clouds 21 1016 77 10000 2.1 200 02:47 28.06.2020
715 Clouds 20 1016 82 10000 2.6 200 01:56 28.06.2020
716 Clouds 20 1016 82 10000 2.6 200 01:27 28.06.2020
717 Clouds 21 1016 77 10000 4.6 220 00:51 28.06.2020
718 Rain 22 1015 73 10000 4.1 330 00:27 28.06.2020
719 Rain 22 1015 73 10000 4.1 330 23:43 27.06.2020
720 Rain 21 1015 73 10000 4.1 330 23:24 27.06.2020
721 Clouds 22 1015 83 10000 3.1 240 22:59 27.06.2020
722 Clouds 21 1015 83 10000 3.1 240 22:40 27.06.2020
723 Clouds 22 1015 83 10000 3.1 240 22:40 27.06.2020
724 Clouds 21 1015 83 10000 3.1 240 22:22 27.06.2020
725 Rain 22 1015 88 6000 8.7 210 21:57 27.06.2020
726 Rain 23 1014 69 8000 7.2 240 21:38 27.06.2020
727 Rain 23 1014 69 8000 7.2 240 21:20 27.06.2020
728 Clouds 23 1012 64 10000 6.7 250 20:45 27.06.2020
729 Clouds 24 1012 64 10000 6.7 250 20:19 27.06.2020
730 Clouds 24 1012 64 10000 6.7 250 20:19 27.06.2020
731 Clouds 25 1011 69 10000 8.2 200 19:56 27.06.2020
732 Clouds 27 1011 69 10000 8.2 200 19:37 27.06.2020
733 Clouds 28 1011 61 10000 8.2 190 19:18 27.06.2020
734 Clouds 28 1011 65 10000 3.6 40 18:47 27.06.2020
735 Clouds 27 1011 65 10000 3.6 40 18:28 27.06.2020
736 Clouds 27 1012 69 10000 1.5 80 17:59 27.06.2020
737 Clouds 27 1012 69 10000 1.5 80 17:59 27.06.2020
738 Clouds 27 1012 69 10000 1.5 80 17:39 27.06.2020
739 Clouds 26 1012 69 10000 1.5 80 17:19 27.06.2020
740 Clear 25 1013 73 10000 2.1 10 16:56 27.06.2020
741 Clear 25 1013 73 10000 2.1 10 16:38 27.06.2020
742 Clear 25 1013 73 10000 2.1 10 16:18 27.06.2020
743 Clear 23 1013 78 10000 2.1 30 15:42 27.06.2020
744 Clear 23 1013 78 10000 2.1 30 15:22 27.06.2020
745 Clear 23 1014 78 10000 1.5 340 14:54 27.06.2020
746 Clear 23 1014 78 10000 1.5 340 14:36 27.06.2020
747 Clear 23 1014 78 10000 1.5 340 14:18 27.06.2020
748 Clear 22 1013 83 10000 2.1 330 13:38 27.06.2020
749 Clear 22 1013 83 10000 2.1 330 13:20 27.06.2020
750 Clear 20 1013 88 10000 2.1 350 12:58 27.06.2020
751 Clear 20 1013 88 10000 2.1 350 12:40 27.06.2020
752 Clear 20 1013 88 10000 2.1 350 12:21 27.06.2020
753 Clear 20 1013 88 10000 1.64 15 11:55 27.06.2020
754 Clear 20 1013 88 10000 1.64 15 11:37 27.06.2020
755 Clear 20 1013 88 10000 1.16 360 11:18 27.06.2020
756 Clouds 19 1013 93 10000 1 110 10:39 27.06.2020
757 Clouds 19 1013 93 10000 1 110 10:19 27.06.2020
758 Clouds 20 1013 88 10000 1.48 7 09:54 27.06.2020
759 Clouds 20 1013 88 10000 1.48 7 09:36 27.06.2020
760 Clouds 20 1013 88 10000 1.53 14 09:18 27.06.2020
761 Clouds 21 1014 88 10000 1.53 14 08:40 27.06.2020
762 Clouds 21 1014 88 10000 1.39 15 08:22 27.06.2020
763 Clouds 21 1014 88 10000 2.1 80 07:46 27.06.2020
764 Clouds 21 1014 88 10000 2.1 80 07:24 27.06.2020
765 Clouds 21 1015 83 0 2.1 110 06:50 27.06.2020
766 Clouds 21 1015 83 0 2.1 110 06:31 27.06.2020
767 Clouds 23 1016 83 10000 2.1 80 04:24 27.06.2020
768 Clouds 23 1016 88 10000 1.5 170 03:54 27.06.2020
769 Clouds 23 1016 88 10000 1.5 170 03:30 27.06.2020
770 Clouds 23 1017 83 10000 2.1 140 02:39 27.06.2020
771 Clouds 23 1017 83 10000 2.1 140 02:20 27.06.2020
772 Clouds 23 1017 83 10000 3.6 160 01:24 27.06.2020
773 Clouds 23 1017 83 10000 5.1 180 00:41 27.06.2020
774 Clouds 23 1017 83 10000 6.2 180 23:47 26.06.2020
775 Clouds 23 1017 83 10000 6.2 180 23:27 26.06.2020
776 Clouds 23 1017 83 10000 6.2 180 23:27 26.06.2020
777 Clouds 23 1016 83 10000 6.2 170 22:58 26.06.2020
778 Clouds 24 1016 83 10000 6.2 170 22:39 26.06.2020
779 Clouds 24 1016 83 10000 6.2 170 22:20 26.06.2020
780 Clouds 24 1016 73 10000 6.2 170 21:58 26.06.2020
781 Clouds 24 1016 73 10000 6.2 170 21:39 26.06.2020
782 Clouds 24 1016 73 10000 6.2 170 21:20 26.06.2020
783 Clouds 25 1016 73 10000 7.7 180 20:47 26.06.2020
784 Clouds 25 1016 73 10000 7.7 180 20:47 26.06.2020
785 Clouds 26 1016 73 10000 7.7 180 20:26 26.06.2020
786 Clouds 26 1016 73 10000 6.7 170 19:55 26.06.2020
787 Clouds 26 1016 73 10000 6.7 170 19:37 26.06.2020
788 Clouds 26 1016 73 10000 6.7 170 19:18 26.06.2020
789 Clouds 26 1016 69 10000 5.7 170 18:41 26.06.2020
790 Clouds 26 1016 69 10000 5.7 170 18:23 26.06.2020
791 Clouds 27 1017 65 10000 5.7 170 17:45 26.06.2020
792 Clouds 27 1017 65 10000 5.7 170 17:27 26.06.2020
793 Clouds 27 1017 73 10000 2.1 60 16:59 26.06.2020
794 Clouds 26 1017 73 10000 2.1 60 16:41 26.06.2020
795 Clouds 26 1017 73 10000 2.1 60 16:21 26.06.2020
796 Clouds 25 1017 69 10000 3.6 330 15:41 26.06.2020
797 Clouds 25 1017 69 10000 3.6 330 15:21 26.06.2020
798 Clouds 24 1016 78 10000 4.1 350 14:58 26.06.2020
799 Clouds 24 1016 78 10000 4.1 350 14:39 26.06.2020
800 Clouds 24 1016 78 10000 4.1 350 14:21 26.06.2020
801 Clouds 24 1016 73 10000 3.6 340 13:45 26.06.2020
802 Clouds 23 1016 73 10000 3.6 340 13:24 26.06.2020
803 Clouds 23 1016 69 10000 1 60 12:57 26.06.2020
804 Clouds 24 1016 69 10000 1 60 12:38 26.06.2020
805 Clouds 24 1016 69 10000 1 60 12:19 26.06.2020
806 Clouds 24 1016 61 10000 7.2 230 11:57 26.06.2020
807 Clouds 24 1016 61 10000 7.2 230 11:38 26.06.2020
808 Clouds 24 1016 61 10000 7.2 230 11:20 26.06.2020
809 Clouds 23 1015 69 10000 6.2 250 10:57 26.06.2020
810 Clouds 23 1015 69 10000 6.2 250 10:37 26.06.2020
811 Clouds 23 1015 69 10000 6.2 250 10:18 26.06.2020
812 Clouds 19 1015 82 10000 1.5 290 09:43 26.06.2020
813 Clouds 19 1015 82 10000 1.5 290 09:23 26.06.2020
814 Clouds 18 1014 88 10000 1 240 08:55 26.06.2020
815 Clouds 18 1014 88 10000 1 240 08:28 26.06.2020
816 Clouds 19 1013 82 10000 1 30 07:53 26.06.2020
817 Clouds 19 1013 82 10000 1 30 07:24 26.06.2020
818 Clouds 20 1014 82 10000 1.5 140 06:58 26.06.2020
819 Clouds 20 1014 82 10000 1.5 140 06:36 26.06.2020
820 Clouds 21 1014 77 10000 2.6 140 05:59 26.06.2020
821 Clouds 23 1013 64 10000 3.1 310 05:33 26.06.2020
822 Clouds 23 1013 64 10000 2.6 310 03:30 26.06.2020
823 Clouds 23 1013 69 10000 3.1 320 02:22 26.06.2020
824 Clouds 22 1013 83 10000 1.5 110 01:19 26.06.2020
825 Clouds 22 1013 83 10000 1.5 110 00:39 26.06.2020
826 Clouds 23 1013 61 10000 2.1 210 00:19 26.06.2020
827 Clouds 25 1013 61 10000 2.1 210 23:41 25.06.2020
828 Clouds 25 1013 61 10000 2.1 210 23:18 25.06.2020
829 Clouds 26 1012 65 10000 2.6 170 22:56 25.06.2020
830 Clouds 26 1012 65 10000 2.6 170 22:36 25.06.2020
831 Clouds 26 1012 65 10000 2.6 170 22:18 25.06.2020
832 Clouds 28 1012 57 10000 2.1 10 21:54 25.06.2020
833 Clouds 29 1012 57 10000 2.1 10 21:36 25.06.2020
834 Clouds 29 1012 57 10000 2.1 10 21:18 25.06.2020
835 Clouds 28 1012 61 10000 4.1 20 20:44 25.06.2020
836 Clouds 29 1012 61 10000 4.1 20 20:23 25.06.2020
837 Clouds 30 1013 48 10000 1.5 10 19:58 25.06.2020
838 Clouds 28 1013 48 10000 1.5 10 19:39 25.06.2020
839 Clouds 28 1014 51 10000 2.6 10 19:19 25.06.2020
840 Clouds 28 1014 51 10000 2.6 10 18:55 25.06.2020
841 Clouds 29 1014 51 10000 2.6 10 18:36 25.06.2020
842 Clouds 29 1014 51 10000 2.6 10 18:18 25.06.2020
843 Clouds 27 1015 50 10000 2.6 350 17:39 25.06.2020
844 Clouds 27 1015 50 10000 2.6 350 17:19 25.06.2020
845 Clouds 26 1016 69 10000 2.6 340 16:55 25.06.2020
846 Clouds 26 1016 69 10000 2.6 340 16:36 25.06.2020
847 Clouds 26 1016 69 10000 2.6 340 16:18 25.06.2020
848 Clouds 24 1016 69 10000 4.1 10 15:41 25.06.2020
849 Clouds 24 1016 69 10000 4.1 10 15:19 25.06.2020
850 Clouds 23 1016 83 10000 5.1 10 14:43 25.06.2020
851 Clouds 22 1016 83 10000 5.1 10 14:23 25.06.2020
852 Clouds 21 1015 73 10000 4.1 340 13:56 25.06.2020
853 Clouds 21 1015 73 10000 4.1 340 13:38 25.06.2020
854 Clouds 21 1015 73 10000 4.1 340 13:19 25.06.2020
855 Clouds 19 1015 68 10000 4.1 320 12:45 25.06.2020
856 Clouds 19 1015 68 10000 4.1 320 12:21 25.06.2020
857 Clouds 19 1014 73 10000 2.6 320 11:58 25.06.2020
858 Clouds 19 1014 73 10000 2.6 320 11:38 25.06.2020
859 Clouds 19 1014 73 10000 2.6 320 11:20 25.06.2020
860 Clouds 18 1015 82 10000 2.6 280 10:42 25.06.2020
861 Clouds 18 1015 82 10000 2.6 280 10:23 25.06.2020
862 Clouds 18 1015 82 10000 1.5 180 09:42 25.06.2020
863 Clear 18 1015 82 10000 1.5 180 09:23 25.06.2020
864 Clear 17 1015 82 10000 1 190 08:56 25.06.2020
865 Clear 17 1015 82 10000 1 190 08:38 25.06.2020
866 Clouds 17 1015 82 10000 1 190 08:18 25.06.2020
867 Clouds 18 1015 77 10000 1 240 07:41 25.06.2020
868 Clouds 17 1015 82 10000 1 200 07:21 25.06.2020
869 Clouds 17 1015 82 10000 1 200 06:37 25.06.2020
870 Clear 18 1015 72 10000 1 120 06:18 25.06.2020
871 Clear 20 1015 68 10000 3.1 330 05:31 25.06.2020
872 Clear 21 1015 68 10000 3.1 350 03:39 25.06.2020
873 Clear 21 1015 83 10000 1 60 02:56 25.06.2020
874 Clear 21 1015 83 10000 1 60 02:37 25.06.2020
875 Clouds 22 1014 53 10000 1 170 01:42 25.06.2020
876 Clouds 23 1014 56 10000 2.6 200 00:51 25.06.2020
877 Clouds 22 1014 56 10000 2.6 200 00:24 25.06.2020
878 Clouds 22 1013 53 10000 3.1 200 23:59 24.06.2020
879 Clouds 24 1013 53 10000 3.1 200 23:38 24.06.2020
880 Clouds 24 1013 53 10000 3.1 200 23:20 24.06.2020
881 Clouds 25 1013 57 10000 4.1 190 22:43 24.06.2020
882 Clear 25 1013 57 10000 4.1 190 22:22 24.06.2020
883 Clear 26 1013 50 10000 3.1 180 21:57 24.06.2020
884 Clear 26 1013 50 10000 3.1 180 21:38 24.06.2020
885 Clear 26 1013 50 10000 3.1 180 21:20 24.06.2020
886 -273 0 0 0 0 0 20:59 24.06.2020
887 Clear 26 1013 61 10000 4.1 150 20:41 24.06.2020
888 Clouds 26 1013 61 10000 4.1 150 20:22 24.06.2020
889 Clouds 27 1014 61 10000 3.6 160 19:59 24.06.2020
890 Clouds 28 1014 57 10000 2.1 70 19:39 24.06.2020
891 Clouds 28 1014 57 10000 2.1 70 19:21 24.06.2020
892 Clouds 28 1014 50 10000 1.5 40 18:58 24.06.2020
893 Clouds 28 1014 50 10000 1.5 40 18:40 24.06.2020
894 Clouds 28 1014 50 10000 1.5 40 18:22 24.06.2020
895 Clouds 26 1015 47 10000 2.1 10 17:56 24.06.2020
896 Clouds 27 1015 47 10000 2.1 10 17:38 24.06.2020
897 Clouds 27 1015 47 10000 2.1 10 17:19 24.06.2020
898 Clouds 26 1016 47 10000 1.5 350 16:56 24.06.2020
899 Clouds 26 1016 47 10000 1.5 350 16:38 24.06.2020
900 Clouds 26 1016 47 10000 1.5 350 16:38 24.06.2020
901 Clouds 25 1017 53 10000 2.1 340 16:20 24.06.2020
902 Clouds 24 1017 53 10000 2.1 340 15:56 24.06.2020
903 Clouds 24 1017 53 10000 2.1 340 15:38 24.06.2020
904 Clouds 24 1017 53 10000 2.1 340 15:19 24.06.2020
905 Clouds 22 1016 60 10000 2.1 330 14:43 24.06.2020
906 Clouds 22 1016 60 10000 2.1 330 14:24 24.06.2020
907 Clouds 20 1016 64 10000 3.1 320 13:43 24.06.2020
908 Clouds 20 1016 64 10000 3.1 320 13:22 24.06.2020
909 Clouds 18 1015 68 10000 2.1 310 12:59 24.06.2020
910 Clouds 18 1015 68 10000 2.1 310 12:41 24.06.2020
911 Clouds 18 1015 68 10000 2.1 310 12:20 24.06.2020
912 Clouds 18 1015 68 10000 2.6 320 11:56 24.06.2020
913 Clouds 18 1015 68 10000 2.6 320 11:38 24.06.2020
914 Clouds 18 1015 68 10000 2.6 320 11:18 24.06.2020
915 Clouds 15 1015 87 10000 1 90 10:43 24.06.2020
916 Clouds 15 1015 87 10000 1 90 10:19 24.06.2020
917 Clouds 15 1015 87 10000 1 90 09:43 24.06.2020
918 Clouds 15 1015 87 10000 1 90 09:22 24.06.2020
919 Clouds 16 1015 82 10000 1 70 08:44 24.06.2020
920 Clouds 16 1015 82 10000 1 70 08:26 24.06.2020
921 Clouds 17 1016 77 10000 1 50 07:55 24.06.2020
922 Clouds 17 1016 77 10000 1 50 07:37 24.06.2020
923 Clouds 19 1016 68 10000 1 230 07:18 24.06.2020
924 Clouds 19 1016 68 10000 1 230 06:39 24.06.2020
925 Clouds 19 1016 68 10000 1 130 06:21 24.06.2020
926 Clouds 21 1016 60 10000 2.6 320 05:30 24.06.2020
927 Clouds 22 1016 60 10000 2.6 320 04:36 24.06.2020
928 Clouds 22 1016 60 10000 2.6 310 03:36 24.06.2020
929 Clouds 22 1016 53 10000 0.5 220 02:52 24.06.2020
930 Clouds 22 1015 53 10000 1.5 30 01:46 24.06.2020
931 Clouds 23 1015 64 10000 1.5 210 00:49 24.06.2020
932 Clouds 22 1015 64 10000 1.5 210 00:29 24.06.2020
933 Clouds 24 1015 64 10000 1.5 180 23:46 23.06.2020
934 Clouds 24 1015 64 10000 1.5 180 23:21 23.06.2020
935 Clouds 26 1014 65 10000 2.6 160 22:57 23.06.2020
936 Clouds 26 1014 65 10000 2.6 160 22:39 23.06.2020
937 Clouds 26 1014 65 10000 2.6 160 22:18 23.06.2020
938 Clouds 27 1014 57 10000 3.6 180 22:18 23.06.2020
939 Clouds 27 1014 57 10000 3.6 180 21:42 23.06.2020
940 Clouds 27 1014 57 10000 3.6 180 21:20 23.06.2020
941 Clouds 27 1014 61 10000 4.1 160 20:57 23.06.2020
942 Clouds 28 1014 61 10000 4.1 160 20:39 23.06.2020
943 Clouds 28 1015 69 10000 2.6 150 20:19 23.06.2020
944 Clouds 27 1015 69 10000 2.6 150 19:59 23.06.2020
945 Clouds 28 1015 69 10000 2.6 150 19:40 23.06.2020
946 Clouds 27 1016 69 10000 3.1 160 19:22 23.06.2020
947 Clouds 27 1016 69 10000 3.1 160 18:38 23.06.2020
948 Clouds 26 1016 73 10000 2.6 140 18:18 23.06.2020
949 Clouds 25 1017 69 10000 1.5 30 17:42 23.06.2020
950 Clouds 27 1017 69 10000 1.5 30 17:24 23.06.2020
951 Clouds 24 1017 73 10000 2.6 360 16:57 23.06.2020
952 Clouds 25 1017 73 10000 2.6 360 16:38 23.06.2020
953 Clouds 25 1017 73 10000 2.6 360 16:38 23.06.2020
954 Clouds 25 1017 73 10000 2.6 360 16:20 23.06.2020
955 Clouds 24 1018 78 10000 3.1 350 15:57 23.06.2020
956 Clouds 23 1018 78 10000 3.1 350 15:39 23.06.2020
957 Clouds 23 1018 78 10000 3.1 350 15:18 23.06.2020
958 Clouds 22 1018 78 10000 2.6 360 14:43 23.06.2020
959 Clouds 21 1017 77 10000 3.1 350 14:20 23.06.2020
960 Clouds 21 1017 77 10000 3.1 350 13:57 23.06.2020
961 Clouds 21 1017 77 10000 3.1 350 13:39 23.06.2020
962 Clouds 19 1017 82 10000 3.1 350 13:20 23.06.2020
963 Clouds 19 1017 82 10000 3.1 350 12:45 23.06.2020
964 Clouds 18 1017 82 10000 3.1 350 12:23 23.06.2020
965 Clouds 19 1016 88 10000 3.1 360 11:58 23.06.2020
966 Clouds 19 1016 88 10000 3.1 360 11:40 23.06.2020
967 Clouds 19 1016 88 10000 3.1 360 11:19 23.06.2020
968 Clouds 19 1017 82 10000 1.5 360 10:57 23.06.2020
969 Clouds 19 1017 82 10000 1.5 360 10:39 23.06.2020
970 Clouds 19 1017 82 10000 1.5 360 10:39 23.06.2020
971 Clouds 19 1017 82 10000 1.5 360 10:21 23.06.2020
972 Clouds 19 1017 82 9000 1.5 360 09:43 23.06.2020
973 Clouds 19 1017 82 9000 1.5 360 09:21 23.06.2020
974 Clouds 18 1017 88 9000 2.1 360 08:59 23.06.2020
975 Clouds 18 1017 88 9000 2.1 360 08:41 23.06.2020
976 Clouds 18 1017 88 9000 2.1 360 08:22 23.06.2020
977 Clouds 19 1017 88 9000 1.5 20 07:43 23.06.2020
978 Clouds 19 1017 88 9000 1.5 20 07:24 23.06.2020
979 Clouds 20 1018 82 9000 1.5 360 06:51 23.06.2020
980 Clouds 20 1018 82 9000 1.5 360 06:31 23.06.2020
981 Clouds 19 1018 88 10000 1.5 90 05:48 23.06.2020
982 Clouds 22 1017 83 10000 2.1 160 04:41 23.06.2020
983 Clear 23 1017 83 10000 2.1 140 03:19 23.06.2020
984 Clear 23 1017 73 10000 3.1 180 02:46 23.06.2020
985 Clear 23 1017 73 10000 3.1 180 02:26 23.06.2020
986 Clouds 25 1017 57 10000 4.1 190 01:44 23.06.2020
987 Clouds 25 1016 61 10000 5.1 200 01:20 23.06.2020
988 Clouds 24 1016 61 10000 5.1 200 00:38 23.06.2020
989 Clouds 24 1016 61 10000 4.6 190 00:18 23.06.2020
990 Clouds 25 1016 61 10000 4.6 190 23:39 22.06.2020
991 Clouds 25 1016 61 10000 4.6 190 23:19 22.06.2020
992 Clouds 25 1016 61 10000 4.6 190 23:19 22.06.2020
993 Clouds 27 1016 54 10000 4.1 160 22:58 22.06.2020
994 Clouds 28 1016 54 10000 4.1 160 22:40 22.06.2020
995 Clouds 28 1016 54 10000 4.1 160 22:40 22.06.2020
996 Clouds 28 1016 54 10000 4.1 160 22:20 22.06.2020
997 Clouds 30 1016 45 10000 1 0 21:58 22.06.2020
998 Clouds 30 1016 45 10000 1 0 21:58 22.06.2020
999 Clouds 30 1016 45 10000 1 0 21:58 22.06.2020
1000 Clouds 30 1016 45 10000 1 0 21:40 22.06.2020
1001 Clouds 30 1016 45 10000 1 0 21:21 22.06.2020
1002 Clouds 30 1016 42 10000 1 10 20:58 22.06.2020
1003 Clouds 30 1016 42 10000 1 10 20:39 22.06.2020
1004 Clouds 30 1016 42 10000 1 10 20:20 22.06.2020
1005 Clouds 30 1016 51 10000 2.1 10 19:44 22.06.2020
1006 Clouds 31 1016 51 10000 2.1 10 19:19 22.06.2020
1007 Clear 29 1017 51 10000 2.1 360 18:57 22.06.2020
1008 Clear 30 1017 51 10000 2.1 360 18:37 22.06.2020
1009 Clear 29 1018 65 10000 3.1 360 18:18 22.06.2020
1010 Clear 29 1018 65 10000 3.1 360 17:55 22.06.2020
1011 Clear 28 1018 65 10000 3.1 360 17:37 22.06.2020
1012 Clear 28 1019 65 10000 3.1 360 17:18 22.06.2020
1013 Clear 28 1019 65 10000 3.1 360 16:42 22.06.2020
1014 Clear 25 1019 73 10000 3.1 350 16:18 22.06.2020
1015 Clear 25 1019 73 10000 3.1 350 15:57 22.06.2020
1016 Clear 26 1019 73 10000 3.1 350 15:39 22.06.2020
1017 Clear 26 1019 73 10000 3.1 350 15:21 22.06.2020
1018 Clear 25 1019 78 10000 3.6 350 14:39 22.06.2020
1019 Clear 23 1018 78 10000 4.1 360 14:20 22.06.2020
1020 Clear 23 1018 78 10000 4.1 360 13:57 22.06.2020
1021 Clear 23 1018 78 10000 4.1 360 13:38 22.06.2020
1022 Clear 21 1018 83 10000 4.6 10 13:20 22.06.2020
1023 Clear 21 1018 83 10000 4.6 10 12:43 22.06.2020
1024 Clear 21 1018 83 10000 4.6 10 12:23 22.06.2020
1025 Clear 21 1017 88 10000 4.1 360 11:58 22.06.2020
1026 Clear 21 1017 88 10000 4.1 360 11:37 22.06.2020
1027 Clear 19 1018 93 9000 1 130 11:18 22.06.2020
1028 Clear 19 1018 93 9000 1 130 10:55 22.06.2020
1029 Clear 19 1018 93 9000 1 130 10:36 22.06.2020
1030 Clear 20 1018 94 9000 1 100 10:18 22.06.2020
1031 Clear 20 1018 94 9000 1 100 09:54 22.06.2020
1032 Clear 20 1018 94 9000 1 100 09:36 22.06.2020
1033 Clear 19 1018 88 10000 0.5 320 09:18 22.06.2020
1034 Clear 19 1018 88 10000 0.5 320 08:39 22.06.2020
1035 Clear 19 1018 88 10000 0.5 320 08:21 22.06.2020
1036 Clear 20 1018 88 10000 0.5 260 08:21 22.06.2020
1037 Clear 20 1018 88 10000 0.5 260 07:53 22.06.2020
1038 Clear 20 1018 88 10000 0.5 260 07:33 22.06.2020
1039 Clear 20 1018 88 10000 0.5 210 06:47 22.06.2020
1040 Clear 20 1018 88 10000 0.5 210 06:27 22.06.2020
1041 Clear 20 1018 88 10000 0.5 300 05:58 22.06.2020
1042 Clear 23 1018 78 10000 2.6 310 05:31 22.06.2020
1043 Clear 23 1018 69 10000 0.5 0 02:58 22.06.2020
1044 Clear 23 1018 83 10000 1 150 01:37 22.06.2020
1045 Clear 26 1017 65 10000 1.5 170 00:41 22.06.2020
1046 Clear 25 1016 73 10000 1 160 00:18 22.06.2020
1047 Clear 25 1016 73 10000 1 160 23:54 21.06.2020
1048 Clear 25 1016 73 10000 1 160 23:36 21.06.2020
1049 Clear 28 1016 69 10000 1.5 150 23:18 21.06.2020
1050 Clear 28 1016 69 10000 1.5 150 22:54 21.06.2020
1051 Clear 29 1016 69 10000 1.5 150 22:36 21.06.2020
1052 Clear 30 1016 69 10000 1.5 150 22:18 21.06.2020
1053 Clear 30 1016 69 10000 1.5 150 21:42 21.06.2020
1054 Clear 30 1016 65 10000 2.6 150 21:22 21.06.2020
1055 Clear 30 1016 65 10000 2.6 150 20:59 21.06.2020
1056 Clear 30 1016 65 10000 2.6 150 20:38 21.06.2020
1057 Clear 31 1016 69 10000 2.1 120 20:19 21.06.2020
1058 Clear 31 1016 69 10000 2.1 120 19:57 21.06.2020
1059 Clear 30 1016 69 10000 2.1 120 19:38 21.06.2020
1060 Clear 31 1017 58 10000 2.1 360 19:20 21.06.2020
1061 Clear 31 1017 58 10000 2.1 360 18:55 21.06.2020
1062 Clear 31 1017 58 10000 2.1 360 18:37 21.06.2020
1063 Clear 30 1017 69 10000 2.6 10 18:19 21.06.2020
1064 Clear 30 1017 69 10000 2.6 10 17:40 21.06.2020
1065 Clear 29 1018 69 10000 2.1 10 17:21 21.06.2020
1066 Clear 29 1018 69 10000 2.1 10 16:57 21.06.2020
1067 Clear 29 1018 69 10000 2.1 10 16:38 21.06.2020
1068 Clear 29 1018 69 10000 2.1 10 16:20 21.06.2020
1069 Clear 26 1018 78 10000 3.1 10 15:39 21.06.2020
1070 Clear 26 1018 78 10000 3.1 10 15:21 21.06.2020
1071 Clear 26 1018 83 10000 2.6 360 14:55 21.06.2020
1072 Clear 26 1018 83 10000 2.6 360 14:37 21.06.2020
1073 Clear 23 1017 88 10000 3.1 350 14:18 21.06.2020
1074 Clear 23 1017 88 10000 3.1 350 13:43 21.06.2020
1075 Clear 23 1017 88 10000 3.1 350 13:25 21.06.2020
1076 Clear 21 1017 94 9000 3.1 350 12:59 21.06.2020
1077 Clear 21 1017 94 9000 3.1 350 12:41 21.06.2020
1078 Clear 21 1017 94 9000 3.1 350 12:23 21.06.2020
1079 Clear 21 1016 94 7000 2.6 320 11:43 21.06.2020
1080 Clear 21 1016 94 7000 2.6 320 11:24 21.06.2020
1081 Clear 20 1017 88 6000 1.5 70 10:59 21.06.2020
1082 Clear 20 1017 88 6000 1.5 70 10:40 21.06.2020
1083 Clear 20 1017 88 10000 1 70 10:22 21.06.2020
1084 Clear 20 1017 88 10000 1 70 09:55 21.06.2020
1085 Clear 20 1017 88 10000 1 70 09:36 21.06.2020
1086 Clear 21 1017 94 10000 1 10 09:18 21.06.2020
1087 Clear 21 1017 94 10000 1 10 08:41 21.06.2020
1088 Clear 21 1017 94 10000 1 10 08:21 21.06.2020
1089 Clear 21 1018 88 10000 1 40 07:59 21.06.2020
1090 Clear 21 1018 88 10000 1 40 07:40 21.06.2020
1091 Clear 21 1018 88 10000 1 40 07:20 21.06.2020
1092 Clear 21 1018 88 10000 1.5 70 06:48 21.06.2020
1093 Clear 21 1018 88 10000 1 250 05:59 21.06.2020
1094 Clear 22 1018 88 10000 1.5 350 04:50 21.06.2020
1095 Clear 23 1018 78 10000 0.5 0 03:20 21.06.2020
1096 Clear 23 1018 78 10000 0.5 0 02:54 21.06.2020
1097 Clear 23 1018 83 10000 2.1 130 01:49 21.06.2020
1098 Clear 23 1018 83 10000 2.1 130 01:21 21.06.2020
1099 Clear 24 1017 69 10000 2.6 190 00:56 21.06.2020
1100 Clear 25 1017 69 10000 2.6 190 00:38 21.06.2020
1101 Clear 25 1017 69 10000 3.1 190 00:18 21.06.2020
1102 Clear 25 1017 69 10000 3.1 190 23:43 20.06.2020
1103 Clear 25 1017 69 10000 3.1 190 23:21 20.06.2020
1104 Clear 26 1017 69 10000 4.1 190 22:55 20.06.2020
1105 Clear 26 1017 69 10000 4.1 190 22:37 20.06.2020
1106 Clear 27 1017 61 10000 4.6 170 22:18 20.06.2020
1107 Clear 27 1017 61 10000 4.6 170 22:18 20.06.2020
1108 Clear 27 1017 61 10000 4.6 170 21:56 20.06.2020
1109 Clear 27 1017 61 10000 4.6 170 21:38 20.06.2020
1110 Clear 28 1017 65 10000 5.7 160 21:19 20.06.2020
1111 Clear 28 1017 65 10000 5.7 160 20:56 20.06.2020
1112 Clear 29 1017 65 10000 5.7 160 20:38 20.06.2020
1113 Clear 30 1017 65 10000 4.1 150 20:19 20.06.2020
1114 Clear 29 1017 65 10000 5.7 160 20:19 20.06.2020
1115 Clear 30 1017 65 10000 4.1 150 19:43 20.06.2020
1116 Clear 30 1017 65 10000 4.1 150 19:23 20.06.2020
1117 Clear 30 1018 65 10000 3.6 40 18:55 20.06.2020
1118 Clear 29 1018 65 10000 3.6 40 18:37 20.06.2020
1119 Clouds 28 1019 69 10000 3.6 40 18:19 20.06.2020
1120 Clouds 28 1019 69 10000 3.6 40 17:56 20.06.2020
1121 Clouds 28 1019 69 10000 3.6 40 17:37 20.06.2020
1122 Clouds 27 1020 74 10000 2.6 50 17:18 20.06.2020
1123 Clouds 27 1020 65 10000 1.5 100 16:40 20.06.2020
1124 Clouds 27 1020 65 10000 1.5 100 16:19 20.06.2020
1125 Clouds 26 1020 73 6000 1 0 15:55 20.06.2020
1126 Clouds 26 1020 73 6000 1 0 15:37 20.06.2020
1127 Mist 23 1020 83 5000 4.1 360 15:18 20.06.2020
1128 Mist 23 1020 83 5000 4.1 360 14:42 20.06.2020
1129 Mist 21 1019 88 5000 4.6 350 14:20 20.06.2020
1130 Mist 21 1019 88 5000 4.6 350 13:42 20.06.2020
1131 Clear 20 1019 88 10000 3.1 340 13:20 20.06.2020
1132 Clear 20 1019 88 10000 3.1 340 12:56 20.06.2020
1133 Clear 20 1019 88 10000 3.1 340 12:38 20.06.2020
1134 Clear 19 1018 83 10000 3.6 320 12:19 20.06.2020
1135 Clear 19 1018 83 10000 3.6 320 11:40 20.06.2020
1136 Clear 19 1018 83 10000 3.6 320 11:21 20.06.2020
1137 Clear 18 1018 93 10000 1.5 340 10:58 20.06.2020
1138 Clear 18 1018 93 10000 1.5 340 10:40 20.06.2020
1139 Clear 18 1018 93 10000 1.5 340 10:20 20.06.2020
1140 Clear 17 1018 93 10000 1 340 09:43 20.06.2020
1141 Clear 17 1018 93 10000 1 340 09:25 20.06.2020
1142 Clear 18 1019 88 10000 1 40 08:58 20.06.2020
1143 Clear 18 1019 88 10000 1 40 08:39 20.06.2020
1144 Clear 18 1019 88 10000 1 40 08:21 20.06.2020
1145 Clear 18 1019 88 10000 2.1 330 07:50 20.06.2020
1146 Clear 18 1019 88 10000 2.1 330 07:26 20.06.2020
1147 Clear 18 1019 88 10000 1 60 06:49 20.06.2020
1148 Clear 18 1019 88 10000 1.5 70 06:22 20.06.2020
1149 Clear 18 1019 88 10000 1.5 70 05:48 20.06.2020
1150 Clear 20 1019 83 10000 1 330 04:29 20.06.2020
1151 Clouds 22 1018 57 10000 2.1 220 01:58 20.06.2020
1152 Clouds 22 1018 57 10000 2.1 220 01:40 20.06.2020
1153 Clouds 22 1018 83 10000 3.1 180 00:50 20.06.2020
1154 Clouds 22 1018 73 10000 2.6 190 00:20 20.06.2020
1155 Clouds 22 1018 73 10000 2.6 190 23:48 19.06.2020
1156 Clouds 22 1018 73 10000 2.6 190 23:21 19.06.2020
1157 Clouds 25 1017 65 10000 1 0 22:58 19.06.2020
1158 Clouds 25 1017 65 10000 1 0 22:40 19.06.2020
1159 Clouds 26 1017 69 10000 2.6 30 22:21 19.06.2020
1160 Clouds 26 1017 69 10000 2.6 30 21:56 19.06.2020
1161 Clouds 26 1017 69 10000 2.6 30 21:56 19.06.2020
1162 Clouds 28 1017 69 10000 2.6 30 21:37 19.06.2020
1163 Clouds 28 1017 69 10000 3.6 20 21:18 19.06.2020
1164 Clouds 28 1017 69 10000 3.6 20 20:57 19.06.2020
1165 Clouds 27 1017 69 10000 3.6 20 20:39 19.06.2020
1166 Clouds 28 1017 65 10000 2.6 10 20:20 19.06.2020
1167 Clouds 28 1017 65 10000 2.6 10 19:55 19.06.2020
1168 Clouds 26 1017 65 10000 2.6 10 19:37 19.06.2020
1169 Clouds 25 1018 64 10000 4.1 10 19:18 19.06.2020
1170 Clouds 26 1018 64 10000 4.1 10 18:40 19.06.2020
1171 Clouds 25 1019 73 10000 3.6 10 18:21 19.06.2020
1172 Clouds 25 1019 73 10000 3.6 10 17:55 19.06.2020
1173 Clouds 25 1019 73 10000 3.6 10 17:36 19.06.2020
1174 Clouds 24 1020 73 10000 3.6 360 17:18 19.06.2020
1175 Clouds 24 1020 73 10000 3.6 360 16:41 19.06.2020
1176 Clouds 24 1020 73 10000 3.6 360 16:23 19.06.2020
1177 Clouds 23 1020 77 10000 4.1 360 15:59 19.06.2020
1178 Clouds 21 1020 77 10000 4.1 360 15:40 19.06.2020
1179 Clouds 21 1020 77 10000 3.6 360 15:20 19.06.2020
1180 Clouds 21 1020 77 10000 3.6 360 14:55 19.06.2020
1181 Clouds 21 1020 77 10000 3.6 360 14:37 19.06.2020
1182 Clouds 20 1020 88 10000 4.6 10 14:18 19.06.2020
1183 Clouds 20 1020 88 10000 4.6 10 13:42 19.06.2020
1184 Clouds 20 1020 88 10000 4.6 10 13:24 19.06.2020
1185 Clouds 19 1019 83 10000 4.1 10 12:47 19.06.2020
1186 Clouds 20 1018 56 10000 3.1 300 12:22 19.06.2020
1187 Clouds 20 1018 56 10000 3.1 300 11:57 19.06.2020
1188 Clouds 20 1018 56 10000 3.1 300 11:38 19.06.2020
1189 Clouds 18 1018 88 10000 1 310 11:18 19.06.2020
1190 Clouds 18 1018 88 10000 1 310 10:45 19.06.2020
1191 Clouds 18 1018 88 10000 1 310 10:26 19.06.2020
1192 Clouds 18 1018 88 10000 1 290 09:59 19.06.2020
1193 Clouds 18 1018 88 10000 1 290 09:41 19.06.2020
1194 Clouds 17 1018 88 10000 1.5 110 09:20 19.06.2020
1195 Clouds 17 1018 88 10000 1.5 110 08:44 19.06.2020
1196 Clouds 17 1018 88 10000 1.5 110 08:26 19.06.2020
1197 Clouds 17 1018 88 10000 1 200 07:56 19.06.2020
1198 Clouds 17 1018 88 10000 1 200 07:38 19.06.2020
1199 Clouds 18 1018 88 10000 1.5 100 07:19 19.06.2020
1200 Clouds 18 1018 88 10000 1.5 100 06:25 19.06.2020
1201 Clouds 17 1018 88 10000 1 100 05:44 19.06.2020
1202 Clouds 20 1019 77 10000 2.6 320 04:25 19.06.2020
1203 Clouds 21 1018 73 10000 2.6 10 02:51 19.06.2020
1204 Clouds 22 1019 69 10000 2.1 210 00:56 19.06.2020
1205 Clouds 23 1019 69 10000 2.1 210 00:37 19.06.2020
1206 Clouds 23 1019 69 10000 1.5 170 00:19 19.06.2020
1207 Clouds 23 1019 69 10000 1.5 170 23:41 18.06.2020
1208 Clouds 23 1019 69 10000 1.5 170 23:23 18.06.2020
1209 Clouds 24 1019 64 10000 2.1 160 22:59 18.06.2020
1210 Clouds 24 1019 64 10000 2.1 160 22:39 18.06.2020
1211 Clear 26 1018 64 10000 3.6 150 22:18 18.06.2020
1212 Clear 25 1018 64 10000 3.6 150 21:39 18.06.2020
1213 Clouds 25 1018 60 10000 3.6 150 21:20 18.06.2020
1214 Clouds 25 1018 60 10000 3.6 150 20:58 18.06.2020
1215 Clouds 25 1018 60 10000 3.6 150 20:39 18.06.2020
1216 Clear 24 1019 69 10000 5.1 140 20:19 18.06.2020
1217 Clear 24 1019 69 10000 5.1 140 19:54 18.06.2020
1218 Clear 25 1019 69 10000 5.1 140 19:36 18.06.2020
1219 Clear 26 1019 69 10000 3.6 130 19:18 18.06.2020
1220 Clear 26 1020 50 10000 2.6 310 18:38 18.06.2020
1221 Clear 24 1021 68 10000 2.6 350 18:19 18.06.2020
1222 Clear 24 1021 68 10000 2.6 350 18:19 18.06.2020
1223 Clear 24 1021 68 10000 2.6 350 17:45 18.06.2020
1224 Clear 24 1021 68 10000 2.6 350 17:25 18.06.2020
1225 Clear 24 1022 64 10000 2.1 350 16:56 18.06.2020
1226 Clear 24 1022 64 10000 2.1 350 16:38 18.06.2020
1227 Clear 21 1022 73 10000 2.6 350 16:19 18.06.2020
1228 Clear 21 1022 73 10000 2.6 350 15:57 18.06.2020
1229 Clear 22 1022 73 10000 2.6 350 15:38 18.06.2020
1230 Clear 21 1022 72 10000 3.1 340 15:19 18.06.2020
1231 Clear 21 1022 72 10000 3.1 340 14:55 18.06.2020
1232 Clear 21 1022 72 10000 3.1 340 14:37 18.06.2020
1233 Clear 19 1022 82 10000 1.5 340 14:18 18.06.2020
1234 Clear 19 1022 82 10000 1.5 340 13:47 18.06.2020
1235 Clear 19 1022 82 10000 1.5 340 13:27 18.06.2020
1236 Clear 18 1021 77 10000 1.5 360 12:57 18.06.2020
1237 Clear 18 1021 77 10000 1.5 360 12:39 18.06.2020
1238 Clear 17 1021 82 10000 1.97 352 12:19 18.06.2020
1239 Clear 17 1021 82 10000 1.97 352 11:48 18.06.2020
1240 Clear 17 1021 82 10000 2.07 8 11:21 18.06.2020
1241 Clear 16 1021 87 10000 1 30 10:59 18.06.2020
1242 Clear 16 1021 87 10000 1 30 10:39 18.06.2020
1243 Clear 15 1021 93 10000 1 70 10:18 18.06.2020
1244 Clear 15 1021 93 10000 1 70 09:44 18.06.2020
1245 Clear 15 1021 93 10000 1 70 09:26 18.06.2020
1246 Clear 17 1021 88 10000 0.5 70 08:54 18.06.2020
1247 Clear 17 1021 88 10000 0.5 70 08:36 18.06.2020
1248 Clear 17 1022 88 10000 1.5 90 08:18 18.06.2020
1249 Clear 17 1022 88 10000 1.5 90 07:43 18.06.2020
1250 Clear 17 1023 88 10000 2.6 120 07:23 18.06.2020
1251 Clear 17 1023 88 10000 2.6 120 06:37 18.06.2020
1252 Clear 20 1023 73 10000 2.6 30 04:27 18.06.2020
1253 Clear 20 1023 73 10000 2.1 40 03:31 18.06.2020
1254 Clouds 22 1022 73 10000 8.2 70 01:44 18.06.2020
1255 Clouds 22 1022 73 10000 6.7 70 01:20 18.06.2020
1256 Clouds 22 1022 73 10000 6.7 70 00:52 18.06.2020
1257 Clouds 22 1022 73 10000 6.7 70 00:30 18.06.2020
1258 Clouds 22 1022 69 10000 6.2 70 23:55 17.06.2020
1259 Clouds 22 1022 69 10000 6.2 70 23:36 17.06.2020
1260 Clouds 24 1022 60 10000 0.5 0 23:18 17.06.2020
1261 Clouds 24 1022 60 10000 0.5 0 22:54 17.06.2020
1262 Clouds 24 1022 60 10000 0.5 0 22:36 17.06.2020
1263 Clouds 25 1021 57 10000 1 0 22:18 17.06.2020
1264 Clouds 25 1021 57 10000 1 0 21:40 17.06.2020
1265 Clouds 25 1021 57 10000 1 0 21:21 17.06.2020
1266 Clouds 25 1022 57 10000 3.1 200 20:56 17.06.2020
1267 Clouds 25 1022 57 10000 3.1 200 20:37 17.06.2020
1268 Clouds 25 1023 57 10000 3.48 83 20:19 17.06.2020
1269 Clouds 25 1023 57 10000 3.48 83 19:43 17.06.2020
1270 Clouds 25 1023 57 10000 3.23 80 19:22 17.06.2020
1271 Clouds 25 1023 57 10000 3.23 80 19:22 17.06.2020
1272 Clouds 25 1024 61 10000 2.1 330 18:56 17.06.2020
1273 Clouds 25 1024 61 10000 2.1 330 18:38 17.06.2020
1274 Clouds 24 1025 69 10000 2.6 340 18:19 17.06.2020
1275 Clouds 23 1025 69 10000 2.6 340 17:42 17.06.2020
1276 Clouds 24 1026 69 10000 3.1 340 17:21 17.06.2020
1277 Clouds 24 1026 69 10000 3.1 340 16:56 17.06.2020
1278 Clouds 24 1026 69 10000 3.1 340 16:38 17.06.2020
1279 Clouds 24 1027 69 10000 6.2 60 16:20 17.06.2020
1280 Clouds 23 1027 69 10000 3.6 60 15:40 17.06.2020
1281 Clouds 23 1027 69 10000 3.6 60 15:21 17.06.2020
1282 Clouds 23 1027 69 10000 3.6 60 14:59 17.06.2020
1283 Clouds 23 1027 69 10000 3.6 60 14:40 17.06.2020
1284 Clouds 23 1027 69 10000 3.6 60 14:21 17.06.2020
1285 Clouds 22 1026 73 10000 2.1 70 14:00 17.06.2020
1286 Clouds 20 1026 73 10000 2.1 70 13:41 17.06.2020
1287 Clouds 20 1026 73 10000 2.1 70 13:41 17.06.2020
1288 Clouds 20 1026 73 10000 2.1 70 13:21 17.06.2020
1289 Clear 19 1025 77 10000 2.6 100 12:56 17.06.2020
1290 Clear 20 1025 77 10000 2.6 100 12:37 17.06.2020
1291 Clear 20 1025 77 10000 3.6 110 12:19 17.06.2020
1292 Clear 20 1025 77 10000 3.6 110 11:44 17.06.2020
1293 Clear 20 1025 77 10000 3.6 110 11:24 17.06.2020
1294 Clear 18 1025 88 10000 5.1 110 10:55 17.06.2020
1295 Clear 18 1025 88 10000 5.1 110 10:36 17.06.2020
1296 Clouds 19 1025 82 10000 5.1 130 10:18 17.06.2020
1297 Clouds 19 1025 82 10000 5.1 130 09:54 17.06.2020
1298 Clouds 19 1025 82 10000 5.1 130 09:36 17.06.2020
1299 Clouds 20 1025 77 10000 6.2 100 09:18 17.06.2020
1300 Clouds 20 1025 77 10000 6.2 100 08:41 17.06.2020
1301 Clouds 20 1025 77 10000 5.7 100 08:19 17.06.2020
1302 Clouds 20 1025 77 10000 5.7 100 07:43 17.06.2020
1303 Clouds 20 1026 82 10000 5.7 60 07:23 17.06.2020
1304 Clouds 20 1026 82 10000 5.7 60 06:57 17.06.2020
1305 Clouds 20 1026 82 10000 5.7 60 06:39 17.06.2020
1306 Clouds 21 1026 77 10000 6.2 110 06:20 17.06.2020
1307 Clouds 21 1026 77 10000 6.2 110 05:45 17.06.2020
1308 Clouds 22 1026 73 10000 2.1 100 04:18 17.06.2020
1309 Clouds 22 1026 73 10000 2.1 120 01:55 17.06.2020
1310 Clouds 22 1026 78 10000 3.1 70 00:48 17.06.2020
1311 Clouds 22 1026 78 10000 3.1 70 00:28 17.06.2020
1312 Clouds 22 1025 78 10000 5.7 100 23:57 16.06.2020
1313 Clouds 22 1025 78 10000 5.7 100 23:57 16.06.2020
1314 Clouds 22 1025 78 10000 5.7 100 23:39 16.06.2020
1315 Rain 23 1025 78 10000 6.7 110 23:21 16.06.2020
1316 Rain 23 1025 78 10000 6.7 110 22:57 16.06.2020
1317 Rain 23 1025 78 10000 6.7 110 22:38 16.06.2020
1318 Clouds 23 1024 73 10000 5.1 130 22:19 16.06.2020
1319 Clouds 23 1024 73 10000 5.1 130 21:54 16.06.2020
1320 Clouds 23 1024 73 10000 5.1 130 21:54 16.06.2020
1321 Clouds 24 1024 73 10000 5.1 130 21:36 16.06.2020
1322 Clouds 24 1024 73 10000 3.1 120 21:18 16.06.2020
1323 Clouds 24 1024 73 10000 3.1 120 20:42 16.06.2020
1324 Clouds 24 1025 73 10000 5.7 130 20:19 16.06.2020
1325 Clouds 24 1025 73 10000 5.7 130 20:19 16.06.2020
1326 Clouds 24 1025 73 10000 5.7 130 19:58 16.06.2020
1327 Clouds 24 1025 73 10000 5.7 130 19:39 16.06.2020
1328 Clouds 24 1025 73 10000 5.1 130 19:21 16.06.2020
1329 Clouds 24 1025 73 10000 5.1 130 18:55 16.06.2020
1330 Clouds 24 1025 73 10000 5.1 130 18:37 16.06.2020
1331 Clouds 24 1026 69 10000 4.1 160 18:19 16.06.2020
1332 Clouds 24 1026 69 10000 4.1 160 17:55 16.06.2020
1333 Clouds 24 1026 69 10000 4.1 160 17:36 16.06.2020
1334 Clouds 24 1027 73 10000 3.1 130 17:18 16.06.2020
1335 Clouds 24 1027 73 10000 3.1 130 17:18 16.06.2020
1336 Clouds 24 1027 73 10000 3.1 130 16:42 16.06.2020
1337 Clouds 24 1027 73 10000 3.1 130 16:21 16.06.2020
1338 Clouds 23 1028 69 10000 1.5 190 15:59 16.06.2020
1339 Clouds 23 1028 69 10000 1.5 190 15:41 16.06.2020
1340 Clouds 23 1028 69 10000 1.5 190 15:23 16.06.2020
1341 Clouds 22 1027 73 10000 0.5 50 15:00 16.06.2020
1342 Clouds 22 1027 73 10000 0.5 50 14:41 16.06.2020
1343 Clouds 22 1027 73 10000 0.5 50 14:23 16.06.2020
1344 Clouds 21 1027 77 10000 1 60 13:49 16.06.2020
1345 Clouds 21 1027 77 10000 1 60 13:27 16.06.2020
1346 Clouds 20 1026 83 10000 2.6 80 12:57 16.06.2020
1347 Clouds 20 1026 83 10000 2.6 80 12:39 16.06.2020
1348 Clouds 20 1026 83 10000 2.6 70 12:21 16.06.2020
1349 Clouds 21 1026 83 10000 2.6 70 11:55 16.06.2020
1350 Clouds 21 1026 83 10000 2.6 70 11:37 16.06.2020
1351 Clouds 21 1026 83 10000 2.6 70 11:19 16.06.2020
1352 Clouds 20 1026 82 10000 2.6 80 10:43 16.06.2020
1353 Clouds 20 1026 82 10000 2.6 80 10:21 16.06.2020
1354 Clouds 20 1026 88 10000 1.5 120 09:58 16.06.2020
1355 Clouds 20 1026 88 10000 1.5 120 09:40 16.06.2020
1356 Clouds 20 1026 88 10000 1.5 120 09:21 16.06.2020
1357 Clouds 20 1026 88 10000 3.1 130 08:48 16.06.2020
1358 Clouds 20 1026 88 10000 3.1 130 08:30 16.06.2020
1359 Clouds 20 1027 88 10000 3.1 120 07:51 16.06.2020
1360 Clouds 20 1027 88 10000 3.1 120 07:27 16.06.2020
1361 Clouds 20 1027 94 10000 2.1 110 06:54 16.06.2020
1362 Clouds 20 1027 94 10000 2.1 110 06:27 16.06.2020
1363 Clouds 20 1027 94 10000 1.5 120 05:45 16.06.2020
1364 Clouds 21 1027 88 10000 1 120 04:42 16.06.2020
1365 Clouds 21 1027 78 10000 3.1 100 03:31 16.06.2020
1366 Clouds 21 1027 88 10000 3.6 30 02:19 16.06.2020
1367 Clouds 21 1027 88 10000 3.6 30 01:31 16.06.2020
1368 Clouds 21 1026 78 10000 4.1 100 00:52 16.06.2020
1369 Clouds 21 1026 78 10000 4.1 100 00:22 16.06.2020
1370 Clouds 21 1026 83 10000 3.1 110 23:43 15.06.2020
1371 Clouds 21 1026 83 10000 3.1 110 23:23 15.06.2020
1372 Clouds 22 1025 78 9000 3.6 100 22:58 15.06.2020
1373 Clouds 22 1025 78 9000 3.6 100 22:39 15.06.2020
1374 Clouds 23 1025 78 10000 4.6 110 22:21 15.06.2020
1375 Clouds 23 1025 78 10000 4.6 110 21:56 15.06.2020
1376 Clouds 23 1025 78 10000 4.6 110 21:38 15.06.2020
1377 Clouds 23 1025 78 10000 1 120 21:19 15.06.2020
1378 Clouds 23 1025 78 10000 1 120 20:57 15.06.2020
1379 Clouds 23 1025 78 10000 1 120 20:38 15.06.2020
1380 Clouds 22 1025 83 10000 0.5 10 20:19 15.06.2020
1381 Clouds 22 1025 83 10000 0.5 10 19:56 15.06.2020
1382 Clouds 22 1025 83 10000 0.5 10 19:38 15.06.2020
1383 Clouds 22 1025 78 10000 1.5 100 19:20 15.06.2020
1384 Clouds 22 1025 78 10000 1.5 100 18:56 15.06.2020
1385 Clouds 22 1025 78 10000 1.5 100 18:56 15.06.2020
1386 Clouds 22 1025 78 10000 1.5 100 18:37 15.06.2020
1387 Clouds 22 1026 83 9000 1.5 320 18:19 15.06.2020
1388 Clouds 22 1026 83 9000 1.5 320 17:55 15.06.2020
1389 Clouds 22 1026 83 9000 1.5 320 17:36 15.06.2020
1390 Rain 21 1027 88 7000 1.5 340 17:18 15.06.2020
1391 Rain 21 1027 88 7000 1.5 340 16:41 15.06.2020
1392 Rain 21 1027 88 7000 1.5 340 16:19 15.06.2020
1393 Rain 21 1027 88 4000 1.5 20 15:56 15.06.2020
1394 Rain 21 1027 88 4000 1.5 20 15:38 15.06.2020
1395 Rain 21 1027 88 4000 1 0 15:19 15.06.2020
1396 Rain 21 1027 88 4000 1 0 14:42 15.06.2020
1397 Mist 20 1027 94 4000 1.5 160 14:21 15.06.2020
1398 Mist 20 1027 94 4000 1.5 160 13:59 15.06.2020
1399 Mist 20 1027 94 4000 1.5 160 13:41 15.06.2020
1400 Mist 20 1027 94 4000 1.5 160 13:41 15.06.2020
1401 Mist 20 1027 94 4000 1.5 160 13:23 15.06.2020
1402 Drizzle 20 1026 94 3500 5.1 120 12:58 15.06.2020
1403 Drizzle 20 1026 94 3500 5.1 120 12:39 15.06.2020
1404 Clouds 21 1025 88 6000 7.2 130 12:21 15.06.2020
1405 Clouds 21 1025 88 6000 7.2 130 11:45 15.06.2020
1406 Clouds 21 1025 88 6000 7.2 130 11:25 15.06.2020
1407 Clouds 20 1025 94 6000 2.1 330 10:56 15.06.2020
1408 Clouds 20 1025 94 6000 2.1 330 10:38 15.06.2020
1409 Clouds 20 1025 94 6000 1.5 320 10:19 15.06.2020
1410 Clouds 20 1025 94 6000 1.5 320 09:41 15.06.2020
1411 Rain 20 1025 94 5000 1.5 320 09:22 15.06.2020
1412 Rain 20 1025 94 5000 1.5 320 08:43 15.06.2020
1413 Rain 20 1025 94 5000 1.5 320 08:24 15.06.2020
1414 Clouds 20 1025 94 7000 1 320 07:50 15.06.2020
1415 Clouds 20 1025 94 7000 1 320 07:32 15.06.2020
1416 Mist 20 1026 94 5000 1 0 06:53 15.06.2020
1417 Mist 20 1026 94 5000 1 0 06:26 15.06.2020
1418 Rain 20 1026 94 3500 1 90 05:48 15.06.2020
1419 Rain 21 1026 88 7000 3.6 90 05:27 15.06.2020
1420 Rain 21 1026 88 7000 3.6 140 04:21 15.06.2020
1421 Rain 21 1026 88 7000 3.6 140 03:48 15.06.2020
1422 Clouds 21 1026 78 10000 3.6 190 02:55 15.06.2020
1423 Clouds 21 1025 78 10000 4.1 160 01:59 15.06.2020
1424 Clouds 22 1025 78 10000 4.1 160 01:40 15.06.2020
1425 Clouds 22 1025 78 10000 4.1 160 01:40 15.06.2020
1426 Clouds 22 1025 73 9000 5.7 160 01:22 15.06.2020
1427 Clouds 22 1025 73 9000 5.7 160 00:41 15.06.2020
1428 Clouds 22 1025 73 9000 5.7 160 00:22 15.06.2020
1429 Clouds 22 1024 78 9000 5.7 160 23:56 14.06.2020
1430 Clouds 22 1024 78 9000 5.7 160 23:38 14.06.2020
1431 Drizzle 22 1024 78 6000 7.2 160 23:20 14.06.2020
1432 Drizzle 22 1024 78 6000 7.2 160 22:56 14.06.2020
1433 Drizzle 22 1024 78 6000 7.2 160 22:37 14.06.2020
1434 Mist 22 1023 78 4000 7.2 180 22:18 14.06.2020
1435 Drizzle 22 1023 78 4000 7.2 180 21:55 14.06.2020
1436 Drizzle 22 1023 78 4000 7.2 180 21:37 14.06.2020
1437 Drizzle 22 1022 83 4500 8.2 170 21:18 14.06.2020
1438 Drizzle 22 1022 83 4500 8.2 170 20:55 14.06.2020
1439 Drizzle 22 1022 83 4500 8.2 170 20:36 14.06.2020
1440 Drizzle 22 1023 83 3500 8.2 170 20:18 14.06.2020
1441 Drizzle 22 1023 83 3500 8.2 170 19:55 14.06.2020
1442 Drizzle 22 1023 83 3500 8.2 170 19:37 14.06.2020
1443 Drizzle 22 1023 88 4000 6.7 170 19:18 14.06.2020
1444 Drizzle 22 1023 88 4000 6.7 170 18:55 14.06.2020
1445 Drizzle 23 1023 88 4000 6.7 170 18:37 14.06.2020
1446 Mist 24 1023 83 4000 6.7 170 18:18 14.06.2020
1447 Rain 24 1023 83 4000 6.7 170 17:55 14.06.2020
1448 Rain 24 1023 83 4000 6.7 170 17:36 14.06.2020
1449 Rain 25 1023 83 10000 6.7 190 17:18 14.06.2020
1450 Rain 24 1023 83 10000 6.7 190 16:40 14.06.2020
1451 Clouds 25 1023 78 10000 8.2 190 16:20 14.06.2020
1452 Clouds 25 1023 78 10000 8.2 190 15:57 14.06.2020
1453 Clouds 25 1023 78 10000 8.2 190 15:38 14.06.2020
1454 Clouds 24 1023 83 10000 7.7 200 15:18 14.06.2020
1455 Clouds 24 1023 83 10000 7.7 200 14:55 14.06.2020
1456 Clouds 24 1023 83 10000 7.7 200 14:36 14.06.2020
1457 Clouds 24 1022 88 10000 7.7 200 14:18 14.06.2020
1458 Clouds 24 1022 88 10000 7.7 200 13:41 14.06.2020
1459 Clouds 24 1021 78 10000 3.6 200 13:22 14.06.2020
1460 Clouds 24 1021 78 10000 3.6 200 12:59 14.06.2020
1461 Clouds 25 1021 78 10000 3.6 200 12:40 14.06.2020
1462 Clouds 25 1021 78 10000 3.6 200 12:22 14.06.2020
1463 Clouds 24 1019 88 10000 3.1 60 11:59 14.06.2020
1464 Clouds 24 1019 88 10000 3.1 60 11:40 14.06.2020
1465 Clouds 24 1019 88 10000 3.1 30 11:22 14.06.2020
1466 Clouds 24 1019 88 10000 3.1 30 10:59 14.06.2020
1467 Clear 24 1019 73 10000 4.1 250 10:39 14.06.2020
1468 Clear 21 1018 88 10000 1.5 10 10:18 14.06.2020
1469 Clear 21 1018 88 10000 1.5 10 09:43 14.06.2020
1470 Clear 21 1018 88 10000 1.5 10 09:23 14.06.2020
1471 Clear 21 1018 83 10000 1 210 08:42 14.06.2020
1472 Clear 21 1018 83 10000 1 210 08:22 14.06.2020
1473 Clear 22 1018 83 10000 3.1 350 07:55 14.06.2020
1474 Clear 22 1018 83 10000 3.1 350 07:35 14.06.2020
1475 Clear 21 1018 83 10000 1.5 80 06:58 14.06.2020
1476 Clear 23 1018 78 10000 1.5 10 05:56 14.06.2020
1477 Clear 24 1017 83 10000 3.1 310 05:34 14.06.2020
1478 Clear 24 1017 83 10000 3.1 310 04:39 14.06.2020
1479 Clear 25 1017 69 10000 2.6 320 03:55 14.06.2020
1480 Clear 26 1017 65 10000 2.1 320 02:43 14.06.2020
1481 Clear 26 1017 65 10000 2.1 320 02:23 14.06.2020
1482 Clear 25 1016 74 10000 1.5 220 01:30 14.06.2020
1483 Clear 26 1016 65 10000 2.1 190 00:49 14.06.2020
1484 Clear 26 1016 65 10000 2.1 190 00:29 14.06.2020
1485 Clear 27 1015 65 10000 2.1 200 23:49 13.06.2020
1486 Clear 27 1015 65 10000 2.1 200 23:31 13.06.2020
1487 Clear 28 1015 61 10000 3.1 190 22:59 13.06.2020
1488 Clear 28 1015 61 10000 3.1 190 22:38 13.06.2020
1489 Clear 28 1015 61 10000 3.1 190 22:19 13.06.2020
1490 Clouds 31 1014 62 10000 4.1 150 21:58 13.06.2020
1491 Clouds 31 1014 62 10000 4.1 150 21:40 13.06.2020
1492 Clouds 31 1014 62 10000 4.1 150 21:21 13.06.2020
1493 Clouds 31 1014 62 10000 1 130 20:54 13.06.2020
1494 Clouds 32 1014 62 10000 1 130 20:36 13.06.2020
1495 Clouds 32 1014 70 10000 2.6 340 20:18 13.06.2020
1496 Clouds 32 1014 70 10000 2.6 340 19:40 13.06.2020
1497 Clouds 30 1015 69 10000 2.6 360 19:20 13.06.2020
1498 Clouds 30 1015 69 10000 2.6 360 18:59 13.06.2020
1499 Clouds 30 1015 69 10000 2.6 360 18:40 13.06.2020
1500 Clouds 28 1016 74 10000 3.1 360 18:20 13.06.2020
1501 Clouds 28 1016 74 10000 3.1 360 17:57 13.06.2020
1502 Clouds 28 1016 74 10000 3.1 360 17:39 13.06.2020
1503 Clouds 26 1016 78 10000 3.6 360 17:20 13.06.2020
1504 Clouds 26 1016 78 10000 3.6 360 16:55 13.06.2020
1505 Clouds 27 1016 78 10000 3.6 360 16:37 13.06.2020
1506 Clouds 27 1017 83 9000 3.6 360 16:18 13.06.2020
1507 Clouds 27 1017 83 9000 3.6 360 15:44 13.06.2020
1508 Clouds 27 1017 83 9000 3.6 360 15:25 13.06.2020
1509 Clouds 25 1016 88 7000 4.1 350 14:45 13.06.2020
1510 Clear 25 1016 88 7000 4.1 350 14:26 13.06.2020
1511 Clear 23 1016 88 6000 3.1 350 13:59 13.06.2020
1512 Clear 22 1016 88 6000 3.1 350 13:40 13.06.2020
1513 Clear 22 1016 88 6000 3.1 350 13:22 13.06.2020
1514 Clear 21 1015 94 7000 3.1 360 12:44 13.06.2020
1515 Clear 21 1015 94 7000 3.1 360 12:26 13.06.2020
1516 Clear 22 1014 94 10000 3.6 350 11:59 13.06.2020
1517 Clear 22 1014 94 10000 3.6 350 11:39 13.06.2020
1518 Clear 21 1014 88 10000 1.5 40 11:19 13.06.2020
1519 Clear 21 1014 88 10000 1.5 40 10:57 13.06.2020
1520 Clear 21 1014 88 10000 1.5 40 10:38 13.06.2020
1521 Clear 21 1014 88 10000 1.5 20 10:19 13.06.2020
1522 Clear 21 1014 88 10000 1.5 20 09:44 13.06.2020
1523 Clear 21 1014 88 10000 1 40 09:25 13.06.2020
1524 Clear 21 1014 88 10000 1 40 08:49 13.06.2020
1525 Clouds 21 1014 88 10000 1 40 08:31 13.06.2020
1526 Clouds 22 1014 88 10000 2.1 330 07:55 13.06.2020
1527 Clouds 22 1014 88 10000 2.1 330 07:30 13.06.2020
1528 Clouds 21 1014 94 9000 1 10 06:51 13.06.2020
1529 Clouds 21 1014 94 9000 1 10 06:33 13.06.2020
1530 Clouds 23 1014 88 8000 1 10 05:47 13.06.2020
1531 Clouds 24 1014 88 10000 1 200 05:25 13.06.2020
1532 Clouds 24 1014 94 10000 1 110 03:55 13.06.2020
1533 Clouds 25 1014 83 10000 1.24 32 02:55 13.06.2020
1534 Clouds 25 1014 83 10000 1.53 59 02:35 13.06.2020
1535 Clouds 25 1014 78 10000 2.1 170 01:46 13.06.2020
1536 Clouds 25 1014 83 10000 3.1 160 01:21 13.06.2020
1537 Clouds 25 1014 83 10000 3.1 160 00:42 13.06.2020
1538 Clouds 25 1014 83 10000 3.1 160 00:42 13.06.2020
1539 Clouds 25 1013 83 10000 4.1 180 00:23 13.06.2020
1540 Clouds 25 1013 83 10000 4.1 180 23:42 12.06.2020
1541 Clouds 27 1013 78 10000 4.1 170 23:19 12.06.2020
1542 Clouds 27 1013 78 10000 4.1 170 22:59 12.06.2020
1543 Clouds 27 1013 78 10000 4.1 170 22:40 12.06.2020
1544 Clouds 29 1012 69 10000 4.6 160 22:19 12.06.2020
1545 Clouds 29 1012 69 10000 4.6 160 22:19 12.06.2020
1546 Clouds 29 1012 69 10000 4.6 160 21:49 12.06.2020
1547 Clear 30 1012 69 10000 4.6 160 21:26 12.06.2020
1548 Clear 31 1012 62 10000 2.1 340 20:59 12.06.2020
1549 Clear 31 1012 62 10000 2.1 340 20:41 12.06.2020
1550 Clear 31 1012 62 10000 2.1 350 20:22 12.06.2020
1551 Clear 31 1012 62 10000 2.1 350 19:57 12.06.2020
1552 Clear 31 1012 62 10000 2.1 350 19:38 12.06.2020
1553 Clear 31 1013 69 10000 2.1 360 19:18 12.06.2020
1554 Clear 31 1013 69 10000 2.1 360 18:39 12.06.2020
1555 Clear 28 1014 78 8000 3.1 360 18:19 12.06.2020
1556 Clear 28 1014 78 8000 3.1 360 17:58 12.06.2020
1557 Clear 28 1014 78 8000 3.1 360 17:39 12.06.2020
1558 Clear 26 1015 78 8000 3.1 360 17:19 12.06.2020
1559 Clear 26 1015 78 8000 3.1 360 16:44 12.06.2020
1560 Clear 27 1015 78 7000 3.1 350 16:20 12.06.2020
1561 Clear 27 1015 78 7000 3.1 350 15:49 12.06.2020
1562 Clear 27 1015 78 7000 3.1 350 15:26 12.06.2020
1563 Clear 26 1015 88 7000 2.1 360 14:58 12.06.2020
1564 Clear 24 1015 88 7000 2.1 360 14:39 12.06.2020
1565 Clouds 23 1015 94 7000 3.1 360 14:21 12.06.2020
1566 Clouds 23 1015 94 7000 3.1 360 13:42 12.06.2020
1567 Clouds 22 1014 94 7000 3.1 360 13:21 12.06.2020
1568 Clouds 22 1014 94 7000 3.1 360 12:41 12.06.2020
1569 Clouds 22 1013 94 7000 2.1 340 12:20 12.06.2020
1570 Clouds 22 1013 94 7000 2.1 340 11:59 12.06.2020
1571 Clouds 22 1013 94 7000 2.1 340 11:40 12.06.2020
1572 Clouds 22 1013 83 10000 2.1 350 11:22 12.06.2020
1573 Clouds 22 1013 83 10000 2.1 350 10:47 12.06.2020
1574 Clouds 22 1013 83 10000 2.1 350 10:25 12.06.2020
1575 Clouds 22 1013 88 7000 1.5 350 09:58 12.06.2020
1576 Clouds 22 1013 88 7000 1.5 350 09:38 12.06.2020
1577 Clouds 21 1013 94 7000 1.5 20 09:18 12.06.2020
1578 Clouds 21 1013 94 7000 1.5 20 08:41 12.06.2020
1579 Clouds 21 1013 94 7000 1.5 20 08:22 12.06.2020
1580 Clouds 22 1013 88 7000 1 20 07:40 12.06.2020
1581 Clouds 22 1013 88 7000 1 20 07:22 12.06.2020
1582 Clouds 22 1013 88 10000 1.5 70 06:40 12.06.2020
1583 Clouds 23 1014 88 10000 1 350 06:19 12.06.2020
1584 Clouds 23 1014 88 10000 1 350 05:49 12.06.2020
1585 Clouds 24 1013 83 10000 2.1 310 05:23 12.06.2020
1586 Clear 24 1013 94 10000 1.5 350 03:52 12.06.2020
1587 Clear 24 1013 94 10000 1 360 02:25 12.06.2020
1588 Clouds 24 1013 88 10000 2.1 180 01:35 12.06.2020
1589 Clouds 24 1012 88 10000 1.5 160 00:59 12.06.2020
1590 Clouds 24 1012 88 10000 1.5 160 00:39 12.06.2020
1591 Clear 24 1012 88 10000 1.5 160 00:20 12.06.2020
1592 Clear 24 1012 88 10000 3.1 150 23:56 11.06.2020
1593 Clear 24 1012 88 10000 3.1 150 23:38 11.06.2020
1594 Clear 26 1012 83 10000 4.1 160 23:19 11.06.2020
1595 Clear 26 1012 83 10000 4.1 160 22:54 11.06.2020
1596 Clear 27 1012 83 10000 4.1 160 22:36 11.06.2020
1597 Clear 29 1011 83 10000 3.6 160 22:18 11.06.2020
1598 Clear 29 1011 83 10000 3.6 160 21:42 11.06.2020
1599 Clouds 29 1011 83 10000 2.6 150 21:20 11.06.2020
1600 Clouds 29 1011 83 10000 2.6 150 20:57 11.06.2020
1601 Clouds 29 1011 83 10000 2.6 150 20:38 11.06.2020
1602 Clouds 29 1012 83 10000 3.6 160 20:20 11.06.2020
1603 Clouds 29 1012 83 10000 3.6 160 19:43 11.06.2020
1604 Clouds 29 1012 83 10000 3.6 160 19:22 11.06.2020
1605 Clouds 28 1012 74 10000 2.1 150 18:54 11.06.2020
1606 Clouds 29 1012 74 10000 2.1 150 18:36 11.06.2020
1607 Clouds 30 1013 78 8000 1 0 18:18 11.06.2020
1608 Clouds 30 1013 78 8000 1 0 17:55 11.06.2020
1609 Clouds 30 1013 78 8000 1 0 17:37 11.06.2020
1610 Clouds 30 1013 78 8000 1 0 17:18 11.06.2020
1611 Clouds 27 1014 83 6000 3.6 340 16:42 11.06.2020
1612 Clouds 27 1014 83 6000 3.6 340 16:23 11.06.2020
1613 Clouds 26 1014 83 6000 4.6 340 15:58 11.06.2020
1614 Mist 24 1015 88 3500 4.1 10 15:39 11.06.2020
1615 Mist 24 1015 88 3500 4.1 10 15:21 11.06.2020
1616 Mist 23 1015 94 2500 4.1 360 14:46 11.06.2020
1617 Mist 23 1015 94 2500 4.1 360 14:21 11.06.2020
1618 Mist 23 1014 94 3000 4.1 10 13:57 11.06.2020
1619 Mist 23 1014 94 3000 4.1 10 13:39 11.06.2020
1620 Mist 23 1014 94 3000 4.1 10 13:20 11.06.2020
1621 Mist 22 1014 94 3000 3.1 330 12:57 11.06.2020
1622 Mist 22 1014 94 3000 3.1 330 12:39 11.06.2020
1623 Mist 22 1013 94 4000 2.6 340 12:19 11.06.2020
1624 Mist 22 1013 94 4000 2.6 340 12:19 11.06.2020
1625 Mist 22 1013 94 4000 2.6 340 11:57 11.06.2020
1626 Mist 22 1013 94 4000 2.6 340 11:38 11.06.2020
1627 Mist 22 1013 94 4000 2.6 340 11:20 11.06.2020
1628 Mist 21 1014 94 3000 1 220 10:57 11.06.2020
1629 Mist 21 1014 94 3000 1 220 10:38 11.06.2020
1630 Mist 22 1014 94 3000 2.1 350 10:18 11.06.2020
1631 Mist 22 1014 94 3000 2.1 350 09:42 11.06.2020
1632 Mist 22 1014 94 3000 2.1 350 09:23 11.06.2020
1633 Clouds 22 1014 94 7000 2.1 40 08:44 11.06.2020
1634 Clouds 22 1014 94 7000 2.1 40 08:20 11.06.2020
1635 Clouds 23 1015 88 7000 2.6 140 07:57 11.06.2020
1636 Clouds 23 1015 88 7000 2.6 140 07:57 11.06.2020
1637 Mist 23 1015 88 5000 2.6 120 07:39 11.06.2020
1638 Mist 23 1015 88 5000 2.6 120 07:20 11.06.2020
1639 Mist 22 1015 94 4000 1 0 06:29 11.06.2020
1640 Clouds 23 1015 88 10000 2.1 90 05:39 11.06.2020
1641 Clouds 24 1015 83 10000 1 60 03:56 11.06.2020
1642 Clouds 24 1015 83 10000 1 60 03:24 11.06.2020
1643 Clouds 24 1015 83 10000 2.1 170 02:32 11.06.2020
1644 Clouds 24 1015 83 10000 4.6 180 01:53 11.06.2020
1645 Clouds 24 1015 83 10000 4.6 180 01:31 11.06.2020
1646 Clouds 24 1014 83 10000 5.1 170 00:51 11.06.2020
1647 Clouds 24 1014 83 10000 5.1 170 00:30 11.06.2020
1648 Clouds 24 1014 83 10000 3.6 160 23:49 10.06.2020
1649 Rain 24 1014 83 10000 3.6 160 23:27 10.06.2020
1650 Clouds 25 1013 78 10000 4.6 160 22:59 10.06.2020
1651 Clouds 25 1013 78 10000 4.6 160 22:39 10.06.2020
1652 Clouds 25 1013 78 10000 4.6 160 22:20 10.06.2020
1653 Clouds 26 1012 74 10000 4.6 180 21:58 10.06.2020
1654 Clouds 26 1012 74 10000 4.6 180 21:40 10.06.2020
1655 Clouds 26 1012 69 10000 5.7 180 21:19 10.06.2020
1656 Clouds 27 1012 69 10000 5.7 180 20:57 10.06.2020
1657 Clouds 27 1012 69 10000 5.7 180 20:39 10.06.2020
1658 Clouds 28 1012 69 10000 5.1 180 20:21 10.06.2020
1659 Clouds 28 1012 69 10000 5.1 180 19:56 10.06.2020
1660 Clouds 28 1012 69 10000 5.1 180 19:37 10.06.2020
1661 Clouds 28 1012 78 10000 2.1 40 19:18 10.06.2020
1662 Clouds 28 1012 78 10000 2.1 40 18:41 10.06.2020
1663 Clouds 27 1013 74 10000 1.5 10 18:20 10.06.2020
1664 Clouds 27 1013 74 10000 1.5 10 17:58 10.06.2020
1665 Clouds 27 1013 74 10000 1.5 10 17:40 10.06.2020
1666 Clouds 27 1013 74 10000 1.5 10 17:20 10.06.2020
1667 Clouds 25 1014 83 10000 1.5 330 16:58 10.06.2020
1668 Clouds 25 1014 83 10000 1.5 330 16:40 10.06.2020
1669 Clouds 25 1014 83 10000 1.5 330 16:20 10.06.2020
1670 Clouds 25 1014 83 10000 1.5 330 16:20 10.06.2020
1671 Clouds 25 1014 83 10000 1.5 330 16:20 10.06.2020
1672 Clouds 25 1014 88 10000 3.6 320 15:56 10.06.2020
1673 Clouds 25 1014 88 10000 3.6 320 15:37 10.06.2020
1674 Clouds 25 1014 88 10000 3.6 320 15:18 10.06.2020
1675 Clouds 23 1014 94 10000 2.1 350 14:40 10.06.2020
1676 Clouds 23 1014 94 10000 2.1 350 14:21 10.06.2020
1677 Clouds 23 1013 94 10000 2.1 340 13:56 10.06.2020
1678 Clouds 23 1013 94 10000 2.1 340 13:38 10.06.2020
1679 Clouds 22 1012 94 6000 3.6 10 13:19 10.06.2020
1680 Clouds 22 1012 94 6000 3.6 10 12:40 10.06.2020
1681 Clouds 22 1012 94 6000 3.1 330 12:18 10.06.2020
1682 Clouds 22 1012 94 6000 3.1 330 11:44 10.06.2020
1683 Clouds 22 1012 94 6000 3.1 340 11:20 10.06.2020
1684 Clouds 22 1012 94 6000 3.1 340 10:58 10.06.2020
1685 Mist 21 1012 94 4000 1 60 10:40 10.06.2020
1686 Mist 21 1012 94 4000 1 60 10:40 10.06.2020
1687 Mist 22 1012 88 5000 1 80 10:22 10.06.2020
1688 Mist 22 1012 88 5000 1 80 09:44 10.06.2020
1689 Mist 22 1012 88 5000 1 80 09:26 10.06.2020
1690 Clear 22 1012 94 10000 1 50 08:59 10.06.2020
1691 Clear 22 1012 94 10000 1 50 08:41 10.06.2020
1692 Clouds 22 1013 94 10000 0.5 210 08:22 10.06.2020
1693 Clouds 22 1013 94 10000 0.5 210 07:42 10.06.2020
1694 Clouds 23 1013 88 10000 1 120 07:23 10.06.2020
1695 Clouds 23 1013 88 10000 1 120 06:55 10.06.2020
1696 Clouds 23 1013 88 10000 1 120 06:37 10.06.2020
1697 Clouds 23 1013 88 10000 1.5 50 06:18 10.06.2020
1698 Clouds 24 1013 88 10000 2.1 340 05:31 10.06.2020
1699 Clouds 24 1013 88 10000 2.1 340 04:49 10.06.2020
1700 Clouds 24 1013 88 10000 2.1 340 04:28 10.06.2020
1701 Clouds 24 1013 83 10000 1.5 200 02:33 10.06.2020
1702 Clear 24 1013 83 10000 2.1 190 01:42 10.06.2020
1703 Clear 24 1012 83 10000 3.6 200 00:55 10.06.2020
1704 Clear 25 1012 83 10000 3.6 200 00:37 10.06.2020
1705 Clear 25 1012 88 10000 6.2 190 00:18 10.06.2020
1706 Clear 24 1012 88 10000 6.2 190 23:41 09.06.2020
1707 Clear 25 1012 88 10000 6.2 190 23:23 09.06.2020
1708 Clear 26 1012 83 10000 6.2 190 22:57 09.06.2020
1709 Clear 27 1012 83 10000 6.2 190 22:39 09.06.2020
1710 Clear 27 1012 83 10000 6.2 190 22:20 09.06.2020
1711 Clouds 28 1012 74 10000 5.1 180 21:57 09.06.2020
1712 Clouds 29 1012 74 10000 5.1 180 21:39 09.06.2020
1713 Clouds 29 1012 74 10000 5.1 180 21:21 09.06.2020
1714 Clouds 28 1012 74 9000 1.5 120 20:58 09.06.2020
1715 Clouds 28 1012 74 9000 1.5 120 20:39 09.06.2020
1716 Clouds 26 1012 83 9000 1.5 130 20:21 09.06.2020
1717 Clouds 26 1012 83 9000 1.5 130 19:59 09.06.2020
1718 Clouds 27 1012 83 9000 1.5 130 19:39 09.06.2020
1719 Clouds 27 1012 83 9000 1.5 130 19:20 09.06.2020
1720 Clouds 27 1013 78 9000 2.1 340 18:59 09.06.2020
1721 Clouds 27 1013 78 9000 2.1 340 18:41 09.06.2020
1722 Clouds 27 1013 78 9000 2.1 340 18:23 09.06.2020
1723 Clouds 26 1014 78 8000 3.1 360 17:56 09.06.2020
1724 Clouds 26 1014 78 8000 3.1 360 17:38 09.06.2020
1725 Clouds 26 1014 78 8000 3.1 360 17:20 09.06.2020
1726 Clear 25 1015 83 8000 4.1 10 16:43 09.06.2020
1727 Clouds 25 1015 83 8000 4.1 10 16:25 09.06.2020
1728 Clouds 24 1016 83 7000 5.1 10 15:57 09.06.2020
1729 Clouds 24 1016 83 7000 5.1 10 15:38 09.06.2020
1730 Clouds 24 1016 83 7000 5.1 10 15:20 09.06.2020
1731 Clouds 23 1016 83 7000 4.1 10 14:55 09.06.2020
1732 Clouds 23 1016 83 7000 4.1 10 14:37 09.06.2020
1733 Mist 22 1016 88 5000 3.6 50 14:18 09.06.2020
1734 Mist 22 1016 88 5000 3.6 50 13:43 09.06.2020
1735 Clouds 22 1015 88 8000 5.1 20 13:21 09.06.2020
1736 Clouds 22 1015 88 8000 5.1 20 12:58 09.06.2020
1737 Clouds 22 1015 88 8000 5.1 20 12:40 09.06.2020
1738 Clouds 22 1015 88 8000 3.1 50 12:18 09.06.2020
1739 Clouds 22 1015 88 8000 3.1 50 11:55 09.06.2020
1740 Clouds 22 1015 88 8000 3.1 50 11:37 09.06.2020
1741 Clouds 22 1015 88 8000 3.1 50 11:19 09.06.2020
1742 Mist 21 1016 94 4000 2.1 80 10:44 09.06.2020
1743 Mist 21 1016 94 4000 2.1 80 10:25 09.06.2020
1744 Mist 21 1015 88 4000 1.5 20 09:44 09.06.2020
1745 Mist 21 1015 88 4000 1.5 20 09:25 09.06.2020
1746 Mist 21 1016 94 4000 1.5 40 08:58 09.06.2020
1747 Mist 21 1016 94 4000 1.5 40 08:39 09.06.2020
1748 Mist 21 1016 94 4000 1.5 40 08:20 09.06.2020
1749 Mist 22 1016 88 4000 1 350 07:39 09.06.2020
1750 Mist 22 1017 88 5000 1 30 07:21 09.06.2020
1751 Mist 22 1017 88 5000 1 30 06:54 09.06.2020
1752 Mist 22 1017 88 5000 1 30 06:35 09.06.2020
1753 Clouds 22 1017 88 6000 2.1 160 05:36 09.06.2020
1754 Clouds 22 1017 88 6000 2.6 170 03:50 09.06.2020
1755 Clouds 22 1017 94 10000 4.1 170 01:54 09.06.2020
1756 Clouds 22 1017 94 10000 4.1 170 01:36 09.06.2020
1757 Clouds 23 1017 88 8000 4.6 160 01:18 09.06.2020
1758 Clouds 23 1017 88 8000 4.6 160 00:39 09.06.2020
1759 Clouds 23 1016 88 10000 5.1 160 00:18 09.06.2020
1760 Clouds 23 1016 88 10000 5.1 160 23:41 08.06.2020
1761 Clouds 23 1016 88 10000 5.1 160 23:20 08.06.2020
1762 Clouds 23 1016 88 10000 5.1 160 22:56 08.06.2020
1763 Clouds 24 1016 88 10000 5.1 160 22:38 08.06.2020
1764 Clouds 24 1016 88 10000 5.1 160 22:19 08.06.2020
1765 Clouds 25 1015 78 10000 5.1 150 21:55 08.06.2020
1766 Clouds 25 1015 78 10000 5.1 150 21:36 08.06.2020
1767 Clouds 25 1015 78 10000 5.1 150 21:36 08.06.2020
1768 Clouds 25 1015 83 10000 4.6 150 21:18 08.06.2020
1769 Clouds 25 1015 83 10000 4.6 150 20:54 08.06.2020
1770 Clouds 25 1015 83 10000 4.6 150 20:36 08.06.2020
1771 Clouds 26 1016 73 10000 3.6 140 20:18 08.06.2020
1772 Clouds 26 1016 73 10000 3.6 140 19:43 08.06.2020
1773 Clouds 26 1016 73 9000 1.5 70 19:21 08.06.2020
1774 Clouds 26 1016 73 9000 1.5 70 18:43 08.06.2020
1775 Clouds 26 1018 78 8000 2.1 30 18:21 08.06.2020
1776 Clouds 26 1018 78 8000 2.1 30 17:57 08.06.2020
1777 Clouds 26 1018 78 8000 2.1 30 17:39 08.06.2020
1778 Clouds 26 1018 78 8000 2.1 30 17:21 08.06.2020
1779 Clouds 25 1018 83 7000 4.1 30 16:58 08.06.2020
1780 Clouds 25 1018 83 7000 4.1 30 16:39 08.06.2020
1781 Clouds 25 1018 83 7000 4.1 30 16:21 08.06.2020
1782 Mist 24 1019 83 5000 3.6 10 15:42 08.06.2020
1783 Mist 24 1019 83 5000 3.6 10 15:21 08.06.2020
1784 Mist 23 1019 88 4500 2.6 10 14:58 08.06.2020
1785 Mist 22 1019 88 4500 2.6 10 14:38 08.06.2020
1786 Mist 22 1019 88 4500 2.6 10 14:18 08.06.2020
1787 Clouds 22 1018 88 6000 1.5 340 13:42 08.06.2020
1788 Clouds 22 1018 88 6000 1.5 340 13:23 08.06.2020
1789 Clouds 22 1018 94 6000 1.5 330 12:43 08.06.2020
1790 Clouds 22 1017 94 7000 1.5 360 12:20 08.06.2020
1791 Clouds 22 1017 94 7000 1.5 360 11:59 08.06.2020
1792 Clouds 22 1017 94 7000 1 360 11:40 08.06.2020
1793 Clouds 22 1017 94 7000 1 360 11:21 08.06.2020
1794 Clouds 21 1018 94 8000 1 310 10:58 08.06.2020
1795 Clouds 21 1018 94 8000 1 310 10:38 08.06.2020
1796 Clouds 21 1018 94 8000 1 310 10:20 08.06.2020
1797 Clouds 21 1017 94 8000 1.5 320 09:57 08.06.2020
1798 Clouds 21 1017 94 8000 1.5 320 09:39 08.06.2020
1799 Clouds 21 1017 94 8000 1.5 320 09:20 08.06.2020
1800 Clouds 21 1018 94 10000 1 320 08:41 08.06.2020
1801 Clouds 21 1018 94 10000 1 320 08:20 08.06.2020
1802 Clouds 20 1018 94 10000 1 290 07:42 08.06.2020
1803 Clouds 20 1018 94 10000 1 290 07:21 08.06.2020
1804 Clear 20 1018 88 10000 2.12 285 06:43 08.06.2020
1805 Clear 20 1018 88 10000 1.97 283 06:25 08.06.2020
1806 Clouds 21 1018 94 10000 2.1 280 05:42 08.06.2020
1807 Clear 22 1017 88 10000 1.5 160 03:43 08.06.2020
1808 Rain 23 1017 83 10000 1.5 180 02:27 08.06.2020
1809 Clouds 23 1017 83 10000 3.1 190 01:45 08.06.2020
1810 Clouds 23 1017 83 10000 3.1 190 01:25 08.06.2020
1811 Clouds 23 1016 83 10000 3.1 170 00:28 08.06.2020
1812 Clouds 23 1016 83 10000 3.1 170 00:28 08.06.2020
1813 Clouds 24 1016 78 10000 1.5 190 23:41 07.06.2020
1814 Clouds 24 1016 78 10000 1.5 190 23:19 07.06.2020
1815 Clouds 24 1015 83 10000 1 120 22:59 07.06.2020
1816 Clouds 24 1015 83 10000 1 120 22:59 07.06.2020
1817 Clouds 26 1015 83 10000 1 120 22:39 07.06.2020
1818 Clouds 26 1015 73 10000 1.5 340 22:19 07.06.2020
1819 Clouds 26 1015 73 10000 1.5 340 21:58 07.06.2020
1820 Clouds 26 1015 73 10000 1.5 340 21:37 07.06.2020
1821 Clouds 26 1015 73 10000 1.5 340 21:37 07.06.2020
1822 Clouds 26 1015 73 10000 1.5 340 21:19 07.06.2020
1823 Clouds 26 1015 73 10000 2.1 360 20:54 07.06.2020
1824 Clouds 27 1015 73 10000 2.1 360 20:36 07.06.2020
1825 Clouds 27 1016 65 10000 1.5 320 20:18 07.06.2020
1826 Clouds 27 1016 65 10000 1.5 320 19:54 07.06.2020
1827 Clouds 27 1016 65 10000 1.5 320 19:36 07.06.2020
1828 Clouds 26 1017 69 10000 1 40 19:18 07.06.2020
1829 Clouds 26 1017 69 10000 1 40 18:40 07.06.2020
1830 Clouds 25 1019 69 10000 1.5 350 18:21 07.06.2020
1831 Clouds 25 1019 69 10000 1.5 350 17:58 07.06.2020
1832 Clouds 25 1019 69 10000 1.5 350 17:40 07.06.2020
1833 Clouds 24 1019 78 10000 2.1 340 17:21 07.06.2020
1834 Clouds 24 1019 78 10000 2.1 340 16:44 07.06.2020
1835 Clouds 24 1019 78 10000 2.1 340 16:22 07.06.2020
1836 Clouds 23 1019 83 10000 2.6 40 15:44 07.06.2020
1837 Clouds 23 1019 83 10000 2.6 40 15:23 07.06.2020
1838 Clouds 23 1020 83 10000 1.5 350 14:59 07.06.2020
1839 Clouds 23 1020 83 10000 1.5 350 14:59 07.06.2020
1840 Clouds 23 1020 83 10000 1.5 350 14:36 07.06.2020
1841 Clouds 23 1020 83 10000 1.5 350 14:18 07.06.2020
1842 Clouds 23 1020 83 10000 1.5 350 14:18 07.06.2020
1843 Clouds 23 1019 88 10000 7.2 20 13:44 07.06.2020
1844 Clouds 23 1019 88 10000 7.2 20 13:44 07.06.2020
1845 Clouds 23 1019 88 10000 7.2 20 13:44 07.06.2020
1846 Clouds 23 1018 88 10000 5.7 150 13:19 07.06.2020
1847 Clouds 23 1018 88 10000 5.7 150 12:44 07.06.2020
1848 Clouds 23 1018 88 10000 5.7 160 12:25 07.06.2020
1849 Clouds 23 1018 88 10000 5.7 160 11:55 07.06.2020
1850 Clouds 23 1018 88 10000 5.7 160 11:37 07.06.2020
1851 Clouds 23 1018 88 10000 5.7 160 11:19 07.06.2020
1852 Clouds 24 1017 69 10000 3.1 230 10:54 07.06.2020
1853 Clouds 24 1017 69 10000 3.1 230 10:36 07.06.2020
1854 Clouds 24 1017 69 10000 3.1 230 10:18 07.06.2020
1855 Clouds 23 1017 78 10000 2.6 240 09:54 07.06.2020
1856 Clouds 23 1017 78 10000 2.6 240 09:36 07.06.2020
1857 Clouds 23 1017 78 10000 2.6 240 09:18 07.06.2020
1858 Rain 21 1015 83 10000 1 230 08:41 07.06.2020
1859 Rain 21 1015 83 10000 1 230 08:41 07.06.2020
1860 Clouds 21 1015 83 10000 1 230 08:23 07.06.2020
1861 Clouds 21 1015 88 10000 1 220 07:44 07.06.2020
1862 Clouds 21 1015 88 10000 1 220 07:26 07.06.2020
1863 Clouds 21 1016 88 10000 1 60 06:24 07.06.2020
1864 Clouds 22 1016 83 10000 2.6 90 05:28 07.06.2020
1865 Clouds 23 1016 83 10000 2.6 90 04:19 07.06.2020
1866 Clouds 24 1017 78 10000 1.5 30 02:30 07.06.2020
1867 Clouds 24 1017 78 10000 0.5 60 01:43 07.06.2020
1868 Clouds 23 1017 78 10000 0.5 60 01:24 07.06.2020
1869 Clouds 23 1016 73 10000 3.1 80 00:40 07.06.2020
1870 Clouds 24 1016 78 10000 3.1 190 00:18 07.06.2020
1871 Clouds 24 1016 78 10000 3.1 190 23:55 06.06.2020
1872 Clouds 25 1016 78 10000 3.1 190 23:36 06.06.2020
1873 Clouds 25 1016 78 10000 3.1 190 23:18 06.06.2020
1874 Clouds 25 1016 73 10000 4.1 190 22:55 06.06.2020
1875 Clouds 26 1016 73 10000 4.1 190 22:37 06.06.2020
1876 Clouds 26 1016 73 10000 4.1 190 22:18 06.06.2020
1877 Clouds 25 1016 73 10000 5.1 190 21:42 06.06.2020
1878 Clouds 25 1016 73 10000 5.1 190 21:20 06.06.2020
1879 Clouds 26 1016 78 10000 5.7 170 20:41 06.06.2020
1880 Clouds 27 1016 78 10000 5.7 170 20:21 06.06.2020
1881 Clouds 28 1016 65 10000 4.6 170 19:59 06.06.2020
1882 Clouds 28 1016 65 10000 4.6 170 19:41 06.06.2020
1883 Clouds 27 1017 73 10000 4.6 150 19:23 06.06.2020
1884 Clouds 27 1017 73 10000 4.6 150 18:59 06.06.2020
1885 Clouds 26 1017 73 10000 4.6 150 18:41 06.06.2020
1886 Clouds 25 1017 69 10000 2.1 120 18:22 06.06.2020
1887 Clouds 25 1017 69 10000 2.1 120 17:44 06.06.2020
1888 Clouds 25 1017 69 10000 2.1 120 17:21 06.06.2020
1889 Clouds 25 1018 73 10000 1.5 20 16:58 06.06.2020
1890 Clouds 25 1018 73 10000 1.5 20 16:39 06.06.2020
1891 Clouds 25 1018 73 10000 1.5 20 16:21 06.06.2020
1892 Clouds 23 1018 78 10000 1.5 350 15:55 06.06.2020
1893 Clouds 23 1018 78 10000 1.5 350 15:36 06.06.2020
1894 Clouds 23 1018 78 10000 1.5 350 15:18 06.06.2020
1895 Clouds 22 1018 83 10000 2.1 350 14:39 06.06.2020
1896 Clouds 22 1018 83 10000 2.1 350 14:20 06.06.2020
1897 Clouds 21 1018 88 10000 2.1 360 13:54 06.06.2020
1898 Clouds 21 1018 88 10000 2.1 360 13:36 06.06.2020
1899 Clouds 20 1017 83 10000 2.1 320 13:18 06.06.2020
1900 Clouds 20 1017 83 10000 2.1 320 12:41 06.06.2020
1901 Clouds 20 1017 83 10000 1 10 12:22 06.06.2020
1902 Clouds 20 1017 83 10000 1 10 11:58 06.06.2020
1903 Clouds 20 1017 83 10000 1 10 11:38 06.06.2020
1904 Clouds 19 1017 88 10000 1.5 110 11:19 06.06.2020
1905 Clouds 19 1017 88 10000 1.5 110 10:57 06.06.2020
1906 Clouds 19 1017 88 10000 1.5 110 10:39 06.06.2020
1907 Clouds 19 1017 88 10000 1.5 110 10:39 06.06.2020
1908 Clouds 19 1017 88 10000 1.5 110 10:20 06.06.2020
1909 Clouds 19 1017 93 10000 2.6 50 09:45 06.06.2020
1910 Clouds 19 1017 93 10000 2.6 50 09:27 06.06.2020
1911 Clouds 19 1018 88 10000 1.5 80 08:58 06.06.2020
1912 Clouds 19 1018 88 10000 1.5 80 08:40 06.06.2020
1913 Clouds 19 1018 88 10000 1.5 80 08:19 06.06.2020
1914 Clouds 20 1018 88 10000 1 120 07:45 06.06.2020
1915 Clouds 20 1018 88 10000 1 120 07:45 06.06.2020
1916 Clouds 20 1018 88 10000 1 120 07:22 06.06.2020
1917 Clouds 20 1019 88 10000 1.5 100 06:46 06.06.2020
1918 Clouds 20 1019 88 10000 1.5 100 06:27 06.06.2020
1919 Clouds 20 1019 88 10000 1 80 05:54 06.06.2020
1920 Clouds 21 1019 83 10000 1.5 40 05:28 06.06.2020
1921 Clouds 22 1019 83 10000 1.5 40 04:43 06.06.2020
1922 Clouds 23 1020 78 10000 3.1 100 02:49 06.06.2020
1923 Clouds 23 1020 78 10000 2.1 90 01:54 06.06.2020
1924 Clouds 23 1020 78 10000 1.5 50 01:19 06.06.2020
1925 Clouds 23 1020 78 10000 1.5 50 00:45 06.06.2020
1926 Clouds 23 1020 78 10000 1.5 50 00:27 06.06.2020
1927 Clouds 23 1020 78 10000 1.5 50 00:27 06.06.2020
1928 Clouds 24 1020 73 10000 2.6 70 23:55 05.06.2020
1929 Clouds 24 1020 73 10000 2.6 70 23:36 05.06.2020
1930 Clouds 24 1020 73 10000 2.6 70 23:18 05.06.2020
1931 Clouds 24 1019 78 10000 4.1 90 22:41 05.06.2020
1932 Clouds 25 1019 78 10000 4.1 90 22:23 05.06.2020
1933 Clouds 25 1019 69 10000 4.1 70 21:59 05.06.2020
1934 Clouds 25 1019 69 10000 4.1 70 21:59 05.06.2020
1935 Clouds 25 1019 69 10000 4.1 70 21:40 05.06.2020
1936 Clouds 25 1019 69 10000 4.1 70 21:21 05.06.2020
1937 Clouds 25 1019 73 10000 2.1 160 20:57 05.06.2020
1938 Clouds 26 1019 73 10000 2.1 160 20:38 05.06.2020
1939 Clouds 26 1020 73 10000 3.6 170 20:20 05.06.2020
1940 Clouds 25 1020 73 10000 3.6 170 19:41 05.06.2020
1941 Clouds 25 1020 73 10000 3.6 170 19:22 05.06.2020
1942 Clouds 25 1021 73 10000 1 30 18:56 05.06.2020
1943 Clouds 25 1021 73 10000 1 30 18:38 05.06.2020
1944 Clouds 25 1022 73 10000 2.1 360 18:19 05.06.2020
1945 Clouds 25 1022 73 10000 2.1 360 17:57 05.06.2020
1946 Clouds 25 1022 73 10000 2.1 360 17:38 05.06.2020
1947 Clouds 25 1022 73 10000 2.1 360 17:18 05.06.2020
1948 Clouds 24 1023 73 10000 0.5 0 16:39 05.06.2020
1949 Clouds 24 1023 73 10000 0.5 0 16:20 05.06.2020
1950 Clouds 23 1023 78 10000 3.1 90 15:43 05.06.2020
1951 Clouds 23 1023 78 10000 3.1 90 15:43 05.06.2020
1952 Clouds 23 1023 78 10000 3.1 90 15:22 05.06.2020
1953 Clouds 23 1023 78 10000 2.1 90 14:59 05.06.2020
1954 Clouds 23 1023 78 10000 2.1 90 14:40 05.06.2020
1955 Clouds 23 1023 78 10000 2.1 90 14:22 05.06.2020
1956 Clouds 22 1022 88 10000 3.1 60 13:58 05.06.2020
1957 Clouds 22 1022 88 10000 3.1 60 13:39 05.06.2020
1958 Clouds 22 1022 88 10000 3.1 60 13:20 05.06.2020
1959 Clouds 22 1022 88 10000 2.1 70 12:42 05.06.2020
1960 Clouds 22 1022 88 10000 2.1 70 12:20 05.06.2020
1961 Clouds 22 1021 88 9000 1.5 120 11:56 05.06.2020
1962 Clouds 22 1021 88 9000 1.5 120 11:37 05.06.2020
1963 Clouds 22 1021 88 9000 1.5 120 11:19 05.06.2020
1964 Clouds 22 1020 83 10000 3.6 110 10:42 05.06.2020
1965 Clouds 22 1020 83 10000 3.6 110 10:21 05.06.2020
1966 Clouds 22 1020 83 10000 3.6 110 10:21 05.06.2020
1967 Clouds 22 1020 83 10000 4.1 110 09:59 05.06.2020
1968 Clouds 22 1020 83 10000 4.1 110 09:40 05.06.2020
1969 Clouds 22 1020 83 10000 4.1 110 09:21 05.06.2020
1970 Clouds 22 1021 83 10000 3.6 130 08:59 05.06.2020
1971 Clouds 22 1021 83 10000 3.6 130 08:41 05.06.2020
1972 Clouds 22 1021 83 10000 3.6 130 08:19 05.06.2020
1973 Clouds 22 1021 88 10000 4.1 130 07:55 05.06.2020
1974 Clouds 22 1021 88 10000 4.1 130 07:37 05.06.2020
1975 Clouds 22 1021 83 10000 3.6 80 06:56 05.06.2020
1976 Clouds 23 1021 83 10000 2.6 170 05:41 05.06.2020
1977 Clouds 23 1021 83 10000 2.6 170 05:18 05.06.2020
1978 Clouds 23 1021 83 10000 2.1 160 03:53 05.06.2020
1979 Clouds 23 1021 83 10000 2.6 150 02:45 05.06.2020
1980 Clouds 23 1021 83 10000 2.6 150 02:21 05.06.2020
1981 Clouds 23 1021 88 10000 3.1 120 01:52 05.06.2020
1982 Clouds 23 1021 88 10000 3.1 120 01:20 05.06.2020
1983 Clouds 23 1020 88 10000 3.6 140 00:41 05.06.2020
1984 Clouds 23 1020 88 10000 3.6 120 00:20 05.06.2020
1985 Clouds 23 1020 88 10000 3.6 120 23:46 04.06.2020
1986 Clouds 23 1020 88 10000 3.6 120 23:26 04.06.2020
1987 Clouds 23 1020 88 10000 4.1 180 22:55 04.06.2020
1988 Clouds 23 1020 88 10000 4.1 180 22:36 04.06.2020
1989 Clouds 24 1019 88 10000 4.1 180 22:18 04.06.2020
1990 Clouds 24 1019 88 10000 4.1 180 21:55 04.06.2020
1991 Clouds 24 1019 88 10000 4.1 180 21:36 04.06.2020
1992 Clouds 24 1019 88 10000 4.1 180 21:18 04.06.2020
1993 Clouds 25 1020 83 10000 4.6 170 20:40 04.06.2020
1994 Clouds 24 1020 83 10000 4.6 170 20:21 04.06.2020
1995 Clouds 25 1020 83 10000 4.6 170 19:59 04.06.2020
1996 Clouds 25 1020 83 10000 4.6 170 19:38 04.06.2020
1997 Clouds 25 1021 78 10000 5.1 160 19:20 04.06.2020
1998 Clouds 25 1021 78 10000 5.1 160 18:54 04.06.2020
1999 Clouds 25 1021 78 10000 5.1 160 18:36 04.06.2020
2000 Clouds 26 1022 78 10000 3.6 150 18:18 04.06.2020
2001 Clouds 26 1022 78 10000 3.6 150 17:41 04.06.2020
2002 Clouds 26 1022 78 10000 3.6 150 17:21 04.06.2020
2003 Clouds 26 1022 78 10000 3.6 150 17:21 04.06.2020
2004 Clouds 25 1022 78 9000 1.5 30 16:55 04.06.2020
2005 Clouds 25 1022 78 9000 1.5 30 16:37 04.06.2020
2006 Clouds 25 1022 78 9000 1.5 30 16:18 04.06.2020
2007 Clouds 23 1023 83 10000 2.1 350 15:41 04.06.2020
2008 Clouds 23 1023 83 10000 2.1 350 15:22 04.06.2020
2009 Clouds 22 1022 88 10000 1.5 360 14:39 04.06.2020
2010 Clouds 22 1022 88 10000 1.5 360 14:20 04.06.2020
2011 Clouds 22 1022 88 10000 0.53 34 13:56 04.06.2020
2012 Clouds 22 1022 88 10000 0.53 34 13:56 04.06.2020
2013 Clouds 22 1022 88 10000 0.53 34 13:38 04.06.2020
2014 Clouds 22 1021 88 10000 2.1 360 13:19 04.06.2020
2015 Clouds 22 1021 88 10000 2.1 360 12:55 04.06.2020
2016 Clouds 22 1021 88 10000 2.1 360 12:37 04.06.2020
2017 Clouds 21 1020 83 10000 2.1 30 12:18 04.06.2020
2018 Clouds 21 1020 83 10000 2.1 30 11:41 04.06.2020
2019 Clouds 21 1020 83 10000 2.1 30 11:20 04.06.2020
2020 Clouds 20 1020 94 8000 1 60 10:59 04.06.2020
2021 Clouds 20 1020 94 8000 1 60 10:39 04.06.2020
2022 Clouds 20 1020 94 9000 1.5 80 10:21 04.06.2020
2023 Clouds 20 1020 94 9000 1.5 80 09:56 04.06.2020
2024 Clouds 20 1020 94 9000 1.5 80 09:37 04.06.2020
2025 Clouds 20 1020 94 9000 1.5 80 09:18 04.06.2020
2026 Clouds 20 1021 94 10000 1 80 08:38 04.06.2020
2027 Clouds 20 1021 94 10000 1 80 08:20 04.06.2020
2028 Clouds 21 1021 88 10000 1 120 07:32 04.06.2020
2029 Clouds 21 1021 88 10000 1.5 80 06:57 04.06.2020
2030 Clouds 21 1021 88 10000 1.5 80 06:39 04.06.2020
2031 Clouds 21 1021 88 10000 1.5 80 06:18 04.06.2020
2032 Clouds 22 1021 94 10000 2.6 130 05:33 04.06.2020
2033 Clouds 22 1021 94 10000 2.6 130 05:33 04.06.2020
2034 Clouds 22 1021 88 10000 1.5 180 03:50 04.06.2020
2035 Clouds 22 1021 88 10000 2.6 180 02:21 04.06.2020
2036 Clouds 22 1021 88 10000 2.6 180 02:21 04.06.2020
2037 Clouds 23 1020 83 10000 4.1 180 01:39 04.06.2020
2038 Clouds 23 1020 83 10000 4.6 180 01:18 04.06.2020
2039 Clouds 23 1019 83 10000 5.1 180 00:19 04.06.2020
2040 Clouds 23 1019 83 10000 5.1 180 23:39 03.06.2020
2041 Clouds 23 1019 83 10000 5.1 180 23:19 03.06.2020
2042 Clouds 23 1018 83 10000 4.6 170 22:56 03.06.2020
2043 Clouds 23 1018 83 10000 4.6 170 22:38 03.06.2020
2044 Clouds 23 1018 83 10000 5.1 170 22:18 03.06.2020
2045 Clouds 23 1018 83 10000 5.1 170 21:55 03.06.2020
2046 Clouds 24 1018 83 10000 5.1 170 21:37 03.06.2020
2047 Clouds 24 1018 83 10000 5.1 170 21:19 03.06.2020
2048 Clouds 24 1017 78 9000 5.7 160 20:42 03.06.2020
2049 Clouds 25 1017 78 9000 5.7 160 20:21 03.06.2020
2050 Clouds 25 1018 73 7000 5.7 160 19:58 03.06.2020
2051 Clouds 25 1018 73 7000 5.7 160 19:39 03.06.2020
2052 Clouds 25 1018 78 8000 5.7 150 19:21 03.06.2020
2053 Clouds 25 1018 78 8000 5.7 150 18:59 03.06.2020
2054 Clouds 25 1018 78 8000 5.7 150 18:41 03.06.2020
2055 Clouds 25 1019 73 8000 3.6 150 18:20 03.06.2020
2056 Clouds 25 1019 73 8000 3.6 150 17:54 03.06.2020
2057 Clouds 25 1019 73 8000 3.6 150 17:36 03.06.2020
2058 Clouds 24 1019 83 8000 2.1 30 17:18 03.06.2020
2059 Clouds 24 1019 83 8000 2.1 30 16:41 03.06.2020
2060 Clouds 24 1019 83 8000 2.1 30 16:20 03.06.2020
2061 Clouds 22 1019 88 8000 2.1 10 15:55 03.06.2020
2062 Clouds 22 1019 88 8000 2.1 10 15:37 03.06.2020
2063 Clouds 22 1019 88 8000 2.1 10 15:19 03.06.2020
2064 Clouds 22 1019 88 8000 2.1 360 14:45 03.06.2020
2065 Clouds 21 1019 88 8000 2.1 360 14:24 03.06.2020
2066 Clouds 21 1018 88 7000 2.6 30 13:54 03.06.2020
2067 Clouds 21 1018 88 7000 2.6 30 13:36 03.06.2020
2068 Clouds 20 1018 88 7000 2.6 340 13:18 03.06.2020
2069 Clouds 20 1018 88 7000 2.6 340 12:42 03.06.2020
2070 Clouds 21 1017 88 7000 2.1 360 12:20 03.06.2020
2071 Clouds 21 1017 88 7000 2.1 360 11:45 03.06.2020
2072 Clouds 21 1017 88 7000 2.1 360 11:26 03.06.2020
2073 Mist 19 1017 93 4500 1 0 10:55 03.06.2020
2074 Mist 19 1017 93 4500 1 0 10:37 03.06.2020
2075 Mist 19 1017 93 4500 1 0 10:19 03.06.2020
2076 Mist 19 1017 93 5000 1.5 80 09:41 03.06.2020
2077 Mist 19 1017 93 5000 1.5 80 09:19 03.06.2020
2078 Mist 19 1017 93 5000 1 40 08:47 03.06.2020
2079 Mist 19 1017 93 5000 1 40 08:22 03.06.2020
2080 Mist 18 1017 93 5000 1 50 07:58 03.06.2020
2081 Mist 18 1017 93 5000 1 50 07:39 03.06.2020
2082 Clouds 18 1017 93 6000 1 30 07:18 03.06.2020
2083 Clouds 18 1017 93 6000 1 30 06:45 03.06.2020
2084 Clouds 18 1017 93 6000 1 30 06:27 03.06.2020
2085 Clouds 20 1018 88 7000 1 300 05:45 03.06.2020
2086 Mist 22 1017 88 5000 4.1 20 04:30 03.06.2020
2087 Clouds 21 1018 88 9000 2.1 20 03:42 03.06.2020
2088 Clouds 22 1017 73 10000 1 340 02:46 03.06.2020
2089 Clouds 22 1017 78 10000 1 190 01:47 03.06.2020
2090 Clouds 22 1016 83 10000 1.5 190 00:41 03.06.2020
2091 Clouds 22 1016 83 10000 1.5 190 00:22 03.06.2020
2092 Clouds 23 1016 78 10000 4.6 190 23:49 02.06.2020
2093 Clouds 23 1016 78 10000 4.6 190 23:27 02.06.2020
2094 Clouds 24 1015 78 10000 5.1 170 22:56 02.06.2020
2095 Clouds 24 1015 78 10000 5.1 170 22:37 02.06.2020
2096 Clouds 24 1015 78 10000 5.1 170 22:18 02.06.2020
2097 Clouds 24 1015 69 10000 3.6 180 21:55 02.06.2020
2098 Clouds 25 1015 69 10000 3.6 180 21:36 02.06.2020
2099 Clouds 25 1015 69 10000 3.6 180 21:18 02.06.2020
2100 Clouds 25 1015 69 10000 3.6 180 21:18 02.06.2020
2101 Clouds 25 1014 69 10000 6.7 190 20:55 02.06.2020
2102 Clouds 25 1014 69 10000 6.7 190 20:36 02.06.2020
2103 Clouds 25 1014 69 10000 6.7 190 20:18 02.06.2020
2104 Clouds 26 1014 69 10000 8.7 190 19:41 02.06.2020
2105 Clouds 26 1014 69 10000 6.2 170 19:23 02.06.2020
2106 Clouds 26 1014 69 10000 6.2 170 18:56 02.06.2020
2107 Clouds 26 1014 69 10000 6.2 170 18:38 02.06.2020
2108 Clouds 25 1015 69 10000 1.5 120 18:19 02.06.2020
2109 Clouds 24 1015 69 10000 1.5 120 17:42 02.06.2020
2110 Clear 25 1015 69 10000 1.5 120 17:23 02.06.2020
2111 Clear 23 1015 73 10000 2.1 360 16:57 02.06.2020
2112 Clear 24 1015 73 10000 2.1 360 16:39 02.06.2020
2113 Clear 24 1015 73 10000 2.1 360 16:20 02.06.2020
2114 Clear 23 1016 73 10000 3.1 10 15:54 02.06.2020
2115 Clear 21 1016 73 10000 3.1 10 15:36 02.06.2020
2116 Clear 21 1016 73 10000 3.1 10 15:18 02.06.2020
2117 Clear 20 1015 77 10000 3.1 360 14:42 02.06.2020
2118 Clear 20 1015 77 10000 3.1 360 14:22 02.06.2020
2119 Clear 20 1015 77 10000 2.6 10 13:39 02.06.2020
2120 Clear 17 1015 82 10000 1.5 360 13:19 02.06.2020
2121 Clear 17 1015 82 10000 1.5 360 12:59 02.06.2020
2122 Clear 17 1015 82 10000 1.5 360 12:40 02.06.2020
2123 Clear 18 1014 82 10000 2.6 20 12:21 02.06.2020
2124 Clear 18 1014 82 10000 2.6 20 11:56 02.06.2020
2125 Clear 18 1014 82 10000 2.6 20 11:38 02.06.2020
2126 Clouds 18 1014 82 10000 2.6 20 11:20 02.06.2020
2127 Clouds 17 1015 88 8000 1 330 10:47 02.06.2020
2128 Clouds 17 1015 88 8000 1 330 10:28 02.06.2020
2129 Clouds 17 1015 82 8000 1 360 09:58 02.06.2020
2130 Clouds 17 1015 82 8000 1 360 09:38 02.06.2020
2131 Clouds 17 1015 82 8000 1 360 09:20 02.06.2020
2132 Clouds 17 1015 82 8000 1 360 09:20 02.06.2020
2133 Clouds 17 1015 82 10000 1.5 350 08:48 02.06.2020
2134 Clouds 17 1015 82 10000 1 300 08:21 02.06.2020
2135 Clouds 17 1015 82 10000 1 300 07:52 02.06.2020
2136 Clear 17 1015 82 10000 1 300 07:26 02.06.2020
2137 Clear 17 1015 88 10000 1.5 330 06:45 02.06.2020
2138 Clear 19 1016 77 10000 2.1 340 06:18 02.06.2020
2139 Clear 21 1015 68 10000 1 350 05:21 02.06.2020
2140 Clear 20 1015 73 10000 1 150 03:25 02.06.2020
2141 Clear 21 1015 73 10000 1 160 02:30 02.06.2020
2142 Clouds 21 1014 69 10000 0.91 57 01:25 02.06.2020
2143 Clear 21 1013 60 10000 0.81 83 00:26 02.06.2020
2144 Clear 24 1013 69 10000 1.5 140 23:57 01.06.2020
2145 Clear 24 1013 69 10000 1.5 140 23:37 01.06.2020
2146 Clear 24 1013 69 10000 1.5 140 23:18 01.06.2020
2147 Clear 26 1013 44 10000 1 190 22:42 01.06.2020
2148 Clear 28 1013 44 10000 1 190 22:21 01.06.2020
2149 Clear 27 1012 51 10000 1.5 130 21:58 01.06.2020
2150 Clear 27 1012 51 10000 1.5 130 21:40 01.06.2020
2151 Clear 29 1012 51 10000 1.5 130 21:20 01.06.2020
2152 Clear 29 1012 54 10000 1 350 20:58 01.06.2020
2153 Clear 29 1013 65 10000 2.1 10 20:39 01.06.2020
2154 Clear 29 1013 65 10000 2.1 10 20:19 01.06.2020
2155 Clear 29 1013 65 10000 2.1 10 19:56 01.06.2020
2156 Clear 29 1013 65 10000 2.1 10 19:38 01.06.2020
2157 Clear 28 1013 65 10000 3.1 360 19:19 01.06.2020
2158 Clear 28 1013 65 10000 3.1 360 18:55 01.06.2020
2159 Clear 28 1013 65 10000 3.1 360 18:37 01.06.2020
2160 Clear 25 1015 60 10000 3.6 10 18:18 01.06.2020
2161 Clear 25 1015 60 10000 3.6 10 17:40 01.06.2020
2162 Clear 26 1015 60 10000 3.6 10 17:20 01.06.2020
2163 Clear 26 1015 73 8000 3.6 10 16:42 01.06.2020
2164 Clear 26 1015 73 8000 3.6 10 16:24 01.06.2020
2165 Clear 24 1016 73 7000 4.1 10 15:59 01.06.2020
2166 Clear 23 1016 73 7000 4.1 10 15:40 01.06.2020
2167 Clear 23 1016 73 7000 4.1 10 15:20 01.06.2020
2168 Clear 23 1016 77 7000 4.1 10 14:58 01.06.2020
2169 Clear 23 1016 77 7000 4.1 10 14:40 01.06.2020
2170 Clear 23 1016 77 7000 4.1 10 14:21 01.06.2020
2171 Clear 20 1016 82 7000 4.1 350 13:55 01.06.2020
2172 Clear 20 1016 82 7000 4.1 350 13:55 01.06.2020
2173 Clear 20 1016 82 7000 4.1 350 13:37 01.06.2020
2174 Clear 18 1015 82 10000 3.1 330 13:18 01.06.2020
2175 Clear 18 1015 82 10000 3.1 330 12:55 01.06.2020
2176 Clear 18 1015 82 10000 3.1 330 12:37 01.06.2020
2177 Clear 18 1015 82 10000 3.1 330 12:37 01.06.2020
2178 Clear 18 1014 82 10000 3.6 330 12:18 01.06.2020
2179 Clear 18 1014 82 10000 3.6 330 11:40 01.06.2020
2180 Clear 18 1014 82 10000 3.6 330 11:22 01.06.2020
2181 Clear 15 1014 87 8000 1.5 260 10:57 01.06.2020
2182 Clear 15 1014 87 8000 1.5 260 10:38 01.06.2020
2183 Clear 15 1014 87 8000 1.5 260 10:19 01.06.2020
2184 Clear 15 1014 87 10000 1 0 09:55 01.06.2020
2185 Clear 15 1014 87 10000 1 0 09:37 01.06.2020
2186 Clear 15 1014 87 10000 1 0 09:19 01.06.2020
2187 Clear 16 1014 82 10000 1 0 08:45 01.06.2020
2188 Clouds 16 1014 82 10000 1 0 08:25 01.06.2020
2189 Clouds 16 1015 87 10000 1 110 07:45 01.06.2020
2190 Clouds 16 1015 87 10000 1 110 07:27 01.06.2020
2191 Clouds 17 1015 88 10000 2.1 80 06:54 01.06.2020
2192 Clouds 17 1015 88 7000 1.5 70 06:20 01.06.2020
2193 Clouds 17 1015 88 7000 1.5 70 05:50 01.06.2020
2194 Clear 19 1016 73 10000 3.1 330 04:23 01.06.2020
2195 Clear 20 1016 68 10000 2.6 330 03:46 01.06.2020
2196 Clear 21 1016 68 10000 2.6 320 03:18 01.06.2020
2197 Clouds 22 1015 78 10000 1 170 01:48 01.06.2020
2198 Clouds 21 1015 78 10000 1 170 01:29 01.06.2020
2199 Clouds 22 1015 83 10000 2.6 130 00:57 01.06.2020
2200 Clouds 22 1015 83 10000 2.6 130 00:39 01.06.2020
2201 Clouds 22 1015 83 10000 2.6 130 00:21 01.06.2020
2202 Clouds 24 1015 47 10000 1.5 160 23:56 31.05.2020
2203 Clouds 24 1015 47 10000 1.5 160 23:37 31.05.2020
2204 Clouds 24 1015 47 10000 1.5 160 23:19 31.05.2020
2205 Clouds 26 1014 36 10000 4.1 200 22:43 31.05.2020
2206 Clouds 26 1014 36 10000 4.1 200 22:25 31.05.2020
2207 Clouds 27 1014 36 10000 4.6 190 21:58 31.05.2020
2208 Clouds 27 1014 36 10000 4.6 190 21:40 31.05.2020
2209 Clouds 27 1014 36 10000 4.6 190 21:22 31.05.2020
2210 Clouds 29 1014 48 10000 1.5 150 20:57 31.05.2020
2211 Clouds 29 1014 48 10000 1.5 150 20:38 31.05.2020
2212 Clouds 29 1014 48 10000 1.5 150 20:19 31.05.2020
2213 Clouds 28 1014 61 10000 1 50 19:54 31.05.2020
2214 Clouds 28 1014 61 10000 1 50 19:36 31.05.2020
2215 Clouds 28 1014 61 10000 1 50 19:18 31.05.2020
2216 Clouds 26 1015 69 10000 3.1 20 18:43 31.05.2020
2217 Clouds 26 1015 69 10000 3.1 20 18:25 31.05.2020
2218 Clouds 26 1016 69 10000 2.6 10 17:46 31.05.2020
2219 Clouds 26 1016 69 10000 2.6 10 17:25 31.05.2020
2220 Clouds 24 1016 73 10000 4.1 10 16:59 31.05.2020
2221 Clear 25 1016 73 10000 4.1 10 16:40 31.05.2020
2222 Clear 25 1016 73 10000 4.1 10 16:19 31.05.2020
2223 Mist 24 1017 78 5000 4.6 10 15:40 31.05.2020
2224 Mist 24 1017 78 5000 4.6 10 15:21 31.05.2020
2225 Mist 21 1017 88 5000 4.1 360 14:47 31.05.2020
2226 Mist 20 1017 88 5000 4.1 360 14:23 31.05.2020
2227 Mist 19 1016 88 5000 3.1 330 13:57 31.05.2020
2228 Mist 19 1016 88 5000 3.1 330 13:38 31.05.2020
2229 Mist 19 1016 88 5000 3.1 330 13:20 31.05.2020
2230 Clouds 17 1016 82 10000 2.6 340 12:58 31.05.2020
2231 Clouds 19 1016 82 10000 2.6 340 12:39 31.05.2020
2232 Clear 19 1016 82 10000 2.6 340 12:21 31.05.2020
2233 Clear 17 1015 93 10000 3.1 340 11:49 31.05.2020
2234 Clear 17 1015 93 10000 3.1 340 11:24 31.05.2020
2235 Clear 17 1015 93 10000 3.1 340 11:24 31.05.2020
2236 Mist 16 1016 87 5000 1 40 10:58 31.05.2020
2237 Mist 16 1016 87 5000 1 40 10:58 31.05.2020
2238 Mist 16 1016 87 5000 1 40 10:39 31.05.2020
2239 Mist 16 1016 87 5000 1 40 10:21 31.05.2020
2240 Mist 17 1015 93 5000 1 320 09:56 31.05.2020
2241 Mist 17 1015 93 5000 1 320 09:38 31.05.2020
2242 Mist 17 1015 93 5000 1 320 09:38 31.05.2020
2243 Mist 17 1015 93 5000 1 320 09:19 31.05.2020
2244 Clear 16 1015 93 6000 1.5 60 08:42 31.05.2020
2245 Clear 16 1015 93 6000 1.5 60 08:23 31.05.2020
2246 Clear 17 1016 93 6000 1 170 07:48 31.05.2020
2247 Mist 18 1016 88 5000 1 320 07:21 31.05.2020
2248 Mist 18 1016 88 5000 1 320 06:56 31.05.2020
2249 Mist 18 1016 88 5000 1 320 06:34 31.05.2020
2250 Mist 18 1016 93 5000 1 10 05:49 31.05.2020
2251 Clear 20 1016 88 10000 1.5 10 05:31 31.05.2020
2252 Clear 21 1016 88 10000 2.1 40 03:57 31.05.2020
2253 Clear 21 1016 88 10000 2.1 40 03:22 31.05.2020
2254 Clear 20 1016 77 10000 1.65 349 02:44 31.05.2020
2255 Clear 22 1016 78 10000 2.1 190 01:45 31.05.2020
2256 Clear 21 1016 78 10000 1.5 190 00:40 31.05.2020
2257 Clear 21 1016 78 10000 3.6 190 00:20 31.05.2020
2258 Clear 22 1016 78 10000 3.6 190 23:42 30.05.2020
2259 Clear 22 1016 78 10000 3.6 190 23:42 30.05.2020
2260 Clear 22 1016 78 10000 3.6 190 23:23 30.05.2020
2261 Clear 22 1015 83 10000 4.6 180 22:54 30.05.2020
2262 Clear 22 1015 83 10000 4.6 180 22:36 30.05.2020
2263 Clear 24 1015 73 10000 4.6 170 22:18 30.05.2020
2264 Clear 24 1015 73 10000 4.6 170 21:42 30.05.2020
2265 Clear 24 1015 73 10000 4.6 170 21:22 30.05.2020
2266 Clear 24 1016 73 10000 5.1 160 20:57 30.05.2020
2267 Clear 25 1016 73 10000 5.1 160 20:39 30.05.2020
2268 Clouds 26 1016 73 10000 5.7 160 20:21 30.05.2020
2269 Clouds 24 1016 73 10000 5.7 160 19:55 30.05.2020
2270 Clouds 24 1016 73 10000 5.7 160 19:37 30.05.2020
2271 Clouds 24 1016 73 10000 5.7 160 19:18 30.05.2020
2272 Clouds 25 1016 64 10000 3.6 160 18:43 30.05.2020
2273 Clouds 25 1017 73 10000 2.6 20 18:19 30.05.2020
2274 Clouds 24 1017 73 10000 2.6 20 17:42 30.05.2020
2275 Clouds 24 1017 73 10000 2.6 20 17:24 30.05.2020
2276 Clouds 24 1017 73 10000 2.6 20 17:24 30.05.2020
2277 Clouds 24 1018 83 10000 2.1 360 16:58 30.05.2020
2278 Clouds 24 1018 83 10000 2.1 360 16:39 30.05.2020
2279 Clouds 21 1019 88 10000 3.1 340 16:20 30.05.2020
2280 Clouds 21 1019 88 10000 3.1 340 15:42 30.05.2020
2281 Clear 21 1019 88 10000 3.1 340 15:24 30.05.2020
2282 Clouds 19 1019 88 10000 3.6 360 14:44 30.05.2020
2283 Clouds 19 1019 88 10000 3.6 360 14:25 30.05.2020
2284 Clouds 18 1019 88 10000 3.1 360 13:44 30.05.2020
2285 Clouds 18 1019 88 10000 3.1 360 13:24 30.05.2020
2286 Clouds 18 1018 88 10000 2.1 10 12:42 30.05.2020
2287 Clouds 18 1018 88 10000 2.1 10 12:21 30.05.2020
2288 Clouds 17 1017 82 10000 2.1 20 11:58 30.05.2020
2289 Clouds 17 1017 82 10000 2.1 20 11:40 30.05.2020
2290 Clouds 17 1017 82 10000 2.1 20 11:22 30.05.2020
2291 Clouds 17 1017 82 10000 2.1 20 11:22 30.05.2020
2292 Clouds 15 1017 93 8000 1.5 40 10:54 30.05.2020
2293 Clouds 15 1017 93 8000 1.5 40 10:36 30.05.2020
2294 Clear 15 1017 93 10000 1.5 20 10:18 30.05.2020
2295 Clear 15 1017 93 10000 1.5 20 09:41 30.05.2020
2296 Clear 15 1017 93 10000 1.5 20 09:23 30.05.2020
2297 Clear 15 1017 93 10000 1.55 332 08:40 30.05.2020
2298 Clear 15 1017 93 10000 1.82 355 08:21 30.05.2020
2299 Clear 16 1018 82 10000 1 260 07:38 30.05.2020
2300 Clear 16 1018 93 10000 1.5 210 07:18 30.05.2020
2301 Clear 16 1018 93 10000 1.5 210 06:25 30.05.2020
2302 Clear 18 1018 88 10000 1.5 40 05:49 30.05.2020
2303 Clear 19 1019 82 10000 1.5 40 04:37 30.05.2020
2304 Clear 21 1019 73 10000 2.1 120 02:34 30.05.2020
2305 Clear 21 1019 68 10000 2.6 70 01:57 30.05.2020
2306 Clear 22 1018 78 10000 4.1 110 00:44 30.05.2020
2307 Clear 22 1018 78 10000 4.1 110 00:24 30.05.2020
2308 Clouds 22 1018 78 10000 4.1 130 23:59 29.05.2020
2309 Clouds 22 1018 78 10000 4.1 130 23:38 29.05.2020
2310 Clouds 22 1018 78 10000 4.1 130 23:19 29.05.2020
2311 Clouds 23 1018 73 10000 4.1 150 23:19 29.05.2020
2312 Clouds 23 1018 73 10000 4.1 150 22:54 29.05.2020
2313 Clouds 23 1018 73 10000 4.1 150 22:36 29.05.2020
2314 Clear 24 1017 69 10000 5.1 150 22:18 29.05.2020
2315 Clear 24 1017 69 10000 5.1 150 21:40 29.05.2020
2316 Clear 24 1017 69 10000 5.1 150 21:21 29.05.2020
2317 Clear 24 1017 69 10000 5.1 150 21:21 29.05.2020
2318 Clear 23 1018 69 10000 4.6 160 20:58 29.05.2020
2319 Clear 23 1018 69 10000 4.6 160 20:38 29.05.2020
2320 Clear 23 1018 69 10000 4.6 160 20:19 29.05.2020
2321 Clear 23 1019 69 10000 4.1 150 19:43 29.05.2020
2322 Clear 25 1019 69 10000 4.1 150 19:24 29.05.2020
2323 Clear 24 1019 64 10000 1.5 110 18:48 29.05.2020
2324 Clear 24 1019 64 10000 1.5 110 18:23 29.05.2020
2325 Clouds 24 1020 73 10000 2.6 340 17:59 29.05.2020
2326 Clouds 22 1020 73 10000 2.6 340 17:39 29.05.2020
2327 Clouds 22 1020 73 10000 2.6 340 17:20 29.05.2020
2328 Clouds 21 1021 73 10000 2.1 330 16:54 29.05.2020
2329 Clouds 21 1021 73 10000 2.1 330 16:36 29.05.2020
2330 Clouds 21 1021 73 10000 2.1 330 16:18 29.05.2020
2331 Clouds 20 1022 82 6000 2.6 360 15:41 29.05.2020
2332 Clouds 20 1022 82 6000 2.6 360 15:21 29.05.2020
2333 Mist 19 1022 88 5000 2.6 360 14:58 29.05.2020
2334 Mist 19 1022 88 5000 2.6 360 14:38 29.05.2020
2335 Mist 18 1022 88 5000 2.6 360 14:19 29.05.2020
2336 Mist 18 1022 88 5000 2.6 340 13:43 29.05.2020
2337 Mist 18 1022 88 5000 2.6 340 13:23 29.05.2020
2338 Mist 17 1022 88 5000 2.6 330 12:57 29.05.2020
2339 Clouds 17 1022 88 8000 2.6 360 12:39 29.05.2020
2340 Clouds 17 1021 93 8000 3.1 10 12:19 29.05.2020
2341 Clouds 17 1021 93 8000 3.1 10 11:42 29.05.2020
2342 Clouds 17 1021 93 8000 3.1 10 11:24 29.05.2020
2343 Clear 15 1021 93 10000 1 360 10:55 29.05.2020
2344 Clear 15 1021 93 10000 1 360 10:36 29.05.2020
2345 Clear 15 1021 93 10000 1 360 10:18 29.05.2020
2346 Clear 15 1021 93 10000 1 360 09:41 29.05.2020
2347 Clouds 15 1021 93 10000 1 360 09:19 29.05.2020
2348 Clouds 15 1021 93 10000 1 60 08:48 29.05.2020
2349 Clouds 15 1021 93 10000 1 60 08:25 29.05.2020
2350 Clouds 15 1021 87 10000 1 10 07:48 29.05.2020
2351 Clouds 15 1021 87 10000 1 10 07:30 29.05.2020
2352 Clouds 17 1021 88 10000 2.1 320 06:58 29.05.2020
2353 Clouds 17 1021 88 10000 2.1 320 06:40 29.05.2020
2354 Clouds 17 1021 88 10000 2.1 320 06:22 29.05.2020
2355 Clouds 18 1021 77 10000 2.6 20 05:40 29.05.2020
2356 Clear 20 1021 68 10000 1.5 310 02:20 29.05.2020
2357 Clear 20 1021 68 10000 1.5 310 02:20 29.05.2020
2358 Clear 20 1021 68 10000 3.6 190 01:27 29.05.2020
2359 Clouds 20 1020 68 10000 4.1 200 00:53 29.05.2020
2360 Clouds 20 1020 68 10000 4.1 200 00:33 29.05.2020
2361 Clouds 21 1020 68 10000 5.1 190 23:58 28.05.2020
2362 Clouds 21 1020 68 10000 5.1 190 23:39 28.05.2020
2363 Clouds 21 1019 68 10000 4.1 200 23:18 28.05.2020
2364 Clouds 21 1019 68 10000 4.1 200 22:42 28.05.2020
2365 Clouds 21 1019 68 10000 4.1 200 22:24 28.05.2020
2366 Clouds 22 1019 64 10000 4.6 190 21:56 28.05.2020
2367 Clouds 22 1019 64 10000 4.6 190 21:38 28.05.2020
2368 Clouds 23 1019 64 10000 5.1 180 21:19 28.05.2020
2369 Clouds 23 1019 64 10000 5.1 180 20:56 28.05.2020
2370 Clouds 23 1019 64 10000 5.1 180 20:37 28.05.2020
2371 Clouds 23 1019 60 10000 3.6 170 20:18 28.05.2020
2372 Clouds 23 1019 60 10000 3.6 170 19:43 28.05.2020
2373 Clouds 23 1019 60 10000 2.1 120 19:21 28.05.2020
2374 Clouds 23 1019 60 10000 2.1 120 18:58 28.05.2020
2375 Clouds 23 1019 60 10000 2.1 120 18:58 28.05.2020
2376 Clouds 23 1019 60 10000 2.1 120 18:40 28.05.2020
2377 Clouds 23 1019 60 10000 2.1 120 18:22 28.05.2020
2378 Clouds 23 1020 64 10000 2.6 110 17:43 28.05.2020
2379 Clouds 23 1020 64 10000 2.6 110 17:22 28.05.2020
2380 Clouds 23 1020 60 10000 2.6 300 16:57 28.05.2020
2381 Clouds 23 1020 60 10000 2.6 300 16:37 28.05.2020
2382 Clouds 22 1020 60 10000 4.6 310 16:19 28.05.2020
2383 Clouds 22 1020 60 10000 4.6 310 15:42 28.05.2020
2384 Clouds 21 1020 60 10000 4.6 310 15:24 28.05.2020
2385 Clouds 20 1020 72 10000 4.6 320 14:57 28.05.2020
2386 Clouds 19 1020 72 10000 4.6 320 14:38 28.05.2020
2387 Clouds 19 1020 72 10000 4.6 320 14:20 28.05.2020
2388 Clouds 19 1020 72 10000 3.6 320 13:40 28.05.2020
2389 Clouds 19 1020 72 10000 3.6 320 13:21 28.05.2020
2390 Clouds 19 1019 77 10000 5.1 320 12:42 28.05.2020
2391 Clouds 19 1019 77 10000 5.1 320 12:19 28.05.2020
2392 Clouds 18 1019 82 10000 3.6 330 11:44 28.05.2020
2393 Clouds 18 1019 82 10000 3.6 330 11:26 28.05.2020
2394 Clouds 18 1019 77 10000 3.1 310 10:57 28.05.2020
2395 Clouds 18 1019 77 10000 3.1 310 10:57 28.05.2020
2396 Clouds 18 1019 77 10000 3.1 310 10:39 28.05.2020
2397 Clouds 17 1019 88 10000 2.6 320 10:21 28.05.2020
2398 Clouds 17 1019 88 10000 2.6 320 09:39 28.05.2020
2399 Clouds 18 1019 82 10000 2.1 300 09:21 28.05.2020
2400 Clouds 18 1019 82 10000 2.1 300 08:51 28.05.2020
2401 Clouds 18 1019 82 10000 2.1 300 08:31 28.05.2020
2402 Clouds 19 1019 77 10000 2.1 310 07:58 28.05.2020
2403 Clouds 19 1019 77 10000 2.1 310 07:38 28.05.2020
2404 Clouds 19 1019 72 10000 1.5 280 07:20 28.05.2020
2405 Clouds 19 1019 72 10000 1.5 280 06:39 28.05.2020
2406 Clouds 20 1019 68 10000 2.1 260 06:20 28.05.2020
2407 Clouds 21 1019 64 10000 4.6 210 05:37 28.05.2020
2408 Clouds 21 1019 64 10000 4.6 210 04:34 28.05.2020
2409 Clouds 21 1019 64 10000 4.1 220 03:51 28.05.2020
2410 Clouds 21 1018 64 10000 3.1 230 02:49 28.05.2020
2411 Clouds 22 1018 56 10000 6.7 210 01:57 28.05.2020
2412 Clouds 21 1018 56 10000 6.7 210 01:29 28.05.2020
2413 Clouds 21 1018 56 10000 5.1 220 00:46 28.05.2020
2414 Clouds 22 1017 56 10000 5.7 220 00:19 28.05.2020
2415 Clouds 22 1017 56 10000 5.7 220 23:55 27.05.2020
2416 Clouds 22 1017 56 10000 5.7 220 23:36 27.05.2020
2417 Clouds 22 1017 60 10000 6.2 210 23:18 27.05.2020
2418 Clouds 22 1017 60 10000 6.2 210 22:41 27.05.2020
2419 Clouds 22 1017 60 10000 6.2 210 22:22 27.05.2020
2420 Clouds 23 1016 56 10000 6.7 210 21:56 27.05.2020
2421 Clouds 23 1016 56 10000 6.7 210 21:37 27.05.2020
2422 Clouds 23 1016 56 10000 6.7 210 21:19 27.05.2020
2423 Clouds 24 1016 57 10000 5.1 230 20:56 27.05.2020
2424 Clouds 24 1016 57 10000 5.1 230 20:36 27.05.2020
2425 Clouds 24 1015 53 10000 5.1 260 20:18 27.05.2020
2426 Clouds 24 1015 53 10000 5.1 260 19:42 27.05.2020
2427 Clouds 24 1015 53 10000 5.1 260 19:20 27.05.2020
2428 Clouds 24 1015 50 10000 5.1 250 18:44 27.05.2020
2429 Clouds 25 1015 50 10000 5.1 250 18:20 27.05.2020
2430 Clouds 25 1016 47 10000 6.7 240 17:59 27.05.2020
2431 Clouds 25 1016 47 10000 6.7 240 17:40 27.05.2020
2432 Clouds 25 1016 47 10000 6.7 240 17:21 27.05.2020
2433 Clear 23 1016 60 10000 3.6 350 16:56 27.05.2020
2434 Clear 24 1016 60 10000 3.6 350 16:38 27.05.2020
2435 Clear 22 1016 68 10000 3.6 350 16:19 27.05.2020
2436 Clear 22 1016 68 10000 3.6 350 15:47 27.05.2020
2437 Clear 19 1016 77 10000 4.1 350 15:22 27.05.2020
2438 Clear 19 1016 77 10000 4.1 350 14:47 27.05.2020
2439 Clear 18 1016 77 10000 4.1 350 14:22 27.05.2020
2440 Clear 18 1015 72 10000 2.1 300 13:59 27.05.2020
2441 Clear 18 1015 72 10000 2.1 300 13:41 27.05.2020
2442 Clear 18 1015 72 10000 2.1 300 13:22 27.05.2020
2443 Clear 16 1015 82 10000 2.1 340 12:42 27.05.2020
2444 Clear 16 1015 82 10000 2.1 340 12:23 27.05.2020
2445 Clear 16 1014 82 10000 2.6 320 11:56 27.05.2020
2446 Clear 16 1014 82 10000 2.6 320 11:37 27.05.2020
2447 Clear 15 1014 87 10000 3.1 310 11:19 27.05.2020
2448 Clear 15 1014 87 10000 3.1 310 10:43 27.05.2020
2449 Clear 15 1014 87 10000 3.1 310 10:24 27.05.2020
2450 Clear 14 1014 87 10000 1 340 09:57 27.05.2020
2451 Clear 14 1014 87 10000 1 340 09:39 27.05.2020
2452 Clear 15 1013 87 10000 3.1 260 09:20 27.05.2020
2453 Clear 15 1013 87 10000 3.1 260 08:42 27.05.2020
2454 Clear 15 1013 87 10000 3.1 260 08:42 27.05.2020
2455 Clear 15 1013 87 10000 3.1 260 08:24 27.05.2020
2456 Clear 16 1013 77 10000 3.1 300 07:53 27.05.2020
2457 Clear 16 1013 77 10000 3.1 300 07:35 27.05.2020
2458 Clear 16 1013 77 10000 3.1 300 07:35 27.05.2020
2459 Clear 17 1013 72 10000 3.1 310 06:56 27.05.2020
2460 Clear 17 1013 72 10000 3.1 310 06:31 27.05.2020
2461 Clouds 17 1014 72 10000 2.6 320 05:50 27.05.2020
2462 Clear 19 1013 68 10000 2.6 300 05:30 27.05.2020
2463 Clear 19 1013 64 10000 1.5 280 04:18 27.05.2020
2464 Clear 20 1013 60 10000 2.1 280 02:30 27.05.2020
2465 Clear 20 1013 56 10000 1.5 220 01:45 27.05.2020
2466 Clear 20 1013 56 10000 2.6 230 01:20 27.05.2020
2467 Clear 21 1013 56 10000 2.6 230 00:44 27.05.2020
2468 Clear 20 1012 56 10000 4.1 210 00:19 27.05.2020
2469 Clear 20 1012 56 10000 4.1 210 23:43 26.05.2020
2470 Clear 20 1012 56 10000 4.1 210 23:25 26.05.2020
2471 Clear 22 1012 49 10000 5.1 210 22:59 26.05.2020
2472 Clear 22 1012 49 10000 5.1 210 22:38 26.05.2020
2473 Clear 22 1012 49 10000 5.1 210 22:20 26.05.2020
2474 Clear 23 1011 46 10000 6.2 210 21:57 26.05.2020
2475 Clear 23 1011 46 10000 6.2 210 21:39 26.05.2020
2476 Clear 23 1011 46 10000 6.2 210 21:20 26.05.2020
2477 Clear 24 1011 46 10000 5.1 190 20:42 26.05.2020
2478 Clear 24 1011 46 10000 5.1 190 20:21 26.05.2020
2479 Clear 24 1011 44 10000 5.7 210 19:56 26.05.2020
2480 Clear 25 1011 44 10000 5.7 210 19:37 26.05.2020
2481 Clear 25 1011 44 10000 5.1 210 19:18 26.05.2020
2482 Clear 25 1011 44 10000 5.1 210 18:41 26.05.2020
2483 Clear 25 1011 44 10000 5.1 210 18:22 26.05.2020
2484 Clear 24 1012 44 10000 4.1 230 17:44 26.05.2020
2485 Clear 24 1012 44 10000 4.1 230 17:26 26.05.2020
2486 Clouds 24 1013 41 10000 3.1 0 16:59 26.05.2020
2487 Clouds 24 1013 41 10000 3.1 0 16:41 26.05.2020
2488 Clouds 24 1013 44 10000 2.6 0 16:19 26.05.2020
2489 Clouds 24 1013 44 10000 2.6 0 15:44 26.05.2020
2490 Clouds 24 1013 44 10000 2.6 0 15:21 26.05.2020
2491 Clouds 21 1013 64 10000 4.1 340 14:59 26.05.2020
2492 Clouds 20 1013 64 10000 4.1 340 14:41 26.05.2020
2493 Clouds 19 1013 64 10000 4.1 340 14:21 26.05.2020
2494 Clouds 20 1013 68 10000 2.6 340 13:42 26.05.2020
2495 Clouds 20 1013 68 10000 2.6 340 13:42 26.05.2020
2496 Clouds 18 1013 68 10000 2.6 340 13:23 26.05.2020
2497 Clear 16 1012 88 10000 2.6 30 12:59 26.05.2020
2498 Clear 17 1012 88 10000 2.6 30 12:39 26.05.2020
2499 Clear 17 1012 88 10000 2.6 30 12:19 26.05.2020
2500 Clear 18 1011 77 10000 3.1 350 11:41 26.05.2020
2501 Clear 17 1011 77 10000 4.1 330 11:21 26.05.2020
2502 Clear 17 1011 77 10000 4.1 330 10:59 26.05.2020
2503 Clear 17 1011 77 10000 4.1 330 10:39 26.05.2020
2504 Clear 17 1011 77 10000 4.1 330 10:18 26.05.2020
2505 Clear 17 1011 82 10000 1.5 340 09:39 26.05.2020
2506 Clear 16 1010 82 10000 1 340 09:20 26.05.2020
2507 Clear 16 1010 82 10000 1 340 08:43 26.05.2020
2508 Clear 16 1010 82 10000 1 340 08:22 26.05.2020
2509 Clear 19 1011 72 10000 2.1 340 07:57 26.05.2020
2510 Clear 19 1011 72 10000 2.1 340 07:37 26.05.2020
2511 Clear 17 1011 82 10000 1 20 07:18 26.05.2020
2512 Clear 17 1011 82 10000 1 20 06:44 26.05.2020
2513 Clear 19 1011 82 10000 2.6 280 05:55 26.05.2020
2514 Clear 20 1010 83 10000 2.6 300 05:35 26.05.2020
2515 Clear 20 1010 83 10000 2.6 300 04:55 26.05.2020
2516 Clear 20 1010 83 10000 2.6 300 04:34 26.05.2020
2517 Clear 20 1009 78 10000 2.6 330 03:59 26.05.2020
2518 Clear 21 1010 78 10000 2.6 300 02:49 26.05.2020
2519 Clear 21 1010 78 10000 1.5 230 01:49 26.05.2020
2520 Clear 21 1010 78 10000 1.5 230 01:28 26.05.2020
2521 Clear 20 1009 83 10000 4.1 190 00:39 26.05.2020
2522 Clear 20 1009 83 10000 4.1 190 00:19 26.05.2020
2523 Clear 20 1009 78 10000 3.6 200 23:56 25.05.2020
2524 Clear 20 1009 78 10000 3.6 200 23:37 25.05.2020
2525 Clear 22 1008 78 10000 4.1 190 23:18 25.05.2020
2526 Clear 22 1008 78 10000 4.1 190 22:55 25.05.2020
2527 Clear 22 1008 78 10000 4.1 190 22:36 25.05.2020
2528 Clear 22 1008 78 10000 4.1 190 22:36 25.05.2020
2529 Clear 23 1008 69 10000 3.6 160 22:18 25.05.2020
2530 Clear 23 1008 69 10000 3.6 160 21:56 25.05.2020
2531 Clear 23 1008 69 10000 3.6 160 21:36 25.05.2020
2532 Clouds 23 1009 69 10000 4.1 160 21:18 25.05.2020
2533 Clouds 23 1009 69 10000 4.1 160 21:18 25.05.2020
2534 Clouds 23 1009 69 10000 4.1 160 20:43 25.05.2020
2535 Clouds 24 1009 69 10000 4.1 160 20:22 25.05.2020
2536 Clouds 24 1010 69 10000 4.6 160 19:59 25.05.2020
2537 Clouds 23 1010 69 10000 4.6 160 19:41 25.05.2020
2538 Clouds 24 1010 69 10000 4.6 160 19:19 25.05.2020
2539 Clouds 25 1011 69 10000 4.1 160 18:58 25.05.2020
2540 Clouds 25 1011 69 10000 4.1 160 18:40 25.05.2020
2541 Clouds 25 1011 69 10000 4.1 160 18:20 25.05.2020
2542 Clouds 23 1012 73 10000 3.1 130 17:44 25.05.2020
2543 Clouds 24 1012 73 10000 3.1 130 17:25 25.05.2020
2544 Clouds 23 1012 73 10000 1.5 110 16:58 25.05.2020
2545 Clouds 23 1012 73 10000 1.5 330 16:40 25.05.2020
2546 Clouds 23 1012 73 10000 1.5 330 16:21 25.05.2020
2547 Clouds 22 1013 78 10000 2.1 10 15:45 25.05.2020
2548 Clouds 21 1013 83 10000 2.1 10 15:21 25.05.2020
2549 Clouds 21 1013 83 10000 2.1 10 14:59 25.05.2020
2550 Clouds 21 1013 83 10000 2.1 10 14:41 25.05.2020
2551 Clouds 20 1013 83 10000 2.1 10 14:23 25.05.2020
2552 Clouds 20 1013 88 10000 2.6 340 13:56 25.05.2020
2553 Clouds 20 1013 88 10000 2.6 340 13:37 25.05.2020
2554 Clouds 20 1013 88 10000 2.6 340 13:37 25.05.2020
2555 Clouds 20 1013 88 10000 2.6 340 13:19 25.05.2020
2556 Clouds 20 1014 88 10000 2.6 310 12:40 25.05.2020
2557 Clouds 20 1014 88 10000 2.6 310 12:21 25.05.2020
2558 Rain 19 1013 93 7000 3.6 330 11:57 25.05.2020
2559 Rain 19 1013 93 7000 3.6 330 11:37 25.05.2020
2560 Clouds 19 1014 88 7000 4.6 330 11:18 25.05.2020
2561 Clouds 19 1014 88 7000 4.6 330 10:41 25.05.2020
2562 Clouds 19 1014 88 7000 2.1 290 10:21 25.05.2020
2563 Clouds 19 1014 88 7000 2.1 290 09:57 25.05.2020
2564 Clouds 19 1014 88 7000 2.1 290 09:38 25.05.2020
2565 Clouds 19 1014 88 7000 2.1 290 09:19 25.05.2020
2566 Rain 19 1014 88 5000 1.5 290 08:57 25.05.2020
2567 Rain 19 1014 88 5000 1.5 290 08:36 25.05.2020
2568 Rain 19 1014 88 5000 1.5 290 08:36 25.05.2020
2569 Rain 19 1014 88 5000 1.5 290 08:18 25.05.2020
2570 Clouds 19 1014 88 8000 2.6 360 07:42 25.05.2020
2571 Clouds 19 1014 88 8000 2.6 360 07:21 25.05.2020
2572 Rain 19 1015 93 7000 3.6 300 06:49 25.05.2020
2573 Rain 19 1015 93 7000 3.6 300 06:31 25.05.2020
2574 Clouds 20 1016 88 9000 2.6 300 04:18 25.05.2020
2575 Clouds 20 1016 88 9000 2.6 300 03:23 25.05.2020
2576 Rain 20 1016 88 9000 2.6 290 02:45 25.05.2020
2577 Clouds 20 1015 88 10000 2.6 100 01:51 25.05.2020
2578 Clouds 19 1015 88 10000 2.6 100 01:28 25.05.2020
2579 Rain 19 1014 82 8000 1.5 190 00:38 25.05.2020
2580 Rain 19 1014 82 8000 1.5 190 00:19 25.05.2020
2581 Rain 20 1015 82 8000 2.1 170 23:55 24.05.2020
2582 Rain 20 1015 82 8000 2.1 170 23:36 24.05.2020
2583 Rain 20 1015 82 8000 3.6 190 23:18 24.05.2020
2584 Rain 20 1015 82 8000 3.6 190 22:41 24.05.2020
2585 Rain 20 1015 82 7000 5.7 190 22:19 24.05.2020
2586 Rain 20 1015 82 7000 5.7 190 21:56 24.05.2020
2587 Rain 20 1015 82 7000 5.7 190 21:38 24.05.2020
2588 Rain 20 1014 88 5000 4.6 190 21:19 24.05.2020
2589 Rain 20 1014 88 5000 4.6 190 20:44 24.05.2020
2590 Rain 20 1014 88 5000 4.6 190 20:23 24.05.2020
2591 Rain 21 1014 83 5000 5.7 190 19:59 24.05.2020
2592 Rain 21 1014 83 5000 5.7 190 19:41 24.05.2020
2593 Clouds 22 1014 73 10000 4.1 190 19:19 24.05.2020
2594 Mist 21 1014 83 5000 5.7 190 19:19 24.05.2020
2595 Clouds 22 1014 73 10000 4.1 190 18:59 24.05.2020
2596 Clouds 22 1014 73 10000 4.1 190 18:40 24.05.2020
2597 Clouds 22 1014 73 10000 4.1 190 18:22 24.05.2020
2598 Clouds 23 1015 73 10000 5.1 190 17:55 24.05.2020
2599 Clouds 23 1015 73 10000 5.1 190 17:36 24.05.2020
2600 Clouds 23 1015 73 10000 5.1 190 17:36 24.05.2020
2601 Clouds 23 1016 73 10000 4.6 170 17:18 24.05.2020
2602 Clouds 23 1016 73 10000 4.6 170 16:39 24.05.2020
2603 Clouds 23 1016 73 10000 4.6 170 16:21 24.05.2020
2604 Clouds 23 1016 78 10000 5.7 180 15:58 24.05.2020
2605 Clouds 23 1016 78 10000 5.7 180 15:39 24.05.2020
2606 Clouds 23 1016 78 10000 5.7 180 15:19 24.05.2020
2607 Rain 23 1015 83 10000 5.1 180 14:55 24.05.2020
2608 Rain 23 1015 83 10000 5.1 180 14:37 24.05.2020
2609 Rain 23 1015 78 10000 5.7 190 14:18 24.05.2020
2610 Rain 23 1015 78 10000 5.7 190 13:55 24.05.2020
2611 Rain 23 1015 78 10000 5.7 190 13:36 24.05.2020
2612 Rain 23 1015 78 10000 5.7 190 13:36 24.05.2020
2613 Clouds 23 1014 78 10000 5.7 190 13:18 24.05.2020
2614 Clouds 23 1014 78 10000 5.7 190 12:54 24.05.2020
2615 Clouds 23 1014 78 10000 5.7 190 12:36 24.05.2020
2616 Clouds 23 1014 78 10000 5.7 190 12:36 24.05.2020
2617 Rain 23 1014 83 10000 5.1 180 12:18 24.05.2020
2618 Rain 23 1013 83 8000 5.7 190 11:42 24.05.2020
2619 Rain 23 1013 83 8000 5.7 190 11:23 24.05.2020
2620 Clouds 24 1013 73 10000 1.5 20 10:59 24.05.2020
2621 Clouds 24 1013 73 10000 1.5 20 10:40 24.05.2020
2622 Clouds 24 1013 73 10000 1.5 20 10:22 24.05.2020
2623 Clouds 25 1012 69 10000 3.6 230 09:55 24.05.2020
2624 Clouds 25 1012 69 10000 3.6 230 09:37 24.05.2020
2625 Clouds 26 1012 65 10000 4.6 240 09:18 24.05.2020
2626 Clouds 26 1012 65 10000 4.6 240 08:40 24.05.2020
2627 Clouds 26 1012 65 10000 4.6 240 08:22 24.05.2020
2628 Clouds 27 1012 57 10000 4.6 250 07:57 24.05.2020
2629 Clouds 27 1012 57 10000 4.6 250 07:39 24.05.2020
2630 Clouds 27 1012 57 10000 4.6 250 07:19 24.05.2020
2631 Clouds 27 1013 57 10000 4.1 270 06:38 24.05.2020
2632 Clouds 27 1012 61 10000 3.1 250 05:49 24.05.2020
2633 Clouds 29 1012 51 10000 3.6 280 03:49 24.05.2020
2634 Clouds 29 1012 51 10000 3.6 280 03:26 24.05.2020
2635 Clouds 27 1011 69 10000 2.1 350 02:24 24.05.2020
2636 Clouds 28 1010 69 10000 2.6 320 00:59 24.05.2020
2637 Clouds 28 1010 69 10000 2.6 320 00:36 24.05.2020
2638 Clouds 28 1010 61 10000 3.1 340 00:18 24.05.2020
2639 Clouds 28 1010 61 10000 3.1 340 23:38 23.05.2020
2640 Clouds 29 1010 58 10000 3.1 340 23:19 23.05.2020
2641 Clouds 29 1010 58 10000 3.1 340 22:55 23.05.2020
2642 Clouds 30 1010 58 10000 3.1 340 22:37 23.05.2020
2643 Clouds 31 1009 43 10000 4.6 310 22:18 23.05.2020
2644 Clouds 31 1009 43 10000 4.6 310 21:56 23.05.2020
2645 Clouds 31 1009 43 10000 4.6 310 21:36 23.05.2020
2646 Clouds 31 1009 48 10000 6.2 320 21:18 23.05.2020
2647 Clouds 31 1009 48 10000 6.2 320 20:40 23.05.2020
2648 Clouds 31 1009 48 10000 6.2 320 20:20 23.05.2020
2649 Clouds 32 1010 43 10000 7.2 300 19:59 23.05.2020
2650 Clouds 32 1010 43 10000 7.2 300 19:40 23.05.2020
2651 Clouds 31 1011 46 10000 3.6 310 19:19 23.05.2020
2652 Clouds 31 1011 46 10000 3.6 310 18:42 23.05.2020
2653 Clouds 31 1011 46 10000 3.6 310 18:23 23.05.2020
2654 Clouds 29 1011 61 10000 3.6 30 17:58 23.05.2020
2655 Clouds 29 1011 61 10000 3.6 30 17:40 23.05.2020
2656 Clouds 29 1011 61 10000 3.6 30 17:21 23.05.2020
2657 Clouds 28 1012 65 10000 4.6 20 16:59 23.05.2020
2658 Clouds 28 1012 65 10000 4.6 20 16:41 23.05.2020
2659 Clouds 29 1013 58 10000 4.1 320 16:21 23.05.2020
2660 Clouds 29 1013 58 10000 4.1 320 15:58 23.05.2020
2661 Clouds 29 1013 58 10000 4.1 320 15:39 23.05.2020
2662 Clouds 27 1014 57 10000 3.6 310 15:21 23.05.2020
2663 Clouds 27 1014 57 10000 3.6 310 14:43 23.05.2020
2664 Clouds 27 1014 57 10000 3.6 310 14:43 23.05.2020
2665 Clouds 25 1013 78 10000 3.1 340 14:24 23.05.2020
2666 Clouds 25 1013 78 10000 3.1 340 13:56 23.05.2020
2667 Clouds 25 1013 78 10000 3.1 340 13:37 23.05.2020
2668 Clouds 23 1013 83 10000 3.6 320 13:18 23.05.2020
2669 Clouds 22 1013 83 10000 3.6 320 12:41 23.05.2020
2670 Clouds 22 1012 83 10000 2.1 350 12:20 23.05.2020
2671 Clouds 22 1012 83 10000 2.1 350 11:59 23.05.2020
2672 Clouds 22 1012 83 10000 2.1 350 11:40 23.05.2020
2673 Clouds 22 1012 83 10000 2.1 350 11:19 23.05.2020
2674 Clouds 20 1012 82 10000 1 260 10:56 23.05.2020
2675 Clouds 20 1012 82 10000 1 260 10:37 23.05.2020
2676 Clouds 20 1012 82 10000 1.5 150 10:18 23.05.2020
2677 Clouds 20 1012 82 10000 1.5 150 09:55 23.05.2020
2678 Clouds 20 1012 82 10000 1.5 150 09:37 23.05.2020
2679 Clouds 21 1013 83 10000 2.1 150 09:18 23.05.2020
2680 Clouds 21 1013 83 10000 2.1 150 08:41 23.05.2020
2681 Clouds 21 1014 83 10000 2.1 170 08:19 23.05.2020
2682 Clouds 21 1014 83 10000 2.1 170 07:45 23.05.2020
2683 Clouds 21 1014 83 10000 2.1 170 07:27 23.05.2020
2684 Clouds 22 1014 78 10000 2.6 150 06:44 23.05.2020
2685 Clouds 22 1014 78 10000 2.6 150 06:19 23.05.2020
2686 Clouds 23 1014 73 10000 2.6 320 04:27 23.05.2020
2687 Clouds 24 1014 69 10000 2.6 320 03:27 23.05.2020
2688 Clouds 24 1014 61 10000 2.1 320 02:48 23.05.2020
2689 Clouds 25 1014 65 10000 1.5 340 01:53 23.05.2020
2690 Clouds 25 1013 69 10000 1.5 360 01:20 23.05.2020
2691 Clouds 25 1013 69 10000 1.5 360 00:44 23.05.2020
2692 Clouds 25 1013 69 10000 1.5 360 00:22 23.05.2020
2693 Clouds 26 1013 57 10000 1 140 23:55 22.05.2020
2694 Clouds 26 1013 57 10000 1 140 23:36 22.05.2020
2695 Clouds 26 1013 69 10000 3.1 190 23:18 22.05.2020
2696 Clouds 28 1013 69 10000 3.1 190 22:42 22.05.2020
2697 Clouds 29 1013 65 10000 3.1 170 22:21 22.05.2020
2698 Clouds 29 1013 65 10000 3.1 170 21:56 22.05.2020
2699 Clouds 28 1013 65 10000 3.1 170 21:38 22.05.2020
2700 Clouds 28 1013 65 10000 3.1 170 21:20 22.05.2020
2701 Clouds 28 1013 61 10000 2.6 20 20:45 22.05.2020
2702 Clouds 30 1013 61 10000 2.6 20 20:21 22.05.2020
2703 Clouds 30 1014 61 10000 2.6 340 19:54 22.05.2020
2704 Clouds 28 1014 61 10000 2.6 340 19:36 22.05.2020
2705 Clouds 28 1014 57 10000 2.1 360 19:18 22.05.2020
2706 Clouds 29 1014 57 10000 2.1 360 18:39 22.05.2020
2707 Clouds 28 1014 57 10000 2.1 360 18:39 22.05.2020
2708 Clouds 29 1016 57 10000 2.1 360 18:19 22.05.2020
2709 Clouds 29 1016 57 10000 2.1 360 17:56 22.05.2020
2710 Clouds 29 1016 57 10000 2.1 360 17:36 22.05.2020
2711 Clouds 27 1017 61 10000 2.1 10 17:18 22.05.2020
2712 Clouds 27 1017 61 10000 2.1 10 16:41 22.05.2020
2713 Clouds 27 1018 69 10000 1 80 16:20 22.05.2020
2714 Clouds 27 1018 69 10000 1 80 15:57 22.05.2020
2715 Clouds 26 1018 69 10000 1 80 15:39 22.05.2020
2716 Clear 26 1018 69 10000 1 80 15:19 22.05.2020
2717 Clear 24 1018 69 10000 1 360 14:43 22.05.2020
2718 Clear 24 1018 69 10000 1 360 14:43 22.05.2020
2719 Clouds 24 1018 69 10000 1 360 14:24 22.05.2020
2720 Clouds 23 1017 73 10000 1.5 360 13:45 22.05.2020
2721 Clouds 21 1016 78 10000 1.5 310 13:20 22.05.2020
2722 Clouds 21 1016 78 10000 1.5 310 12:54 22.05.2020
2723 Clouds 21 1016 78 10000 1.5 310 12:36 22.05.2020
2724 Clouds 20 1016 78 10000 1 360 12:18 22.05.2020
2725 Clouds 20 1016 78 10000 1 360 11:42 22.05.2020
2726 Clouds 19 1016 88 10000 1 0 11:20 22.05.2020
2727 Clouds 19 1016 88 10000 1 0 10:55 22.05.2020
2728 Clouds 19 1016 88 10000 1 0 10:36 22.05.2020
2729 Clouds 19 1016 88 10000 1 0 10:18 22.05.2020
2730 Clouds 19 1016 82 10000 1 0 09:41 22.05.2020
2731 Clear 19 1016 82 10000 1 0 09:19 22.05.2020
2732 Clear 19 1017 82 10000 1.5 100 08:44 22.05.2020
2733 Clear 19 1017 82 10000 1.5 100 08:44 22.05.2020
2734 Clear 19 1017 82 10000 1.5 100 08:21 22.05.2020
2735 Clear 19 1017 88 10000 1.5 100 07:57 22.05.2020
2736 Clear 19 1017 88 10000 1.5 100 07:27 22.05.2020
2737 Clear 19 1017 88 10000 1 130 06:59 22.05.2020
2738 Clear 19 1017 88 10000 1 130 06:40 22.05.2020
2739 Clear 21 1018 83 10000 1.5 150 05:53 22.05.2020
2740 Clear 22 1018 78 10000 0.5 0 05:32 22.05.2020
2741 Clear 22 1018 78 10000 0.5 0 04:44 22.05.2020
2742 Clear 22 1018 78 10000 0.5 0 03:49 22.05.2020
2743 Clear 22 1018 78 10000 0.5 0 03:23 22.05.2020
2744 Clear 23 1018 73 10000 1.5 160 01:57 22.05.2020
2745 Clear 23 1018 73 10000 1.5 160 01:29 22.05.2020
2746 Clear 24 1017 69 10000 2.1 120 00:50 22.05.2020
2747 Clear 23 1017 69 10000 2.1 120 00:28 22.05.2020
2748 Clear 23 1017 73 10000 2.6 190 23:54 21.05.2020
2749 Clear 23 1017 73 10000 2.6 190 23:36 21.05.2020
2750 Clear 25 1016 83 10000 4.1 170 23:18 21.05.2020
2751 Clear 25 1016 83 10000 4.1 170 22:55 21.05.2020
2752 Clear 26 1016 83 10000 4.1 170 22:36 21.05.2020
2753 Clouds 27 1016 73 10000 4.1 170 22:18 21.05.2020
2754 Clouds 27 1016 73 10000 4.1 170 22:18 21.05.2020
2755 Clouds 27 1016 73 10000 4.1 170 21:43 21.05.2020
2756 Clouds 27 1016 73 10000 4.1 170 21:25 21.05.2020
2757 Clouds 26 1016 69 10000 4.6 160 20:54 21.05.2020
2758 Clouds 26 1016 69 10000 4.6 160 20:36 21.05.2020
2759 Clouds 26 1017 69 10000 4.1 150 20:18 21.05.2020
2760 Clouds 27 1017 69 10000 4.1 150 19:39 21.05.2020
2761 Clouds 27 1018 65 10000 2.6 150 19:19 21.05.2020
2762 Clouds 27 1018 65 10000 2.6 150 18:40 21.05.2020
2763 Clouds 27 1019 69 10000 1 10 18:20 21.05.2020
2764 Clouds 27 1019 69 10000 1 10 17:58 21.05.2020
2765 Clouds 27 1019 69 10000 1 10 17:58 21.05.2020
2766 Clouds 27 1019 69 10000 1 10 17:40 21.05.2020
2767 Clouds 27 1019 69 10000 1 10 17:22 21.05.2020
2768 Clouds 26 1021 73 10000 2.1 10 16:47 21.05.2020
2769 Clouds 26 1021 73 10000 2.1 10 16:25 21.05.2020
2770 Clouds 24 1021 78 10000 1.5 360 15:56 21.05.2020
2771 Clouds 23 1021 78 10000 1.5 360 15:38 21.05.2020
2772 Clear 23 1021 78 10000 1 0 15:19 21.05.2020
2773 Clear 23 1021 78 10000 1 0 14:40 21.05.2020
2774 Clear 21 1021 83 7000 3.6 30 14:19 21.05.2020
2775 Clear 21 1021 83 7000 3.6 30 13:42 21.05.2020
2776 Clear 21 1021 83 7000 3.6 30 13:22 21.05.2020
2777 Clear 19 1021 77 10000 2.6 50 12:58 21.05.2020
2778 Clear 20 1021 77 10000 2.6 50 12:38 21.05.2020
2779 Clear 19 1020 88 10000 1.5 30 12:19 21.05.2020
2780 Clear 20 1020 88 10000 1.5 30 11:42 21.05.2020
2781 Clear 20 1020 88 10000 1.5 30 11:24 21.05.2020
2782 Clear 20 1022 79 0 1.71 17 10:59 21.05.2020
2783 Clear 20 1022 79 0 1.71 17 10:39 21.05.2020
2784 Clear 20 1022 78 0 1.48 7 10:20 21.05.2020
2785 Clear 20 1022 78 0 1.48 7 09:55 21.05.2020
2786 Clear 18 1020 88 10000 1 130 09:37 21.05.2020
2787 Clear 18 1020 88 10000 1 130 09:19 21.05.2020
2788 Clear 18 1020 88 10000 1 130 08:45 21.05.2020
2789 Clear 18 1020 88 10000 1 130 08:26 21.05.2020
2790 Clear 18 1021 88 10000 2.1 110 07:48 21.05.2020
2791 Clear 18 1021 88 10000 2.1 110 07:27 21.05.2020
2792 Clear 19 1022 82 10000 1.5 120 06:52 21.05.2020
2793 Clear 19 1022 82 10000 1.5 120 06:22 21.05.2020
2794 Clear 21 1022 73 10000 2.6 70 05:37 21.05.2020
2795 Clear 22 1022 73 10000 1 70 03:22 21.05.2020
2796 Clear 22 1022 73 10000 1 70 03:22 21.05.2020
2797 Clear 22 1022 73 10000 1 70 03:22 21.05.2020
2798 Clouds 22 1022 69 10000 2.6 90 02:49 21.05.2020
2799 Clouds 22 1022 69 10000 2.6 90 02:30 21.05.2020
2800 Clouds 23 1022 69 10000 2.6 110 01:47 21.05.2020
2801 Clouds 23 1022 69 10000 2.6 110 01:21 21.05.2020
2802 Clouds 23 1021 73 10000 2.6 110 00:53 21.05.2020
2803 Clouds 23 1021 73 10000 2.6 110 00:24 21.05.2020
2804 Clouds 23 1021 78 10000 3.1 110 23:46 20.05.2020
2805 Clouds 23 1021 78 10000 3.1 110 23:21 20.05.2020
2806 Clouds 24 1021 73 10000 4.6 120 22:58 20.05.2020
2807 Clouds 24 1021 73 10000 4.6 120 22:39 20.05.2020
2808 Clouds 24 1021 73 10000 4.6 120 22:21 20.05.2020
2809 Clouds 24 1021 78 10000 5.7 130 21:42 20.05.2020
2810 Clouds 25 1021 78 10000 5.7 130 21:23 20.05.2020
2811 Clouds 26 1021 73 10000 5.7 130 20:57 20.05.2020
2812 Clouds 26 1021 73 10000 5.7 130 20:38 20.05.2020
2813 Clouds 26 1021 73 10000 5.7 130 20:20 20.05.2020
2814 Clouds 26 1021 73 10000 4.6 140 19:41 20.05.2020
2815 Clouds 26 1021 73 10000 4.6 140 19:23 20.05.2020
2816 Clouds 26 1022 69 10000 5.1 160 18:57 20.05.2020
2817 Clouds 26 1022 69 10000 5.1 160 18:38 20.05.2020
2818 Clouds 24 1023 73 10000 2.6 150 18:20 20.05.2020
2819 Clouds 25 1023 73 10000 2.6 150 17:38 20.05.2020
2820 Clouds 25 1023 73 10000 2.6 150 17:19 20.05.2020
2821 Clouds 25 1024 73 10000 2.1 350 16:42 20.05.2020
2822 Clouds 25 1024 73 10000 2.1 350 16:24 20.05.2020
2823 Clouds 24 1025 73 9000 1 60 15:58 20.05.2020
2824 Clouds 24 1025 73 9000 1 60 15:40 20.05.2020
2825 Clouds 24 1025 73 9000 1 60 15:22 20.05.2020
2826 Clouds 23 1025 83 9000 2.1 40 14:43 20.05.2020
2827 Clouds 23 1025 83 9000 2.1 40 14:21 20.05.2020
2828 Clouds 21 1024 83 10000 1 20 13:41 20.05.2020
2829 Clouds 20 1023 83 10000 2.1 50 13:20 20.05.2020
2830 Clouds 20 1023 83 10000 2.1 50 12:58 20.05.2020
2831 Clouds 20 1023 83 10000 2.1 50 12:37 20.05.2020
2832 Clear 20 1023 83 10000 2.1 60 12:19 20.05.2020
2833 Clear 20 1023 83 10000 2.1 60 11:36 20.05.2020
2834 Clear 18 1023 88 10000 1 300 11:18 20.05.2020
2835 Clear 18 1023 88 10000 1 300 10:43 20.05.2020
2836 Clear 18 1023 93 10000 1 80 10:20 20.05.2020
2837 Clear 18 1023 93 10000 1 80 09:45 20.05.2020
2838 Clear 18 1023 93 10000 1 80 09:22 20.05.2020
2839 Clouds 19 1023 88 10000 1.5 130 08:58 20.05.2020
2840 Clouds 19 1023 88 10000 1.5 130 08:40 20.05.2020
2841 Clouds 19 1023 88 10000 2.6 120 08:18 20.05.2020
2842 Clouds 19 1023 88 10000 2.6 120 07:47 20.05.2020
2843 Clouds 19 1023 88 10000 2.6 120 07:21 20.05.2020
2844 Clouds 20 1023 88 10000 3.6 120 06:45 20.05.2020
2845 Clear 22 1024 73 10000 2.6 80 05:25 20.05.2020
2846 Clear 22 1024 73 10000 2.6 80 04:34 20.05.2020
2847 Clouds 23 1024 78 10000 1.5 80 03:54 20.05.2020
2848 Clouds 23 1024 73 10000 1.5 120 02:34 20.05.2020
2849 Clouds 23 1023 78 10000 4.1 120 01:32 20.05.2020
2850 Clouds 23 1023 83 10000 5.7 120 00:46 20.05.2020
2851 Clouds 23 1023 83 10000 5.7 120 00:24 20.05.2020
2852 Clouds 23 1022 83 10000 5.1 130 23:45 19.05.2020
2853 Clouds 24 1022 83 10000 5.1 130 23:22 19.05.2020
2854 Clouds 24 1022 78 10000 4.6 140 22:57 19.05.2020
2855 Clouds 24 1022 78 10000 4.6 140 22:39 19.05.2020
2856 Clouds 24 1022 78 10000 4.6 140 22:20 19.05.2020
2857 Clouds 24 1022 78 10000 6.7 140 21:59 19.05.2020
2858 Clouds 25 1022 78 10000 6.7 140 21:39 19.05.2020
2859 Clouds 25 1022 78 10000 6.7 140 21:21 19.05.2020
2860 Clouds 25 1022 78 10000 6.7 150 20:59 19.05.2020
2861 Clouds 25 1022 78 10000 6.7 150 20:40 19.05.2020
2862 Clouds 25 1022 78 10000 6.7 150 20:22 19.05.2020
2863 Clouds 26 1022 73 10000 6.7 160 19:59 19.05.2020
2864 Clouds 26 1022 73 10000 6.7 160 19:37 19.05.2020
2865 Clouds 26 1023 73 10000 5.1 170 19:19 19.05.2020
2866 Clouds 25 1023 73 10000 5.1 170 18:43 19.05.2020
2867 Clouds 26 1023 73 10000 5.1 170 18:22 19.05.2020
2868 Clouds 26 1024 78 10000 4.6 160 17:57 19.05.2020
2869 Clouds 24 1024 78 10000 4.6 160 17:38 19.05.2020
2870 Clouds 24 1024 78 10000 4.6 160 17:19 19.05.2020
2871 Clouds 25 1024 78 9000 1 80 17:19 19.05.2020
2872 Clouds 25 1024 78 9000 1 80 16:41 19.05.2020
2873 Clouds 25 1024 78 9000 1 80 16:22 19.05.2020
2874 Clouds 23 1025 83 8000 2.1 340 15:56 19.05.2020
2875 Clouds 23 1025 83 8000 2.1 340 15:38 19.05.2020
2876 Clouds 23 1025 83 8000 2.1 340 15:20 19.05.2020
2877 Clouds 23 1025 88 7000 2.1 360 14:54 19.05.2020
2878 Clouds 23 1025 88 7000 2.1 360 14:54 19.05.2020
2879 Clouds 23 1025 88 7000 2.1 360 14:36 19.05.2020
2880 Clouds 22 1024 88 10000 2.1 360 14:18 19.05.2020
2881 Clouds 22 1024 88 10000 2.1 360 13:54 19.05.2020
2882 Clouds 22 1024 88 10000 2.1 360 13:36 19.05.2020
2883 Clouds 20 1023 94 10000 1 20 13:18 19.05.2020
2884 Clouds 20 1023 94 10000 1 20 12:40 19.05.2020
2885 Clouds 20 1022 94 10000 1 360 12:22 19.05.2020
2886 Clouds 20 1022 94 10000 1 360 11:59 19.05.2020
2887 Clouds 20 1022 94 10000 1 360 11:40 19.05.2020
2888 Clouds 20 1022 94 10000 1 360 11:21 19.05.2020
2889 Clouds 20 1022 94 10000 2.1 110 10:49 19.05.2020
2890 Clouds 20 1022 94 10000 2.1 110 10:30 19.05.2020
2891 Clouds 20 1022 88 10000 1 80 09:59 19.05.2020
2892 Clouds 20 1022 88 10000 1 80 09:41 19.05.2020
2893 Clouds 20 1022 88 10000 1 80 09:23 19.05.2020
2894 Clouds 20 1022 94 10000 1.5 100 08:44 19.05.2020
2895 Clouds 20 1022 94 10000 1.5 100 08:24 19.05.2020
2896 Clouds 21 1022 88 10000 1.5 130 07:47 19.05.2020
2897 Clouds 21 1022 88 10000 1.5 130 07:27 19.05.2020
2898 Clouds 21 1022 88 10000 2.1 120 06:55 19.05.2020
2899 Clouds 21 1022 88 10000 2.1 120 06:26 19.05.2020
2900 Clouds 22 1023 83 10000 2.1 120 05:42 19.05.2020
2901 Clouds 23 1022 83 10000 1.5 120 05:19 19.05.2020
2902 Clouds 23 1022 83 10000 1.5 120 04:35 19.05.2020
2903 Clouds 23 1021 83 10000 4.1 160 02:23 19.05.2020
2904 Clouds 23 1021 83 10000 5.1 160 00:48 19.05.2020
2905 Clouds 23 1021 83 10000 5.1 160 00:29 19.05.2020
2906 Clouds 23 1020 88 10000 4.6 170 23:59 18.05.2020
2907 Clouds 23 1020 88 10000 4.6 170 23:40 18.05.2020
2908 Clouds 24 1020 88 10000 5.1 160 23:20 18.05.2020
2909 Clouds 24 1020 88 10000 5.1 160 22:54 18.05.2020
2910 Clouds 24 1020 88 10000 5.1 160 22:36 18.05.2020
2911 Clouds 25 1019 83 10000 5.7 160 22:18 18.05.2020
2912 Clouds 24 1019 83 10000 5.7 160 21:41 18.05.2020
2913 Clouds 25 1019 78 10000 5.7 160 21:21 18.05.2020
2914 Clouds 25 1019 78 10000 5.7 160 20:57 18.05.2020
2915 Clouds 26 1019 78 10000 5.7 160 20:37 18.05.2020
2916 Clouds 26 1019 78 10000 4.6 150 20:19 18.05.2020
2917 Clouds 26 1019 78 10000 4.6 150 19:54 18.05.2020
2918 Clouds 26 1019 78 10000 4.6 150 19:36 18.05.2020
2919 Clouds 26 1019 73 10000 5.1 160 19:18 18.05.2020
2920 Clouds 26 1019 73 10000 5.1 160 18:43 18.05.2020
2921 Clouds 26 1019 73 10000 5.1 160 18:20 18.05.2020
2922 Clouds 26 1020 69 10000 1.5 120 17:39 18.05.2020
2923 Clouds 26 1021 83 8000 2.1 30 17:18 18.05.2020
2924 Clouds 26 1021 83 8000 2.1 30 16:56 18.05.2020
2925 Clouds 26 1021 83 8000 2.1 30 16:37 18.05.2020
2926 Clouds 25 1021 88 6000 2.1 20 16:18 18.05.2020
2927 Clouds 25 1021 88 6000 2.1 20 16:18 18.05.2020
2928 Clouds 25 1021 88 6000 2.1 20 15:46 18.05.2020
2929 Clouds 25 1021 88 6000 2.1 20 15:25 18.05.2020
2930 Clouds 23 1021 88 6000 2.6 20 14:59 18.05.2020
2931 Clouds 23 1021 88 6000 2.6 20 14:40 18.05.2020
2932 Clouds 23 1021 88 6000 2.6 20 14:40 18.05.2020
2933 Clouds 23 1021 88 6000 2.6 20 14:22 18.05.2020
2934 Clouds 21 1020 94 6000 2.6 20 13:54 18.05.2020
2935 Clouds 21 1020 94 6000 2.6 20 13:36 18.05.2020
2936 Clouds 21 1020 94 6000 2.6 20 13:18 18.05.2020
2937 Clouds 21 1020 94 8000 3.6 30 12:55 18.05.2020
2938 Clouds 21 1020 94 8000 3.6 30 12:37 18.05.2020
2939 Clouds 21 1019 88 8000 3.1 20 12:18 18.05.2020
2940 Clouds 21 1019 88 8000 3.1 20 11:46 18.05.2020
2941 Clouds 21 1019 88 8000 3.1 20 11:26 18.05.2020
2942 Clouds 21 1019 88 7000 0.5 0 10:55 18.05.2020
2943 Clouds 21 1019 88 7000 0.5 0 10:37 18.05.2020
2944 Clouds 21 1019 94 7000 1.5 320 10:19 18.05.2020
2945 Clouds 21 1019 94 7000 1.5 320 09:42 18.05.2020
2946 Clouds 21 1019 94 7000 1.5 320 09:23 18.05.2020
2947 Clouds 22 1019 88 8000 1.5 10 08:42 18.05.2020
2948 Clouds 22 1019 88 8000 1.5 10 08:24 18.05.2020
2949 Clouds 22 1019 83 10000 1 90 07:50 18.05.2020
2950 Clouds 22 1019 83 10000 1 90 07:26 18.05.2020
2951 Clouds 22 1020 83 10000 0.5 0 06:49 18.05.2020
2952 Clouds 22 1020 83 10000 0.5 0 06:31 18.05.2020
2953 Clouds 21 1020 88 10000 2.1 100 05:49 18.05.2020
2954 Clouds 23 1019 83 10000 2.1 150 04:42 18.05.2020
2955 Clouds 23 1019 83 10000 1 130 03:30 18.05.2020
2956 Clouds 23 1019 83 10000 4.6 150 02:19 18.05.2020
2957 Clouds 23 1018 83 10000 5.1 160 00:55 18.05.2020
2958 Clouds 23 1018 83 10000 5.1 160 00:24 18.05.2020
2959 Clouds 23 1017 83 10000 5.7 160 23:57 17.05.2020
2960 Clouds 23 1017 83 10000 5.7 160 23:39 17.05.2020
2961 Clouds 23 1017 83 10000 5.7 160 23:20 17.05.2020
2962 Clouds 23 1017 83 10000 5.1 160 22:56 17.05.2020
2963 Clouds 24 1017 83 10000 5.1 160 22:37 17.05.2020
2964 Clouds 24 1017 78 10000 5.7 170 22:19 17.05.2020
2965 Clouds 24 1017 78 10000 5.7 170 21:54 17.05.2020
2966 Clouds 24 1017 78 10000 5.7 170 21:36 17.05.2020
2967 Clouds 25 1017 78 10000 6.2 160 21:18 17.05.2020
2968 Clouds 25 1017 78 10000 6.2 160 20:41 17.05.2020
2969 Clouds 25 1017 78 10000 6.2 160 20:20 17.05.2020
2970 Clouds 26 1017 78 10000 4.6 160 19:57 17.05.2020
2971 Clouds 26 1017 78 10000 4.6 160 19:37 17.05.2020
2972 Clouds 25 1017 78 10000 4.6 160 19:19 17.05.2020
2973 Clouds 25 1017 78 10000 4.6 160 18:42 17.05.2020
2974 Clouds 25 1017 78 10000 4.6 160 18:23 17.05.2020
2975 Clouds 25 1018 73 10000 3.1 150 17:59 17.05.2020
2976 Clouds 25 1018 73 10000 3.1 150 17:39 17.05.2020
2977 Clouds 26 1018 73 10000 3.1 150 17:19 17.05.2020
2978 Clouds 26 1018 73 10000 3.1 150 17:19 17.05.2020
2979 Clouds 25 1019 78 8000 1.5 10 16:40 17.05.2020
2980 Clouds 23 1019 83 6000 2.1 20 16:21 17.05.2020
2981 Clouds 23 1019 83 6000 2.1 20 15:59 17.05.2020
2982 Clouds 23 1019 83 6000 2.1 20 15:59 17.05.2020
2983 Clouds 23 1019 83 6000 2.1 20 15:39 17.05.2020
2984 Clouds 23 1019 83 6000 2.1 20 15:20 17.05.2020
2985 Clouds 22 1019 88 6000 3.6 10 14:54 17.05.2020
2986 Clouds 21 1019 88 6000 3.6 10 14:36 17.05.2020
2987 Mist 21 1019 88 5000 3.6 10 14:18 17.05.2020
2988 Clouds 21 1018 88 7000 2.6 20 13:40 17.05.2020
2989 Clouds 21 1018 88 7000 2.6 20 13:20 17.05.2020
2990 Clouds 23 1017 78 10000 3.1 40 04:53 17.05.2020
2991 Clouds 23 1017 83 10000 1 220 03:19 17.05.2020
2992 Clouds 23 1017 83 10000 1 220 02:22 17.05.2020
2993 Clouds 23 1017 83 10000 2.1 200 01:49 17.05.2020
2994 Clouds 23 1016 83 10000 2.1 180 00:43 17.05.2020
2995 Clouds 23 1016 83 10000 2.1 180 00:21 17.05.2020
2996 Clouds 23 1016 83 10000 3.6 130 23:42 16.05.2020
2997 Clouds 23 1016 83 10000 3.6 130 23:42 16.05.2020
2998 Clouds 23 1016 83 10000 3.6 130 23:21 16.05.2020
2999 Clouds 23 1016 83 10000 4.6 170 22:59 16.05.2020
3000 Clouds 23 1016 83 10000 4.6 170 22:41 16.05.2020
3001 Clouds 25 1015 78 10000 3.6 150 22:21 16.05.2020
3002 Clouds 25 1015 78 10000 3.6 150 21:55 16.05.2020
3003 Clouds 25 1015 78 10000 3.6 150 21:37 16.05.2020
3004 Clouds 25 1015 73 10000 4.6 160 21:19 16.05.2020
3005 Clouds 25 1015 73 10000 4.6 160 20:55 16.05.2020
3006 Clouds 25 1015 73 10000 4.6 160 20:36 16.05.2020
3007 Clouds 24 1015 73 10000 3.1 150 20:18 16.05.2020
3008 Clouds 24 1015 73 10000 3.1 150 19:41 16.05.2020
3009 Clouds 25 1016 73 10000 2.1 120 19:22 16.05.2020
3010 Clouds 25 1016 73 10000 2.1 120 18:57 16.05.2020
3011 Clouds 25 1016 73 10000 2.1 120 18:37 16.05.2020
3012 Clouds 25 1016 73 10000 2.1 120 18:18 16.05.2020
3013 Clouds 25 1016 69 10000 1.5 20 17:41 16.05.2020
3014 Clouds 25 1016 69 10000 1.5 20 17:21 16.05.2020
3015 Clouds 22 1017 78 10000 2.6 330 16:44 16.05.2020
3016 Clouds 22 1017 78 10000 2.6 330 16:25 16.05.2020
3017 Clouds 21 1018 88 9000 3.1 350 15:59 16.05.2020
3018 Clouds 21 1018 88 9000 3.1 350 15:41 16.05.2020
3019 Clouds 22 1018 88 9000 3.1 350 15:21 16.05.2020
3020 Clouds 22 1018 88 7000 2.6 340 14:56 16.05.2020
3021 Clouds 22 1018 88 7000 2.6 340 14:38 16.05.2020
3022 Clouds 21 1017 88 7000 1.5 30 14:19 16.05.2020
3023 Clouds 21 1017 88 7000 1.5 30 13:42 16.05.2020
3024 Clouds 21 1017 88 7000 1.5 30 13:24 16.05.2020
3025 Clouds 19 1017 94 9000 1.5 360 12:59 16.05.2020
3026 Clouds 19 1017 94 9000 1.5 360 12:40 16.05.2020
3027 Clouds 19 1016 94 9000 1.5 320 12:19 16.05.2020
3028 Clouds 19 1016 94 9000 1.5 320 11:42 16.05.2020
3029 Clouds 19 1016 94 9000 1.5 320 11:23 16.05.2020
3030 Clouds 19 1017 93 10000 1.5 300 10:58 16.05.2020
3031 Clouds 19 1017 93 10000 1.5 300 10:40 16.05.2020
3032 Clouds 19 1017 93 10000 1.5 300 10:21 16.05.2020
3033 Clouds 19 1017 93 10000 1 30 09:47 16.05.2020
3034 Clouds 19 1017 93 10000 1 30 09:29 16.05.2020
3035 Clouds 19 1017 93 10000 1 30 09:29 16.05.2020
3036 Clouds 20 1017 88 10000 1 320 08:59 16.05.2020
3037 Clouds 20 1017 88 10000 1 320 08:40 16.05.2020
3038 Clouds 20 1017 88 10000 1 320 08:19 16.05.2020
3039 Clouds 20 1018 88 10000 1 310 07:43 16.05.2020
3040 Clouds 20 1018 88 10000 1 310 07:23 16.05.2020
3041 Clouds 19 1018 93 10000 1.36 63 06:48 16.05.2020
3042 Clouds 19 1018 93 10000 1.28 73 06:24 16.05.2020
3043 Clouds 20 1019 88 10000 1.28 73 05:56 16.05.2020
3044 Clouds 21 1019 83 9000 1.5 50 05:29 16.05.2020
3045 Clouds 21 1019 83 9000 1 30 03:34 16.05.2020
3046 Clouds 21 1019 88 9000 1 360 02:52 16.05.2020
3047 Clouds 21 1019 88 9000 1 360 02:20 16.05.2020
3048 Clouds 20 1019 88 9000 2.28 72 01:44 16.05.2020
3049 Clouds 20 1019 88 10000 2.6 170 01:18 16.05.2020
3050 Clouds 20 1019 88 10000 2.6 170 00:42 16.05.2020
3051 Clouds 20 1019 88 10000 2.6 170 00:21 16.05.2020
3052 Clouds 20 1018 94 10000 1.5 310 23:40 15.05.2020
3053 Clouds 20 1018 88 10000 1.5 310 23:20 15.05.2020
3054 Clouds 20 1018 88 10000 1.5 310 22:56 15.05.2020
3055 Clouds 20 1018 88 10000 1.5 310 22:38 15.05.2020
3056 Clouds 20 1018 94 9000 3.1 320 22:18 15.05.2020
3057 Rain 20 1018 88 4000 1 360 21:39 15.05.2020
3058 Mist 20 1018 88 4000 1 360 21:21 15.05.2020
3059 Rain 20 1018 94 4000 1 200 20:58 15.05.2020
3060 Rain 20 1018 94 4000 1 200 20:40 15.05.2020
3061 Mist 20 1018 94 4000 1 200 20:22 15.05.2020
3062 Rain 20 1018 94 6000 2.1 210 20:22 15.05.2020
3063 Rain 20 1018 94 6000 2.1 210 19:55 15.05.2020
3064 Clouds 20 1018 88 10000 1.5 340 19:37 15.05.2020
3065 Rain 20 1018 94 10000 2.6 340 19:18 15.05.2020
3066 Rain 20 1018 94 10000 2.6 340 18:42 15.05.2020
3067 Rain 20 1018 94 10000 2.6 340 18:23 15.05.2020
3068 Clouds 21 1019 88 10000 2.1 20 17:39 15.05.2020
3069 Clouds 21 1019 88 10000 2.1 20 17:19 15.05.2020
3070 Clouds 20 1020 94 7000 1.5 310 16:57 15.05.2020
3071 Clouds 20 1020 94 7000 1.5 310 16:38 15.05.2020
3072 Clouds 20 1020 94 7000 1.5 10 16:19 15.05.2020
3073 Clouds 20 1020 94 7000 1.5 10 15:54 15.05.2020
3074 Rain 19 1020 93 3000 2.6 140 15:36 15.05.2020
3075 Rain 20 1020 94 3000 1.5 210 15:18 15.05.2020
3076 Rain 20 1020 94 3000 1.5 210 15:18 15.05.2020
3077 Rain 20 1020 94 10000 2.1 290 14:41 15.05.2020
3078 Rain 20 1020 94 10000 2.1 290 14:23 15.05.2020
3079 Rain 20 1019 94 4000 2.6 300 13:58 15.05.2020
3080 Rain 20 1019 94 10000 2.6 310 13:39 15.05.2020
3081 Rain 20 1019 94 9000 3.6 310 13:19 15.05.2020
3082 Rain 20 1019 94 9000 3.6 310 12:39 15.05.2020
3083 Rain 20 1018 94 10000 3.6 310 12:18 15.05.2020
3084 Rain 20 1018 94 10000 3.6 310 11:57 15.05.2020
3085 Rain 20 1018 94 10000 3.6 310 11:38 15.05.2020
3086 Rain 20 1018 94 10000 3.6 310 11:20 15.05.2020
3087 Rain 19 1018 93 8000 3.1 300 10:58 15.05.2020
3088 Rain 19 1018 93 8000 3.1 300 10:39 15.05.2020
3089 Rain 19 1018 93 8000 3.1 300 10:20 15.05.2020
3090 Rain 19 1018 93 8000 1.5 300 09:58 15.05.2020
3091 Rain 19 1018 93 8000 1.5 300 09:37 15.05.2020
3092 Rain 20 1018 88 8000 3.6 280 09:18 15.05.2020
3093 Rain 20 1018 88 8000 3.6 280 08:39 15.05.2020
3094 Rain 20 1018 88 8000 3.6 280 08:20 15.05.2020
3095 Rain 20 1018 94 6000 4.1 260 07:59 15.05.2020
3096 Rain 20 1018 94 6000 4.1 260 07:40 15.05.2020
3097 Rain 20 1018 94 4000 4.1 260 07:21 15.05.2020
3098 Rain 20 1018 94 4000 4.1 260 06:35 15.05.2020
3099 Rain 21 1017 88 4500 5.7 210 05:38 15.05.2020
3100 Rain 21 1017 88 4500 5.7 170 03:52 15.05.2020
3101 Rain 22 1017 83 7000 6.7 170 03:31 15.05.2020
3102 Rain 23 1016 94 7000 6.2 180 01:37 15.05.2020
3103 Clouds 23 1016 83 10000 3.6 180 01:19 15.05.2020
3104 Clouds 23 1016 83 10000 3.6 180 00:43 15.05.2020
3105 Clouds 23 1016 83 10000 3.6 180 00:22 15.05.2020
3106 Clouds 23 1015 83 10000 6.2 190 23:42 14.05.2020
3107 Clouds 23 1015 83 10000 6.2 190 23:20 14.05.2020
3108 Clouds 24 1014 78 10000 6.7 170 22:55 14.05.2020
3109 Clouds 24 1014 78 10000 6.7 170 22:37 14.05.2020
3110 Clouds 24 1014 78 10000 5.1 200 22:19 14.05.2020
3111 Clouds 24 1014 78 10000 5.1 200 21:42 14.05.2020
3112 Clouds 25 1013 73 10000 6.2 190 21:20 14.05.2020
3113 Clouds 25 1013 73 10000 6.2 190 20:59 14.05.2020
3114 Clouds 25 1013 73 10000 6.2 190 20:59 14.05.2020
3115 Clouds 25 1013 73 10000 6.2 190 20:41 14.05.2020
3116 Clouds 26 1013 65 10000 8.2 190 20:20 14.05.2020
3117 Clouds 26 1013 65 10000 8.2 190 19:58 14.05.2020
3118 Clouds 26 1013 65 10000 8.2 190 19:39 14.05.2020
3119 Clouds 26 1013 65 10000 8.2 190 19:20 14.05.2020
3120 Clouds 26 1013 69 10000 6.7 180 18:58 14.05.2020
3121 Clouds 26 1013 69 10000 6.7 180 18:58 14.05.2020
3122 Clouds 26 1013 69 10000 6.7 180 18:38 14.05.2020
3123 Clouds 27 1013 69 10000 4.6 180 18:19 14.05.2020
3124 Clouds 27 1013 69 10000 4.6 180 17:58 14.05.2020
3125 Clouds 27 1013 69 10000 4.6 180 17:37 14.05.2020
3126 Clouds 27 1014 78 10000 3.1 70 17:19 14.05.2020
3127 Clouds 27 1014 78 10000 3.1 70 16:57 14.05.2020
3128 Clouds 27 1014 78 10000 3.1 70 16:38 14.05.2020
3129 Clouds 24 1014 83 9000 4.1 30 16:18 14.05.2020
3130 Clouds 24 1014 83 9000 4.1 30 15:55 14.05.2020
3131 Clouds 25 1014 83 9000 4.1 30 15:36 14.05.2020
3132 Clouds 24 1014 88 9000 2.1 350 15:18 14.05.2020
3133 Clouds 24 1014 88 9000 2.1 350 14:40 14.05.2020
3134 Clouds 24 1014 88 9000 2.1 350 14:20 14.05.2020
3135 Clouds 23 1014 88 8000 2.6 20 14:20 14.05.2020
3136 Clouds 23 1014 88 8000 2.6 20 13:57 14.05.2020
3137 Clouds 23 1013 83 8000 2.6 200 13:39 14.05.2020
3138 Clouds 22 1012 88 8000 4.1 330 13:20 14.05.2020
3139 Clouds 22 1012 88 8000 4.1 330 12:58 14.05.2020
3140 Clouds 22 1012 88 8000 4.1 330 12:39 14.05.2020
3141 Clouds 21 1011 88 9000 4.1 350 12:20 14.05.2020
3142 Clouds 21 1011 88 9000 4.1 350 11:57 14.05.2020
3143 Clouds 21 1011 88 9000 4.1 350 11:38 14.05.2020
3144 Clouds 21 1011 88 9000 4.1 350 11:38 14.05.2020
3145 Clouds 21 1011 88 9000 4.1 350 11:20 14.05.2020
3146 Clouds 21 1011 88 9000 4.1 350 11:20 14.05.2020
3147 Mist 20 1011 94 5000 1 30 10:55 14.05.2020
3148 Mist 20 1011 94 5000 1 30 10:36 14.05.2020
3149 Mist 20 1011 94 4000 1 150 10:18 14.05.2020
3150 Mist 20 1011 94 4000 1 150 09:39 14.05.2020
3151 Mist 20 1011 94 4000 1 150 09:19 14.05.2020
3152 Mist 21 1011 94 4000 2.6 20 08:41 14.05.2020
3153 Mist 20 1012 94 5000 1.5 80 08:20 14.05.2020
3154 Mist 20 1012 94 5000 1.5 80 07:46 14.05.2020
3155 Mist 20 1012 94 5000 1.5 80 07:25 14.05.2020
3156 Mist 21 1012 88 5000 1 40 06:54 14.05.2020
3157 Mist 21 1012 88 5000 1 40 06:31 14.05.2020
3158 Mist 21 1012 88 5000 1 330 05:56 14.05.2020
3159 Clouds 23 1012 88 10000 1.5 330 05:35 14.05.2020
3160 Clouds 23 1012 88 10000 1.5 330 04:32 14.05.2020
3161 Clouds 23 1012 83 10000 2.1 340 03:28 14.05.2020
3162 Clouds 24 1012 69 10000 1 320 02:42 14.05.2020
3163 Clouds 24 1012 69 10000 1 320 02:18 14.05.2020
3164 Clouds 24 1012 73 10000 1 140 01:28 14.05.2020
3165 Clouds 24 1012 73 10000 3.1 190 00:50 14.05.2020
3166 Clouds 24 1012 73 10000 3.1 190 00:25 14.05.2020
3167 Clouds 24 1012 73 10000 4.1 170 23:44 13.05.2020
3168 Clouds 24 1011 78 10000 4.6 190 23:22 13.05.2020
3169 Clouds 24 1011 78 10000 4.6 190 22:56 13.05.2020
3170 Clouds 24 1011 78 10000 4.6 190 22:37 13.05.2020
3171 Clouds 25 1011 83 10000 5.7 160 22:19 13.05.2020
3172 Clouds 25 1011 83 10000 5.7 160 21:57 13.05.2020
3173 Clouds 26 1011 83 10000 5.7 160 21:38 13.05.2020
3174 Clouds 26 1011 73 10000 6.7 150 21:18 13.05.2020
3175 Clouds 26 1011 73 10000 6.7 150 20:41 13.05.2020
3176 Clouds 26 1011 73 10000 6.7 150 20:23 13.05.2020
3177 Clouds 28 1011 73 10000 5.1 150 19:56 13.05.2020
3178 Clouds 28 1011 73 10000 5.1 150 19:38 13.05.2020
3179 Clouds 28 1011 73 10000 5.1 150 19:19 13.05.2020
3180 Clouds 28 1012 61 10000 3.1 130 18:42 13.05.2020
3181 Clouds 29 1012 61 10000 3.1 130 18:21 13.05.2020
3182 Clear 28 1013 65 10000 2.1 130 17:40 13.05.2020
3183 Clear 27 1014 69 10000 2.6 10 17:20 13.05.2020
3184 Clear 28 1013 65 10000 2.1 130 17:20 13.05.2020
3185 Clear 27 1014 69 10000 2.6 10 16:59 13.05.2020
3186 Clear 26 1014 69 10000 2.6 10 16:40 13.05.2020
3187 Clear 25 1014 69 10000 2.1 330 16:19 13.05.2020
3188 Clear 25 1014 69 10000 2.1 330 15:54 13.05.2020
3189 Clear 24 1014 69 10000 2.1 330 15:36 13.05.2020
3190 Clear 22 1014 83 10000 2.1 10 15:18 13.05.2020
3191 Clear 23 1014 83 10000 2.1 10 14:41 13.05.2020
3192 Clouds 23 1014 83 10000 2.1 10 14:22 13.05.2020
3193 Clouds 22 1015 83 10000 2.6 10 13:58 13.05.2020
3194 Clouds 22 1015 83 10000 2.6 10 13:40 13.05.2020
3195 Clouds 21 1015 83 10000 2.6 10 13:21 13.05.2020
3196 Clouds 21 1015 83 10000 2.6 10 13:21 13.05.2020
3197 Clouds 19 1014 82 10000 3.1 360 12:58 13.05.2020
3198 Clouds 19 1014 82 10000 3.1 360 12:39 13.05.2020
3199 Clouds 19 1014 82 10000 3.1 360 12:20 13.05.2020
3200 Clouds 19 1013 88 10000 3.6 340 11:56 13.05.2020
3201 Clouds 19 1013 88 10000 3.6 340 11:37 13.05.2020
3202 Clouds 19 1013 88 10000 3.6 340 11:19 13.05.2020
3203 Clouds 17 1014 93 7000 1 70 10:56 13.05.2020
3204 Clouds 17 1014 93 7000 1 70 10:38 13.05.2020
3205 Clouds 18 1014 93 7000 1 80 10:19 13.05.2020
3206 Clouds 18 1014 93 7000 1 80 09:45 13.05.2020
3207 Clouds 18 1014 93 7000 1 80 09:23 13.05.2020
3208 Clouds 18 1014 88 7000 1 30 08:58 13.05.2020
3209 Clouds 18 1014 88 7000 1 30 08:37 13.05.2020
3210 Clouds 18 1014 93 10000 1.5 100 08:19 13.05.2020
3211 Clouds 18 1014 93 10000 1.5 100 07:48 13.05.2020
3212 Clouds 18 1014 93 10000 1.5 100 07:30 13.05.2020
3213 Clouds 19 1015 88 10000 1.5 80 06:51 13.05.2020
3214 Clouds 19 1015 88 10000 1.5 80 06:31 13.05.2020
3215 Clouds 21 1015 83 10000 2.6 350 05:33 13.05.2020
3216 Clouds 22 1015 78 10000 1.5 40 03:37 13.05.2020
3217 Clouds 22 1015 78 10000 1 0 02:34 13.05.2020
3218 Clouds 23 1014 78 10000 3.1 200 01:45 13.05.2020
3219 Clouds 23 1014 78 10000 4.6 190 00:56 13.05.2020
3220 Clouds 23 1014 78 10000 4.6 190 00:23 13.05.2020
3221 Clouds 24 1014 73 10000 4.1 180 23:58 12.05.2020
3222 Clouds 24 1014 73 10000 4.1 180 23:39 12.05.2020
3223 Clouds 25 1014 65 10000 5.1 170 23:18 12.05.2020
3224 Clouds 26 1014 65 10000 5.1 170 22:42 12.05.2020
3225 Clouds 26 1014 65 10000 5.1 170 22:22 12.05.2020
3226 Clouds 27 1014 65 10000 5.1 170 21:56 12.05.2020
3227 Clouds 27 1014 65 10000 5.1 170 21:38 12.05.2020
3228 Clouds 27 1014 65 10000 5.1 170 21:19 12.05.2020
3229 Clouds 27 1014 69 10000 5.1 170 20:58 12.05.2020
3230 Clouds 27 1014 69 10000 5.1 170 20:39 12.05.2020
3231 Clear 27 1014 69 10000 5.1 170 20:20 12.05.2020
3232 Clear 28 1014 65 10000 4.6 160 19:57 12.05.2020
3233 Clear 27 1014 65 10000 4.6 160 19:39 12.05.2020
3234 Clear 27 1015 65 10000 3.6 130 19:20 12.05.2020
3235 Clear 27 1015 65 10000 3.6 130 18:56 12.05.2020
3236 Clear 28 1015 65 10000 3.6 130 18:38 12.05.2020
3237 Clear 28 1015 65 10000 3.6 130 18:19 12.05.2020
3238 Clear 27 1016 61 10000 1.5 30 17:42 12.05.2020
3239 Clear 27 1016 61 10000 1.5 30 17:24 12.05.2020
3240 Clear 24 1017 69 10000 2.1 10 16:47 12.05.2020
3241 Clear 25 1017 69 10000 2.1 10 16:26 12.05.2020
3242 Clear 24 1018 78 10000 3.1 350 15:56 12.05.2020
3243 Clear 23 1018 78 10000 3.1 350 15:38 12.05.2020
3244 Clear 21 1018 83 10000 3.1 340 15:19 12.05.2020
3245 Clear 21 1018 83 10000 3.1 340 14:57 12.05.2020
3246 Clear 21 1018 83 10000 3.1 340 14:37 12.05.2020
3247 Clear 20 1018 82 10000 2.6 350 14:19 12.05.2020
3248 Clear 20 1018 82 10000 2.6 350 13:58 12.05.2020
3249 Clear 20 1018 82 10000 2.6 350 13:39 12.05.2020
3250 Clear 18 1018 82 10000 2.6 340 13:19 12.05.2020
3251 Clear 18 1018 82 10000 2.6 340 12:57 12.05.2020
3252 Clear 18 1018 82 10000 2.6 340 12:39 12.05.2020
3253 Clear 18 1017 82 10000 3.1 360 12:21 12.05.2020
3254 Clear 18 1017 82 10000 3.1 360 11:58 12.05.2020
3255 Clear 18 1017 82 10000 3.1 360 11:38 12.05.2020
3256 Clear 16 1017 87 10000 1 90 11:20 12.05.2020
3257 Clear 16 1017 87 10000 1 90 10:58 12.05.2020
3258 Clear 16 1017 87 10000 1 90 10:40 12.05.2020
3259 Clear 16 1017 87 10000 1 90 10:21 12.05.2020
3260 Clear 17 1017 88 10000 1.5 70 09:59 12.05.2020
3261 Clear 17 1017 88 10000 1.5 70 09:39 12.05.2020
3262 Clear 17 1017 88 10000 1.5 70 09:20 12.05.2020
3263 Clear 16 1018 93 10000 1 80 08:54 12.05.2020
3264 Clear 16 1018 93 10000 1 80 08:36 12.05.2020
3265 Clear 17 1018 88 10000 1 80 08:18 12.05.2020
3266 Clear 17 1018 88 10000 1 80 07:41 12.05.2020
3267 Clear 18 1018 88 10000 1.5 70 07:22 12.05.2020
3268 Clear 18 1018 88 10000 1.5 70 06:47 12.05.2020
3269 Clear 18 1018 88 10000 1.5 70 06:27 12.05.2020
3270 Clear 19 1019 82 10000 1.5 340 05:50 12.05.2020
3271 Clear 21 1019 78 10000 2.6 10 05:30 12.05.2020
3272 Clear 21 1019 78 10000 1.5 340 03:26 12.05.2020
3273 Clear 22 1019 69 10000 1 320 02:41 12.05.2020
3274 Clear 22 1018 64 10000 2.1 210 02:18 12.05.2020
3275 Clear 21 1018 64 10000 2.1 210 01:26 12.05.2020
3276 Clear 22 1018 64 10000 3.6 190 00:27 12.05.2020
3277 Clear 22 1018 60 10000 4.6 170 23:58 11.05.2020
3278 Clear 24 1018 60 10000 4.6 170 23:40 11.05.2020
3279 Clear 24 1018 60 10000 4.6 170 23:20 11.05.2020
3280 Clear 24 1018 60 10000 6.2 180 22:59 11.05.2020
3281 Clear 24 1018 60 10000 6.2 180 22:40 11.05.2020
3282 Clear 26 1017 57 10000 5.1 170 22:20 11.05.2020
3283 Clear 26 1017 57 10000 5.1 170 21:58 11.05.2020
3284 Clear 26 1017 57 10000 5.1 170 21:40 11.05.2020
3285 Clear 26 1017 57 10000 5.1 170 21:19 11.05.2020
3286 Clear 26 1017 57 10000 5.1 170 21:19 11.05.2020
3287 -273 0 0 0 0 0 20:59 11.05.2020
3288 Clear 27 1017 65 10000 5.1 170 20:40 11.05.2020
3289 Clear 27 1017 65 10000 5.1 170 20:21 11.05.2020
3290 Clear 27 1018 57 10000 5.1 160 19:56 11.05.2020
3291 Clear 27 1018 57 10000 5.1 160 19:38 11.05.2020
3292 Clear 27 1018 57 10000 5.1 160 19:19 11.05.2020
3293 Clear 27 1018 57 10000 5.1 160 18:56 11.05.2020
3294 Clear 27 1018 57 10000 5.1 160 18:37 11.05.2020
3295 Clear 25 1019 53 10000 3.6 140 18:18 11.05.2020
3296 Clear 25 1019 53 10000 3.6 140 17:55 11.05.2020
3297 Clear 26 1019 53 10000 3.6 140 17:36 11.05.2020
3298 Clear 26 1020 60 10000 1.5 110 17:18 11.05.2020
3299 Clear 26 1020 60 10000 1.5 110 16:42 11.05.2020
3300 Clear 26 1020 60 10000 1.5 110 16:22 11.05.2020
3301 Clear 26 1020 60 10000 1.5 110 16:22 11.05.2020
3302 Clear 25 1020 60 10000 1 50 15:58 11.05.2020
3303 Clear 25 1020 60 10000 1 50 15:39 11.05.2020
3304 Clear 23 1020 77 10000 2.6 10 15:19 11.05.2020
3305 Clear 23 1020 77 10000 2.6 10 14:55 11.05.2020
3306 Clear 23 1020 77 10000 2.6 10 14:37 11.05.2020
3307 Clear 23 1020 77 10000 2.6 10 14:19 11.05.2020
3308 Clear 20 1019 82 10000 2.1 350 13:42 11.05.2020
3309 Clear 20 1019 82 10000 2.1 350 13:22 11.05.2020
3310 Clear 19 1019 82 10000 3.1 20 12:58 11.05.2020
3311 Clear 19 1019 82 10000 3.1 20 12:40 11.05.2020
3312 Clear 19 1019 82 10000 3.1 20 12:22 11.05.2020
3313 Clear 18 1018 77 10000 1.5 10 11:57 11.05.2020
3314 Clear 18 1018 77 10000 1.5 10 11:57 11.05.2020
3315 Clear 18 1018 77 10000 1.5 10 11:38 11.05.2020
3316 Clear 18 1018 77 10000 1.5 10 11:20 11.05.2020
3317 Clear 15 1019 87 10000 1 120 10:56 11.05.2020
3318 Clear 15 1019 87 10000 1 120 10:38 11.05.2020
3319 Clear 15 1019 87 10000 1 120 10:20 11.05.2020
3320 Clear 16 1019 87 10000 1 110 09:56 11.05.2020
3321 Clear 16 1019 87 10000 1 110 09:37 11.05.2020
3322 Clear 17 1019 82 10000 2.1 150 09:18 11.05.2020
3323 Clear 17 1019 82 10000 2.1 150 08:42 11.05.2020
3324 Clear 17 1019 82 10000 2.1 150 08:24 11.05.2020
3325 Clear 17 1019 82 10000 1.5 90 07:56 11.05.2020
3326 Clear 17 1019 82 10000 1.5 90 07:38 11.05.2020
3327 Clear 18 1020 82 10000 1.5 130 07:20 11.05.2020
3328 Clear 18 1020 82 10000 1.5 130 07:20 11.05.2020
3329 Clear 18 1020 82 10000 1.5 130 06:34 11.05.2020
3330 Clear 18 1020 82 10000 2.1 110 05:53 11.05.2020
3331 Clear 20 1020 73 10000 1 210 05:22 11.05.2020
3332 Clear 21 1020 73 10000 0.5 210 03:56 11.05.2020
3333 Clear 21 1020 73 10000 2.24 25 02:36 11.05.2020
3334 Clear 22 1020 64 10000 2.1 110 02:18 11.05.2020
3335 Clear 21 1020 64 10000 2.1 110 01:21 11.05.2020
3336 Clear 22 1019 69 10000 2.6 80 00:41 11.05.2020
3337 Clear 23 1019 73 10000 3.1 140 00:18 11.05.2020
3338 Clear 23 1019 73 10000 3.1 140 23:40 10.05.2020
3339 Clouds 24 1019 60 10000 3.1 150 23:20 10.05.2020
3340 Clouds 24 1019 60 10000 3.1 150 22:55 10.05.2020
3341 Clouds 24 1019 60 10000 3.1 150 22:37 10.05.2020
3342 Clouds 25 1019 53 10000 4.6 170 22:18 10.05.2020
3343 Clouds 25 1019 53 10000 4.6 170 21:43 10.05.2020
3344 Clouds 26 1019 53 10000 4.6 160 21:19 10.05.2020
3345 Clouds 26 1019 53 10000 4.6 160 20:43 10.05.2020
3346 Clouds 26 1019 53 10000 4.6 160 20:25 10.05.2020
3347 Clouds 26 1019 53 10000 4.6 160 20:25 10.05.2020
3348 Clouds 26 1019 53 10000 4.6 160 19:59 10.05.2020
3349 Clouds 26 1019 53 10000 4.6 160 19:39 10.05.2020
3350 Clouds 26 1019 53 10000 4.6 160 19:21 10.05.2020
3351 Clouds 26 1020 53 10000 1.5 100 18:56 10.05.2020
3352 Clouds 26 1020 53 10000 1.5 100 18:37 10.05.2020
3353 Clouds 25 1021 57 10000 1.5 10 18:19 10.05.2020
3354 Clouds 25 1021 57 10000 1.5 10 17:58 10.05.2020
3355 Clouds 24 1021 57 10000 1.5 10 17:40 10.05.2020
3356 Clouds 24 1021 57 10000 1.5 10 17:40 10.05.2020
3357 Clear 23 1022 64 10000 2.6 340 17:20 10.05.2020
3358 Clear 23 1022 64 10000 2.6 340 16:55 10.05.2020
3359 Clear 23 1022 64 10000 2.6 340 16:55 10.05.2020
3360 Clear 23 1022 64 10000 2.6 340 16:37 10.05.2020
3361 Clear 22 1023 73 10000 2.1 360 16:18 10.05.2020
3362 Clear 22 1023 73 10000 2.1 360 15:42 10.05.2020
3363 Clear 22 1023 73 10000 2.1 360 15:23 10.05.2020
3364 Clear 21 1023 77 10000 3.1 340 14:57 10.05.2020
3365 Clear 21 1023 77 10000 3.1 340 14:38 10.05.2020
3366 Clouds 19 1022 88 10000 3.6 20 14:19 10.05.2020
3367 Clouds 19 1022 88 10000 3.6 20 13:58 10.05.2020
3368 Clouds 19 1022 88 10000 3.6 20 13:58 10.05.2020
3369 Clouds 18 1022 88 10000 3.6 20 13:38 10.05.2020
3370 Clouds 17 1022 88 10000 3.6 50 13:20 10.05.2020
3371 Clouds 17 1022 88 10000 3.6 50 12:57 10.05.2020
3372 Clouds 17 1022 88 10000 3.6 50 12:38 10.05.2020
3373 Clouds 17 1022 88 10000 3.6 50 12:20 10.05.2020
3374 Clear 18 1021 88 10000 2.1 360 11:56 10.05.2020
3375 Clear 18 1021 88 10000 2.1 360 11:38 10.05.2020
3376 Clear 18 1021 88 10000 2.1 360 11:19 10.05.2020
3377 Clear 16 1022 87 10000 1 30 10:46 10.05.2020
3378 Clear 16 1022 87 10000 1 30 10:27 10.05.2020
3379 Clear 16 1021 87 10000 1 40 09:58 10.05.2020
3380 Clear 16 1021 87 10000 1 40 09:39 10.05.2020
3381 Clear 16 1021 87 10000 1 40 09:20 10.05.2020
3382 Clear 19 1022 73 0 1.88 358 08:48 10.05.2020
3383 Clear 16 1022 87 10000 1.5 110 08:24 10.05.2020
3384 Clear 16 1022 87 10000 1.5 110 07:45 10.05.2020
3385 Clear 16 1022 87 10000 1.5 110 07:21 10.05.2020
3386 Clear 17 1023 88 10000 2.1 120 06:57 10.05.2020
3387 Clear 18 1023 82 10000 1.5 130 06:32 10.05.2020
3388 Clear 18 1023 82 10000 1.5 130 05:52 10.05.2020
3389 Clear 20 1023 73 10000 1 20 04:55 10.05.2020
3390 Clear 20 1023 73 10000 1 20 04:36 10.05.2020
3391 Clear 21 1024 68 10000 1.5 100 03:57 10.05.2020
3392 Clear 21 1024 68 10000 1.5 100 03:38 10.05.2020
3393 Clouds 21 1023 64 10000 2.1 100 02:50 10.05.2020
3394 Clouds 21 1023 64 10000 2.1 100 02:22 10.05.2020
3395 Clouds 22 1023 68 10000 2.6 90 01:42 10.05.2020
3396 Clouds 22 1022 73 10000 3.6 120 01:20 10.05.2020
3397 Clouds 22 1022 73 10000 3.6 120 00:55 10.05.2020
3398 Clouds 22 1022 73 10000 3.6 120 00:26 10.05.2020
3399 Clouds 22 1022 73 10000 3.6 130 23:59 09.05.2020
3400 Clouds 22 1022 73 10000 3.6 130 23:39 09.05.2020
3401 Clouds 23 1021 69 10000 4.6 130 23:20 09.05.2020
3402 Clouds 23 1021 69 10000 4.6 130 22:44 09.05.2020
3403 Clouds 23 1021 69 10000 4.6 130 22:24 09.05.2020
3404 Clouds 24 1021 69 10000 5.7 160 21:59 09.05.2020
3405 Clouds 24 1021 69 10000 5.7 160 21:41 09.05.2020
3406 Clouds 24 1021 69 10000 5.7 160 21:22 09.05.2020
3407 Clouds 23 1021 64 10000 5.7 160 20:58 09.05.2020
3408 Clouds 24 1021 64 10000 5.7 160 20:39 09.05.2020
3409 Clouds 25 1021 64 10000 5.7 160 20:20 09.05.2020
3410 Clouds 25 1022 60 10000 4.6 160 20:20 09.05.2020
3411 Clouds 25 1022 60 10000 4.6 160 19:58 09.05.2020
3412 Clouds 25 1022 60 10000 4.6 160 19:39 09.05.2020
3413 Clouds 25 1023 53 10000 1.5 50 19:20 09.05.2020
3414 Clouds 25 1023 53 10000 1.5 50 18:54 09.05.2020
3415 Clouds 25 1023 53 10000 1.5 50 18:36 09.05.2020
3416 Clouds 24 1023 60 10000 2.6 330 18:18 09.05.2020
3417 Clouds 24 1023 60 10000 2.6 330 17:40 09.05.2020
3418 Clouds 24 1023 60 10000 2.6 330 17:21 09.05.2020
3419 Clouds 23 1024 83 10000 2.6 350 16:41 09.05.2020
3420 Clouds 23 1024 83 10000 2.6 350 16:20 09.05.2020
3421 Clouds 22 1025 88 9000 2.1 360 16:20 09.05.2020
3422 Clouds 22 1025 88 9000 2.1 360 15:46 09.05.2020
3423 Clouds 22 1025 88 9000 2.1 360 15:27 09.05.2020
3424 Clouds 20 1024 88 8000 3.1 10 14:59 09.05.2020
3425 Clouds 20 1024 88 8000 3.1 10 14:40 09.05.2020
3426 Clouds 19 1024 88 10000 3.1 320 14:20 09.05.2020
3427 Clouds 19 1024 88 10000 3.1 320 13:58 09.05.2020
3428 Clouds 18 1024 88 10000 3.1 320 13:40 09.05.2020
3429 Clouds 18 1024 88 10000 3.1 320 13:20 09.05.2020
3430 Clouds 17 1023 88 10000 1.5 310 12:43 09.05.2020
3431 Clouds 18 1023 88 10000 3.1 30 12:22 09.05.2020
3432 Clouds 18 1023 88 10000 3.1 30 11:58 09.05.2020
3433 Clouds 18 1023 88 10000 3.1 30 11:40 09.05.2020
3434 Clouds 16 1023 87 10000 1 330 11:18 09.05.2020
3435 Clouds 16 1023 87 10000 1 330 10:43 09.05.2020
3436 Clouds 16 1023 87 10000 1 330 10:25 09.05.2020
3437 Clouds 16 1022 87 10000 1.5 340 09:58 09.05.2020
3438 Clouds 16 1022 87 10000 1.5 340 09:38 09.05.2020
3439 Clear 16 1023 87 10000 0.5 180 09:19 09.05.2020
3440 Clear 16 1023 87 10000 0.5 180 08:51 09.05.2020
3441 Clear 16 1023 87 10000 0.5 180 08:32 09.05.2020
3442 Clouds 16 1023 87 10000 1.5 150 07:50 09.05.2020
3443 Clouds 16 1023 87 10000 1.5 150 07:32 09.05.2020
3444 Clouds 16 1023 87 10000 0.5 0 06:55 09.05.2020
3445 Clouds 16 1023 87 10000 0.5 0 06:26 09.05.2020
3446 Clouds 17 1024 88 10000 1.5 330 05:49 09.05.2020
3447 Clouds 19 1024 77 10000 2.1 320 04:20 09.05.2020
3448 Clouds 19 1024 77 10000 1 230 03:38 09.05.2020
3449 Clouds 19 1023 77 10000 2.6 190 02:50 09.05.2020
3450 Clouds 20 1023 77 10000 3.1 200 01:54 09.05.2020
3451 Clouds 20 1023 77 10000 3.1 200 01:26 09.05.2020
3452 Clouds 21 1023 73 10000 3.6 200 00:59 09.05.2020
3453 Clouds 21 1023 73 10000 3.6 200 00:38 09.05.2020
3454 Clouds 21 1022 73 10000 4.1 190 23:57 08.05.2020
3455 Clouds 21 1022 73 10000 4.1 190 23:39 08.05.2020
3456 Clouds 22 1022 64 10000 4.6 180 23:19 08.05.2020
3457 Clouds 22 1022 64 10000 4.6 180 23:19 08.05.2020
3458 Clouds 22 1022 64 10000 4.6 180 22:54 08.05.2020
3459 Clouds 22 1022 64 10000 4.6 180 22:36 08.05.2020
3460 Clouds 22 1021 64 10000 3.1 160 22:18 08.05.2020
3461 Clouds 22 1021 64 10000 3.1 160 21:42 08.05.2020
3462 Clouds 23 1021 60 10000 1 80 21:19 08.05.2020
3463 Clouds 23 1021 60 10000 1 80 21:19 08.05.2020
3464 Clouds 23 1021 60 10000 1 80 20:59 08.05.2020
3465 Clouds 23 1021 60 10000 1 80 20:41 08.05.2020
3466 Clouds 23 1022 69 10000 1.5 200 20:23 08.05.2020
3467 Clouds 23 1022 69 10000 1.5 200 19:56 08.05.2020
3468 Clouds 23 1022 69 10000 1.5 200 19:37 08.05.2020
3469 Clouds 22 1022 64 10000 2.1 230 19:19 08.05.2020
3470 Clouds 22 1022 64 10000 2.1 230 18:44 08.05.2020
3471 Clouds 22 1022 64 10000 2.1 230 18:44 08.05.2020
3472 Clouds 22 1022 64 10000 2.1 230 18:26 08.05.2020
3473 Clouds 22 1023 73 10000 2.1 190 17:43 08.05.2020
3474 Rain 23 1023 73 10000 4.6 150 17:20 08.05.2020
3475 Rain 23 1023 73 10000 4.6 150 16:56 08.05.2020
3476 Clouds 23 1024 73 10000 2.1 40 16:37 08.05.2020
3477 Clouds 22 1024 77 10000 3.1 360 16:19 08.05.2020
3478 Clouds 22 1024 77 10000 3.1 360 15:42 08.05.2020
3479 Clouds 21 1023 73 10000 3.6 320 15:20 08.05.2020
3480 Clouds 21 1023 73 10000 3.6 320 14:56 08.05.2020
3481 Clouds 20 1023 73 10000 3.6 320 14:38 08.05.2020
3482 Clouds 20 1022 77 10000 2.1 280 14:18 08.05.2020
3483 Clouds 20 1022 77 10000 2.1 280 13:55 08.05.2020
3484 Clouds 20 1022 77 10000 2.1 280 13:36 08.05.2020
3485 Clouds 18 1022 88 10000 2.6 300 13:18 08.05.2020
3486 Clouds 18 1022 88 10000 2.6 300 12:42 08.05.2020
3487 Clouds 18 1021 88 10000 3.1 290 12:23 08.05.2020
3488 Clouds 18 1021 88 10000 3.1 290 11:44 08.05.2020
3489 Clouds 18 1021 88 10000 3.1 290 11:23 08.05.2020
3490 Clouds 18 1021 88 10000 3.1 330 10:59 08.05.2020
3491 Clouds 18 1021 88 10000 3.1 330 10:41 08.05.2020
3492 Clouds 17 1021 93 10000 2.1 320 10:19 08.05.2020
3493 Clouds 17 1021 93 10000 2.1 320 09:57 08.05.2020
3494 Clouds 17 1021 93 10000 2.1 320 09:38 08.05.2020
3495 Rain 17 1021 93 5000 2.6 290 09:18 08.05.2020
3496 Rain 17 1021 93 5000 2.6 290 09:18 08.05.2020
3497 Rain 17 1021 93 5000 2.6 290 08:45 08.05.2020
3498 Rain 17 1021 93 5000 2.6 290 08:22 08.05.2020
3499 Clouds 18 1022 88 10000 2.1 300 07:44 08.05.2020
3500 Clouds 18 1022 88 10000 2.1 300 07:25 08.05.2020
3501 Clouds 18 1022 88 10000 4.1 310 06:51 08.05.2020
3502 Clouds 18 1022 88 10000 4.1 310 06:24 08.05.2020
3503 Clouds 18 1022 88 10000 3.6 300 05:52 08.05.2020
3504 Clouds 19 1021 88 10000 3.1 300 04:44 08.05.2020
3505 Rain 20 1021 82 9000 3.6 320 02:38 08.05.2020
3506 Rain 19 1020 88 8000 1.5 320 01:56 08.05.2020
3507 Rain 19 1020 88 8000 1.5 320 01:29 08.05.2020
3508 Rain 20 1020 82 6000 1.5 200 00:58 08.05.2020
3509 Clouds 19 1019 82 10000 1.5 300 00:39 08.05.2020
3510 Clouds 19 1019 82 10000 3.6 290 00:20 08.05.2020
3511 Clouds 20 1019 82 10000 3.6 290 23:42 07.05.2020
3512 Clouds 20 1019 82 10000 3.6 290 23:23 07.05.2020
3513 Clouds 20 1018 82 10000 4.1 310 22:57 07.05.2020
3514 Clouds 20 1018 82 10000 4.1 310 22:39 07.05.2020
3515 Clouds 20 1018 82 10000 4.1 310 22:19 07.05.2020
3516 Clouds 20 1018 82 10000 3.76 237 21:56 07.05.2020
3517 Clouds 20 1018 82 10000 3.88 250 21:37 07.05.2020
3518 Clouds 20 1018 77 9000 2.6 280 21:19 07.05.2020
3519 Rain 20 1018 88 4000 7.2 190 20:43 07.05.2020
3520 Rain 20 1018 88 4000 7.2 190 20:23 07.05.2020
3521 Clouds 20 1018 82 10000 4.6 320 19:58 07.05.2020
3522 Clouds 20 1018 82 10000 4.6 320 19:40 07.05.2020
3523 Clouds 20 1018 82 10000 4.6 320 19:21 07.05.2020
3524 Clouds 20 1018 82 9000 2.6 300 18:45 07.05.2020
3525 Clouds 20 1018 82 9000 2.6 300 18:27 07.05.2020
3526 Clouds 20 1018 82 8000 3.6 290 17:57 07.05.2020
3527 Clouds 20 1018 82 8000 3.6 290 17:37 07.05.2020
3528 Clouds 20 1018 82 8000 3.6 290 17:19 07.05.2020
3529 Clouds 20 1019 88 7000 4.1 310 16:40 07.05.2020
3530 Clouds 20 1019 88 7000 4.1 310 16:19 07.05.2020
3531 Rain 19 1019 88 5000 3.1 300 15:56 07.05.2020
3532 Rain 19 1019 88 5000 3.1 300 15:37 07.05.2020
3533 Rain 19 1018 77 8000 2.6 280 15:18 07.05.2020
3534 Rain 19 1018 77 8000 2.6 280 15:18 07.05.2020
3535 Rain 19 1018 77 8000 2.6 280 15:18 07.05.2020
3536 Rain 19 1018 77 8000 2.6 280 14:45 07.05.2020
3537 Rain 19 1018 77 8000 2.6 280 14:22 07.05.2020
3538 Mist 19 1018 93 5000 1.5 340 13:57 07.05.2020
3539 Rain 19 1018 93 5000 1.5 340 13:39 07.05.2020
3540 Rain 19 1017 93 5000 1 180 13:20 07.05.2020
3541 Rain 19 1017 93 3000 2.1 260 12:40 07.05.2020
3542 Rain 19 1016 88 5000 4.6 320 12:20 07.05.2020
3543 Mist 20 1016 82 5000 1.5 210 11:39 07.05.2020
3544 Rain 19 1016 82 6000 3.6 280 11:21 07.05.2020
3545 Rain 19 1016 82 6000 3.6 280 10:57 07.05.2020
3546 Rain 19 1016 82 6000 3.6 280 10:37 07.05.2020
3547 Rain 19 1016 82 6000 10.3 230 10:18 07.05.2020
3548 Rain 19 1016 82 6000 10.3 230 09:39 07.05.2020
3549 Rain 19 1016 82 6000 10.3 230 09:19 07.05.2020
3550 Rain 19 1014 93 3000 10.3 230 08:46 07.05.2020
3551 Rain 19 1014 93 3000 10.3 230 08:24 07.05.2020
3552 Clouds 23 1013 78 10000 4.6 250 07:59 07.05.2020
3553 Clouds 23 1013 78 10000 4.6 250 07:41 07.05.2020
3554 Clouds 23 1013 78 10000 4.6 250 07:20 07.05.2020
3555 Clouds 24 1013 73 10000 3.1 230 06:38 07.05.2020
3556 Clouds 24 1014 73 10000 4.6 240 06:19 07.05.2020
3557 Clouds 24 1013 78 10000 4.1 210 04:41 07.05.2020
3558 Clouds 25 1013 69 10000 3.1 200 03:47 07.05.2020
3559 Clouds 25 1013 69 10000 3.1 200 03:20 07.05.2020
3560 Clouds 25 1013 69 10000 3.6 220 02:36 07.05.2020
3561 Clouds 26 1012 69 10000 4.1 230 01:40 07.05.2020
3562 Clouds 25 1012 69 10000 4.1 230 01:22 07.05.2020
3563 Clouds 25 1011 61 10000 5.7 230 00:44 07.05.2020
3564 Clouds 26 1011 61 10000 5.7 230 00:25 07.05.2020
3565 Clouds 26 1010 61 10000 6.7 200 23:45 06.05.2020
3566 Clouds 26 1010 61 10000 6.7 200 23:24 06.05.2020
3567 Clear 27 1009 69 10000 4.6 160 22:57 06.05.2020
3568 Clear 27 1009 69 10000 4.6 160 22:38 06.05.2020
3569 Clear 27 1009 69 10000 4.1 150 22:19 06.05.2020
3570 Clear 27 1009 69 10000 4.1 150 21:56 06.05.2020
3571 Clear 29 1009 69 10000 4.1 150 21:38 06.05.2020
3572 Clear 30 1009 61 10000 2.6 150 21:18 06.05.2020
3573 Clear 30 1009 61 10000 2.6 150 20:42 06.05.2020
3574 Clouds 30 1009 61 10000 2.6 150 20:23 06.05.2020
3575 Clouds 30 1009 61 10000 2.6 150 20:23 06.05.2020
3576 Clouds 29 1009 61 10000 0.5 20 19:57 06.05.2020
3577 Clouds 29 1009 61 10000 0.5 20 19:38 06.05.2020
3578 Clouds 29 1009 61 10000 0.5 20 19:19 06.05.2020
3579 Clouds 27 1010 69 10000 2.1 350 18:58 06.05.2020
3580 Clouds 29 1010 69 10000 2.1 350 18:39 06.05.2020
3581 Clouds 29 1010 69 10000 2.1 350 18:21 06.05.2020
3582 Clouds 28 1011 78 10000 3.6 20 17:58 06.05.2020
3583 Clouds 28 1011 78 10000 3.6 20 17:39 06.05.2020
3584 Clouds 28 1011 78 10000 3.6 20 17:21 06.05.2020
3585 Clouds 29 1012 78 10000 4.1 10 16:58 06.05.2020
3586 Clouds 29 1012 78 10000 4.1 10 16:40 06.05.2020
3587 Clouds 29 1012 78 10000 4.1 10 16:21 06.05.2020
3588 Clouds 26 1013 83 10000 3.6 30 15:58 06.05.2020
3589 Clouds 26 1013 83 10000 3.6 30 15:40 06.05.2020
3590 Clouds 26 1013 83 10000 3.6 30 15:20 06.05.2020
3591 Clouds 23 1013 88 9000 3.6 350 14:45 06.05.2020
3592 Clouds 23 1013 94 7000 2.1 20 14:20 06.05.2020
3593 Clouds 23 1013 94 7000 2.1 20 13:59 06.05.2020
3594 Clouds 22 1013 94 7000 2.1 20 13:41 06.05.2020
3595 Clouds 22 1013 94 7000 2.1 20 13:22 06.05.2020
3596 Clouds 22 1012 88 6000 2.1 50 12:54 06.05.2020
3597 Clouds 22 1012 88 6000 2.1 50 12:36 06.05.2020
3598 Clouds 22 1012 88 6000 2.1 50 12:18 06.05.2020
3599 Clouds 22 1011 88 6000 1 310 11:40 06.05.2020
3600 Clouds 21 1011 94 6000 2.6 330 11:21 06.05.2020
3601 Clouds 21 1011 94 6000 2.6 330 10:57 06.05.2020
3602 Clouds 21 1011 94 6000 2.6 330 10:37 06.05.2020
3603 Clouds 20 1011 88 6000 1 70 10:18 06.05.2020
3604 Clouds 20 1011 88 6000 1 70 09:43 06.05.2020
3605 Clouds 20 1011 88 6000 1 70 09:22 06.05.2020
3606 Clouds 21 1011 88 6000 1 260 08:49 06.05.2020
3607 Clouds 21 1011 88 6000 1 260 08:23 06.05.2020
3608 Clouds 21 1011 88 6000 1 260 08:23 06.05.2020
3609 Clouds 21 1011 88 6000 1 40 07:59 06.05.2020
3610 Clouds 21 1011 88 6000 1 40 07:39 06.05.2020
3611 Clouds 22 1011 88 7000 1 170 07:20 06.05.2020
3612 Clouds 22 1011 88 7000 1 170 06:51 06.05.2020
3613 Clouds 22 1011 88 7000 1 170 06:22 06.05.2020
3614 Clouds 22 1012 88 10000 1 340 05:55 06.05.2020
3615 Clouds 23 1012 88 10000 1.5 20 05:37 06.05.2020
3616 Clouds 23 1012 88 10000 1.5 20 05:37 06.05.2020
3617 Clouds 23 1012 88 10000 1.5 20 04:38 06.05.2020
3618 Clouds 24 1012 83 10000 2.1 330 03:40 06.05.2020
3619 Clouds 24 1012 83 10000 1.5 20 03:20 06.05.2020
3620 Clouds 24 1012 83 10000 1.5 20 02:30 06.05.2020
3621 Clouds 25 1011 83 10000 0.5 120 01:54 06.05.2020
3622 Clouds 24 1011 83 10000 0.5 120 01:32 06.05.2020
3623 Clouds 25 1011 73 10000 2.6 190 00:54 06.05.2020
3624 Clouds 25 1011 73 10000 2.6 190 00:26 06.05.2020
3625 Clouds 25 1010 73 10000 3.1 190 23:56 05.05.2020
3626 Clouds 26 1010 73 10000 3.1 190 23:37 05.05.2020
3627 Clouds 26 1010 69 10000 4.1 180 23:18 05.05.2020
3628 Clouds 26 1010 69 10000 4.1 180 22:41 05.05.2020
3629 Clouds 26 1010 69 10000 4.1 180 22:20 05.05.2020
3630 Clouds 28 1010 69 10000 3.6 170 21:57 05.05.2020
3631 Clouds 28 1010 69 10000 3.6 170 21:38 05.05.2020
3632 Clouds 28 1010 69 10000 3.6 170 21:38 05.05.2020
3633 Clouds 28 1010 69 10000 3.6 170 21:20 05.05.2020
3634 Clouds 28 1010 69 10000 2.6 170 20:57 05.05.2020
3635 Clouds 29 1009 65 10000 4.1 30 20:39 05.05.2020
3636 Clouds 29 1010 61 10000 2.1 20 20:18 05.05.2020
3637 Clouds 29 1010 61 10000 2.1 20 19:54 05.05.2020
3638 Clouds 29 1010 61 10000 2.1 20 19:36 05.05.2020
3639 Clouds 28 1011 61 10000 2.1 20 19:18 05.05.2020
3640 Clouds 28 1011 61 10000 2.1 20 19:18 05.05.2020
3641 Clouds 28 1011 61 10000 2.1 20 18:42 05.05.2020
3642 Clear 25 1012 65 10000 2.6 360 18:20 05.05.2020
3643 Clear 25 1012 65 10000 2.6 360 17:59 05.05.2020
3644 Clear 26 1012 65 10000 2.6 360 17:41 05.05.2020
3645 Clear 27 1012 65 10000 2.6 360 17:23 05.05.2020
3646 Clear 26 1013 73 10000 3.1 360 16:56 05.05.2020
3647 Clear 25 1013 73 10000 3.1 360 16:36 05.05.2020
3648 Clear 24 1014 73 10000 2.6 340 16:18 05.05.2020
3649 Clear 24 1014 73 10000 2.6 340 16:18 05.05.2020
3650 Clear 23 1014 73 10000 2.6 340 15:41 05.05.2020
3651 Clear 23 1014 73 10000 2.6 340 15:22 05.05.2020
3652 Clear 21 1014 83 10000 2.6 360 14:58 05.05.2020
3653 Clear 21 1014 83 10000 2.6 360 14:39 05.05.2020
3654 Clouds 20 1014 77 10000 1.5 40 14:21 05.05.2020
3655 Clouds 20 1014 77 10000 1.5 40 13:58 05.05.2020
3656 Clouds 21 1014 77 10000 1.5 40 13:39 05.05.2020
3657 Clouds 19 1014 82 10000 3.1 20 13:21 05.05.2020
3658 Clouds 19 1014 82 10000 3.1 20 12:58 05.05.2020
3659 Clouds 19 1014 82 10000 3.1 20 12:39 05.05.2020
3660 Clouds 19 1014 82 10000 3.1 20 12:20 05.05.2020
3661 Clouds 19 1014 82 10000 3.1 20 12:20 05.05.2020
3662 Clouds 19 1013 82 10000 1.5 40 11:55 05.05.2020
3663 Clouds 19 1013 82 10000 1.5 40 11:36 05.05.2020
3664 Clouds 17 1013 88 10000 1 0 11:18 05.05.2020
3665 Clouds 17 1013 88 10000 1 0 10:39 05.05.2020
3666 Clouds 18 1013 88 10000 1.5 340 10:19 05.05.2020
3667 Clouds 18 1013 88 10000 1.5 340 09:59 05.05.2020
3668 Clouds 18 1013 88 10000 1.5 340 09:59 05.05.2020
3669 Clouds 18 1013 88 10000 1.5 340 09:40 05.05.2020
3670 Clouds 18 1013 88 10000 1.5 340 09:40 05.05.2020
3671 Clouds 18 1013 88 10000 1 0 09:22 05.05.2020
3672 Clouds 18 1013 88 10000 1 0 08:41 05.05.2020
3673 Clear 18 1013 88 10000 1 0 08:21 05.05.2020
3674 Clear 18 1014 93 10000 1.5 20 07:58 05.05.2020
3675 Clear 18 1014 93 10000 1.5 20 07:39 05.05.2020
3676 Clear 19 1015 82 10000 1.5 110 07:19 05.05.2020
3677 Clear 19 1015 82 10000 1.5 110 06:49 05.05.2020
3678 Clear 19 1015 82 10000 1.5 110 06:23 05.05.2020
3679 Clear 20 1015 77 10000 2.1 100 05:39 05.05.2020
3680 Clear 21 1015 68 10000 1.5 120 03:36 05.05.2020
3681 Clear 22 1015 78 10000 1.5 80 01:51 05.05.2020
3682 Clear 21 1015 78 10000 2.6 110 00:54 05.05.2020
3683 Clear 23 1015 73 10000 4.1 130 00:22 05.05.2020
3684 Clear 23 1015 73 10000 4.1 130 23:46 04.05.2020
3685 Clear 23 1015 73 10000 4.1 130 23:23 04.05.2020
3686 Clouds 23 1014 69 10000 4.1 150 22:56 04.05.2020
3687 Clouds 24 1014 69 10000 4.1 150 22:38 04.05.2020
3688 Clouds 25 1014 64 10000 5.1 160 22:19 04.05.2020
3689 Clouds 25 1014 64 10000 5.1 160 21:54 04.05.2020
3690 Clouds 25 1014 64 10000 5.1 160 21:34 04.05.2020
3691 Clouds 25 1015 60 10000 4.1 140 20:58 04.05.2020
3692 Clouds 25 1015 60 10000 4.1 140 20:58 04.05.2020
3693 Clouds 25 1015 60 10000 4.1 140 20:58 04.05.2020
3694 Clouds 24 1015 60 10000 4.1 140 20:38 04.05.2020
3695 Clouds 24 1015 60 10000 4.1 140 20:38 04.05.2020
3696 Clouds 24 1015 60 10000 4.1 160 20:18 04.05.2020
3697 Clouds 24 1015 60 10000 4.1 160 19:43 04.05.2020
3698 Clouds 24 1015 60 10000 4.1 160 19:21 04.05.2020
3699 Clouds 25 1016 53 10000 2.6 140 18:57 04.05.2020
3700 Clouds 25 1016 53 10000 2.6 140 18:38 04.05.2020
3701 Clouds 25 1016 53 10000 2.6 140 18:38 04.05.2020
3702 Clouds 25 1016 53 10000 2.6 140 18:38 04.05.2020
3703 Clouds 25 1017 64 10000 1.5 30 18:19 04.05.2020
3704 Clouds 25 1017 64 10000 1.5 30 17:56 04.05.2020
3705 Clouds 25 1017 64 10000 1.5 30 17:37 04.05.2020
3706 Clouds 24 1018 73 10000 2.6 350 17:18 04.05.2020
3707 Clouds 24 1018 73 10000 2.6 350 17:18 04.05.2020
3708 Clouds 23 1018 73 10000 2.6 350 16:43 04.05.2020
3709 Clouds 23 1018 73 10000 2.6 350 16:22 04.05.2020
3710 Clouds 22 1019 78 10000 3.1 350 15:55 04.05.2020
3711 Clouds 22 1019 78 10000 3.1 350 15:37 04.05.2020
3712 Clouds 21 1018 77 10000 2.6 350 15:18 04.05.2020
3713 Clouds 21 1018 77 10000 2.6 350 14:48 04.05.2020
3714 Clouds 21 1018 77 10000 2.6 350 14:48 04.05.2020
3715 Clouds 21 1018 77 10000 2.6 350 14:48 04.05.2020
3716 Clouds 21 1018 77 10000 2.6 350 14:48 04.05.2020
3717 Clouds 21 1018 77 10000 2.6 350 14:48 04.05.2020
3718 Clouds 21 1018 77 10000 2.6 350 14:19 04.05.2020
3719 Clouds 19 1017 88 10000 3.1 20 12:57 04.05.2020
3720 Clouds 19 1017 88 10000 3.1 20 12:36 04.05.2020
3721 Clouds 19 1017 88 10000 3.1 20 12:36 04.05.2020
3722 Clouds 19 1017 88 10000 3.1 20 12:36 04.05.2020
3723 Clouds 19 1017 88 10000 3.1 20 12:36 04.05.2020
3724 Clouds 19 1017 88 10000 3.1 20 12:35 04.05.2020
3725 Clouds 17 1017 93 10000 1 10 10:37 04.05.2020
3726 Clouds 18 1017 88 10000 1 0 09:26 04.05.2020
3727 Clouds 18 1017 88 10000 1 0 09:26 04.05.2020
3728 Clouds 18 1017 88 10000 1 0 09:26 04.05.2020
3729 Clouds 18 1017 88 10000 1 0 09:26 04.05.2020
3730 Clouds 18 1017 88 10000 1 0 09:26 04.05.2020
3731 Clouds 19 1017 88 10000 1.5 160 07:53 04.05.2020
3732 Clouds 19 1017 88 10000 1.5 160 07:33 04.05.2020
3733 Clouds 19 1017 88 10000 1.5 160 07:33 04.05.2020
3734 Clouds 19 1017 88 10000 1.5 160 07:33 04.05.2020
3735 Clouds 19 1017 88 10000 1.5 160 07:33 04.05.2020
3736 Clouds 20 1018 83 10000 2.6 330 05:18 04.05.2020
3737 Clouds 20 1019 83 10000 2.1 310 04:09 04.05.2020
3738 Clouds 21 1019 77 10000 2.6 290 02:38 04.05.2020
3739 Clouds 20 1018 77 10000 1.5 280 01:20 04.05.2020
3740 Clouds 21 1018 77 10000 1.5 250 23:58 03.05.2020
3741 Clouds 21 1018 77 10000 1.5 250 23:40 03.05.2020
3742 Clouds 21 1018 77 10000 1.5 250 23:22 03.05.2020
3743 Clouds 22 1017 68 10000 1.5 190 22:43 03.05.2020
3744 Clouds 22 1017 68 10000 1.5 190 22:43 03.05.2020
3745 Clouds 22 1017 68 10000 1.5 190 22:43 03.05.2020
3746 Clouds 23 1017 68 10000 1.5 190 22:24 03.05.2020
3747 Clouds 23 1017 64 10000 3.57 214 21:42 03.05.2020
3748 Clouds 23 1017 64 10000 4.04 212 21:22 03.05.2020
3749 Rain 23 1017 69 10000 2.1 320 20:56 03.05.2020
3750 Clouds 23 1017 64 10000 1 250 20:38 03.05.2020
3751 Rain 21 1017 77 8000 5.1 200 20:20 03.05.2020
3752 Clouds 23 1017 64 10000 1 250 20:20 03.05.2020
3753 Rain 21 1017 77 8000 5.1 200 19:47 03.05.2020
3754 Rain 21 1017 77 8000 5.1 200 19:47 03.05.2020
3755 Rain 21 1017 77 8000 5.1 200 19:47 03.05.2020
3756 Rain 21 1017 77 8000 5.1 200 19:47 03.05.2020
3757 Rain 21 1017 77 8000 5.1 200 19:47 03.05.2020
3758 Rain 21 1017 77 8000 5.1 200 19:27 03.05.2020
3759 Rain 21 1017 77 8000 5.1 200 19:27 03.05.2020
3760 Rain 21 1017 77 8000 5.1 200 19:27 03.05.2020
3761 Rain 21 1017 77 8000 5.1 200 19:27 03.05.2020
3762 Rain 21 1017 77 8000 5.1 200 19:27 03.05.2020
3763 Clouds 22 1018 78 10000 2.1 250 18:40 03.05.2020
3764 Clouds 22 1018 73 10000 2.1 210 18:21 03.05.2020
3765 Clouds 22 1018 73 10000 2.1 210 17:59 03.05.2020
3766 Clouds 21 1018 83 10000 3.1 310 17:40 03.05.2020
3767 Clouds 21 1018 83 10000 3.1 310 17:21 03.05.2020
3768 Clouds 21 1018 68 10000 3.1 280 16:45 03.05.2020
3769 Clouds 23 1019 69 10000 4.1 220 16:20 03.05.2020
3770 Clouds 23 1019 69 10000 4.1 220 15:58 03.05.2020
3771 Clouds 23 1019 69 10000 4.1 220 15:39 03.05.2020
3772 Clouds 23 1019 69 10000 4.1 220 15:20 03.05.2020
3773 Clouds 23 1018 83 10000 3.1 320 14:58 03.05.2020
3774 Clouds 23 1018 83 10000 3.1 320 14:39 03.05.2020
3775 Clouds 23 1018 83 10000 3.1 320 14:20 03.05.2020
3776 Clouds 22 1018 83 10000 4.1 320 13:51 03.05.2020
3777 Clouds 22 1018 83 10000 4.1 320 13:51 03.05.2020
3778 Clouds 22 1018 83 10000 4.1 320 13:51 03.05.2020
3779 Clouds 22 1018 83 10000 4.1 320 13:51 03.05.2020
3780 Clouds 22 1018 83 10000 4.1 320 13:51 03.05.2020
3781 Clouds 22 1017 83 10000 3.1 310 12:59 03.05.2020
3782 Clouds 22 1017 83 10000 3.1 310 12:41 03.05.2020
3783 Clouds 21 1017 88 10000 3.6 310 12:18 03.05.2020
3784 Clouds 21 1017 88 10000 3.6 310 11:55 03.05.2020
3785 Clouds 21 1017 88 10000 3.6 310 11:37 03.05.2020
3786 Clouds 21 1016 83 8000 3.1 320 11:18 03.05.2020
3787 Clouds 21 1016 83 8000 3.1 320 10:46 03.05.2020
3788 Clouds 21 1016 83 8000 3.1 320 10:46 03.05.2020
3789 Clouds 21 1016 83 8000 3.1 320 10:46 03.05.2020
3790 Clouds 21 1016 83 8000 3.1 320 10:46 03.05.2020
3791 Clouds 20 1016 88 8000 4.1 310 09:57 03.05.2020
3792 Clouds 20 1016 88 8000 4.1 310 09:57 03.05.2020
3793 Clouds 20 1016 88 8000 4.1 310 09:57 03.05.2020
3794 Clouds 20 1016 88 8000 4.1 310 09:57 03.05.2020
3795 Clouds 20 1016 88 8000 4.1 310 09:57 03.05.2020
3796 Clouds 20 1016 88 8000 4.1 310 09:33 03.05.2020
3797 Clouds 20 1016 88 8000 4.1 310 09:33 03.05.2020
3798 Clouds 20 1016 88 8000 4.1 310 09:33 03.05.2020
3799 Clouds 20 1016 88 8000 4.1 310 09:33 03.05.2020
3800 Clouds 21 1016 88 8000 3.6 330 08:55 03.05.2020
3801 Clouds 21 1016 88 8000 3.6 330 08:55 03.05.2020
3802 Clouds 21 1016 88 8000 3.6 330 08:55 03.05.2020
3803 Clouds 21 1016 88 8000 3.6 330 08:55 03.05.2020
3804 Clouds 21 1016 88 8000 3.6 330 08:55 03.05.2020
3805 Clouds 21 1016 88 8000 3.6 330 08:25 03.05.2020
3806 Clouds 21 1016 88 8000 3.6 330 08:25 03.05.2020
3807 Clouds 21 1016 88 8000 3.6 330 08:25 03.05.2020
3808 Clouds 21 1016 88 8000 3.6 330 08:25 03.05.2020
3809 Clouds 21 1016 88 8000 3.6 280 07:39 03.05.2020
3810 Clouds 21 1017 88 8000 4.1 260 06:19 03.05.2020
3811 Rain 21 1017 83 8000 5.7 220 05:47 03.05.2020
3812 Rain 22 1016 88 8000 1 230 04:46 03.05.2020
3813 Rain 22 1016 88 8000 1 230 04:23 03.05.2020
3814 Rain 21 1016 88 8000 4.1 180 02:59 03.05.2020
3815 Rain 21 1016 88 8000 4.1 180 02:59 03.05.2020
3816 Thunderstorm 22 1016 88 6000 6.7 190 02:24 03.05.2020
3817 Rain 22 1015 88 6000 6.2 160 01:44 03.05.2020
3818 Rain 22 1015 88 6000 6.2 160 01:24 03.05.2020
3819 Rain 23 1015 94 5000 7.7 190 00:55 03.05.2020
3820 Rain 23 1015 94 5000 7.7 190 00:37 03.05.2020
3821 Rain 24 1014 83 7000 4.1 190 00:18 03.05.2020
3822 Rain 24 1013 83 10000 6.2 170 23:42 02.05.2020
3823 Clouds 25 1013 78 9000 5.1 180 23:24 02.05.2020
3824 Clouds 25 1013 78 9000 5.1 180 22:43 02.05.2020
3825 Clouds 26 1013 78 9000 5.1 180 22:23 02.05.2020
3826 Clouds 26 1012 78 10000 4.1 150 21:56 02.05.2020
3827 Clouds 26 1012 78 10000 4.1 150 21:38 02.05.2020
3828 Clouds 26 1012 78 10000 5.7 160 21:18 02.05.2020
3829 Clouds 26 1012 78 10000 5.7 160 20:57 02.05.2020
3830 Clouds 26 1012 78 10000 5.7 160 20:37 02.05.2020
3831 Clouds 26 1012 78 10000 7.2 160 20:19 02.05.2020
3832 Clouds 26 1012 78 10000 7.2 160 19:57 02.05.2020
3833 Clouds 26 1012 78 10000 7.2 160 19:38 02.05.2020
3834 Clouds 26 1013 74 10000 7.2 170 19:19 02.05.2020
3835 Clouds 27 1013 74 10000 7.2 170 18:41 02.05.2020
3836 Clouds 27 1013 74 10000 7.2 170 18:23 02.05.2020
3837 Clouds 27 1014 74 9000 8.2 170 17:58 02.05.2020
3838 Clouds 27 1014 74 9000 8.2 170 17:39 02.05.2020
3839 Clouds 27 1014 74 9000 8.2 170 17:20 02.05.2020
3840 Clouds 28 1014 74 7000 7.7 170 16:59 02.05.2020
3841 Clouds 28 1014 78 7000 2.6 130 16:39 02.05.2020
3842 Clouds 28 1014 78 7000 2.6 130 16:21 02.05.2020
3843 Clouds 25 1014 78 7000 1.5 30 15:43 02.05.2020
3844 Clouds 25 1014 78 7000 1.5 30 15:20 02.05.2020
3845 Clouds 25 1014 83 7000 1.5 20 14:58 02.05.2020
3846 Clouds 25 1014 83 7000 1.5 20 14:40 02.05.2020
3847 Clouds 25 1014 83 7000 1.5 20 14:21 02.05.2020
3848 Clouds 23 1014 88 7000 2.1 350 13:40 02.05.2020
3849 Clouds 23 1014 88 7000 2.1 350 13:22 02.05.2020
3850 Mist 22 1014 94 5000 2.6 350 12:55 02.05.2020
3851 Mist 22 1014 94 5000 2.6 350 12:37 02.05.2020
3852 Mist 22 1015 94 5000 3.1 10 12:18 02.05.2020
3853 Mist 22 1015 94 5000 3.1 10 11:41 02.05.2020
3854 Mist 22 1015 94 5000 3.1 10 11:22 02.05.2020
3855 Clouds 22 1015 94 7000 1.5 20 10:59 02.05.2020
3856 Clouds 22 1015 94 7000 1.5 20 10:39 02.05.2020
3857 Clouds 22 1015 94 7000 1.5 20 10:21 02.05.2020
3858 Clouds 22 1016 94 10000 2.6 30 09:57 02.05.2020
3859 Clouds 22 1016 94 10000 2.6 30 09:39 02.05.2020
3860 Clouds 22 1016 94 10000 2.6 30 09:20 02.05.2020
3861 Clear 22 1016 88 10000 2.1 60 08:51 02.05.2020
3862 Clear 22 1016 88 10000 2.1 60 08:31 02.05.2020
3863 Clouds 22 1016 88 10000 1 50 07:49 02.05.2020
3864 Clouds 22 1016 88 10000 1 50 07:30 02.05.2020
3865 Clouds 22 1017 88 10000 1.5 70 06:53 02.05.2020
3866 Clouds 22 1017 88 10000 1.5 70 06:23 02.05.2020
3867 Clouds 23 1017 83 10000 2.1 170 05:27 02.05.2020
3868 Clouds 23 1017 83 10000 2.1 170 04:26 02.05.2020
3869 Clouds 24 1017 83 10000 2.6 150 03:34 02.05.2020
3870 Clouds 24 1017 83 10000 1 170 02:39 02.05.2020
3871 Clouds 24 1017 83 10000 2.6 150 01:52 02.05.2020
3872 Clouds 24 1017 78 10000 4.1 170 00:58 02.05.2020
3873 Clouds 24 1017 78 10000 4.1 170 00:40 02.05.2020
3874 Clouds 24 1017 83 10000 5.7 170 00:19 02.05.2020
3875 Clouds 24 1017 83 10000 5.7 170 23:40 01.05.2020
3876 Clouds 24 1017 83 10000 5.7 170 23:40 01.05.2020
3877 Clouds 24 1017 83 10000 5.7 170 23:20 01.05.2020
3878 Clouds 26 1016 83 10000 8.2 190 22:58 01.05.2020
3879 Clouds 26 1016 83 10000 8.2 190 22:38 01.05.2020
3880 Clouds 27 1016 78 10000 7.2 180 22:19 01.05.2020
3881 Clouds 27 1016 78 10000 7.2 180 21:57 01.05.2020
3882 Clouds 27 1016 78 10000 7.2 180 21:39 01.05.2020
3883 Clouds 27 1016 74 10000 6.2 170 21:19 01.05.2020
3884 Clouds 27 1016 74 10000 6.2 170 20:57 01.05.2020
3885 Clouds 28 1016 74 10000 6.2 170 20:37 01.05.2020
3886 Clouds 28 1016 74 10000 6.2 170 20:19 01.05.2020
3887 Clouds 28 1016 69 10000 6.2 180 19:43 01.05.2020
3888 Clouds 28 1016 69 10000 6.2 180 19:23 01.05.2020
3889 Clouds 28 1017 65 10000 3.1 120 18:59 01.05.2020
3890 Clouds 28 1017 65 10000 3.1 120 18:41 01.05.2020
3891 Clouds 28 1017 65 10000 2.6 30 18:21 01.05.2020
3892 Clouds 28 1017 65 10000 2.6 30 17:59 01.05.2020
3893 Clouds 28 1017 65 10000 2.6 30 17:39 01.05.2020
3894 Clouds 28 1017 65 10000 2.6 30 17:39 01.05.2020
3895 Clouds 28 1018 65 7000 3.1 20 17:21 01.05.2020
3896 Clouds 28 1018 65 7000 3.1 20 16:57 01.05.2020
3897 Clouds 27 1018 65 7000 3.1 20 16:38 01.05.2020
3898 Clouds 27 1018 65 7000 3.1 20 16:20 01.05.2020
3899 Clouds 26 1019 73 7000 2.6 10 15:56 01.05.2020
3900 Clouds 26 1019 73 7000 2.6 10 15:38 01.05.2020
3901 Clear 24 1018 78 8000 2.1 10 15:18 01.05.2020
3902 Clear 24 1018 78 8000 2.1 10 14:42 01.05.2020
3903 Clear 24 1018 78 8000 2.1 10 14:23 01.05.2020
3904 Clear 23 1018 78 10000 1.5 40 13:42 01.05.2020
3905 Clear 23 1018 78 10000 1.5 40 13:23 01.05.2020
3906 Clear 21 1017 78 10000 1.5 20 12:59 01.05.2020
3907 Clear 22 1017 78 10000 1.5 20 12:40 01.05.2020
3908 Clear 21 1016 88 10000 1.5 360 12:20 01.05.2020
3909 Clear 21 1016 88 10000 1.5 360 11:59 01.05.2020
3910 Clear 21 1016 88 10000 1.5 360 11:41 01.05.2020
3911 Clear 21 1016 88 10000 1.5 360 11:19 01.05.2020
3912 Clear 19 1016 88 10000 1 50 10:54 01.05.2020
3913 Clear 19 1016 88 10000 1 50 10:36 01.05.2020
3914 Clear 20 1015 82 10000 1 320 10:18 01.05.2020
3915 Clear 20 1015 82 10000 1 320 10:18 01.05.2020
3916 Clear 20 1015 82 10000 1 320 09:41 01.05.2020
3917 Clear 20 1015 82 10000 1 320 09:19 01.05.2020
3918 Clear 20 1015 82 10000 1.5 70 08:46 01.05.2020
3919 Clouds 20 1015 82 10000 1.5 70 08:28 01.05.2020
3920 Clouds 20 1016 77 10000 1 50 07:59 01.05.2020
3921 Clouds 20 1016 77 10000 1 50 07:39 01.05.2020
3922 Clouds 20 1016 77 10000 1 50 07:20 01.05.2020
3923 Clouds 20 1016 82 10000 1 70 06:30 01.05.2020
3924 Clouds 23 1016 78 10000 2.6 360 05:26 01.05.2020
3925 Clouds 24 1016 83 10000 1.5 10 03:45 01.05.2020
3926 Clouds 26 1016 61 10000 1.5 150 02:57 01.05.2020
3927 Clouds 26 1016 61 10000 1.5 150 02:38 01.05.2020
3928 Clouds 26 1015 57 10000 3.6 130 01:54 01.05.2020
3929 Clouds 25 1015 57 10000 3.6 130 01:27 01.05.2020
3930 Clouds 25 1014 48 10000 2.6 140 00:41 01.05.2020
3931 Clouds 25 1014 48 10000 2.6 140 00:41 01.05.2020
3932 Clouds 25 1014 69 10000 3.6 110 00:22 01.05.2020
3933 Clouds 25 1014 69 10000 3.6 110 23:57 30.04.2020
3934 Clouds 25 1014 69 10000 3.6 110 23:39 30.04.2020
3935 Clouds 25 1014 69 10000 3.6 110 23:21 30.04.2020
3936 Clouds 29 1014 45 10000 3.1 180 22:59 30.04.2020
3937 Clouds 29 1014 45 10000 3.1 180 22:40 30.04.2020
3938 Clouds 28 1014 58 10000 3.6 140 22:19 30.04.2020
3939 Clouds 30 1014 58 10000 3.6 140 21:55 30.04.2020
3940 Clouds 31 1014 58 10000 3.6 140 21:36 30.04.2020
3941 Clouds 32 1013 40 10000 4.1 150 21:18 30.04.2020
3942 Clouds 32 1013 33 10000 3.1 320 20:41 30.04.2020
3943 Clouds 32 1014 40 10000 4.1 340 20:19 30.04.2020
3944 Clouds 32 1014 40 10000 4.1 340 20:19 30.04.2020
3945 Clouds 32 1014 40 10000 4.1 340 19:47 30.04.2020
3946 Clouds 32 1014 40 10000 4.1 340 19:27 30.04.2020
3947 Clouds 32 1015 33 10000 5.7 330 18:59 30.04.2020
3948 Clouds 32 1015 33 10000 5.7 330 18:39 30.04.2020
3949 Clouds 30 1015 54 10000 3.6 350 18:21 30.04.2020
3950 Clouds 30 1015 54 10000 3.6 350 17:59 30.04.2020
3951 Clouds 30 1015 54 10000 3.6 350 17:40 30.04.2020
3952 Clouds 29 1016 74 10000 3.6 10 17:22 30.04.2020
3953 Clouds 29 1016 74 10000 3.6 10 16:58 30.04.2020
3954 Clouds 29 1016 74 10000 3.6 10 16:40 30.04.2020
3955 Clouds 27 1017 78 10000 2.6 340 16:19 30.04.2020
3956 Clouds 25 1017 78 10000 2.6 340 15:48 30.04.2020
3957 Clouds 26 1017 78 10000 2.6 340 15:26 30.04.2020
3958 Clouds 25 1017 88 8000 4.1 360 14:59 30.04.2020
3959 Clouds 23 1017 88 8000 4.1 360 14:40 30.04.2020
3960 Clouds 22 1017 94 8000 4.1 360 14:19 30.04.2020
3961 Clouds 22 1017 94 8000 4.1 360 13:56 30.04.2020
3962 Mist 22 1017 94 3000 4.6 360 13:38 30.04.2020
3963 Mist 22 1016 94 5000 4.6 360 13:20 30.04.2020
3964 Mist 22 1016 94 5000 4.6 360 12:42 30.04.2020
3965 Mist 22 1016 94 5000 4.6 360 12:42 30.04.2020
3966 Clouds 21 1016 94 7000 4.1 360 12:21 30.04.2020
3967 Clouds 21 1016 94 7000 4.1 360 11:59 30.04.2020
3968 Clouds 21 1016 94 7000 4.1 360 11:38 30.04.2020
3969 Clouds 20 1015 88 10000 2.6 350 11:18 30.04.2020
3970 Clouds 20 1015 88 10000 2.6 350 11:18 30.04.2020
3971 Clouds 20 1015 88 10000 2.6 350 10:55 30.04.2020
3972 Clouds 20 1015 88 10000 2.6 350 10:55 30.04.2020
3973 Clouds 20 1015 88 10000 2.6 350 10:37 30.04.2020
3974 Clouds 20 1015 88 10000 2.6 180 10:18 30.04.2020
3975 Clouds 20 1015 88 10000 2.6 180 09:43 30.04.2020
3976 Clear 20 1015 88 10000 2.6 180 09:23 30.04.2020
3977 Clear 20 1016 94 10000 3.1 170 08:54 30.04.2020
3978 Clear 20 1016 94 10000 3.1 170 08:36 30.04.2020
3979 Clear 21 1016 88 10000 2.6 140 08:18 30.04.2020
3980 Clear 21 1016 88 10000 2.6 140 07:42 30.04.2020
3981 Clear 21 1016 88 10000 2.6 140 07:23 30.04.2020
3982 Clear 21 1016 88 10000 2.1 80 06:48 30.04.2020
3983 Clear 21 1017 88 10000 1 70 05:49 30.04.2020
3984 Clear 23 1016 83 10000 0.5 0 05:28 30.04.2020
3985 Clear 23 1016 83 10000 0.5 0 04:32 30.04.2020
3986 Clear 24 1017 83 10000 1.5 10 03:52 30.04.2020
3987 Clear 24 1017 73 10000 1 0 02:43 30.04.2020
3988 Clear 24 1017 73 10000 1 0 02:23 30.04.2020
3989 Clear 24 1017 73 10000 1.5 170 01:35 30.04.2020
3990 Clear 24 1016 78 10000 2.6 180 00:42 30.04.2020
3991 Clear 24 1016 78 10000 2.6 180 00:19 30.04.2020
3992 Clear 25 1016 78 10000 5.1 130 23:56 29.04.2020
3993 Clear 26 1016 78 10000 5.1 130 23:36 29.04.2020
3994 Clouds 27 1016 74 10000 5.7 120 23:18 29.04.2020
3995 Clouds 27 1016 74 10000 5.7 120 22:40 29.04.2020
3996 Clouds 28 1016 65 10000 4.1 140 22:21 29.04.2020
3997 Clouds 28 1016 65 10000 4.1 140 21:57 29.04.2020
3998 Clouds 28 1016 65 10000 4.1 140 21:37 29.04.2020
3999 Clouds 28 1016 65 10000 3.6 160 21:18 29.04.2020
4000 Clouds 28 1016 65 10000 3.6 160 20:55 29.04.2020
4001 Clouds 29 1016 65 10000 3.6 160 20:36 29.04.2020
4002 Clouds 27 1017 88 10000 4.6 160 20:18 29.04.2020
4003 Clouds 27 1017 88 10000 4.6 160 19:42 29.04.2020
4004 Clouds 28 1017 69 10000 4.1 150 19:20 29.04.2020
4005 Clouds 28 1017 69 10000 4.1 150 18:43 29.04.2020
4006 Clouds 28 1018 69 10000 3.6 140 18:25 29.04.2020
4007 Clouds 28 1018 69 10000 3.6 140 17:59 29.04.2020
4008 Clouds 27 1018 69 10000 3.6 140 17:41 29.04.2020
4009 Clouds 27 1020 73 10000 2.6 360 17:21 29.04.2020
4010 Clouds 27 1020 73 10000 2.6 360 16:39 29.04.2020
4011 Clouds 27 1020 73 10000 2.6 360 16:20 29.04.2020
4012 Clouds 26 1021 78 10000 3.1 360 15:58 29.04.2020
4013 Clouds 26 1021 78 10000 3.1 360 15:40 29.04.2020
4014 Clouds 24 1021 83 9000 2.6 10 15:21 29.04.2020
4015 Clouds 26 1021 78 10000 3.1 360 15:21 29.04.2020
4016 Clouds 24 1021 83 9000 2.6 10 14:59 29.04.2020
4017 Clouds 24 1021 83 9000 2.6 10 14:41 29.04.2020
4018 Clouds 24 1021 83 9000 2.6 10 14:22 29.04.2020
4019 Clouds 22 1021 88 8000 2.6 20 13:56 29.04.2020
4020 Clouds 21 1021 88 8000 2.6 20 13:37 29.04.2020
4021 Clouds 21 1020 88 10000 2.6 10 13:18 29.04.2020
4022 Clouds 21 1020 88 10000 2.6 10 12:41 29.04.2020
4023 Clouds 21 1020 88 10000 2.6 10 12:19 29.04.2020
4024 Clouds 21 1020 88 10000 2.1 30 11:58 29.04.2020
4025 Clouds 21 1020 88 10000 2.1 30 11:38 29.04.2020
4026 Clouds 21 1020 88 10000 2.1 30 11:19 29.04.2020
4027 Clear 20 1019 88 10000 1 0 10:38 29.04.2020
4028 Clear 20 1019 88 10000 1 0 10:20 29.04.2020
4029 Clouds 20 1020 88 10000 1.5 350 09:59 29.04.2020
4030 Clouds 20 1020 88 10000 1.5 350 09:40 29.04.2020
4031 Clouds 20 1020 88 10000 1 110 09:19 29.04.2020
4032 Clouds 20 1020 88 10000 1 110 08:43 29.04.2020
4033 Clouds 20 1020 88 10000 1 110 08:25 29.04.2020
4034 Clouds 21 1020 88 10000 2.1 110 07:51 29.04.2020
4035 Clouds 21 1020 88 10000 2.1 110 07:27 29.04.2020
4036 Clouds 21 1020 83 10000 3.1 110 06:52 29.04.2020
4037 Clouds 21 1020 83 10000 3.1 110 06:32 29.04.2020
4038 Clear 22 1020 78 10000 2.6 80 05:42 29.04.2020
4039 Clear 22 1020 78 10000 2.6 80 05:18 29.04.2020
4040 Clear 23 1020 78 10000 2.6 80 04:19 29.04.2020
4041 Clear 24 1020 73 10000 3.1 80 02:58 29.04.2020
4042 Clear 24 1020 78 10000 4.1 130 01:54 29.04.2020
4043 Clear 23 1020 78 10000 4.1 130 01:28 29.04.2020
4044 Clear 23 1020 83 10000 3.1 170 00:55 29.04.2020
4045 Clear 23 1020 83 10000 3.1 170 00:36 29.04.2020
4046 Clear 23 1019 83 10000 4.6 170 00:18 29.04.2020
4047 Clear 23 1019 83 10000 4.6 170 23:43 28.04.2020
4048 Clouds 23 1019 83 10000 4.6 170 23:20 28.04.2020
4049 Clouds 25 1019 78 10000 5.1 170 22:39 28.04.2020
4050 Clouds 25 1019 78 10000 5.1 170 22:20 28.04.2020
4051 Clouds 25 1019 69 10000 4.6 170 21:59 28.04.2020
4052 Clouds 25 1019 69 10000 4.6 170 21:40 28.04.2020
4053 Clouds 26 1019 73 10000 5.1 160 21:22 28.04.2020
4054 Clouds 26 1019 73 10000 5.1 160 20:58 28.04.2020
4055 Clouds 26 1019 73 10000 5.1 160 20:40 28.04.2020
4056 Clouds 27 1020 69 10000 4.6 160 20:20 28.04.2020
4057 Clouds 27 1020 69 10000 4.6 160 19:56 28.04.2020
4058 Clouds 27 1020 69 10000 4.6 160 19:38 28.04.2020
4059 Clouds 27 1020 73 10000 4.1 150 19:19 28.04.2020
4060 Clouds 27 1020 73 10000 4.1 150 18:42 28.04.2020
4061 Clouds 27 1021 73 10000 3.1 130 18:20 28.04.2020
4062 Clouds 27 1021 73 10000 3.1 130 17:59 28.04.2020
4063 Clouds 27 1021 73 10000 3.1 130 17:37 28.04.2020
4064 Clouds 26 1021 69 10000 3.1 130 17:19 28.04.2020
4065 -273 0 0 0 0 0 17:19 28.04.2020
4066 Clouds 26 1021 69 10000 3.1 130 16:57 28.04.2020
4067 Clouds 26 1022 69 10000 2.6 20 16:38 28.04.2020
4068 Clouds 25 1022 69 10000 2.6 10 16:20 28.04.2020
4069 Clouds 25 1022 69 10000 2.6 10 15:55 28.04.2020
4070 Clouds 25 1022 69 10000 2.6 10 15:37 28.04.2020
4071 Clouds 24 1022 83 10000 2.6 360 15:18 28.04.2020
4072 Clouds 23 1022 83 10000 2.6 360 14:43 28.04.2020
4073 Clouds 23 1022 83 10000 2.6 360 14:22 28.04.2020
4074 Clouds 22 1022 78 10000 2.1 340 13:59 28.04.2020
4075 Clouds 22 1022 78 10000 2.1 340 13:59 28.04.2020
4076 Clouds 22 1022 78 10000 2.1 340 13:40 28.04.2020
4077 Clouds 22 1022 78 10000 2.1 340 13:22 28.04.2020
4078 Clouds 21 1021 83 10000 1.5 350 12:58 28.04.2020
4079 Clouds 21 1021 83 10000 1.5 350 12:39 28.04.2020
4080 Clouds 21 1021 83 10000 1.5 350 12:21 28.04.2020
4081 Clouds 22 1021 83 10000 2.6 360 11:42 28.04.2020
4082 Clouds 22 1021 83 10000 2.6 360 11:21 28.04.2020
4083 Clouds 21 1021 83 10000 2.1 360 10:57 28.04.2020
4084 Clouds 21 1021 83 10000 2.1 360 10:38 28.04.2020
4085 Clouds 21 1021 88 10000 1.5 350 10:18 28.04.2020
4086 Clouds 21 1021 88 10000 1.5 350 09:43 28.04.2020
4087 Clouds 21 1021 88 10000 1.5 350 09:25 28.04.2020
4088 Clouds 21 1021 88 10000 2.1 60 08:57 28.04.2020
4089 Clouds 21 1021 88 10000 2.1 60 08:38 28.04.2020
4090 Clouds 21 1021 83 10000 1.5 100 08:20 28.04.2020
4091 Clouds 21 1021 83 10000 1.5 100 07:42 28.04.2020
4092 Clouds 22 1021 78 10000 2.1 90 07:19 28.04.2020
4093 Clouds 22 1021 78 10000 2.1 90 06:41 28.04.2020
4094 Clouds 22 1022 78 10000 2.6 100 05:53 28.04.2020
4095 Clouds 23 1022 78 10000 1 70 05:35 28.04.2020
4096 Clouds 23 1022 78 10000 1 70 04:35 28.04.2020
4097 Clouds 24 1022 78 10000 3.1 160 02:39 28.04.2020
4098 Clouds 24 1021 78 10000 4.1 170 01:58 28.04.2020
4099 Clouds 24 1021 78 10000 4.1 170 01:22 28.04.2020
4100 Clouds 24 1021 78 10000 5.1 160 00:45 28.04.2020
4101 Clear 24 1021 78 10000 5.1 170 00:18 28.04.2020
4102 Clear 25 1021 78 10000 5.1 170 23:43 27.04.2020
4103 Clear 25 1021 78 10000 5.1 170 23:21 27.04.2020
4104 Clouds 25 1020 83 10000 5.1 160 22:43 27.04.2020
4105 Clouds 25 1020 83 10000 5.1 160 22:43 27.04.2020
4106 Clouds 25 1020 83 10000 5.1 160 22:23 27.04.2020
4107 Clouds 26 1020 73 10000 5.1 160 21:58 27.04.2020
4108 Clouds 26 1020 73 10000 5.1 160 21:39 27.04.2020
4109 Clouds 27 1020 74 10000 5.7 160 21:20 27.04.2020
4110 Clouds 27 1020 74 10000 5.7 160 20:59 27.04.2020
4111 Clouds 27 1020 74 10000 5.7 160 20:40 27.04.2020
4112 Clouds 27 1021 74 10000 4.6 160 20:21 27.04.2020
4113 Clouds 27 1021 74 10000 4.6 160 19:57 27.04.2020
4114 Clouds 27 1021 74 10000 4.6 160 19:38 27.04.2020
4115 Clouds 27 1021 69 10000 4.1 150 19:19 27.04.2020
4116 Clouds 27 1021 69 10000 4.1 150 19:19 27.04.2020
4117 Clouds 27 1021 69 10000 4.1 150 18:56 27.04.2020
4118 Clouds 27 1021 69 10000 4.1 150 18:37 27.04.2020
4119 Clouds 27 1022 69 10000 2.1 110 18:18 27.04.2020
4120 Clouds 27 1022 61 10000 2.1 10 17:43 27.04.2020
4121 Clouds 27 1023 73 10000 2.6 340 17:21 27.04.2020
4122 Clouds 27 1023 73 10000 2.6 340 16:56 27.04.2020
4123 Clouds 27 1023 73 10000 2.6 340 16:38 27.04.2020
4124 Clouds 26 1023 78 10000 2.6 340 16:20 27.04.2020
4125 Clouds 26 1023 78 10000 2.6 340 15:56 27.04.2020
4126 Clouds 25 1023 78 10000 2.6 340 15:37 27.04.2020
4127 Clouds 24 1023 83 10000 1.5 360 15:18 27.04.2020
4128 Clouds 24 1023 83 10000 1.5 360 14:41 27.04.2020
4129 Clouds 24 1022 78 10000 1.5 60 14:20 27.04.2020
4130 Clouds 24 1022 78 10000 1.5 60 13:58 27.04.2020
4131 Clouds 23 1022 78 10000 1.5 60 13:39 27.04.2020
4132 Clouds 23 1022 78 10000 1.5 60 13:19 27.04.2020
4133 Clouds 22 1022 88 10000 0.5 40 12:43 27.04.2020
4134 Clouds 22 1022 88 10000 0.5 40 12:23 27.04.2020
4135 Clouds 21 1021 88 10000 1.56 339 11:59 27.04.2020
4136 Clouds 21 1021 88 10000 1.56 339 11:40 27.04.2020
4137 Clouds 21 1020 94 10000 2.6 200 11:19 27.04.2020
4138 Clouds 21 1020 94 10000 2.6 200 10:56 27.04.2020
4139 Clouds 21 1020 94 10000 2.6 200 10:37 27.04.2020
4140 Clouds 21 1020 94 10000 2.6 180 10:19 27.04.2020
4141 Clouds 21 1020 94 10000 2.6 180 09:43 27.04.2020
4142 Clear 22 1020 88 10000 2.1 180 09:18 27.04.2020
4143 Clear 22 1020 88 10000 2.1 180 08:53 27.04.2020
4144 Clear 22 1020 88 10000 2.1 180 08:34 27.04.2020
4145 Clear 22 1021 88 10000 2.6 190 07:58 27.04.2020
4146 Clear 22 1021 88 10000 2.6 190 07:40 27.04.2020
4147 Clear 22 1021 88 10000 2.1 230 07:19 27.04.2020
4148 Clear 22 1021 88 10000 2.1 230 06:40 27.04.2020
4149 Clear 22 1021 88 10000 2.1 230 06:21 27.04.2020
4150 Clear 23 1021 83 10000 2.6 260 05:49 27.04.2020
4151 Clear 23 1020 88 10000 1.5 60 04:41 27.04.2020
4152 Clear 23 1020 83 10000 1.5 170 03:49 27.04.2020
4153 Clear 24 1019 83 10000 2.1 220 02:41 27.04.2020
4154 Clear 24 1019 83 10000 4.6 190 01:31 27.04.2020
4155 Clear 24 1018 83 10000 4.6 190 00:47 27.04.2020
4156 Clear 25 1018 78 10000 5.1 180 00:19 27.04.2020
4157 Clear 25 1018 78 10000 5.1 180 23:55 26.04.2020
4158 Clear 26 1018 78 10000 5.1 180 23:37 26.04.2020
4159 Clouds 26 1017 69 10000 5.1 190 23:18 26.04.2020
4160 Clouds 26 1017 69 10000 5.1 190 22:56 26.04.2020
4161 Clouds 26 1017 69 10000 5.1 190 22:37 26.04.2020
4162 Clouds 28 1017 69 10000 5.7 170 22:19 26.04.2020
4163 Clouds 28 1017 69 10000 5.7 170 21:56 26.04.2020
4164 Clouds 28 1017 69 10000 5.7 170 21:37 26.04.2020
4165 Clouds 29 1018 69 10000 5.7 160 21:18 26.04.2020
4166 Clouds 29 1018 69 10000 5.7 160 20:40 26.04.2020
4167 Clouds 29 1018 69 10000 5.7 160 20:21 26.04.2020
4168 Clouds 28 1018 69 10000 5.1 150 19:59 26.04.2020
4169 Clouds 28 1018 69 10000 5.1 150 19:38 26.04.2020
4170 Clouds 28 1019 58 10000 1 50 19:20 26.04.2020
4171 Clouds 28 1019 58 10000 1 50 18:55 26.04.2020
4172 Clouds 29 1019 58 10000 1 50 18:36 26.04.2020
4173 Clouds 28 1019 69 10000 2.1 30 18:18 26.04.2020
4174 Clouds 27 1019 69 10000 2.1 30 17:41 26.04.2020
4175 Clouds 28 1019 69 10000 2.1 30 17:22 26.04.2020
4176 Clouds 27 1020 73 10000 2.6 360 16:55 26.04.2020
4177 Clouds 27 1020 73 10000 2.6 360 16:37 26.04.2020
4178 Clear 26 1021 78 10000 2.6 340 16:18 26.04.2020
4179 Clear 26 1021 78 10000 2.6 340 15:55 26.04.2020
4180 Clear 26 1021 78 10000 2.6 340 15:36 26.04.2020
4181 Clear 25 1021 83 10000 2.6 340 15:18 26.04.2020
4182 Clear 25 1021 83 10000 2.6 340 14:40 26.04.2020
4183 Clouds 23 1020 83 10000 2.6 360 14:19 26.04.2020
4184 Clouds 23 1020 83 10000 2.6 360 13:58 26.04.2020
4185 Clouds 23 1020 83 10000 2.6 360 13:39 26.04.2020
4186 Clouds 23 1020 83 10000 2.6 360 13:20 26.04.2020
4187 Clouds 21 1020 88 10000 2.1 360 12:55 26.04.2020
4188 Clouds 21 1020 88 10000 2.1 360 12:36 26.04.2020
4189 Clouds 21 1019 88 10000 1 20 12:18 26.04.2020
4190 Clouds 21 1019 88 10000 1 20 11:43 26.04.2020
4191 Clouds 21 1019 88 10000 1 20 11:23 26.04.2020
4192 Clear 20 1019 88 10000 1 330 10:59 26.04.2020
4193 Clear 20 1019 88 10000 1 330 10:59 26.04.2020
4194 Clear 20 1019 88 10000 1 330 10:59 26.04.2020
4195 Clear 20 1019 88 10000 1 330 10:59 26.04.2020
4196 Clear 20 1019 88 10000 1 330 10:41 26.04.2020
4197 Clear 20 1019 88 10000 1 330 10:23 26.04.2020
4198 Clouds 20 1019 88 10000 1 360 09:57 26.04.2020
4199 Clouds 20 1019 88 10000 1 360 09:37 26.04.2020
4200 Clouds 21 1019 88 10000 1 300 09:19 26.04.2020
4201 Clouds 21 1019 88 10000 1 300 08:41 26.04.2020
4202 Clouds 21 1019 88 10000 1 300 08:41 26.04.2020
4203 Clouds 21 1019 88 10000 1 300 08:22 26.04.2020
4204 Clouds 21 1019 88 10000 1.5 340 07:48 26.04.2020
4205 Clouds 21 1019 88 10000 1.5 340 07:24 26.04.2020
4206 Clear 21 1020 88 10000 1.5 70 06:47 26.04.2020
4207 Clear 21 1020 88 10000 1.5 70 06:23 26.04.2020
4208 Clear 21 1020 88 10000 1 100 05:49 26.04.2020
4209 Clear 22 1019 88 10000 1 150 05:30 26.04.2020
4210 Clear 23 1019 88 10000 1 150 04:37 26.04.2020
4211 Clear 23 1019 78 10000 2.1 240 03:40 26.04.2020
4212 Clear 24 1019 78 10000 2.6 70 02:37 26.04.2020
4213 Clear 24 1019 83 10000 2.1 110 02:19 26.04.2020
4214 Clear 24 1019 83 10000 2.1 110 01:36 26.04.2020
4215 Clear 24 1018 83 10000 3.6 190 00:41 26.04.2020
4216 Clear 24 1018 83 10000 3.6 190 00:21 26.04.2020
4217 Clear 24 1018 83 10000 3.6 190 00:21 26.04.2020
4218 Clear 25 1018 83 10000 5.7 190 23:57 25.04.2020
4219 Clear 25 1018 83 10000 5.7 190 23:37 25.04.2020
4220 Clouds 26 1018 78 10000 5.1 190 23:18 25.04.2020
4221 Clouds 25 1018 78 10000 5.1 190 22:42 25.04.2020
4222 Clouds 26 1018 78 10000 5.7 170 22:21 25.04.2020
4223 Clouds 26 1018 78 10000 5.7 170 21:58 25.04.2020
4224 Clouds 27 1018 78 10000 5.7 170 21:39 25.04.2020
4225 Clear 27 1018 78 10000 6.2 170 21:19 25.04.2020
4226 Clear 27 1018 78 10000 6.2 170 21:19 25.04.2020
4227 Clear 27 1018 78 10000 6.2 170 20:55 25.04.2020
4228 Clear 27 1018 78 10000 6.2 170 20:37 25.04.2020
4229 Clear 28 1018 74 10000 5.1 160 20:18 25.04.2020
4230 Clear 28 1018 74 10000 5.1 160 19:41 25.04.2020
4231 Clear 28 1018 74 10000 5.1 160 19:22 25.04.2020
4232 Clear 28 1019 69 10000 3.6 140 18:57 25.04.2020
4233 Clear 28 1019 69 10000 3.6 140 18:39 25.04.2020
4234 Clear 28 1019 69 10000 3.6 140 18:20 25.04.2020
4235 Clouds 26 1019 65 10000 3.1 140 17:56 25.04.2020
4236 Clouds 27 1019 57 10000 2.6 340 17:37 25.04.2020
4237 Clear 26 1020 65 10000 2.6 340 17:19 25.04.2020
4238 Clear 26 1020 65 10000 2.6 340 16:48 25.04.2020
4239 Clear 26 1020 65 10000 2.6 340 16:29 25.04.2020
4240 Clear 23 1021 78 10000 3.1 330 15:59 25.04.2020
4241 Clear 24 1021 78 10000 3.1 330 15:39 25.04.2020
4242 Clear 24 1020 83 10000 2.1 350 15:19 25.04.2020
4243 Clear 24 1020 83 10000 2.1 350 14:58 25.04.2020
4244 Clear 22 1020 83 10000 2.1 350 14:38 25.04.2020
4245 Clear 22 1020 78 10000 1.5 30 14:19 25.04.2020
4246 Clear 22 1020 78 10000 1.5 30 13:43 25.04.2020
4247 Clear 20 1020 78 10000 1.5 90 13:19 25.04.2020
4248 Clear 20 1020 78 10000 1.5 90 12:58 25.04.2020
4249 Clear 20 1020 78 10000 1.5 90 12:40 25.04.2020
4250 Clear 20 1020 78 10000 1.5 90 12:20 25.04.2020
4251 Clear 20 1019 83 10000 1.5 90 11:56 25.04.2020
4252 Clear 20 1019 83 10000 1.5 90 11:38 25.04.2020
4253 Clear 20 1019 83 10000 1.5 80 11:20 25.04.2020
4254 Clear 19 1019 88 10000 1 60 10:43 25.04.2020
4255 Clear 19 1019 88 10000 1 60 10:23 25.04.2020
4256 Clear 18 1019 88 10000 1 30 09:48 25.04.2020
4257 Clear 18 1019 88 10000 1 30 09:29 25.04.2020
4258 Clear 19 1019 88 10000 1 80 08:58 25.04.2020
4259 Clear 19 1019 88 10000 1 80 08:40 25.04.2020
4260 Clear 19 1019 88 10000 1 80 08:21 25.04.2020
4261 Clear 20 1020 82 10000 1.5 90 07:58 25.04.2020
4262 Clear 20 1020 82 10000 1.5 90 07:39 25.04.2020
4263 Clear 20 1020 82 10000 1 110 06:48 25.04.2020
4264 Clear 20 1020 82 10000 1 110 06:30 25.04.2020
4265 Clear 22 1020 69 10000 1 0 05:40 25.04.2020
4266 Clear 22 1020 69 10000 1 0 05:19 25.04.2020
4267 Clouds 24 1020 69 10000 2.1 90 02:59 25.04.2020
4268 Clouds 24 1020 69 10000 2.1 90 02:25 25.04.2020
4269 Clouds 24 1019 69 10000 1.5 70 01:54 25.04.2020
4270 Clouds 24 1019 69 10000 1.5 70 01:34 25.04.2020
4271 Clouds 24 1019 69 10000 3.6 100 00:58 25.04.2020
4272 Clouds 24 1019 69 10000 3.6 100 00:34 25.04.2020
4273 Clouds 24 1019 69 10000 5.7 130 23:55 24.04.2020
4274 Clouds 24 1019 69 10000 5.7 130 23:55 24.04.2020
4275 Clouds 25 1019 69 10000 5.7 130 23:36 24.04.2020
4276 Clouds 25 1018 65 10000 5.1 130 23:18 24.04.2020
4277 Clouds 25 1018 65 10000 5.1 130 22:40 24.04.2020
4278 Clouds 26 1018 65 10000 5.1 150 22:19 24.04.2020
4279 Clouds 26 1018 65 10000 5.1 150 21:57 24.04.2020
4280 Clouds 26 1018 65 10000 5.1 150 21:38 24.04.2020
4281 Clouds 27 1018 73 10000 7.2 160 21:20 24.04.2020
4282 Clouds 27 1018 73 10000 7.2 160 20:56 24.04.2020
4283 Clouds 27 1018 73 10000 7.2 160 20:38 24.04.2020
4284 Clouds 27 1018 73 10000 7.2 160 20:18 24.04.2020
4285 Clouds 27 1018 73 10000 7.2 160 19:43 24.04.2020
4286 Clouds 27 1018 73 10000 7.2 160 19:24 24.04.2020
4287 Clouds 27 1019 69 10000 6.2 160 18:46 24.04.2020
4288 Clouds 27 1019 69 10000 6.2 160 18:28 24.04.2020
4289 Clouds 27 1019 69 10000 5.7 160 17:59 24.04.2020
4290 Clouds 26 1019 69 10000 5.7 160 17:41 24.04.2020
4291 Clouds 27 1019 69 10000 5.7 160 17:22 24.04.2020
4292 Clouds 26 1020 73 10000 3.6 150 16:58 24.04.2020
4293 Clouds 26 1020 73 10000 3.6 150 16:40 24.04.2020
4294 Clouds 26 1020 73 10000 3.6 150 16:40 24.04.2020
4295 Clouds 26 1020 73 10000 3.6 150 16:21 24.04.2020
4296 Clouds 26 1020 73 10000 1 130 15:55 24.04.2020
4297 Clouds 26 1020 78 10000 1.5 10 15:37 24.04.2020
4298 Clouds 25 1020 78 10000 2.1 360 15:18 24.04.2020
4299 Clouds 24 1020 78 10000 2.1 360 14:40 24.04.2020
4300 Clouds 23 1019 83 10000 2.1 10 14:20 24.04.2020
4301 Clouds 23 1019 83 10000 2.1 10 13:55 24.04.2020
4302 Clouds 22 1019 83 10000 2.1 10 13:36 24.04.2020
4303 Clouds 22 1019 83 10000 1 40 13:18 24.04.2020
4304 Clouds 22 1019 83 10000 1 40 12:41 24.04.2020
4305 Clouds 22 1018 88 10000 1 170 12:21 24.04.2020
4306 Clouds 22 1018 88 10000 1 170 11:57 24.04.2020
4307 Clouds 22 1018 88 10000 1 170 11:37 24.04.2020
4308 Clouds 22 1018 88 10000 1 170 11:19 24.04.2020
4309 Clear 21 1018 83 10000 1.5 70 10:54 24.04.2020
4310 Clear 21 1018 83 10000 1.5 70 10:36 24.04.2020
4311 Clear 22 1017 78 10000 1.5 90 10:18 24.04.2020
4312 Clear 22 1017 78 10000 1.5 90 09:44 24.04.2020
4313 Clear 22 1017 78 10000 1.5 90 09:24 24.04.2020
4314 Clear 22 1017 83 10000 2.6 140 08:55 24.04.2020
4315 Clear 22 1017 83 10000 2.6 140 08:37 24.04.2020
4316 Clear 22 1017 83 10000 3.1 130 08:18 24.04.2020
4317 Clear 22 1017 83 10000 3.1 130 07:44 24.04.2020
4318 Clear 22 1017 83 10000 3.1 130 07:26 24.04.2020
4319 Clear 22 1018 78 10000 3.6 100 06:50 24.04.2020
4320 Clear 22 1018 78 10000 3.6 100 06:31 24.04.2020
4321 Clouds 22 1018 78 10000 3.1 100 05:42 24.04.2020
4322 Clouds 22 1018 78 10000 3.1 100 05:42 24.04.2020
4323 Clouds 24 1018 78 10000 2.1 100 04:26 24.04.2020
4324 Clouds 24 1018 78 10000 2.6 150 02:58 24.04.2020
4325 Clouds 24 1018 78 10000 2.6 150 02:38 24.04.2020
4326 Clouds 24 1017 78 10000 4.1 150 02:20 24.04.2020
4327 Clouds 24 1017 78 10000 4.6 150 01:18 24.04.2020
4328 Clouds 24 1017 78 10000 4.6 150 00:38 24.04.2020
4329 Clouds 24 1016 78 10000 5.1 160 00:18 24.04.2020
4330 Clouds 24 1016 78 10000 5.1 160 23:42 23.04.2020
4331 Clouds 24 1016 78 10000 5.1 160 23:23 23.04.2020
4332 Clouds 25 1016 78 10000 6.2 170 22:55 23.04.2020
4333 Clouds 26 1016 78 10000 6.2 170 22:36 23.04.2020
4334 Clouds 26 1015 73 10000 6.2 170 22:18 23.04.2020
4335 Clouds 26 1015 73 10000 6.2 170 21:56 23.04.2020
4336 Clouds 26 1015 73 10000 6.2 170 21:38 23.04.2020
4337 Clouds 27 1015 73 10000 5.7 170 21:19 23.04.2020
4338 Clouds 27 1015 73 10000 5.7 170 20:43 23.04.2020
4339 Clouds 27 1015 73 10000 5.7 170 20:22 23.04.2020
4340 Clouds 27 1015 73 10000 6.2 160 19:59 23.04.2020
4341 Clouds 27 1015 73 10000 6.2 160 19:40 23.04.2020
4342 Clouds 27 1016 61 10000 5.1 160 19:22 23.04.2020
4343 Clouds 27 1016 61 10000 5.1 160 18:57 23.04.2020
4344 Clouds 27 1016 61 10000 5.1 160 18:39 23.04.2020
4345 Clouds 27 1016 69 10000 4.6 160 18:21 23.04.2020
4346 Clouds 27 1016 69 10000 4.6 160 17:56 23.04.2020
4347 Clouds 27 1016 69 10000 4.6 160 17:37 23.04.2020
4348 Clouds 27 1017 65 10000 1.5 80 17:19 23.04.2020
4349 Clouds 27 1017 65 10000 1.5 80 16:43 23.04.2020
4350 Clouds 26 1017 83 10000 2.1 10 16:21 23.04.2020
4351 Clouds 25 1017 83 10000 2.1 10 15:43 23.04.2020
4352 Clouds 25 1017 83 10000 2.1 10 15:24 23.04.2020
4353 Clouds 25 1017 88 10000 2.6 30 14:59 23.04.2020
4354 Clouds 24 1017 88 10000 2.6 30 14:41 23.04.2020
4355 Clouds 24 1017 88 10000 2.6 30 14:22 23.04.2020
4356 Clouds 23 1017 83 10000 3.1 360 13:58 23.04.2020
4357 Clouds 23 1017 83 10000 3.1 360 13:40 23.04.2020
4358 Clouds 23 1017 83 10000 3.1 360 13:22 23.04.2020
4359 Clouds 22 1016 88 10000 1 60 12:57 23.04.2020
4360 Clouds 22 1016 88 10000 1 60 12:38 23.04.2020
4361 Clouds 22 1015 88 10000 1.51 17 12:20 23.04.2020
4362 Clouds 22 1015 88 10000 1.51 17 11:47 23.04.2020
4363 Clouds 22 1015 88 10000 1.51 17 11:27 23.04.2020
4364 Clouds 22 1015 88 10000 1.51 17 10:58 23.04.2020
4365 Clouds 21 1015 88 10000 0.5 200 10:39 23.04.2020
4366 Clouds 21 1015 88 10000 0.5 200 10:20 23.04.2020
4367 Clouds 22 1015 88 10000 1 70 09:40 23.04.2020
4368 Clouds 22 1015 88 10000 1 70 09:18 23.04.2020
4369 Clouds 22 1015 88 10000 1 70 09:18 23.04.2020
4370 Clouds 22 1015 88 10000 2.6 90 08:50 23.04.2020
4371 Clouds 22 1015 88 10000 2.6 90 08:30 23.04.2020
4372 Clouds 22 1016 83 10000 2.6 90 07:57 23.04.2020
4373 Clouds 22 1016 83 10000 2.6 90 07:39 23.04.2020
4374 Clouds 22 1016 83 10000 2.6 90 07:39 23.04.2020
4375 Clouds 23 1016 78 10000 3.6 120 07:19 23.04.2020
4376 Clouds 23 1016 78 10000 3.6 120 06:44 23.04.2020
4377 Clouds 23 1016 78 10000 3.1 100 05:50 23.04.2020
4378 Clouds 23 1016 83 10000 1.5 150 05:21 23.04.2020
4379 Clouds 24 1016 78 10000 3.1 150 03:32 23.04.2020
4380 Clouds 23 1016 83 10000 2.1 150 02:23 23.04.2020
4381 Clouds 24 1016 78 10000 3.6 160 01:38 23.04.2020
4382 Clouds 24 1015 78 10000 4.6 160 00:55 23.04.2020
4383 Clouds 24 1015 78 10000 4.6 160 00:28 23.04.2020
4384 Rain 24 1015 73 10000 4.6 160 23:58 22.04.2020
4385 Rain 24 1015 73 10000 4.6 160 23:40 22.04.2020
4386 Rain 24 1015 78 10000 5.1 170 23:19 22.04.2020
4387 Rain 25 1015 78 10000 5.1 170 22:40 22.04.2020
4388 Clouds 25 1014 73 10000 5.7 160 22:20 22.04.2020
4389 Clouds 25 1014 73 10000 5.7 160 21:59 22.04.2020
4390 Clouds 25 1014 73 10000 5.7 160 21:41 22.04.2020
4391 Clouds 25 1014 73 10000 5.7 160 21:22 22.04.2020
4392 Clouds 26 1015 73 10000 6.2 160 20:59 22.04.2020
4393 Clouds 25 1015 73 10000 6.2 160 20:41 22.04.2020
4394 Clouds 26 1015 73 10000 6.2 160 20:19 22.04.2020
4395 Clouds 26 1015 73 10000 6.2 160 19:57 22.04.2020
4396 Clouds 26 1015 73 10000 6.2 160 19:38 22.04.2020
4397 Clouds 26 1015 73 10000 5.7 160 19:18 22.04.2020
4398 Clouds 26 1015 73 10000 5.7 160 18:58 22.04.2020
4399 Clouds 27 1015 73 10000 5.7 160 18:40 22.04.2020
4400 Clouds 27 1016 69 10000 2.1 360 18:21 22.04.2020
4401 Clouds 25 1016 69 10000 2.1 360 17:44 22.04.2020
4402 Clouds 26 1017 73 10000 2.1 340 17:26 22.04.2020
4403 Clouds 26 1017 73 10000 2.1 340 16:58 22.04.2020
4404 Clouds 26 1017 73 10000 2.1 340 16:58 22.04.2020
4405 Clouds 26 1017 73 10000 2.1 340 16:40 22.04.2020
4406 Clouds 26 1017 73 10000 2.1 340 16:21 22.04.2020
4407 Clouds 25 1017 83 10000 2.6 350 15:41 22.04.2020
4408 Clouds 25 1017 83 10000 2.6 350 15:22 22.04.2020
4409 Clouds 23 1017 83 10000 2.6 360 14:58 22.04.2020
4410 Clouds 23 1017 83 10000 2.6 360 14:38 22.04.2020
4411 Clouds 23 1017 83 10000 2.6 360 14:20 22.04.2020
4412 Clouds 22 1017 88 8000 2.6 360 13:55 22.04.2020
4413 Clouds 22 1017 88 8000 2.6 360 13:37 22.04.2020
4414 Clouds 20 1017 94 7000 2.1 20 13:19 22.04.2020
4415 Clouds 21 1017 94 7000 2.1 20 12:40 22.04.2020
4416 Clouds 21 1017 94 7000 2.1 20 12:22 22.04.2020
4417 Clouds 21 1016 94 9000 3.1 20 11:41 22.04.2020
4418 Clear 20 1016 88 10000 2.1 290 11:22 22.04.2020
4419 Clear 20 1016 88 10000 2.1 290 10:59 22.04.2020
4420 Clear 20 1016 88 10000 2.1 290 10:39 22.04.2020
4421 Clear 20 1016 88 10000 2.6 310 10:20 22.04.2020
4422 Clear 20 1016 88 10000 2.6 310 09:39 22.04.2020
4423 Clear 20 1016 88 10000 2.6 310 09:21 22.04.2020
4424 Clear 21 1016 83 10000 2.6 300 08:58 22.04.2020
4425 Clear 21 1016 83 10000 2.6 300 08:40 22.04.2020
4426 Clear 21 1016 83 10000 2.6 300 08:22 22.04.2020
4427 Clear 21 1017 88 10000 2.1 180 07:53 22.04.2020
4428 Clear 21 1017 88 10000 2.1 180 07:29 22.04.2020
4429 Clear 22 1017 83 10000 2.1 150 06:53 22.04.2020
4430 Clear 22 1017 83 10000 2.1 150 06:23 22.04.2020
4431 Clear 22 1017 88 10000 1.5 180 05:37 22.04.2020
4432 Clear 22 1017 88 10000 1.5 180 04:30 22.04.2020
4433 Clouds 23 1017 83 10000 3.1 160 02:51 22.04.2020
4434 Clear 23 1016 83 10000 4.6 170 01:53 22.04.2020
4435 Clear 23 1016 83 10000 4.6 170 01:27 22.04.2020
4436 Clear 23 1016 83 10000 5.1 170 00:59 22.04.2020
4437 Clear 23 1016 83 10000 5.1 170 00:41 22.04.2020
4438 Clear 23 1015 78 10000 5.1 170 00:19 22.04.2020
4439 Clear 23 1015 78 10000 5.1 170 23:43 21.04.2020
4440 Clouds 24 1015 73 10000 5.1 160 23:20 21.04.2020
4441 Clouds 25 1015 73 10000 5.1 160 22:41 21.04.2020
4442 Clouds 25 1015 73 10000 5.1 160 22:22 21.04.2020
4443 Clouds 25 1015 69 10000 4.6 170 22:00 21.04.2020
4444 Clouds 25 1015 69 10000 4.6 170 21:59 21.04.2020
4445 Clouds 25 1015 69 10000 4.6 170 21:41 21.04.2020
4446 Clouds 25 1015 69 10000 5.7 160 21:23 21.04.2020
4447 Clouds 25 1015 69 10000 5.7 160 20:57 21.04.2020
4448 Clouds 26 1015 69 10000 5.7 160 20:39 21.04.2020
4449 Clouds 27 1015 69 10000 5.7 160 20:21 21.04.2020
4450 Clouds 27 1015 69 10000 5.7 160 19:41 21.04.2020
4451 Clouds 27 1016 69 10000 4.6 150 19:20 21.04.2020
4452 Clouds 27 1016 69 10000 4.6 150 18:59 21.04.2020
4453 Clouds 27 1016 69 10000 4.6 150 18:59 21.04.2020
4454 Clouds 27 1016 69 10000 4.6 150 18:39 21.04.2020
4455 Clouds 27 1017 69 10000 1.5 20 18:19 21.04.2020
4456 Clouds 27 1017 69 10000 1.5 20 17:59 21.04.2020
4457 Clouds 26 1017 69 10000 1.5 20 17:39 21.04.2020
4458 Clouds 24 1018 78 9000 2.6 350 17:19 21.04.2020
4459 Clouds 24 1018 78 9000 2.6 350 16:54 21.04.2020
4460 Clouds 25 1018 78 9000 2.6 350 16:36 21.04.2020
4461 Clouds 25 1019 83 6000 2.6 360 16:18 21.04.2020
4462 Clouds 25 1019 83 6000 2.6 360 15:42 21.04.2020
4463 Mist 24 1019 83 5000 2.6 360 15:23 21.04.2020
4464 Mist 24 1019 83 5000 2.6 360 14:59 21.04.2020
4465 Mist 24 1019 83 5000 2.6 360 14:40 21.04.2020
4466 Mist 24 1019 83 5000 2.6 360 14:22 21.04.2020
4467 Mist 21 1018 94 5000 2.6 30 13:54 21.04.2020
4468 Mist 21 1018 94 5000 2.6 30 13:36 21.04.2020
4469 Mist 20 1018 88 5000 3.1 10 13:18 21.04.2020
4470 Mist 21 1018 88 5000 3.1 10 12:38 21.04.2020
4471 Mist 21 1018 88 5000 3.1 10 12:38 21.04.2020
4472 Clouds 20 1017 88 10000 2.1 330 12:19 21.04.2020
4473 Clouds 20 1017 88 10000 2.1 330 11:57 21.04.2020
4474 Clouds 20 1017 88 10000 2.1 330 11:38 21.04.2020
4475 Clouds 19 1017 88 10000 1.5 340 11:19 21.04.2020
4476 Clouds 19 1017 88 10000 1.5 340 10:58 21.04.2020
4477 Clouds 19 1017 88 10000 1.5 340 10:39 21.04.2020
4478 Clouds 19 1017 88 10000 1.5 340 10:20 21.04.2020
4479 Clear 20 1017 88 10000 2.1 350 09:55 21.04.2020
4480 Clear 20 1017 88 10000 2.1 350 09:36 21.04.2020
4481 Clear 20 1017 88 10000 2.1 350 09:36 21.04.2020
4482 Clear 19 1018 93 10000 1.5 310 09:18 21.04.2020
4483 Clear 19 1018 93 10000 1.5 310 08:42 21.04.2020
4484 Clear 19 1018 93 10000 1.5 310 08:23 21.04.2020
4485 Clear 21 1018 83 10000 2.1 320 07:50 21.04.2020
4486 Clear 21 1018 83 10000 2.1 320 07:26 21.04.2020
4487 Clear 20 1019 94 10000 1.5 340 06:50 21.04.2020
4488 Clear 20 1019 94 10000 1.5 340 06:31 21.04.2020
4489 Clear 20 1019 88 10000 1.5 40 05:49 21.04.2020
4490 Clouds 22 1019 73 10000 0.5 240 04:54 21.04.2020
4491 Clouds 22 1019 78 10000 1 180 03:45 21.04.2020
4492 Clouds 22 1019 78 10000 1 180 03:45 21.04.2020
4493 Clouds 23 1019 78 10000 2.1 190 02:40 21.04.2020
4494 Clouds 23 1018 78 10000 4.6 180 01:30 21.04.2020
4495 Clouds 23 1018 78 10000 5.1 180 00:38 21.04.2020
4496 Clouds 23 1017 78 10000 6.2 180 23:55 20.04.2020
4497 Clouds 23 1017 78 10000 6.2 180 23:37 20.04.2020
4498 Clouds 24 1017 73 10000 6.2 170 23:19 20.04.2020
4499 Clouds 24 1017 73 10000 6.2 170 22:54 20.04.2020
4500 Clouds 24 1017 73 10000 6.2 170 22:36 20.04.2020
4501 Clouds 25 1017 69 10000 5.1 170 22:18 20.04.2020
4502 Clouds 25 1017 69 10000 5.1 170 21:54 20.04.2020
4503 Clouds 25 1017 69 10000 5.1 170 21:54 20.04.2020
4504 Clouds 25 1017 69 10000 5.1 170 21:36 20.04.2020
4505 Clouds 26 1017 69 10000 5.1 160 21:18 20.04.2020
4506 Clouds 26 1017 69 10000 5.1 160 20:40 20.04.2020
4507 Clouds 27 1017 65 10000 5.1 150 20:19 20.04.2020
4508 Clouds 27 1017 65 10000 5.1 150 19:59 20.04.2020
4509 Clouds 26 1017 65 10000 5.1 150 19:40 20.04.2020
4510 Clouds 26 1017 65 10000 5.1 150 19:20 20.04.2020
4511 Clouds 26 1018 69 10000 4.1 160 18:55 20.04.2020
4512 Clouds 26 1018 69 10000 4.1 160 18:37 20.04.2020
4513 Clouds 26 1019 73 10000 3.1 140 18:19 20.04.2020
4514 Clouds 26 1019 73 10000 3.1 140 17:43 20.04.2020
4515 Clouds 26 1019 73 10000 3.1 140 17:23 20.04.2020
4516 Clouds 26 1019 69 10000 2.1 130 16:59 20.04.2020
4517 Clouds 25 1019 69 10000 2.1 130 16:41 20.04.2020
4518 Clouds 25 1020 78 10000 2.6 10 16:20 20.04.2020
4519 Clouds 25 1020 78 10000 2.6 10 15:55 20.04.2020
4520 Clouds 25 1020 78 10000 2.6 10 15:37 20.04.2020
4521 Clouds 23 1020 83 10000 2.1 360 15:19 20.04.2020
4522 Clouds 23 1020 83 10000 2.1 360 14:41 20.04.2020
4523 Clouds 22 1020 83 10000 2.1 330 14:19 20.04.2020
4524 Clouds 22 1020 83 10000 2.1 330 13:58 20.04.2020
4525 Clouds 22 1020 83 10000 2.1 330 13:38 20.04.2020
4526 Clouds 21 1019 83 10000 1.5 310 13:20 20.04.2020
4527 Clouds 21 1019 83 10000 1.5 310 12:44 20.04.2020
4528 Clouds 21 1019 83 10000 1.5 310 12:44 20.04.2020
4529 Clouds 22 1019 78 10000 1 280 12:23 20.04.2020
4530 Clouds 22 1019 78 10000 1 280 11:58 20.04.2020
4531 Clouds 22 1019 78 10000 1 280 11:38 20.04.2020
4532 Clouds 20 1019 88 10000 2.1 210 11:18 20.04.2020
4533 Clouds 20 1019 88 10000 2.1 210 10:55 20.04.2020
4534 Clouds 20 1019 88 10000 2.1 210 10:54 20.04.2020
4535 Clouds 20 1019 88 10000 2.1 210 10:36 20.04.2020
4536 Clouds 20 1019 88 10000 1.5 230 10:18 20.04.2020
4537 Clouds 20 1019 88 10000 1.5 230 09:44 20.04.2020
4538 Clouds 20 1019 88 10000 1.5 230 09:25 20.04.2020
4539 Clouds 20 1019 82 10000 1 300 08:58 20.04.2020
4540 Clouds 20 1019 82 10000 1 300 08:58 20.04.2020
4541 Clouds 20 1019 82 10000 1 300 08:40 20.04.2020
4542 Clouds 20 1019 88 10000 1.5 320 08:18 20.04.2020
4543 Clouds 20 1019 88 10000 1.5 320 07:52 20.04.2020
4544 Clouds 20 1019 88 10000 1.5 320 07:28 20.04.2020
4545 Clouds 21 1020 83 10000 1.5 310 06:39 20.04.2020
4546 Clouds 21 1020 83 10000 1 350 06:20 20.04.2020
4547 Clouds 22 1020 78 10000 1 210 05:25 20.04.2020
4548 Clouds 23 1020 73 10000 0.5 220 03:30 20.04.2020
4549 Clouds 23 1020 78 10000 2.1 200 02:38 20.04.2020
4550 Clouds 23 1020 78 10000 4.1 170 01:31 20.04.2020
4551 Clouds 23 1019 78 10000 4.6 160 00:58 20.04.2020
4552 Clouds 23 1019 78 10000 4.6 160 00:33 20.04.2020
4553 Clouds 23 1019 73 10000 4.6 180 23:55 19.04.2020
4554 Clouds 23 1019 73 10000 4.6 180 23:37 19.04.2020
4555 Clouds 23 1019 78 10000 4.6 180 23:19 19.04.2020
4556 Clouds 23 1019 78 10000 4.6 180 22:40 19.04.2020
4557 Clouds 24 1019 73 10000 5.7 170 22:21 19.04.2020
4558 Clouds 24 1019 73 10000 5.7 170 21:57 19.04.2020
4559 Clouds 24 1019 73 10000 5.7 170 21:38 19.04.2020
4560 Clouds 24 1019 73 10000 5.7 170 21:20 19.04.2020
4561 Clouds 25 1019 69 10000 4.1 170 20:41 19.04.2020
4562 Clouds 25 1019 69 10000 4.1 170 20:21 19.04.2020
4563 Clouds 25 1019 61 10000 4.1 160 19:59 19.04.2020
4564 Clouds 25 1019 61 10000 4.1 160 19:41 19.04.2020
4565 Clouds 25 1019 61 10000 4.1 160 19:22 19.04.2020
4566 Clouds 26 1020 65 10000 3.6 140 18:58 19.04.2020
4567 Clouds 26 1020 65 10000 3.6 140 18:40 19.04.2020
4568 Clouds 26 1020 65 10000 2.1 360 18:20 19.04.2020
4569 Clouds 26 1020 65 10000 2.1 360 17:58 19.04.2020
4570 Clouds 26 1020 65 10000 2.1 360 17:40 19.04.2020
4571 Clouds 26 1020 65 10000 2.1 360 17:21 19.04.2020
4572 Clouds 25 1021 78 10000 2.1 330 16:58 19.04.2020
4573 Clouds 25 1021 78 10000 2.1 330 16:38 19.04.2020
4574 Clouds 24 1022 83 9000 3.1 20 16:20 19.04.2020
4575 Clouds 24 1022 83 9000 3.1 20 15:43 19.04.2020
4576 Clouds 24 1022 83 9000 3.1 20 15:23 19.04.2020
4577 Clouds 23 1022 88 8000 2.6 10 14:56 19.04.2020
4578 Clouds 22 1022 88 8000 2.6 10 14:38 19.04.2020
4579 Clouds 22 1022 88 8000 2.6 10 14:19 19.04.2020
4580 Clouds 22 1022 88 8000 3.1 20 13:40 19.04.2020
4581 Clouds 21 1021 88 10000 2.6 20 13:21 19.04.2020
4582 Clouds 21 1021 88 10000 2.6 20 12:59 19.04.2020
4583 Clouds 22 1021 88 10000 2.6 20 12:41 19.04.2020
4584 Clouds 22 1021 88 10000 2.6 20 12:23 19.04.2020
4585 Clouds 22 1021 88 10000 2.6 20 12:23 19.04.2020
4586 Clouds 21 1020 94 10000 1.5 10 11:38 19.04.2020
4587 Clouds 20 1021 94 8000 1 320 11:19 19.04.2020
4588 Clouds 20 1021 94 8000 1 320 10:58 19.04.2020
4589 Clouds 20 1021 94 8000 1 320 10:40 19.04.2020
4590 Clouds 20 1021 94 8000 1 320 10:20 19.04.2020
4591 Clouds 20 1020 94 8000 1 300 09:46 19.04.2020
4592 Clouds 20 1020 94 8000 1 300 09:28 19.04.2020
4593 Clouds 20 1020 94 10000 1.5 60 08:59 19.04.2020
4594 Clouds 20 1020 94 10000 1.5 60 08:37 19.04.2020
4595 Clouds 21 1021 88 10000 1 50 08:18 19.04.2020
4596 Clouds 21 1021 88 10000 1 50 07:44 19.04.2020
4597 Clouds 21 1021 88 10000 1 50 07:24 19.04.2020
4598 Clouds 21 1021 88 10000 1 90 06:31 19.04.2020
4599 Clouds 21 1021 88 10000 2.1 80 05:58 19.04.2020
4600 Clouds 22 1022 83 10000 3.6 170 04:54 19.04.2020
4601 Clouds 23 1021 83 10000 3.1 140 03:19 19.04.2020
4602 Clouds 23 1021 83 10000 3.1 140 02:22 19.04.2020
4603 Clouds 22 1021 78 10000 2.1 160 01:39 19.04.2020
4604 Clouds 22 1021 78 10000 2.6 200 00:50 19.04.2020
4605 Clouds 22 1021 78 10000 2.6 200 00:26 19.04.2020
4606 Clouds 23 1020 83 10000 5.7 180 23:59 18.04.2020
4607 Clouds 23 1020 83 10000 5.7 180 23:39 18.04.2020
4608 Clouds 23 1020 78 10000 5.1 180 23:19 18.04.2020
4609 Clouds 23 1020 78 10000 5.1 180 22:43 18.04.2020
4610 Clouds 23 1020 78 10000 5.1 180 22:23 18.04.2020
4611 Clouds 24 1020 73 10000 4.1 170 21:58 18.04.2020
4612 Clouds 24 1020 73 10000 4.1 170 21:38 18.04.2020
4613 Clouds 24 1020 73 10000 4.1 170 21:20 18.04.2020
4614 Clouds 25 1020 65 10000 2.6 140 20:56 18.04.2020
4615 Clouds 25 1020 65 10000 2.6 140 20:37 18.04.2020
4616 Clouds 25 1020 69 10000 3.6 150 20:18 18.04.2020
4617 Clouds 25 1020 69 10000 3.6 150 19:40 18.04.2020
4618 Clouds 25 1020 69 10000 3.6 150 19:22 18.04.2020
4619 Clouds 25 1020 73 10000 4.1 140 18:39 18.04.2020
4620 Clouds 25 1020 73 10000 4.1 140 18:20 18.04.2020
4621 Clouds 25 1021 78 10000 1.5 20 17:58 18.04.2020
4622 Clouds 25 1021 78 10000 1.5 20 17:39 18.04.2020
4623 Clouds 24 1022 83 10000 1.5 10 17:19 18.04.2020
4624 Clouds 24 1022 83 10000 1.5 10 16:43 18.04.2020
4625 Clouds 24 1022 83 10000 1.5 10 16:22 18.04.2020
4626 Clouds 23 1022 83 10000 1.5 360 15:56 18.04.2020
4627 Clouds 23 1022 83 10000 1.5 360 15:37 18.04.2020
4628 Clouds 23 1022 78 10000 2.1 350 15:19 18.04.2020
4629 Clouds 23 1022 78 10000 2.1 350 14:44 18.04.2020
4630 Clouds 23 1022 78 10000 2.1 350 14:24 18.04.2020
4631 Clouds 22 1021 88 10000 2.1 360 13:44 18.04.2020
4632 Clouds 22 1021 88 10000 2.1 360 13:44 18.04.2020
4633 Clouds 21 1021 88 10000 2.1 20 13:22 18.04.2020
4634 Clouds 21 1021 88 10000 2.1 20 12:55 18.04.2020
4635 Clouds 21 1021 88 10000 2.1 20 12:36 18.04.2020
4636 Clouds 21 1020 88 10000 2.1 20 12:18 18.04.2020
4637 Clouds 21 1020 88 10000 2.1 20 11:42 18.04.2020
4638 Clouds 21 1020 88 10000 2.1 20 11:22 18.04.2020
4639 Clouds 21 1020 88 8000 1.5 340 10:57 18.04.2020
4640 Clouds 21 1020 88 8000 1.5 340 10:37 18.04.2020
4641 Clouds 21 1020 88 8000 2.1 10 10:18 18.04.2020
4642 Clouds 21 1020 88 8000 2.1 10 09:41 18.04.2020
4643 Clouds 21 1020 88 8000 2.1 10 09:23 18.04.2020
4644 Clouds 21 1021 83 8000 1.5 350 08:43 18.04.2020
4645 Clouds 21 1021 83 8000 1.5 350 08:25 18.04.2020
4646 Clouds 21 1021 83 8000 1.5 320 07:54 18.04.2020
4647 Clouds 21 1021 83 8000 1.5 320 07:34 18.04.2020
4648 Clouds 21 1021 83 8000 2.6 310 06:55 18.04.2020
4649 Clouds 21 1021 83 8000 2.6 310 06:25 18.04.2020
4650 Clouds 21 1021 94 8000 3.6 330 05:36 18.04.2020
4651 Clouds 21 1021 94 8000 3.6 330 04:46 18.04.2020
4652 Clouds 21 1021 94 8000 3.6 330 04:25 18.04.2020
4653 Clouds 22 1021 88 10000 2.6 320 02:47 18.04.2020
4654 Clouds 22 1021 88 10000 2.6 320 02:23 18.04.2020
4655 Clouds 22 1021 83 10000 1.5 330 01:53 18.04.2020
4656 Clouds 22 1021 83 10000 1.5 330 01:33 18.04.2020
4657 Clouds 22 1021 83 10000 2.6 200 00:41 18.04.2020
4658 Clouds 22 1021 83 10000 2.6 200 00:20 18.04.2020
4659 Rain 22 1021 88 8000 5.1 190 23:55 17.04.2020
4660 Rain 22 1021 88 8000 5.1 190 23:37 17.04.2020
4661 Clouds 22 1020 88 6000 1.5 360 23:18 17.04.2020
4662 Clouds 22 1020 88 6000 1.5 360 22:55 17.04.2020
4663 Clouds 22 1020 88 6000 1.5 360 22:36 17.04.2020
4664 Clouds 22 1020 94 8000 2.6 350 22:18 17.04.2020
4665 Clouds 22 1020 94 8000 2.6 350 21:41 17.04.2020
4666 Clouds 22 1020 94 8000 2.6 350 21:21 17.04.2020
4667 Rain 22 1020 88 6000 2.1 360 20:56 17.04.2020
4668 Rain 22 1020 88 6000 2.1 360 20:38 17.04.2020
4669 Clouds 23 1020 83 8000 1.5 10 20:18 17.04.2020
4670 Clouds 23 1020 83 8000 1.5 10 19:57 17.04.2020
4671 Clouds 23 1020 83 8000 1.5 10 19:38 17.04.2020
4672 Clouds 23 1020 83 8000 3.6 30 19:20 17.04.2020
4673 Clouds 23 1020 83 8000 3.6 30 18:44 17.04.2020
4674 Clouds 23 1020 83 8000 3.6 30 18:23 17.04.2020
4675 Clouds 23 1020 83 8000 3.6 30 18:23 17.04.2020
4676 Clouds 23 1021 83 8000 3.6 10 17:55 17.04.2020
4677 Clouds 23 1021 83 8000 3.6 10 17:36 17.04.2020
4678 Clouds 23 1022 83 10000 3.6 340 17:18 17.04.2020
4679 Clouds 23 1022 83 10000 3.6 340 16:41 17.04.2020
4680 Clouds 23 1022 83 10000 3.6 340 16:41 17.04.2020
4681 Clouds 23 1022 83 10000 3.6 340 16:22 17.04.2020
4682 Clouds 23 1022 83 8000 3.1 330 15:41 17.04.2020
4683 Clouds 23 1022 83 8000 3.1 330 15:23 17.04.2020
4684 Clouds 22 1022 88 8000 2.6 330 14:56 17.04.2020
4685 Clouds 22 1022 88 8000 2.6 330 14:37 17.04.2020
4686 Clouds 22 1022 88 8000 2.6 330 14:37 17.04.2020
4687 Clouds 22 1021 88 9000 1.5 330 14:19 17.04.2020
4688 Clouds 22 1021 88 9000 1.5 330 13:41 17.04.2020
4689 Clouds 21 1021 88 9000 1.5 300 13:22 17.04.2020
4690 Clouds 21 1021 88 9000 1.5 300 12:59 17.04.2020
4691 Clouds 21 1021 88 9000 1.5 300 12:41 17.04.2020
4692 Clouds 22 1020 88 9000 1.5 320 12:22 17.04.2020
4693 Clouds 22 1020 88 9000 1.5 320 11:40 17.04.2020
4694 Clouds 21 1020 88 10000 3.1 260 11:19 17.04.2020
4695 Clouds 21 1020 88 10000 3.1 260 10:56 17.04.2020
4696 Clouds 21 1020 88 10000 3.1 260 10:37 17.04.2020
4697 Clouds 21 1020 88 10000 2.1 260 10:18 17.04.2020
4698 Clouds 21 1020 88 10000 2.1 260 09:40 17.04.2020
4699 Clouds 22 1020 83 10000 2.1 200 09:20 17.04.2020
4700 Clouds 22 1020 83 10000 2.1 200 08:56 17.04.2020
4701 Clouds 22 1020 83 10000 2.1 200 08:38 17.04.2020
4702 Clouds 22 1020 83 10000 2.1 200 08:19 17.04.2020
4703 Clouds 22 1020 83 10000 2.1 280 07:43 17.04.2020
4704 Clouds 23 1020 78 10000 2.6 250 07:21 17.04.2020
4705 Clouds 23 1020 78 10000 2.6 250 06:45 17.04.2020
4706 Clouds 22 1021 78 10000 3.1 240 06:22 17.04.2020
4707 Clouds 23 1020 78 10000 4.6 220 04:46 17.04.2020
4708 Clouds 23 1020 73 10000 3.1 220 03:19 17.04.2020
4709 Clouds 24 1019 73 10000 5.1 180 01:58 17.04.2020
4710 Clouds 23 1019 73 10000 5.1 180 01:27 17.04.2020
4711 Clouds 23 1018 73 10000 5.1 190 00:51 17.04.2020
4712 Clouds 23 1018 78 10000 6.2 190 00:19 17.04.2020
4713 Clouds 23 1018 78 10000 6.2 190 23:42 16.04.2020
4714 Clouds 23 1018 78 10000 6.2 190 23:42 16.04.2020
4715 Clouds 23 1018 78 10000 6.2 190 23:22 16.04.2020
4716 Clouds 23 1018 88 9000 6.2 190 22:57 16.04.2020
4717 Clouds 24 1018 88 9000 6.2 190 22:37 16.04.2020
4718 Clouds 24 1018 88 9000 6.2 190 22:19 16.04.2020
4719 Clouds 24 1017 88 9000 5.1 150 21:43 16.04.2020
4720 Clouds 24 1017 88 9000 5.1 150 21:20 16.04.2020
4721 Clouds 25 1017 78 10000 4.1 170 20:59 16.04.2020
4722 Clouds 25 1017 78 10000 4.1 170 20:40 16.04.2020
4723 Clouds 25 1017 78 8000 4.6 170 20:20 16.04.2020
4724 Clouds 25 1017 78 8000 4.6 170 19:55 16.04.2020
4725 Clouds 25 1017 78 8000 4.6 170 19:37 16.04.2020
4726 Clouds 26 1017 78 8000 3.6 180 19:18 16.04.2020
4727 Clouds 25 1017 78 8000 3.6 180 18:43 16.04.2020
4728 Clouds 25 1017 78 8000 3.6 180 18:25 16.04.2020
4729 Clouds 25 1018 83 8000 1.5 140 17:57 16.04.2020
4730 Clouds 25 1018 83 8000 1.5 140 17:39 16.04.2020
4731 Clouds 25 1018 83 8000 1.5 140 17:20 16.04.2020
4732 Clouds 24 1018 88 8000 2.1 20 16:44 16.04.2020
4733 Clouds 24 1018 88 8000 2.1 20 16:26 16.04.2020
4734 Clouds 24 1018 88 8000 2.6 20 15:55 16.04.2020
4735 Clouds 24 1018 88 8000 2.6 20 15:36 16.04.2020
4736 Clouds 24 1018 88 8000 2.6 20 15:18 16.04.2020
4737 Clouds 24 1017 88 9000 1.5 110 14:45 16.04.2020
4738 Clouds 24 1017 88 9000 1.5 110 14:25 16.04.2020
4739 Clouds 24 1017 88 9000 1 0 13:59 16.04.2020
4740 Clouds 23 1017 88 9000 1 0 13:40 16.04.2020
4741 Clouds 23 1017 88 9000 1 0 13:40 16.04.2020
4742 Clouds 23 1017 88 9000 1 0 13:22 16.04.2020
4743 Rain 23 1016 88 9000 0.5 0 12:58 16.04.2020
4744 Rain 23 1016 88 9000 0.5 0 12:39 16.04.2020
4745 Rain 23 1016 88 9000 0.5 0 12:19 16.04.2020
4746 Rain 23 1016 88 7000 0.6 315 11:57 16.04.2020
4747 Rain 23 1016 88 4000 1 0 11:39 16.04.2020
4748 Rain 23 1016 88 4000 1 0 11:20 16.04.2020
4749 Clouds 22 1015 83 10000 2.1 350 10:55 16.04.2020
4750 Clouds 22 1015 83 10000 2.1 350 10:37 16.04.2020
4751 Clouds 22 1015 83 10000 2.1 350 10:18 16.04.2020
4752 Clouds 22 1014 83 10000 2.6 20 09:39 16.04.2020
4753 Clouds 22 1014 83 10000 2.6 20 09:20 16.04.2020
4754 Clouds 23 1014 78 10000 2.6 30 08:57 16.04.2020
4755 Clouds 23 1014 78 10000 2.6 30 08:39 16.04.2020
4756 Clouds 23 1014 78 10000 2.6 30 08:21 16.04.2020
4757 Clouds 23 1015 78 10000 2.6 20 07:43 16.04.2020
4758 Clouds 23 1015 78 10000 2.6 20 07:24 16.04.2020
4759 Clouds 23 1015 78 10000 1.5 50 06:42 16.04.2020
4760 Clouds 23 1015 78 10000 1.5 50 06:24 16.04.2020
4761 Clouds 24 1015 83 10000 1.5 120 05:30 16.04.2020
4762 Clouds 24 1015 78 10000 2.1 170 03:49 16.04.2020
4763 Clouds 24 1015 78 10000 2.1 170 03:23 16.04.2020
4764 Clouds 24 1015 83 10000 3.1 180 02:47 16.04.2020
4765 Clouds 24 1015 83 10000 3.1 180 02:26 16.04.2020
4766 Clouds 25 1014 78 10000 3.6 170 01:18 16.04.2020
4767 Clouds 25 1014 78 10000 3.6 170 00:28 16.04.2020
4768 Clouds 25 1013 78 10000 5.1 180 23:58 15.04.2020
4769 Clouds 25 1013 78 10000 5.1 180 23:40 15.04.2020
4770 Clouds 25 1013 78 10000 5.1 180 23:21 15.04.2020
4771 Clouds 26 1012 74 10000 7.7 190 22:40 15.04.2020
4772 Clouds 26 1012 74 10000 7.7 190 22:22 15.04.2020
4773 Clouds 26 1011 69 10000 8.7 180 21:59 15.04.2020
4774 Clouds 27 1011 69 10000 8.7 180 21:40 15.04.2020
4775 Clouds 27 1011 69 10000 8.7 180 21:22 15.04.2020
4776 Clouds 27 1011 61 10000 6.2 160 20:58 15.04.2020
4777 Clouds 27 1011 61 10000 6.2 160 20:40 15.04.2020
4778 Clouds 27 1011 61 10000 6.2 160 20:21 15.04.2020
4779 Clouds 27 1011 69 10000 6.2 160 19:45 15.04.2020
4780 Clouds 28 1012 61 10000 4.6 150 19:21 15.04.2020
4781 Clouds 28 1012 61 10000 4.6 150 18:57 15.04.2020
4782 Clouds 30 1012 61 10000 4.6 150 18:38 15.04.2020
4783 Clouds 30 1011 65 10000 4.1 150 18:20 15.04.2020
4784 Clouds 30 1011 65 10000 4.1 150 17:54 15.04.2020
4785 Clouds 30 1011 65 10000 4.1 150 17:36 15.04.2020
4786 Clouds 29 1012 74 10000 2.6 140 17:18 15.04.2020
4787 Clouds 29 1012 74 10000 2.6 140 16:54 15.04.2020
4788 Clouds 28 1012 74 10000 2.6 140 16:36 15.04.2020
4789 Clouds 29 1012 74 10000 2.6 140 16:18 15.04.2020
4790 Clouds 29 1012 69 10000 1.5 130 15:55 15.04.2020
4791 Clouds 28 1012 74 10000 1 60 15:36 15.04.2020
4792 Clouds 28 1012 74 10000 1 60 15:18 15.04.2020
4793 Clouds 27 1012 74 10000 1 20 14:41 15.04.2020
4794 Clouds 27 1012 74 10000 1 20 14:23 15.04.2020
4795 Clouds 25 1012 78 10000 1 70 13:59 15.04.2020
4796 Clouds 25 1012 78 10000 1 70 13:40 15.04.2020
4797 Clouds 23 1011 88 10000 0.5 40 13:21 15.04.2020
4798 Clouds 23 1011 88 10000 0.5 40 12:58 15.04.2020
4799 Clouds 23 1011 88 10000 0.5 40 12:39 15.04.2020
4800 Clouds 24 1011 88 10000 0.5 40 12:21 15.04.2020
4801 Clouds 24 1010 83 10000 0.5 360 11:58 15.04.2020
4802 Clouds 23 1010 83 10000 0.5 360 11:38 15.04.2020
4803 Clouds 23 1010 83 10000 0.5 360 11:20 15.04.2020
4804 Clouds 23 1010 78 10000 2.1 340 10:38 15.04.2020
4805 Clouds 23 1010 78 10000 2.1 340 10:20 15.04.2020
4806 Clouds 23 1009 78 10000 3.1 350 09:57 15.04.2020
4807 Clouds 23 1009 78 10000 3.1 350 09:38 15.04.2020
4808 Clouds 23 1009 78 10000 3.1 350 09:20 15.04.2020
4809 Clouds 24 1008 69 10000 2.6 290 08:54 15.04.2020
4810 Clouds 24 1008 69 10000 2.6 290 08:36 15.04.2020
4811 Clouds 25 1008 65 10000 3.1 240 08:18 15.04.2020
4812 Clouds 25 1008 65 10000 3.1 240 07:44 15.04.2020
4813 Clouds 24 1008 73 10000 2.1 270 07:26 15.04.2020
4814 Clouds 24 1008 73 10000 2.1 270 06:25 15.04.2020
4815 Clouds 25 1009 61 10000 2.1 210 05:49 15.04.2020
4816 Clouds 28 1008 58 10000 3.1 250 04:48 15.04.2020
4817 Clouds 27 1008 58 10000 3.1 250 04:22 15.04.2020
4818 Clouds 26 1008 83 10000 4.6 40 03:22 15.04.2020
4819 Clouds 27 1008 65 10000 0.5 0 02:50 15.04.2020
4820 Clouds 26 1007 61 10000 2.1 300 01:53 15.04.2020
4821 Clouds 27 1007 61 10000 2.1 300 01:25 15.04.2020
4822 Clouds 27 1006 69 10000 4.1 360 00:51 15.04.2020
4823 Clouds 25 1006 69 10000 4.1 360 00:29 15.04.2020
4824 Clouds 26 1006 65 10000 1.5 350 23:56 14.04.2020
4825 Clouds 26 1006 65 10000 1.5 350 23:56 14.04.2020
4826 Clouds 28 1006 65 10000 1.5 350 23:38 14.04.2020
4827 Clouds 28 1006 65 10000 1.5 350 23:20 14.04.2020
4828 Clouds 28 1006 74 10000 3.1 20 22:57 14.04.2020
4829 Clouds 28 1006 74 10000 3.1 20 22:39 14.04.2020
4830 Clouds 28 1006 74 10000 3.1 20 22:21 14.04.2020
4831 Clouds 27 1007 69 10000 1.5 140 21:57 14.04.2020
4832 Clouds 30 1007 69 10000 1.5 140 21:39 14.04.2020
4833 Clouds 30 1007 69 10000 1.5 140 21:20 14.04.2020
4834 Clouds 30 1008 65 10000 2.1 150 20:58 14.04.2020
4835 Clouds 29 1008 65 10000 2.1 150 20:39 14.04.2020
4836 Clouds 29 1008 65 10000 2.1 150 20:21 14.04.2020
4837 Clouds 29 1008 65 10000 2.1 150 20:21 14.04.2020
4838 Clouds 31 1008 54 10000 1.5 10 19:41 14.04.2020
4839 Clouds 31 1008 54 10000 1.5 10 19:23 14.04.2020
4840 Clouds 30 1009 54 10000 2.6 330 18:59 14.04.2020
4841 Clouds 30 1009 54 10000 2.6 330 18:40 14.04.2020
4842 Clouds 30 1009 54 10000 2.6 330 18:21 14.04.2020
4843 Clouds 29 1010 61 10000 3.1 320 17:58 14.04.2020
4844 Clouds 28 1010 61 10000 3.1 320 17:39 14.04.2020
4845 Clouds 28 1010 61 10000 3.1 320 17:20 14.04.2020
4846 Clouds 28 1011 65 10000 2.6 340 16:57 14.04.2020
4847 Clouds 26 1011 65 10000 2.6 340 16:38 14.04.2020
4848 Clouds 25 1011 65 10000 2.6 340 16:20 14.04.2020
4849 Clouds 24 1012 69 10000 2.1 350 15:56 14.04.2020
4850 Clouds 25 1012 69 10000 2.1 350 15:38 14.04.2020
4851 Clouds 25 1012 69 10000 2.1 350 15:18 14.04.2020
4852 Clouds 25 1013 69 10000 2.1 350 14:56 14.04.2020
4853 Clouds 25 1013 69 10000 2.1 350 14:37 14.04.2020
4854 Clouds 24 1013 69 10000 2.1 350 14:19 14.04.2020
4855 Clouds 24 1013 69 10000 2.1 350 14:19 14.04.2020
4856 Clouds 21 1013 78 10000 1 360 13:43 14.04.2020
4857 Clouds 21 1013 78 10000 1 360 13:43 14.04.2020
4858 Clouds 21 1013 78 10000 1 360 13:24 14.04.2020
4859 Clouds 20 1013 83 10000 2.1 360 12:56 14.04.2020
4860 Clouds 20 1013 83 10000 2.1 360 12:38 14.04.2020
4861 Clouds 20 1013 83 10000 3.6 50 12:18 14.04.2020
4862 Clouds 21 1013 83 10000 3.6 50 11:41 14.04.2020
4863 Clouds 21 1013 83 10000 3.6 50 11:22 14.04.2020
4864 Clouds 20 1013 88 10000 1.5 90 10:55 14.04.2020
4865 Clouds 19 1013 88 10000 1.5 90 10:37 14.04.2020
4866 Clouds 19 1013 88 10000 1.5 90 10:18 14.04.2020
4867 Clouds 20 1013 82 10000 2.6 130 09:41 14.04.2020
4868 Clouds 21 1013 82 10000 2.6 130 09:22 14.04.2020
4869 Clouds 21 1013 77 10000 1 180 08:56 14.04.2020
4870 Clouds 21 1013 77 10000 1 180 08:36 14.04.2020
4871 Clouds 21 1013 77 10000 1 180 08:18 14.04.2020
4872 Clouds 21 1013 83 10000 1 110 07:49 14.04.2020
4873 Clouds 22 1013 83 10000 1 110 07:26 14.04.2020
4874 Clouds 22 1014 73 10000 1.5 100 06:45 14.04.2020
4875 Clouds 22 1014 73 10000 1.5 100 06:45 14.04.2020
4876 Clouds 23 1015 73 10000 3.1 130 05:43 14.04.2020
4877 Clouds 21 1016 76 0 3.52 64 05:43 14.04.2020
4878 Clouds 23 1016 69 10000 2.1 130 03:38 14.04.2020
4879 Clouds 23 1016 73 10000 2.1 80 02:34 14.04.2020
4880 Clouds 23 1016 73 10000 2.1 150 01:27 14.04.2020
4881 Clouds 23 1015 78 10000 4.1 110 00:51 14.04.2020
4882 Clouds 24 1015 78 10000 4.1 110 00:24 14.04.2020
4883 Clouds 23 1015 73 10000 4.6 120 23:59 13.04.2020
4884 Clouds 24 1015 73 10000 4.6 120 23:37 13.04.2020
4885 Clouds 24 1015 73 10000 4.6 120 23:19 13.04.2020
4886 Clouds 25 1015 73 10000 5.7 130 22:54 13.04.2020
4887 Clouds 23 1015 73 10000 5.7 130 22:36 13.04.2020
4888 Clouds 23 1015 73 10000 5.7 130 22:18 13.04.2020
4889 Clouds 27 1015 69 10000 6.2 130 21:41 13.04.2020
4890 Clouds 27 1015 69 10000 6.2 130 21:21 13.04.2020
4891 Clouds 26 1015 69 10000 6.7 140 20:58 13.04.2020
4892 Clouds 26 1015 69 10000 6.7 140 20:40 13.04.2020
4893 Clouds 26 1015 69 10000 6.7 140 20:19 13.04.2020
4894 Clouds 26 1015 69 10000 6.7 160 19:58 13.04.2020
4895 Clouds 26 1015 69 10000 6.7 160 19:37 13.04.2020
4896 Clouds 26 1016 69 10000 6.2 160 19:18 13.04.2020
4897 Clouds 26 1016 69 10000 6.2 160 18:57 13.04.2020
4898 Clouds 26 1016 69 10000 6.2 160 18:37 13.04.2020
4899 Clouds 26 1017 69 10000 4.6 160 18:18 13.04.2020
4900 Clouds 26 1017 69 10000 4.6 160 17:56 13.04.2020
4901 Clouds 26 1017 69 10000 4.6 160 17:37 13.04.2020
4902 Clouds 25 1017 69 10000 4.6 160 17:19 13.04.2020
4903 Clouds 26 1018 65 10000 3.1 140 16:57 13.04.2020
4904 Clouds 25 1018 65 10000 1.5 330 16:37 13.04.2020
4905 Clouds 25 1018 65 10000 1.5 330 16:19 13.04.2020
4906 Clouds 25 1019 73 10000 2.6 340 15:46 13.04.2020
4907 Clouds 24 1019 73 10000 2.6 340 15:28 13.04.2020
4908 Clouds 23 1019 83 10000 2.1 340 14:59 13.04.2020
4909 Clouds 21 1019 83 10000 2.1 340 14:40 13.04.2020
4910 Clouds 21 1019 83 10000 2.1 340 14:22 13.04.2020
4911 Clouds 21 1018 88 10000 1.5 360 13:56 13.04.2020
4912 Clouds 20 1018 88 10000 1.5 360 13:38 13.04.2020
4913 Clouds 20 1018 88 10000 2.1 350 13:20 13.04.2020
4914 Clouds 20 1018 88 10000 2.1 350 12:58 13.04.2020
4915 Clouds 19 1018 88 10000 2.1 350 12:40 13.04.2020
4916 Clouds 19 1018 88 10000 2.1 350 12:20 13.04.2020
4917 Clouds 19 1018 88 10000 1.5 40 11:58 13.04.2020
4918 Clouds 20 1018 88 10000 1.5 40 11:40 13.04.2020
4919 Clouds 18 1017 93 8000 1 130 11:18 13.04.2020
4920 Clouds 18 1017 93 8000 1 130 10:55 13.04.2020
4921 Clouds 19 1017 93 8000 1 130 10:37 13.04.2020
4922 Clouds 19 1017 93 8000 1 130 10:18 13.04.2020
4923 Clouds 19 1017 93 8000 1.71 13 09:44 13.04.2020
4924 Clouds 19 1017 93 8000 2.13 28 09:25 13.04.2020
4925 Clouds 20 1017 93 10000 2.13 28 08:47 13.04.2020
4926 Clouds 20 1017 93 10000 2.13 28 08:28 13.04.2020
4927 Clouds 20 1018 88 8000 2.13 28 07:58 13.04.2020
4928 Clouds 20 1018 88 8000 2.13 28 07:38 13.04.2020
4929 Clouds 21 1018 83 10000 1 30 07:19 13.04.2020
4930 Clouds 21 1018 83 10000 1 30 06:46 13.04.2020
4931 Clouds 21 1018 83 8000 1.5 340 05:53 13.04.2020
4932 Clouds 21 1018 88 10000 1.5 90 05:27 13.04.2020
4933 Clouds 21 1018 88 10000 1.5 90 04:52 13.04.2020
4934 Clouds 22 1018 88 10000 1.5 90 04:22 13.04.2020
4935 Clouds 22 1018 78 10000 0.5 350 03:45 13.04.2020
4936 Clouds 21 1018 83 10000 0.5 340 02:50 13.04.2020
4937 Clouds 22 1018 83 10000 2.1 10 01:54 13.04.2020
4938 Clouds 22 1018 83 10000 2.1 10 01:35 13.04.2020
4939 Clouds 23 1017 83 10000 3.6 360 00:56 13.04.2020
4940 Clouds 22 1017 83 10000 3.6 360 00:38 13.04.2020
4941 Clouds 23 1017 83 10000 2.1 40 00:18 13.04.2020
4942 Clouds 23 1017 78 10000 1 130 23:43 12.04.2020
4943 Clouds 21 1017 78 10000 1 130 23:22 12.04.2020
4944 Clouds 22 1017 69 10000 2.1 170 22:57 12.04.2020
4945 Clouds 23 1017 69 10000 2.1 170 22:37 12.04.2020
4946 Clouds 23 1017 69 10000 2.1 170 22:19 12.04.2020
4947 Clouds 22 1017 69 10000 2.6 160 21:40 12.04.2020
4948 Clouds 22 1017 69 10000 2.6 160 21:20 12.04.2020
4949 Clouds 23 1017 60 10000 3.6 170 20:56 12.04.2020
4950 Clouds 24 1017 60 10000 3.6 170 20:38 12.04.2020
4951 Clouds 24 1017 64 10000 2.6 150 20:19 12.04.2020
4952 Clouds 24 1017 64 10000 2.6 150 19:55 12.04.2020
4953 Clouds 22 1017 64 10000 2.6 150 19:36 12.04.2020
4954 Clouds 23 1017 69 10000 3.6 180 19:18 12.04.2020
4955 Clouds 23 1017 69 10000 3.6 180 18:40 12.04.2020
4956 Clouds 22 1018 73 10000 1 0 18:21 12.04.2020
4957 Clouds 23 1018 73 10000 1 0 17:56 12.04.2020
4958 Clouds 25 1018 73 10000 1 0 17:38 12.04.2020
4959 Clouds 24 1019 83 7000 2.1 10 17:19 12.04.2020
4960 Clouds 25 1019 83 7000 2.1 10 16:56 12.04.2020
4961 Clouds 24 1019 83 7000 2.1 10 16:37 12.04.2020
4962 Clouds 24 1019 83 7000 2.1 10 16:19 12.04.2020
4963 Clouds 23 1019 88 7000 3.1 10 15:41 12.04.2020
4964 Clouds 22 1019 88 7000 3.1 10 15:22 12.04.2020
4965 Clouds 21 1019 88 6000 2.1 350 14:41 12.04.2020
4966 Clouds 21 1019 88 6000 2.1 350 14:22 12.04.2020
4967 Clouds 21 1018 88 6000 2.1 330 13:58 12.04.2020
4968 Clouds 21 1018 88 6000 2.1 330 13:40 12.04.2020
4969 Clouds 21 1018 88 6000 2.1 330 13:21 12.04.2020
4970 Clouds 19 1018 94 6000 2.1 10 12:47 12.04.2020
4971 Clouds 20 1018 94 6000 2.1 10 12:22 12.04.2020
4972 Clouds 20 1017 94 8000 2.1 340 11:59 12.04.2020
4973 Clouds 20 1017 94 8000 2.1 340 11:39 12.04.2020
4974 Clouds 20 1017 94 8000 2.1 340 11:20 12.04.2020
4975 Clouds 19 1017 93 8000 1 10 10:58 12.04.2020
4976 Clouds 19 1017 93 8000 1 10 10:39 12.04.2020
4977 Clouds 19 1017 93 8000 1 10 10:20 12.04.2020
4978 Clouds 19 1017 93 8000 1 0 09:58 12.04.2020
4979 Clouds 19 1017 93 8000 1 0 09:39 12.04.2020
4980 Clouds 19 1017 93 8000 1 0 09:20 12.04.2020
4981 Clouds 19 1017 93 8000 1 0 08:51 12.04.2020
4982 Clouds 19 1017 93 8000 1 0 08:32 12.04.2020
4983 Clouds 20 1017 88 8000 1 220 07:55 12.04.2020
4984 Clouds 20 1017 88 8000 1 220 07:36 12.04.2020
4985 Clouds 20 1018 88 7000 1 260 07:18 12.04.2020
4986 Clouds 20 1018 88 7000 1 260 06:31 12.04.2020
4987 Clouds 20 1018 94 7000 1.5 320 05:49 12.04.2020
4988 Clouds 20 1018 94 8000 3.1 330 05:27 12.04.2020
4989 Clouds 20 1018 94 8000 3.1 350 03:32 12.04.2020
4990 Clouds 20 1017 94 8000 3.1 340 02:54 12.04.2020
4991 Clouds 20 1017 94 8000 3.1 340 02:33 12.04.2020
4992 Rain 21 1017 94 7000 3.1 330 01:34 12.04.2020
4993 Clouds 21 1016 88 8000 4.1 310 00:57 12.04.2020
4994 Clouds 21 1016 88 8000 4.1 310 00:38 12.04.2020
4995 Drizzle 21 1017 88 6000 1.5 350 00:19 12.04.2020
4996 Drizzle 21 1017 88 6000 1.5 350 23:45 11.04.2020
4997 Drizzle 21 1017 88 6000 1.5 350 23:24 11.04.2020
4998 Clouds 21 1016 88 10000 2.6 10 22:41 11.04.2020
4999 Clouds 22 1016 88 10000 2.6 10 22:22 11.04.2020
5000 Clouds 22 1015 88 10000 3.6 360 21:57 11.04.2020
5001 Clouds 21 1015 88 10000 3.6 360 21:37 11.04.2020
5002 Clouds 21 1015 88 10000 3.6 360 21:19 11.04.2020
5003 Clouds 21 1015 78 10000 2.1 340 20:58 11.04.2020
5004 Clouds 23 1015 78 10000 2.1 340 20:39 11.04.2020
5005 Clouds 23 1015 78 10000 2.1 340 20:20 11.04.2020
5006 Clouds 23 1015 78 10000 1.5 350 19:58 11.04.2020
5007 Clouds 23 1015 78 10000 1.5 350 19:39 11.04.2020
5008 Clouds 24 1015 78 10000 1 10 19:19 11.04.2020
5009 Clouds 24 1015 78 10000 1 10 18:56 11.04.2020
5010 Clouds 23 1015 78 10000 1 10 18:38 11.04.2020
5011 Clouds 23 1015 83 10000 1.5 30 18:20 11.04.2020
5012 Clouds 23 1015 83 10000 1.5 30 17:58 11.04.2020
5013 Clouds 23 1015 83 10000 1.5 30 17:40 11.04.2020
5014 Clouds 23 1015 83 10000 1.5 30 17:20 11.04.2020
5015 Clouds 23 1016 83 10000 1.5 360 16:55 11.04.2020
5016 Clouds 23 1016 83 10000 1.5 360 16:37 11.04.2020
5017 Clouds 23 1016 83 10000 1.5 360 16:19 11.04.2020
5018 Clouds 23 1016 88 10000 2.1 360 15:37 11.04.2020
5019 Clouds 23 1016 88 10000 1.5 340 15:19 11.04.2020
5020 Clouds 21 1016 88 10000 1.5 340 14:43 11.04.2020
5021 Clouds 22 1016 88 10000 1.5 340 14:24 11.04.2020
5022 Clouds 22 1016 88 10000 1.5 340 14:24 11.04.2020
5023 Clouds 22 1015 88 10000 1.5 360 13:59 11.04.2020
5024 Clouds 22 1015 88 10000 1.5 360 13:59 11.04.2020
5025 Clouds 22 1015 88 10000 1.5 360 13:59 11.04.2020
5026 Clouds 22 1015 88 10000 1.5 360 13:40 11.04.2020
5027 Clouds 21 1015 88 10000 2.1 350 13:20 11.04.2020
5028 Clouds 20 1015 88 10000 2.1 350 12:42 11.04.2020
5029 Clouds 20 1014 94 10000 2.1 20 12:21 11.04.2020
5030 Clouds 20 1014 94 10000 2.1 20 11:58 11.04.2020
5031 Clouds 21 1014 94 10000 2.1 20 11:39 11.04.2020
5032 Clouds 21 1014 94 10000 2.1 20 11:19 11.04.2020
5033 Clouds 21 1014 88 10000 2.1 10 10:55 11.04.2020
5034 Clouds 21 1014 88 10000 2.1 10 10:36 11.04.2020
5035 Clouds 21 1014 88 10000 2.1 10 10:18 11.04.2020
5036 Clouds 21 1014 83 10000 0.5 280 09:41 11.04.2020
5037 Clouds 21 1014 83 10000 0.5 280 09:22 11.04.2020
5038 Clouds 21 1014 83 10000 0.5 40 08:54 11.04.2020
5039 Clouds 21 1014 83 10000 0.5 40 08:36 11.04.2020
5040 Clouds 21 1015 88 10000 1 110 08:18 11.04.2020
5041 Clouds 21 1015 88 10000 1 110 07:41 11.04.2020
5042 Clouds 21 1015 88 10000 1 110 07:23 11.04.2020
5043 Clouds 21 1015 83 10000 0.5 210 06:37 11.04.2020
5044 Clouds 21 1016 88 10000 1 60 05:57 11.04.2020
5045 Clouds 21 1016 88 10000 3.1 330 03:57 11.04.2020
5046 Clouds 21 1016 83 10000 3.1 320 02:52 11.04.2020
5047 Clouds 22 1015 83 10000 3.6 360 01:26 11.04.2020
5048 Clouds 22 1015 69 10000 2.1 220 00:56 11.04.2020
5049 Clouds 22 1015 69 10000 2.1 220 00:38 11.04.2020
5050 Clouds 22 1015 69 10000 2.1 220 00:18 11.04.2020
5051 Clouds 22 1015 69 10000 2.1 220 00:18 11.04.2020
5052 Clouds 22 1014 69 10000 3.6 210 23:42 10.04.2020
5053 Clouds 22 1014 69 10000 3.6 210 23:19 10.04.2020
5054 Clouds 22 1014 73 10000 4.1 210 22:58 10.04.2020
5055 Clouds 23 1014 73 10000 4.1 210 22:39 10.04.2020
5056 Clouds 23 1014 73 10000 4.1 210 22:20 10.04.2020
5057 Rain 22 1014 73 10000 6.2 210 21:42 10.04.2020
5058 Rain 22 1014 73 10000 6.2 210 21:42 10.04.2020
5059 Rain 22 1014 73 10000 6.2 210 21:42 10.04.2020
5060 Rain 22 1014 73 10000 6.2 210 21:21 10.04.2020
5061 Clouds 22 1014 69 10000 4.1 210 20:59 10.04.2020
5062 Clouds 23 1014 69 10000 4.1 210 20:40 10.04.2020
5063 Clouds 24 1014 69 10000 4.1 210 20:21 10.04.2020
5064 Clouds 24 1014 73 10000 5.1 190 19:56 10.04.2020
5065 Clouds 24 1014 73 10000 5.1 190 19:38 10.04.2020
5066 Clouds 24 1014 73 10000 5.1 190 19:38 10.04.2020
5067 Clouds 24 1014 69 10000 3.1 160 19:19 10.04.2020
5068 Clouds 24 1014 69 10000 3.1 160 18:56 10.04.2020
5069 Clouds 24 1014 69 10000 3.1 160 18:38 10.04.2020
5070 Clouds 24 1014 69 10000 3.1 160 18:38 10.04.2020
5071 Clouds 24 1014 69 10000 3.1 160 18:20 10.04.2020
5072 Clouds 24 1015 73 10000 1 0 17:57 10.04.2020
5073 Clouds 24 1015 73 10000 1 0 17:39 10.04.2020
5074 Clouds 24 1015 73 10000 1 0 17:19 10.04.2020
5075 Clouds 24 1015 78 10000 2.6 20 16:55 10.04.2020
5076 Clouds 24 1015 78 10000 2.6 20 16:36 10.04.2020
5077 Clouds 23 1015 78 10000 2.1 10 16:18 10.04.2020
5078 Clouds 23 1015 78 10000 2.1 10 15:54 10.04.2020
5079 Clouds 22 1015 78 10000 2.1 10 15:36 10.04.2020
5080 Clouds 22 1016 83 10000 2.6 340 15:18 10.04.2020
5081 Clouds 22 1016 83 10000 2.6 340 14:54 10.04.2020
5082 Clouds 22 1016 83 10000 2.6 340 14:36 10.04.2020
5083 Clouds 22 1015 83 10000 2.1 360 14:18 10.04.2020
5084 Clouds 20 1015 83 10000 2.1 360 13:42 10.04.2020
5085 Clouds 20 1015 83 10000 2.1 360 13:21 10.04.2020
5086 Clouds 20 1015 83 10000 2.1 10 12:43 10.04.2020
5087 Clouds 20 1015 83 10000 2.1 10 12:23 10.04.2020
5088 Clouds 21 1014 88 10000 2.6 340 11:56 10.04.2020
5089 Clouds 21 1014 88 10000 2.6 340 11:38 10.04.2020
5090 Clouds 21 1014 88 10000 2.6 340 11:20 10.04.2020
5091 Clouds 20 1015 82 10000 2.6 200 10:44 10.04.2020
5092 Clouds 20 1015 82 10000 2.6 200 10:23 10.04.2020
5093 Clouds 21 1014 77 10000 2.1 240 09:57 10.04.2020
5094 Clouds 21 1014 77 10000 2.1 240 09:38 10.04.2020
5095 Clouds 21 1014 77 10000 2.1 240 09:18 10.04.2020
5096 Clouds 21 1014 77 10000 2.6 260 08:42 10.04.2020
5097 Clouds 21 1014 77 10000 2.6 260 08:23 10.04.2020
5098 Clouds 21 1015 77 10000 2.6 280 07:45 10.04.2020
5099 Clouds 21 1015 77 10000 2.6 280 07:24 10.04.2020
5100 Clouds 21 1015 77 10000 1.5 280 06:49 10.04.2020
5101 Clouds 21 1015 77 10000 1.5 280 06:28 10.04.2020
5102 Clouds 21 1015 78 10000 2.6 310 05:42 10.04.2020
5103 Clouds 21 1015 78 10000 2.6 310 04:59 10.04.2020
5104 Clouds 22 1015 78 10000 2.6 330 03:51 10.04.2020
5105 Clouds 22 1015 78 10000 2.6 330 03:32 10.04.2020
5106 Clouds 22 1015 73 10000 2.1 310 02:49 10.04.2020
5107 Clouds 22 1015 73 10000 2.1 310 02:30 10.04.2020
5108 Clouds 22 1015 73 10000 1.5 290 01:30 10.04.2020
5109 Clouds 22 1015 69 10000 2.1 250 00:52 10.04.2020
5110 Clouds 22 1015 69 10000 2.1 250 00:26 10.04.2020
5111 Clouds 22 1014 69 10000 1.5 250 23:57 09.04.2020
5112 Clouds 23 1014 69 10000 1.5 250 23:38 09.04.2020
5113 Clouds 23 1014 69 10000 1.5 250 23:20 09.04.2020
5114 Clouds 22 1014 64 10000 1.5 240 22:42 09.04.2020
5115 Clouds 24 1014 64 10000 1.5 240 22:23 09.04.2020
5116 Clouds 24 1014 64 10000 1.5 240 21:59 09.04.2020
5117 Clouds 24 1014 64 10000 1.5 240 21:37 09.04.2020
5118 Clouds 24 1014 64 10000 1.5 240 21:19 09.04.2020
5119 Clouds 24 1014 64 10000 1.5 240 21:19 09.04.2020
5120 Clouds 23 1013 60 10000 3.1 210 20:45 09.04.2020
5121 Clouds 24 1013 60 10000 3.1 210 20:21 09.04.2020
5122 Clouds 24 1014 69 10000 2.1 120 19:58 09.04.2020
5123 Clouds 24 1014 69 10000 2.1 120 19:37 09.04.2020
5124 Rain 24 1014 78 10000 2.1 60 19:18 09.04.2020
5125 Rain 24 1014 78 10000 2.1 60 18:42 09.04.2020
5126 Rain 24 1014 78 10000 2.1 60 18:42 09.04.2020
5127 Clouds 24 1015 83 10000 2.6 360 18:20 09.04.2020
5128 Clouds 23 1015 83 10000 2.6 360 17:43 09.04.2020
5129 Clouds 22 1015 83 10000 2.6 360 17:24 09.04.2020
5130 Clouds 21 1015 88 10000 3.6 340 16:58 09.04.2020
5131 Clouds 23 1015 88 10000 3.6 340 16:39 09.04.2020
5132 Clouds 23 1015 88 10000 3.6 340 16:19 09.04.2020
5133 Clouds 22 1015 83 10000 3.6 320 15:55 09.04.2020
5134 Clouds 22 1015 83 10000 3.6 320 15:55 09.04.2020
5135 Clouds 21 1015 83 10000 3.6 320 15:37 09.04.2020
5136 Clouds 21 1015 83 10000 3.6 320 15:37 09.04.2020
5137 Clouds 21 1015 83 10000 3.6 320 15:37 09.04.2020
5138 Clouds 21 1015 83 10000 3.6 320 15:18 09.04.2020
5139 Clouds 21 1015 83 10000 3.1 320 14:42 09.04.2020
5140 Clouds 21 1015 83 10000 3.1 320 14:21 09.04.2020
5141 Clouds 20 1015 94 10000 3.6 320 13:56 09.04.2020
5142 Clouds 20 1015 94 10000 3.6 320 13:38 09.04.2020
5143 Clouds 20 1015 83 10000 1 340 13:19 09.04.2020
5144 Clouds 20 1015 83 10000 1 340 12:43 09.04.2020
5145 Clouds 20 1015 83 10000 1 340 12:24 09.04.2020
5146 Rain 20 1015 94 8000 1.5 290 11:59 09.04.2020
5147 Rain 21 1015 94 8000 1.5 290 11:41 09.04.2020
5148 Clouds 20 1014 94 10000 3.1 320 11:20 09.04.2020
5149 Clouds 20 1014 94 10000 3.1 320 10:58 09.04.2020
5150 Clouds 20 1014 94 10000 3.1 320 10:39 09.04.2020
5151 Clouds 20 1014 94 10000 3.1 320 10:20 09.04.2020
5152 Drizzle 20 1014 94 6000 3.1 260 09:56 09.04.2020
5153 Drizzle 20 1014 94 6000 3.1 260 09:38 09.04.2020
5154 Drizzle 20 1014 94 6000 3.1 260 09:20 09.04.2020
5155 Clouds 21 1015 88 10000 3.1 310 08:44 09.04.2020
5156 Clouds 21 1015 88 10000 3.1 310 08:23 09.04.2020
5157 Clouds 21 1015 88 10000 3.6 310 07:56 09.04.2020
5158 Clouds 21 1015 88 10000 3.6 310 07:27 09.04.2020
5159 Clouds 21 1016 88 10000 3.6 310 06:56 09.04.2020
5160 Clouds 21 1016 88 10000 3.6 320 06:18 09.04.2020
5161 Clouds 21 1015 83 10000 2.1 310 05:40 09.04.2020
5162 Clouds 21 1015 88 10000 2.1 320 03:55 09.04.2020
5163 Clouds 21 1015 88 10000 1.5 360 02:30 09.04.2020
5164 Clouds 21 1015 94 10000 2.6 330 01:41 09.04.2020
5165 Clouds 21 1015 94 10000 2.6 330 01:41 09.04.2020
5166 Clouds 21 1015 94 10000 2.6 330 01:23 09.04.2020
5167 Clouds 21 1014 88 10000 2.6 310 00:43 09.04.2020
5168 Clouds 21 1014 94 10000 4.1 330 00:20 09.04.2020
5169 Clouds 21 1014 94 10000 4.1 330 23:59 08.04.2020
5170 Clouds 21 1014 94 10000 4.1 330 23:41 08.04.2020
5171 Clouds 21 1014 88 10000 3.6 310 23:21 08.04.2020
5172 Clouds 21 1014 83 10000 2.1 200 22:44 08.04.2020
5173 Rain 22 1014 83 6000 5.7 210 22:24 08.04.2020
5174 Rain 22 1014 83 6000 5.7 210 22:24 08.04.2020
5175 Rain 22 1014 83 6000 5.7 210 21:57 08.04.2020
5176 Rain 22 1014 83 6000 5.7 210 21:38 08.04.2020
5177 Rain 22 1014 83 6000 5.7 210 21:19 08.04.2020
5178 Rain 21 1014 83 6000 3.6 200 20:58 08.04.2020
5179 Rain 22 1014 83 6000 3.6 200 20:38 08.04.2020
5180 Rain 22 1014 83 6000 3.6 200 20:20 08.04.2020
5181 Rain 22 1014 88 9000 2.1 190 19:55 08.04.2020
5182 Rain 22 1014 88 9000 2.1 190 19:36 08.04.2020
5183 Rain 23 1015 88 5000 3.6 140 19:18 08.04.2020
5184 Rain 23 1015 88 5000 3.6 140 19:18 08.04.2020
5185 Clouds 23 1015 83 10000 1.5 10 18:41 08.04.2020
5186 Clouds 23 1015 83 10000 1.5 10 18:23 08.04.2020
5187 Clouds 24 1016 83 10000 2.6 10 17:54 08.04.2020
5188 Clouds 24 1016 83 10000 2.6 10 17:54 08.04.2020
5189 Clouds 23 1016 83 10000 2.6 10 17:36 08.04.2020
5190 Clouds 24 1016 83 10000 2.6 10 17:18 08.04.2020
5191 Clouds 23 1016 83 10000 2.6 360 16:42 08.04.2020
5192 Clouds 23 1016 83 10000 2.6 360 16:42 08.04.2020
5193 Clouds 22 1016 83 10000 1 30 16:23 08.04.2020
5194 Clouds 22 1016 83 10000 1 30 15:55 08.04.2020
5195 Drizzle 21 1017 88 7000 3.6 200 15:37 08.04.2020
5196 Drizzle 21 1017 88 7000 3.6 200 15:18 08.04.2020
5197 Drizzle 22 1016 88 3000 4.6 190 14:42 08.04.2020
5198 Drizzle 22 1016 88 3000 4.6 190 14:24 08.04.2020
5199 Clouds 22 1016 88 7000 4.1 190 13:54 08.04.2020
5200 Clouds 22 1016 88 7000 4.1 190 13:36 08.04.2020
5201 Rain 21 1015 94 6000 4.6 160 13:18 08.04.2020
5202 Rain 21 1015 94 6000 4.6 160 12:41 08.04.2020
5203 Rain 21 1014 94 6000 4.1 200 12:18 08.04.2020
5204 Rain 21 1014 94 6000 4.1 200 12:18 08.04.2020
5205 Rain 21 1014 94 6000 4.1 200 11:56 08.04.2020
5206 Rain 21 1014 94 6000 4.1 200 11:38 08.04.2020
5207 Rain 21 1014 94 6000 4.1 200 11:19 08.04.2020
5208 Clouds 22 1014 88 7000 2.1 170 10:55 08.04.2020
5209 Clouds 22 1014 88 7000 2.1 170 10:37 08.04.2020
5210 Clouds 22 1014 88 7000 2.1 170 10:18 08.04.2020
5211 Clouds 22 1014 88 6000 2.6 180 09:42 08.04.2020
5212 Clouds 22 1014 88 6000 2.6 180 09:21 08.04.2020
5213 Rain 22 1014 94 4000 1.5 200 08:59 08.04.2020
5214 Rain 22 1014 94 4000 1.5 200 08:41 08.04.2020
5215 Rain 22 1014 94 4000 1.5 200 08:21 08.04.2020
5216 Rain 23 1014 88 6000 3.6 270 07:43 08.04.2020
5217 Rain 23 1014 88 6000 3.6 270 07:23 08.04.2020
5218 Rain 22 1015 94 4000 2.1 210 06:48 08.04.2020
5219 Clouds 23 1015 94 10000 1 10 05:56 08.04.2020
5220 Rain 23 1015 94 4500 1 20 03:34 08.04.2020
5221 Rain 24 1014 100 4500 3.1 350 02:49 08.04.2020
5222 Rain 23 1014 100 4500 3.1 350 02:19 08.04.2020
5223 Rain 24 1014 88 10000 1.5 140 01:30 08.04.2020
5224 Rain 25 1014 83 10000 3.1 220 00:59 08.04.2020
5225 Rain 25 1014 83 10000 3.1 220 00:59 08.04.2020
5226 Rain 25 1014 83 10000 3.1 220 00:40 08.04.2020
5227 Rain 25 1014 83 10000 3.1 220 00:20 08.04.2020
5228 Clouds 25 1013 74 10000 3.1 280 23:39 07.04.2020
5229 Clouds 25 1013 74 10000 3.1 280 23:20 07.04.2020
5230 Clouds 25 1012 69 10000 2.6 230 22:57 07.04.2020
5231 Clouds 25 1012 69 10000 2.6 230 22:57 07.04.2020
5232 Clouds 25 1012 69 10000 2.6 230 22:39 07.04.2020
5233 Clouds 26 1012 69 10000 4.6 210 22:19 07.04.2020
5234 Clouds 26 1012 69 10000 4.6 210 21:56 07.04.2020
5235 Clouds 26 1012 69 10000 4.6 210 21:38 07.04.2020
5236 Clouds 26 1012 69 10000 4.6 210 21:19 07.04.2020
5237 Clouds 26 1011 78 10000 6.7 200 20:55 07.04.2020
5238 Clouds 26 1011 78 10000 6.7 200 20:37 07.04.2020
5239 Clouds 25 1011 78 10000 6.7 200 20:18 07.04.2020
5240 Clouds 26 1011 74 10000 6.2 200 19:56 07.04.2020
5241 Clouds 26 1011 74 10000 6.2 200 19:36 07.04.2020
5242 Clouds 27 1011 74 10000 6.2 200 19:18 07.04.2020
5243 Clouds 27 1012 69 10000 5.1 180 18:54 07.04.2020
5244 Clouds 28 1012 69 10000 5.1 180 18:36 07.04.2020
5245 Clouds 28 1012 69 10000 5.1 180 18:18 07.04.2020
5246 Clouds 28 1013 69 10000 7.7 190 17:41 07.04.2020
5247 Clouds 28 1013 69 10000 7.7 190 17:20 07.04.2020
5248 Clouds 28 1013 74 10000 3.6 180 16:45 07.04.2020
5249 Clouds 28 1013 74 10000 3.6 180 16:27 07.04.2020
5250 Clouds 28 1013 66 10000 3.1 270 15:55 07.04.2020
5251 Clouds 26 1012 88 7000 4.6 150 15:36 07.04.2020
5252 Clouds 28 1013 66 10000 3.1 270 15:36 07.04.2020
5253 Clouds 26 1012 88 7000 4.6 150 15:18 07.04.2020
5254 Clouds 26 1012 88 7000 4.6 150 14:39 07.04.2020
5255 Clouds 26 1012 88 7000 4.6 150 14:21 07.04.2020
5256 Clouds 24 1011 88 7000 2.1 360 13:56 07.04.2020
5257 Clouds 24 1011 88 7000 2.1 360 13:37 07.04.2020
5258 Clouds 24 1011 88 7000 2.1 360 13:18 07.04.2020
5259 Clouds 23 1011 94 7000 1 360 12:54 07.04.2020
5260 Clouds 23 1011 94 7000 1 360 12:36 07.04.2020
5261 Clouds 22 1011 94 6000 1.5 100 12:18 07.04.2020
5262 Clouds 22 1011 94 6000 1.5 100 11:42 07.04.2020
5263 Clouds 22 1011 94 6000 1.5 100 11:22 07.04.2020
5264 Clouds 23 1010 94 10000 1.5 120 10:57 07.04.2020
5265 Clouds 23 1010 94 10000 1.5 120 10:37 07.04.2020
5266 Clouds 23 1010 94 10000 1 100 10:18 07.04.2020
5267 Clouds 23 1010 94 10000 1 100 09:44 07.04.2020
5268 Clouds 23 1010 94 10000 1 100 09:18 07.04.2020
5269 Clouds 23 1010 94 10000 1.48 357 08:43 07.04.2020
5270 Clouds 23 1010 94 10000 1.48 357 08:25 07.04.2020
5271 Clouds 23 1010 94 10000 1 100 07:59 07.04.2020
5272 Clouds 23 1010 94 10000 1 100 07:40 07.04.2020
5273 Clouds 24 1011 83 10000 1 70 07:21 07.04.2020
5274 Clouds 24 1011 83 10000 1 70 06:51 07.04.2020
5275 Clouds 24 1011 83 10000 1 70 06:21 07.04.2020
5276 Clouds 24 1011 88 10000 1.52 21 05:38 07.04.2020
5277 Clouds 24 1011 88 10000 1.52 21 04:46 07.04.2020
5278 Clouds 24 1011 88 10000 1 130 03:26 07.04.2020
5279 Clouds 25 1011 83 10000 1.5 130 02:54 07.04.2020
5280 Clear 25 1011 78 10000 1.5 180 01:50 07.04.2020
5281 Clear 25 1011 78 10000 1.5 180 01:26 07.04.2020
5282 Clear 25 1011 83 10000 4.1 180 00:29 07.04.2020
5283 Clear 25 1011 83 10000 4.1 180 00:29 07.04.2020
5284 Clear 26 1011 78 10000 5.7 190 23:56 06.04.2020
5285 Clear 27 1011 78 10000 5.7 190 23:36 06.04.2020
5286 Clear 27 1011 78 10000 5.7 190 23:18 06.04.2020
5287 Clear 28 1011 74 10000 4.6 170 22:40 06.04.2020
5288 Clear 28 1011 74 10000 4.6 170 22:21 06.04.2020
5289 Clouds 28 1011 69 10000 4.6 160 21:57 06.04.2020
5290 Clouds 28 1011 69 10000 4.6 160 21:39 06.04.2020
5291 Clouds 29 1011 69 10000 4.6 160 21:19 06.04.2020
5292 Clouds 29 1012 69 10000 4.6 170 20:55 06.04.2020
5293 Clouds 27 1012 69 10000 4.6 170 20:37 06.04.2020
5294 Clouds 27 1012 78 10000 6.2 160 20:18 06.04.2020
5295 Clouds 27 1012 78 10000 6.2 160 19:41 06.04.2020
5296 Clouds 27 1013 78 10000 5.7 160 19:23 06.04.2020
5297 Clouds 28 1013 78 10000 5.7 160 18:58 06.04.2020
5298 Clouds 29 1013 78 10000 5.7 160 18:39 06.04.2020
5299 Clouds 29 1014 74 10000 5.1 160 18:21 06.04.2020
5300 Clouds 28 1014 74 10000 5.1 160 17:42 06.04.2020
5301 Clouds 26 1014 73 10000 4.1 150 17:20 06.04.2020
5302 Clouds 26 1014 73 10000 4.1 150 16:50 06.04.2020
5303 Clouds 27 1014 73 10000 4.1 150 16:32 06.04.2020
5304 Clouds 27 1015 78 10000 2.1 130 16:00 06.04.2020
5305 Clouds 27 1015 78 10000 2.1 130 16:00 06.04.2020
5306 Clouds 25 1015 69 10000 0.5 60 14:38 06.04.2020
5307 Clouds 25 1015 69 10000 0.5 60 14:38 06.04.2020
5308 Clouds 25 1015 69 10000 0.5 60 14:38 06.04.2020
5309 Clouds 25 1015 69 10000 0.5 60 14:38 06.04.2020
5310 Clouds 25 1015 69 10000 0.5 60 14:38 06.04.2020
5311 Clouds 23 1016 78 10000 1.5 120 13:43 06.04.2020
5312 Clouds 23 1016 78 10000 1.5 120 13:43 06.04.2020
5313 Clouds 23 1016 78 10000 1.5 120 13:20 06.04.2020
5314 Clouds 23 1016 78 10000 1.5 120 13:20 06.04.2020
5315 Clouds 23 1016 78 10000 1.5 120 13:20 06.04.2020
5316 Clouds 23 1016 78 10000 2.05 52 12:25 06.04.2020
5317 Clouds 23 1016 78 10000 2.05 52 12:25 06.04.2020
5318 Clouds 23 1016 78 10000 2.05 52 12:25 06.04.2020
5319 Clouds 22 1015 83 10000 1.5 30 11:55 06.04.2020
5320 Clouds 22 1015 83 10000 1.5 30 11:55 06.04.2020
5321 Clouds 22 1015 83 10000 1.5 30 11:33 06.04.2020
5322 Clouds 22 1015 83 10000 1.5 30 11:33 06.04.2020
5323 Clouds 22 1015 83 10000 1.5 30 11:33 06.04.2020
5324 Clouds 22 1015 83 10000 1.5 30 11:33 06.04.2020
5325 Clouds 22 1015 83 10000 1.5 30 11:33 06.04.2020
5326 Clouds 22 1015 88 10000 1.5 90 10:52 06.04.2020
5327 Clouds 22 1015 88 10000 1.5 90 10:52 06.04.2020
5328 Clouds 22 1015 88 10000 1.5 90 10:52 06.04.2020
5329 Clouds 22 1015 88 10000 1.5 90 10:52 06.04.2020
5330 Clouds 22 1015 88 10000 1.5 90 10:52 06.04.2020
5331 Clouds 22 1015 88 10000 1.5 90 10:22 06.04.2020
5332 Clouds 22 1015 88 10000 2.1 80 09:50 06.04.2020
5333 Clouds 22 1015 88 10000 2.1 80 09:23 06.04.2020
5334 Clouds 23 1015 83 10000 2.1 120 08:55 06.04.2020
5335 Clouds 23 1015 83 10000 2.1 120 08:33 06.04.2020
5336 Clouds 23 1016 83 10000 2.6 80 07:53 06.04.2020
5337 Clouds 24 1016 78 10000 3.1 110 06:57 06.04.2020
5338 Clouds 24 1016 78 10000 3.1 110 06:25 06.04.2020
5339 Clouds 23 1017 83 10000 1 160 04:50 06.04.2020
5340 Clouds 23 1017 83 10000 1 160 04:50 06.04.2020
5341 Clouds 24 1017 78 10000 2.1 170 03:27 06.04.2020
5342 Clouds 24 1017 78 10000 3.1 160 02:48 06.04.2020
5343 Clouds 24 1016 73 10000 2.6 170 01:52 06.04.2020
5344 Clouds 24 1016 73 10000 2.6 170 01:51 06.04.2020
5345 Clouds 24 1016 73 10000 3.6 170 00:49 06.04.2020
5346 Clouds 24 1016 73 10000 3.6 170 00:25 06.04.2020
5347 Clouds 23 1015 73 10000 4.1 170 23:47 05.04.2020
5348 Clouds 24 1015 73 10000 4.1 170 23:29 05.04.2020
5349 Clouds 24 1015 73 10000 4.1 170 23:29 05.04.2020
5350 Clouds 24 1015 73 10000 4.1 170 23:29 05.04.2020
5351 Clouds 25 1015 69 10000 5.1 170 22:56 05.04.2020
5352 Clouds 25 1015 69 10000 5.1 170 22:38 05.04.2020
5353 Clouds 25 1015 69 10000 5.1 170 22:19 05.04.2020
5354 Clouds 26 1014 69 10000 5.1 170 21:57 05.04.2020
5355 Clouds 26 1014 69 10000 5.1 170 21:39 05.04.2020
5356 Clouds 25 1014 69 10000 5.1 170 21:21 05.04.2020
5357 Clouds 25 1014 69 10000 5.1 170 21:21 05.04.2020
5358 Clouds 25 1014 69 10000 5.1 170 21:21 05.04.2020
5359 Clouds 25 1014 69 10000 5.1 170 21:21 05.04.2020
5360 Clouds 25 1014 69 10000 5.1 170 21:21 05.04.2020
5361 Clouds 26 1014 69 10000 5.1 160 20:20 05.04.2020
5362 Clouds 26 1014 69 10000 5.1 160 20:20 05.04.2020
5363 Clouds 27 1014 65 10000 5.1 160 19:41 05.04.2020
5364 Clouds 27 1014 65 10000 5.1 160 19:22 05.04.2020
5365 Clouds 27 1015 65 10000 4.1 150 18:46 05.04.2020
5366 Clouds 27 1015 65 10000 4.1 150 18:46 05.04.2020
5367 Clouds 27 1015 65 10000 4.1 150 18:46 05.04.2020
5368 Clouds 25 1016 78 10000 4.1 140 17:58 05.04.2020
5369 Clouds 25 1016 78 10000 4.1 140 17:58 05.04.2020
5370 Clouds 25 1016 78 10000 4.1 140 17:39 05.04.2020
5371 Clouds 27 1016 78 10000 4.1 140 17:20 05.04.2020
5372 Clouds 26 1017 73 10000 3.6 140 16:45 05.04.2020
5373 Clouds 26 1017 73 10000 3.6 140 16:45 05.04.2020
5374 Clouds 26 1017 73 10000 3.6 140 16:45 05.04.2020
5375 Clouds 26 1017 73 10000 3.6 140 16:45 05.04.2020
5376 Clouds 26 1017 73 10000 3.6 140 16:45 05.04.2020
5377 Clouds 26 1017 73 10000 3.6 140 16:18 05.04.2020
5378 Clouds 26 1017 73 10000 2.6 130 15:44 05.04.2020
5379 Clouds 25 1017 73 10000 1.5 30 15:25 05.04.2020
5380 Clouds 25 1017 73 10000 1.5 30 15:25 05.04.2020
5381 Clouds 24 1016 78 10000 1.5 10 14:47 05.04.2020
5382 Clouds 24 1016 78 10000 1.5 10 14:47 05.04.2020
5383 Clouds 24 1016 78 10000 1.5 10 14:47 05.04.2020
5384 Clouds 24 1016 78 10000 1.5 10 14:47 05.04.2020
5385 Clouds 24 1016 78 10000 1.5 10 14:47 05.04.2020
5386 Clouds 22 1016 83 10000 1.5 340 13:45 05.04.2020
5387 Clouds 21 1015 83 10000 3.1 350 12:57 05.04.2020
5388 Clouds 21 1015 83 10000 2.6 360 11:58 05.04.2020
5389 Clouds 21 1015 83 10000 2.6 360 11:58 05.04.2020
5390 Clouds 21 1015 83 10000 2.6 360 11:58 05.04.2020
5391 Clouds 23 1015 83 10000 2.6 360 11:38 05.04.2020
5392 Clouds 23 1015 83 10000 2.6 360 11:19 05.04.2020
5393 Clouds 23 1015 78 10000 1.5 320 10:44 05.04.2020
5394 Clouds 23 1015 78 10000 1.5 320 10:44 05.04.2020
5395 Clouds 23 1015 78 10000 1.5 320 10:44 05.04.2020
5396 Clouds 23 1015 78 10000 1.5 320 10:44 05.04.2020
5397 Clouds 23 1015 78 10000 1.5 320 10:19 05.04.2020
5398 Clouds 23 1015 73 10000 1.5 330 09:52 05.04.2020
5399 Clouds 23 1015 73 10000 1.5 330 09:52 05.04.2020
5400 Clouds 23 1015 73 10000 1.5 330 09:52 05.04.2020
5401 Clouds 23 1015 73 10000 1.5 330 09:52 05.04.2020
5402 Clouds 23 1015 73 10000 1.5 330 09:52 05.04.2020
5403 Clouds 23 1015 73 10000 1.5 330 09:25 05.04.2020
5404 Clouds 23 1015 73 10000 1.5 330 09:25 05.04.2020
5405 Clouds 23 1015 73 10000 1.5 330 09:25 05.04.2020
5406 Clouds 23 1015 73 10000 1.5 330 09:25 05.04.2020
5407 Clouds 23 1015 73 10000 1.5 310 07:58 05.04.2020
5408 Clouds 23 1015 73 10000 2.6 320 04:56 05.04.2020
5409 Clouds 24 1015 69 10000 1.5 240 03:35 05.04.2020
5410 Clouds 23 1015 64 10000 2.1 200 02:53 05.04.2020
5411 Clouds 24 1014 69 10000 3.6 230 01:52 05.04.2020
5412 Clouds 24 1014 69 10000 3.6 230 01:33 05.04.2020
5413 Clouds 24 1013 69 10000 3.6 210 00:48 05.04.2020
5414 Clouds 24 1013 69 10000 3.6 210 00:22 05.04.2020
5415 Clouds 24 1012 65 10000 3.6 210 23:58 04.04.2020
5416 Clouds 24 1012 65 10000 3.6 210 23:58 04.04.2020
5417 Clouds 24 1012 65 10000 3.6 210 23:38 04.04.2020
5418 Clouds 25 1012 65 10000 3.6 210 23:20 04.04.2020
5419 Clouds 25 1012 65 10000 5.1 200 22:56 04.04.2020
5420 Clouds 25 1012 65 10000 5.1 200 22:38 04.04.2020
5421 Clouds 24 1012 65 10000 5.1 200 22:19 04.04.2020
5422 Clouds 25 1011 54 10000 6.2 200 21:56 04.04.2020
5423 Clouds 25 1011 54 10000 6.2 200 21:38 04.04.2020
5424 Clouds 25 1011 54 10000 6.2 200 21:18 04.04.2020
5425 Clouds 26 1011 51 10000 6.7 190 20:43 04.04.2020
5426 Clouds 27 1011 51 10000 6.7 190 20:23 04.04.2020
5427 Clouds 28 1011 51 10000 7.2 190 19:59 04.04.2020
5428 Clouds 28 1011 51 10000 7.2 190 19:59 04.04.2020
5429 Clouds 28 1011 51 10000 7.2 190 19:40 04.04.2020
5430 Clouds 28 1011 51 10000 7.2 190 19:20 04.04.2020
5431 Clouds 28 1011 51 10000 6.7 190 18:59 04.04.2020
5432 Clouds 28 1011 51 10000 6.7 190 18:59 04.04.2020
5433 Clouds 28 1011 51 10000 6.7 190 18:39 04.04.2020
5434 Clouds 28 1011 51 10000 6.7 190 18:39 04.04.2020
5435 Clouds 28 1011 51 10000 6.7 190 18:21 04.04.2020
5436 Clouds 28 1012 48 10000 4.6 220 17:58 04.04.2020
5437 Clouds 28 1012 48 10000 4.6 220 17:39 04.04.2020
5438 Clouds 28 1012 48 10000 4.6 220 17:19 04.04.2020
5439 Clouds 27 1012 51 10000 5.7 260 16:45 04.04.2020
5440 Clouds 27 1012 51 10000 5.7 260 16:27 04.04.2020
5441 Clouds 27 1012 61 10000 2.6 130 15:59 04.04.2020
5442 Clouds 26 1012 61 10000 2.6 130 15:39 04.04.2020
5443 Clouds 26 1012 61 10000 2.6 130 15:19 04.04.2020
5444 Clouds 25 1012 65 10000 4.6 340 14:55 04.04.2020
5445 Clouds 24 1012 65 10000 4.6 340 14:37 04.04.2020
5446 Clouds 24 1012 65 10000 4.6 340 14:18 04.04.2020
5447 Rain 24 1011 64 10000 4.1 330 13:42 04.04.2020
5448 Rain 24 1011 64 10000 4.1 330 13:22 04.04.2020
5449 Clouds 22 1011 69 10000 2.6 300 12:58 04.04.2020
5450 Clouds 21 1011 69 10000 2.6 300 12:40 04.04.2020
5451 Clouds 21 1011 69 10000 2.6 300 12:21 04.04.2020
5452 Clouds 21 1010 69 10000 3.1 290 11:42 04.04.2020
5453 Clouds 22 1010 69 10000 3.1 290 11:23 04.04.2020
5454 Clouds 21 1009 77 10000 2.6 260 10:59 04.04.2020
5455 Clouds 21 1009 77 10000 2.6 260 10:41 04.04.2020
5456 Clouds 21 1009 77 10000 2.6 260 10:23 04.04.2020
5457 Clouds 22 1009 73 10000 3.1 270 09:57 04.04.2020
5458 Clouds 22 1009 73 10000 3.1 270 09:39 04.04.2020
5459 Clouds 22 1009 73 10000 3.1 270 09:21 04.04.2020
5460 Clouds 23 1009 69 10000 3.6 270 08:45 04.04.2020
5461 Clouds 23 1009 69 10000 3.6 270 08:25 04.04.2020
5462 Clouds 23 1010 69 10000 3.6 290 07:59 04.04.2020
5463 Clouds 23 1010 69 10000 3.6 290 07:40 04.04.2020
5464 Clouds 23 1010 69 10000 3.6 290 07:21 04.04.2020
5465 Clouds 23 1010 69 10000 4.1 280 06:40 04.04.2020
5466 Clouds 23 1010 73 10000 2.6 290 05:54 04.04.2020
5467 Clouds 23 1010 73 10000 2.6 290 05:33 04.04.2020
5468 Clouds 25 1010 65 10000 2.1 240 04:40 04.04.2020
5469 Clouds 25 1010 65 10000 2.1 240 04:20 04.04.2020
5470 Clouds 25 1009 61 10000 3.1 220 03:45 04.04.2020
5471 Clouds 25 1009 61 10000 3.1 200 02:49 04.04.2020
5472 Clouds 25 1009 61 10000 3.1 200 02:30 04.04.2020
5473 Clouds 25 1008 54 10000 5.7 230 01:50 04.04.2020
5474 Clouds 25 1008 54 10000 5.7 230 01:22 04.04.2020
5475 Clouds 25 1007 65 10000 5.7 230 00:47 04.04.2020
5476 Clouds 26 1007 65 10000 5.7 230 00:26 04.04.2020
5477 Clouds 25 1006 74 10000 4.6 220 23:39 03.04.2020
5478 Clouds 25 1006 74 10000 4.6 220 23:20 03.04.2020
5479 Clouds 25 1005 74 10000 5.1 200 22:56 03.04.2020
5480 Clouds 25 1005 74 10000 5.1 200 22:37 03.04.2020
5481 Clouds 26 1005 74 10000 5.1 200 22:18 03.04.2020
5482 Rain 26 1004 74 8000 7.2 220 21:43 03.04.2020
5483 Rain 28 1003 61 10000 7.2 210 21:22 03.04.2020
5484 Clouds 28 1003 58 10000 7.7 210 20:56 03.04.2020
5485 Clouds 28 1003 58 10000 7.7 210 20:36 03.04.2020
5486 Clouds 27 1003 58 10000 7.7 210 20:36 03.04.2020
5487 Clouds 28 1003 58 10000 7.7 210 20:18 03.04.2020
5488 Clouds 29 1003 58 10000 6.2 170 19:56 03.04.2020
5489 Clouds 29 1003 58 10000 6.2 170 19:37 03.04.2020
5490 Clouds 29 1003 58 10000 6.2 170 19:19 03.04.2020
5491 Clouds 30 1003 58 10000 8.2 210 18:58 03.04.2020
5492 Clouds 30 1003 58 10000 8.2 210 18:40 03.04.2020
5493 Clouds 30 1003 58 10000 8.2 210 18:22 03.04.2020
5494 Clouds 31 1004 49 10000 8.7 190 17:43 03.04.2020
5495 Clouds 32 1004 49 10000 8.7 190 17:21 03.04.2020
5496 Clouds 32 1004 52 10000 3.6 240 16:58 03.04.2020
5497 Clouds 32 1004 52 10000 3.6 240 16:40 03.04.2020
5498 Clouds 32 1004 52 10000 3.6 240 16:21 03.04.2020
5499 Clouds 33 1005 46 10000 4.6 290 15:58 03.04.2020
5500 Clouds 33 1005 46 10000 4.6 290 15:38 03.04.2020
5501 Clear 33 1005 46 10000 4.6 290 15:19 03.04.2020
5502 Clear 26 1001 77 0 3.29 321 14:41 03.04.2020
5503 Clear 29 1004 55 10000 2.6 300 14:22 03.04.2020
5504 Clear 29 1004 55 10000 2.6 300 13:59 03.04.2020
5505 Clear 29 1004 55 10000 2.6 300 13:40 03.04.2020
5506 Clear 29 1004 55 10000 2.6 300 13:22 03.04.2020
5507 Clear 28 1004 58 10000 3.1 280 12:43 03.04.2020
5508 Clear 27 1004 58 10000 3.1 280 12:20 03.04.2020
5509 Clear 26 1003 62 10000 3.1 280 11:57 03.04.2020
5510 Clear 26 1003 62 10000 3.1 280 11:39 03.04.2020
5511 Clear 28 1003 62 10000 3.1 280 11:20 03.04.2020
5512 Clear 28 1004 65 10000 4.1 310 10:59 03.04.2020
5513 Clear 28 1004 65 10000 4.1 310 10:38 03.04.2020
5514 Clear 27 1004 65 10000 4.1 310 10:20 03.04.2020
5515 Clear 26 1003 78 10000 2.6 210 09:59 03.04.2020
5516 Clear 26 1003 78 10000 2.6 210 09:40 03.04.2020
5517 Clear 26 1003 78 10000 2.6 210 09:40 03.04.2020
5518 Clear 26 1003 78 10000 2.6 210 09:21 03.04.2020
5519 Clear 26 1003 78 10000 2.6 210 09:21 03.04.2020
5520 Clear 26 1003 78 10000 2.6 210 09:21 03.04.2020
5521 Clear 26 1004 88 10000 1.5 220 08:56 03.04.2020
5522 Clear 26 1004 88 10000 1.5 220 08:37 03.04.2020
5523 Clear 26 1004 88 10000 1.5 220 08:19 03.04.2020
5524 Clear 26 1005 88 10000 1 0 07:46 03.04.2020
5525 Clear 26 1005 88 10000 1 0 07:28 03.04.2020
5526 Clear 25 1006 88 10000 1 80 06:40 03.04.2020
5527 Clear 26 1006 88 10000 1 80 06:22 03.04.2020
5528 Clear 26 1007 88 10000 1 0 05:39 03.04.2020
5529 Clear 27 1007 83 10000 2.1 310 03:42 03.04.2020
5530 Clouds 27 1008 78 10000 2.6 320 02:55 03.04.2020
5531 Clear 28 1008 78 10000 2.6 320 02:18 03.04.2020
5532 Clear 28 1008 74 10000 0.5 310 01:20 03.04.2020
5533 Clear 28 1008 74 10000 0.5 310 01:20 03.04.2020
5534 Clear 27 1007 83 10000 1.5 140 00:34 03.04.2020
5535 Clear 28 1007 78 10000 2.6 170 23:58 02.04.2020
5536 Clear 27 1007 78 10000 2.6 170 23:39 02.04.2020
5537 Clear 29 1007 78 10000 2.6 170 23:21 02.04.2020
5538 Clear 29 1007 70 10000 3.6 170 22:57 02.04.2020
5539 Clear 29 1007 70 10000 3.6 170 22:37 02.04.2020
5540 Clear 28 1007 70 10000 3.6 170 22:18 02.04.2020
5541 Clear 28 1008 74 10000 4.6 180 21:38 02.04.2020
5542 Clouds 31 1008 74 10000 4.6 180 21:19 02.04.2020
5543 Clear 31 1008 70 10000 5.1 180 20:58 02.04.2020
5544 Clear 31 1008 70 10000 5.1 180 20:40 02.04.2020
5545 Clear 31 1008 70 10000 5.1 180 20:21 02.04.2020
5546 Clear 30 1009 74 10000 4.1 160 19:44 02.04.2020
5547 Clear 30 1009 74 10000 4.1 160 19:21 02.04.2020
5548 Clear 30 1009 74 10000 4.1 160 19:21 02.04.2020
5549 Clouds 31 1010 74 10000 2.6 130 18:58 02.04.2020
5550 Clouds 28 1010 74 10000 2.6 130 18:39 02.04.2020
5551 Clouds 30 1010 74 10000 2.6 130 18:20 02.04.2020
5552 Clouds 29 1011 78 10000 2.6 340 17:56 02.04.2020
5553 Clouds 29 1011 78 10000 2.6 340 17:38 02.04.2020
5554 Clouds 29 1011 78 10000 2.6 340 17:18 02.04.2020
5555 Clouds 29 1011 78 10000 2.6 340 17:18 02.04.2020
5556 Clouds 27 1013 74 10000 3.6 340 16:55 02.04.2020
5557 Clouds 27 1013 74 10000 3.6 340 16:36 02.04.2020
5558 Clouds 28 1013 74 10000 3.6 340 16:18 02.04.2020
5559 Clouds 28 1014 78 10000 3.1 340 15:44 02.04.2020
5560 Clouds 28 1014 78 10000 3.1 340 15:44 02.04.2020
5561 Clouds 28 1014 78 10000 3.1 340 15:44 02.04.2020
5562 Clouds 26 1014 78 10000 3.1 340 15:21 02.04.2020
5563 Clouds 26 1014 83 10000 1.5 350 14:58 02.04.2020
5564 Clouds 26 1014 83 10000 1.5 350 14:40 02.04.2020
5565 Clouds 26 1014 83 10000 1.5 350 14:19 02.04.2020
5566 Clouds 25 1014 78 10000 1.5 130 13:57 02.04.2020
5567 Clouds 24 1014 78 10000 1.5 130 13:38 02.04.2020
5568 Clouds 24 1014 78 10000 1.5 130 13:20 02.04.2020
5569 Clouds 23 1014 88 10000 1 60 12:55 02.04.2020
5570 Clouds 22 1014 88 10000 1 60 12:37 02.04.2020
5571 Clouds 23 1014 88 10000 1 60 12:19 02.04.2020
5572 Clouds 22 1014 88 10000 2.1 50 11:56 02.04.2020
5573 Clouds 23 1014 88 10000 2.1 50 11:37 02.04.2020
5574 Clouds 23 1014 88 10000 2.1 50 11:37 02.04.2020
5575 Clouds 23 1014 88 10000 2.1 50 11:18 02.04.2020
5576 Clouds 22 1014 88 10000 1.5 100 10:54 02.04.2020
5577 Clouds 22 1014 88 10000 1.5 100 10:36 02.04.2020
5578 Clouds 22 1014 88 10000 1.5 100 10:18 02.04.2020
5579 Clouds 22 1014 88 10000 1 110 09:43 02.04.2020
5580 Clouds 22 1014 88 10000 1 110 09:24 02.04.2020
5581 Clouds 22 1014 88 10000 1.5 90 08:58 02.04.2020
5582 Clouds 22 1014 88 10000 1.5 90 08:40 02.04.2020
5583 Clouds 22 1014 88 10000 1.5 90 08:22 02.04.2020
5584 Clouds 23 1015 88 10000 2.1 110 07:44 02.04.2020
5585 Clouds 23 1015 88 10000 2.1 110 07:20 02.04.2020
5586 Clouds 23 1015 88 10000 1.5 120 06:58 02.04.2020
5587 Clouds 23 1015 88 10000 1.5 120 06:21 02.04.2020
5588 Clouds 23 1016 88 10000 1 90 05:45 02.04.2020
5589 Clouds 24 1016 83 10000 3.1 80 04:33 02.04.2020
5590 Clouds 25 1015 83 10000 2.6 20 01:35 02.04.2020
5591 Clouds 25 1015 78 10000 2.1 60 00:48 02.04.2020
5592 Clouds 24 1015 78 10000 2.1 60 00:27 02.04.2020
5593 Clouds 25 1014 78 10000 4.6 110 23:55 01.04.2020
5594 Clouds 25 1014 78 10000 4.6 110 23:37 01.04.2020
5595 Clouds 27 1014 78 10000 4.6 110 23:18 01.04.2020
5596 Clouds 27 1014 78 10000 4.6 110 23:18 01.04.2020
5597 Clouds 27 1014 74 10000 3.6 170 22:40 01.04.2020
5598 Clouds 27 1014 74 10000 3.6 170 22:22 01.04.2020
5599 Clouds 26 1014 78 10000 5.7 180 21:57 01.04.2020
5600 Clouds 25 1014 78 10000 5.7 180 21:38 01.04.2020
5601 Clouds 26 1014 78 10000 5.7 180 21:18 01.04.2020
5602 Clouds 28 1014 69 10000 5.1 160 20:55 01.04.2020
5603 Clouds 27 1014 69 10000 5.1 160 20:37 01.04.2020
5604 Clouds 27 1014 69 10000 5.1 160 20:18 01.04.2020
5605 Clouds 26 1014 78 10000 6.2 170 19:43 01.04.2020
5606 Clouds 28 1014 78 10000 6.2 170 19:22 01.04.2020
5607 Clouds 28 1014 74 10000 5.1 160 18:59 01.04.2020
5608 Clouds 28 1014 74 10000 5.1 160 18:40 01.04.2020
5609 Clouds 28 1014 74 10000 5.1 160 18:21 01.04.2020
5610 Clouds 28 1015 78 10000 5.7 160 17:55 01.04.2020
5611 Clouds 26 1015 78 10000 5.7 160 17:36 01.04.2020
5612 Clouds 26 1015 78 10000 5.7 160 17:18 01.04.2020
5613 Clouds 26 1015 78 10000 5.7 160 17:18 01.04.2020
5614 Clouds 25 1015 74 10000 3.6 160 16:42 01.04.2020
5615 Clouds 25 1015 74 10000 3.6 160 16:24 01.04.2020
5616 Clouds 25 1016 78 10000 2.6 170 15:59 01.04.2020
5617 Clouds 25 1016 78 10000 2.6 170 15:41 01.04.2020
5618 Clouds 27 1016 78 10000 2.6 170 15:22 01.04.2020
5619 Clouds 26 1016 83 10000 1 0 14:58 01.04.2020
5620 Clouds 26 1016 83 10000 1 0 14:39 01.04.2020
5621 Clouds 26 1016 83 10000 1 0 14:20 01.04.2020
5622 Clouds 26 1015 83 10000 1.5 90 13:58 01.04.2020
5623 Clouds 26 1015 83 10000 1.5 90 13:38 01.04.2020
5624 Clouds 26 1015 83 10000 1.5 90 13:38 01.04.2020
5625 Clouds 26 1015 83 10000 1.5 90 13:19 01.04.2020
5626 Clouds 23 1015 88 10000 1 160 12:56 01.04.2020
5627 Clouds 23 1015 88 10000 1 160 12:37 01.04.2020
5628 Clouds 23 1015 88 10000 1 160 12:18 01.04.2020
5629 Clouds 23 1014 88 10000 0.5 0 11:54 01.04.2020
5630 Clouds 24 1014 88 10000 0.5 0 11:36 01.04.2020
5631 Clouds 24 1014 88 10000 0.5 0 11:18 01.04.2020
5632 Clouds 24 1014 88 10000 1.5 100 10:38 01.04.2020
5633 Clouds 24 1014 88 10000 1.5 100 10:20 01.04.2020
5634 Clouds 24 1013 88 10000 2.1 130 09:57 01.04.2020
5635 Clouds 24 1013 88 10000 2.1 130 09:39 01.04.2020
5636 Clouds 24 1013 88 10000 2.1 130 09:19 01.04.2020
5637 Clouds 23 1013 94 10000 2.1 100 08:43 01.04.2020
5638 Clouds 23 1013 94 10000 2.1 100 08:18 01.04.2020
5639 Clouds 24 1014 88 10000 3.6 110 07:48 01.04.2020
5640 Clouds 24 1014 88 10000 3.6 110 07:23 01.04.2020
5641 Clouds 24 1014 88 10000 3.6 120 06:59 01.04.2020
5642 Clouds 24 1014 88 10000 3.6 120 06:38 01.04.2020
5643 Clouds 24 1014 88 10000 1 200 06:20 01.04.2020
5644 Clouds 25 1014 83 10000 1 170 04:55 01.04.2020
5645 Clouds 25 1014 83 10000 2.1 150 03:36 01.04.2020
5646 Clouds 25 1014 83 10000 3.6 180 02:59 01.04.2020
5647 Clouds 25 1014 83 10000 3.6 180 02:31 01.04.2020
5648 Clouds 25 1014 83 10000 2.1 150 01:46 01.04.2020
5649 Clouds 25 1014 83 10000 2.1 150 01:24 01.04.2020
5650 Clouds 25 1013 83 10000 4.6 170 00:47 01.04.2020
5651 Clouds 25 1013 83 10000 4.6 170 00:21 01.04.2020
5652 Clouds 25 1013 83 10000 5.1 170 23:54 31.03.2020
5653 Clouds 25 1013 83 10000 5.1 170 23:36 31.03.2020
5654 Clouds 25 1012 83 10000 6.2 170 23:18 31.03.2020
5655 Clouds 25 1012 83 10000 6.2 170 22:40 31.03.2020
5656 Clouds 25 1012 83 10000 6.2 170 22:40 31.03.2020
5657 Clouds 26 1012 83 10000 6.2 170 22:20 31.03.2020
5658 Clouds 26 1012 83 10000 6.2 170 21:58 31.03.2020
5659 Clouds 26 1012 83 10000 5.7 160 21:39 31.03.2020
5660 Clouds 27 1012 83 10000 5.7 160 21:21 31.03.2020
5661 Clouds 28 1012 83 10000 6.2 170 20:57 31.03.2020
5662 Clouds 28 1012 83 10000 6.2 170 20:37 31.03.2020
5663 Clouds 28 1012 83 10000 6.2 170 20:18 31.03.2020
5664 Clouds 28 1012 83 10000 5.1 170 19:55 31.03.2020
5665 Clouds 28 1012 83 10000 5.1 170 19:37 31.03.2020
5666 Clouds 26 1013 78 10000 5.7 160 19:18 31.03.2020
5667 Clouds 26 1013 78 10000 5.7 160 18:43 31.03.2020
5668 Clouds 26 1013 83 10000 5.1 160 18:20 31.03.2020
5669 Clouds 27 1013 83 10000 5.1 160 17:57 31.03.2020
5670 Clouds 26 1013 83 10000 5.1 160 17:39 31.03.2020
5671 Clouds 27 1013 83 10000 5.1 160 17:21 31.03.2020
5672 Clouds 28 1014 78 10000 4.6 160 16:56 31.03.2020
5673 Clouds 27 1014 78 10000 4.6 160 16:36 31.03.2020
5674 Clouds 28 1014 78 10000 4.6 160 16:18 31.03.2020
5675 Clouds 27 1014 83 10000 3.1 150 15:54 31.03.2020
5676 Clouds 26 1014 83 10000 3.1 150 15:36 31.03.2020
5677 Clouds 26 1014 83 10000 3.1 150 15:18 31.03.2020
5678 Clouds 25 1015 83 10000 1.5 130 14:42 31.03.2020
5679 Clouds 26 1015 83 10000 1.5 130 14:22 31.03.2020
5680 Clouds 25 1014 88 10000 1.5 40 13:58 31.03.2020
5681 Clouds 25 1014 88 10000 1.5 40 13:40 31.03.2020
5682 Clouds 24 1014 88 10000 1.5 40 13:19 31.03.2020
5683 Clouds 23 1014 94 10000 0.5 50 12:46 31.03.2020
5684 Clouds 23 1014 94 10000 0.5 50 12:20 31.03.2020
5685 Clouds 24 1013 94 10000 1.49 1 11:58 31.03.2020
5686 Clouds 24 1013 94 10000 1.49 1 11:38 31.03.2020
5687 Clouds 24 1013 94 10000 1.49 1 11:19 31.03.2020
5688 Clouds 23 1013 94 10000 0.5 170 10:55 31.03.2020
5689 Clouds 23 1013 94 10000 0.5 170 10:37 31.03.2020
5690 Clouds 23 1013 94 10000 0.5 170 10:19 31.03.2020
5691 Clouds 24 1013 94 10000 2.1 130 09:44 31.03.2020
5692 Clouds 24 1013 94 10000 2.1 130 09:25 31.03.2020
5693 Clouds 24 1013 94 10000 1 160 08:59 31.03.2020
5694 Clouds 24 1013 94 10000 1 160 08:41 31.03.2020
5695 Clouds 24 1013 94 10000 1 160 08:21 31.03.2020
5696 Clouds 24 1014 94 10000 1 170 07:59 31.03.2020
5697 Clouds 24 1014 94 10000 1 170 07:41 31.03.2020
5698 Clouds 24 1014 94 10000 1 170 07:22 31.03.2020
5699 Clouds 25 1014 88 10000 1.5 210 06:55 31.03.2020
5700 Clouds 25 1014 88 10000 1.5 210 06:36 31.03.2020
5701 Clouds 24 1015 94 10000 2.1 180 05:42 31.03.2020
5702 Clouds 24 1015 94 10000 2.1 180 05:20 31.03.2020
5703 Clouds 25 1016 88 10000 2.1 160 02:53 31.03.2020
5704 Clouds 25 1015 88 10000 2.1 160 01:47 31.03.2020
5705 Clouds 25 1015 88 10000 2.1 160 01:19 31.03.2020
5706 Clouds 25 1014 88 10000 4.1 170 00:43 31.03.2020
5707 Clouds 25 1014 88 10000 4.1 170 00:20 31.03.2020
5708 Clouds 25 1014 83 10000 4.6 180 23:40 30.03.2020
5709 Clouds 25 1014 83 10000 4.6 180 23:20 30.03.2020
5710 Clouds 26 1013 78 10000 5.7 170 22:57 30.03.2020
5711 Clouds 26 1013 78 10000 5.7 170 22:38 30.03.2020
5712 Clouds 26 1013 78 10000 5.7 170 22:38 30.03.2020
5713 Clouds 26 1013 78 10000 5.7 170 22:19 30.03.2020
5714 Clouds 26 1014 83 10000 5.7 170 21:57 30.03.2020
5715 Clouds 26 1014 83 10000 5.7 170 21:38 30.03.2020
5716 Clouds 25 1014 83 10000 5.7 170 21:20 30.03.2020
5717 Clouds 26 1013 78 10000 5.7 160 20:58 30.03.2020
5718 Clouds 26 1013 78 10000 5.7 160 20:38 30.03.2020
5719 Clouds 27 1013 78 10000 5.7 160 20:19 30.03.2020
5720 Clouds 27 1014 83 10000 4.6 140 19:56 30.03.2020
5721 Clouds 27 1014 83 10000 4.6 140 19:37 30.03.2020
5722 Clouds 27 1014 83 10000 4.6 140 19:19 30.03.2020
5723 Clouds 27 1014 83 8000 3.1 150 18:42 30.03.2020
5724 Clouds 27 1014 83 8000 3.1 150 18:24 30.03.2020
5725 Clouds 27 1015 83 7000 2.1 130 17:58 30.03.2020
5726 Clouds 26 1015 83 7000 2.1 130 17:39 30.03.2020
5727 Clouds 26 1015 83 7000 2.1 130 17:19 30.03.2020
5728 Clouds 26 1016 88 6000 1 40 16:57 30.03.2020
5729 Clouds 26 1016 88 6000 1 40 16:39 30.03.2020
5730 Clouds 26 1016 88 6000 1 40 16:20 30.03.2020
5731 Clouds 26 1016 88 6000 1 40 16:20 30.03.2020
5732 Clouds 26 1016 88 6000 1.5 30 15:55 30.03.2020
5733 Clouds 26 1016 88 6000 1.5 30 15:37 30.03.2020
5734 Clouds 26 1016 88 6000 1.5 30 15:19 30.03.2020
5735 Clouds 26 1016 88 6000 1.5 30 15:19 30.03.2020
5736 Mist 26 1016 88 5000 2.1 10 14:55 30.03.2020
5737 Mist 25 1016 88 5000 2.1 10 14:37 30.03.2020
5738 Mist 24 1016 88 5000 2.1 10 14:18 30.03.2020
5739 Mist 23 1015 94 5000 1 60 13:55 30.03.2020
5740 Mist 23 1015 94 5000 1 60 13:37 30.03.2020
5741 Mist 23 1015 94 5000 1 60 13:18 30.03.2020
5742 Clouds 23 1015 94 6000 2.6 300 12:43 30.03.2020
5743 Clouds 23 1015 94 6000 2.6 300 12:20 30.03.2020
5744 Clouds 22 1014 94 10000 1.5 360 11:57 30.03.2020
5745 Clouds 23 1014 94 10000 1.5 360 11:39 30.03.2020
5746 Clouds 24 1014 94 10000 1.5 360 11:21 30.03.2020
5747 Clouds 23 1014 94 10000 2.1 70 10:41 30.03.2020
5748 Clouds 23 1014 94 10000 2.1 70 10:23 30.03.2020
5749 Clouds 24 1015 94 10000 2.1 40 09:59 30.03.2020
5750 Clouds 24 1015 94 10000 2.1 40 09:40 30.03.2020
5751 Clouds 23 1015 94 10000 2.1 40 09:19 30.03.2020
5752 Rain 23 1015 88 10000 2.6 360 08:44 30.03.2020
5753 Rain 23 1015 88 10000 2.6 360 08:23 30.03.2020
5754 Rain 24 1016 88 10000 2.1 350 07:55 30.03.2020
5755 Rain 24 1016 88 10000 2.1 350 07:37 30.03.2020
5756 Rain 25 1017 83 10000 1.5 320 06:59 30.03.2020
5757 Rain 25 1017 83 10000 1.5 320 06:37 30.03.2020
5758 Rain 24 1017 83 10000 1.5 320 06:18 30.03.2020
5759 Rain 25 1017 83 10000 0.5 110 05:38 30.03.2020
5760 Rain 25 1017 83 10000 1 140 04:27 30.03.2020
5761 Rain 25 1017 83 10000 1.5 190 03:50 30.03.2020
5762 Rain 25 1017 83 9000 3.1 190 02:44 30.03.2020
5763 Rain 25 1016 83 9000 4.1 200 01:54 30.03.2020
5764 Clouds 26 1016 78 10000 5.7 190 00:56 30.03.2020
5765 Clouds 26 1016 78 10000 5.7 190 00:25 30.03.2020
5766 Clouds 26 1016 78 10000 5.7 190 00:25 30.03.2020
5767 Clouds 26 1015 74 10000 4.1 180 23:55 29.03.2020
5768 Clouds 25 1015 74 10000 4.1 180 23:36 29.03.2020
5769 Clouds 27 1015 74 10000 4.1 180 23:18 29.03.2020
5770 Clouds 28 1014 69 10000 6.2 180 22:40 29.03.2020
5771 Clouds 28 1014 69 10000 6.2 180 22:20 29.03.2020
5772 Clouds 28 1014 78 10000 6.7 170 21:59 29.03.2020
5773 Clouds 28 1014 78 10000 6.7 170 21:37 29.03.2020
5774 Clouds 28 1014 78 10000 6.7 170 21:19 29.03.2020
5775 Clouds 27 1015 78 10000 6.7 170 20:55 29.03.2020
5776 Clouds 27 1015 78 10000 6.7 170 20:37 29.03.2020
5777 Clouds 27 1015 78 10000 6.7 170 20:18 29.03.2020
5778 Clouds 27 1015 78 10000 6.7 170 20:18 29.03.2020
5779 Clouds 27 1015 78 10000 6.7 160 19:55 29.03.2020
5780 Clouds 28 1015 78 10000 6.7 160 19:37 29.03.2020
5781 Clouds 29 1016 78 10000 5.1 160 19:19 29.03.2020
5782 Clouds 29 1016 78 10000 5.1 160 18:55 29.03.2020
5783 Clouds 29 1016 78 10000 5.1 160 18:37 29.03.2020
5784 Clouds 28 1017 78 10000 6.2 160 18:18 29.03.2020
5785 Clouds 29 1017 78 10000 6.2 160 17:54 29.03.2020
5786 Clouds 27 1017 78 10000 6.2 160 17:36 29.03.2020
5787 Clouds 28 1017 78 10000 6.2 160 17:18 29.03.2020
5788 Clouds 28 1017 78 10000 5.1 150 16:55 29.03.2020
5789 Clouds 28 1017 78 10000 5.1 150 16:36 29.03.2020
5790 Clouds 28 1017 78 10000 5.1 150 16:36 29.03.2020
5791 Clouds 28 1017 78 10000 5.1 150 16:36 29.03.2020
5792 Clouds 28 1017 78 10000 5.1 150 16:18 29.03.2020
5793 Clouds 27 1017 78 10000 1.5 30 15:41 29.03.2020
5794 Clouds 27 1017 78 10000 1.5 30 15:22 29.03.2020
5795 Clouds 26 1018 78 10000 1 20 14:57 29.03.2020
5796 Clouds 26 1018 78 10000 1 20 14:39 29.03.2020
5797 Clouds 26 1018 78 10000 1 20 14:19 29.03.2020
5798 Clouds 25 1017 83 10000 1 350 13:56 29.03.2020
5799 Clouds 25 1017 83 10000 1 350 13:38 29.03.2020
5800 Clouds 24 1017 83 10000 1 350 13:19 29.03.2020
5801 Clouds 24 1017 83 10000 1 350 12:55 29.03.2020
5802 Clouds 22 1017 83 10000 1 10 12:37 29.03.2020
5803 Clouds 22 1017 83 10000 1 10 12:18 29.03.2020
5804 Clouds 23 1016 83 10000 1 200 11:40 29.03.2020
5805 Clouds 23 1016 83 10000 1 200 11:21 29.03.2020
5806 Clouds 23 1016 83 10000 1 50 10:59 29.03.2020
5807 Clouds 23 1016 83 10000 1 50 10:38 29.03.2020
5808 Clouds 23 1016 83 10000 1 50 10:18 29.03.2020
5809 Clouds 23 1016 83 10000 1 50 10:18 29.03.2020
5810 Clouds 23 1016 83 10000 1 190 09:41 29.03.2020
5811 Clouds 24 1016 83 10000 1 190 09:20 29.03.2020
5812 Clouds 24 1016 83 10000 1.5 160 08:54 29.03.2020
5813 Clouds 24 1016 83 10000 1.5 160 08:30 29.03.2020
5814 Clouds 24 1016 83 10000 2.6 180 07:59 29.03.2020
5815 Clouds 24 1016 83 10000 2.6 180 07:40 29.03.2020
5816 Clouds 24 1016 83 10000 2.6 180 07:20 29.03.2020
5817 Clouds 24 1016 83 10000 2.6 180 05:41 29.03.2020
5818 Clouds 25 1016 83 10000 2.6 170 03:58 29.03.2020
5819 Clouds 24 1016 83 10000 2.6 170 03:28 29.03.2020
5820 Clear 24 1016 83 10000 3.1 170 01:51 29.03.2020
5821 Clear 25 1016 83 10000 3.1 170 01:23 29.03.2020
5822 Clear 25 1016 78 10000 3.6 170 00:56 29.03.2020
5823 Clear 26 1016 78 10000 3.6 170 00:33 29.03.2020
5824 Clear 26 1015 78 10000 3.6 170 23:56 28.03.2020
5825 Clear 25 1015 78 10000 3.6 170 23:38 28.03.2020
5826 Clear 25 1015 78 10000 3.6 170 23:18 28.03.2020
5827 Clear 25 1015 74 10000 4.6 130 22:39 28.03.2020
5828 Clear 25 1015 74 10000 4.6 130 22:21 28.03.2020
5829 Clouds 26 1015 69 10000 3.6 150 21:55 28.03.2020
5830 Clouds 26 1015 69 10000 3.6 150 21:37 28.03.2020
5831 Clouds 28 1015 69 10000 3.6 150 21:18 28.03.2020
5832 Clouds 29 1015 74 10000 5.7 170 20:42 28.03.2020
5833 Clouds 28 1015 74 10000 5.7 170 20:23 28.03.2020
5834 Clouds 28 1015 74 10000 6.7 160 19:58 28.03.2020
5835 Clouds 28 1015 74 10000 6.7 160 19:39 28.03.2020
5836 Clouds 29 1015 74 10000 6.7 160 19:21 28.03.2020
5837 Clouds 29 1016 78 10000 6.7 180 18:59 28.03.2020
5838 Clouds 29 1016 78 10000 6.7 180 18:39 28.03.2020
5839 Clouds 29 1016 74 10000 5.7 160 18:20 28.03.2020
5840 Clouds 29 1016 74 10000 5.7 160 17:39 28.03.2020
5841 Clouds 29 1016 74 10000 5.7 160 17:21 28.03.2020
5842 Clouds 29 1017 74 10000 3.6 150 16:55 28.03.2020
5843 Clouds 27 1017 74 10000 3.6 150 16:37 28.03.2020
5844 Clouds 29 1017 74 10000 3.6 150 16:18 28.03.2020
5845 Clouds 28 1017 69 10000 3.6 140 15:39 28.03.2020
5846 Clouds 28 1017 69 10000 3.1 330 15:19 28.03.2020
5847 Clouds 27 1018 74 10000 1.5 320 14:56 28.03.2020
5848 Clouds 27 1018 74 10000 1.5 320 14:38 28.03.2020
5849 Clouds 27 1018 74 10000 1.5 320 14:20 28.03.2020
5850 Clouds 26 1018 78 10000 2.1 330 13:41 28.03.2020
5851 Clouds 26 1018 78 10000 2.1 330 13:22 28.03.2020
5852 Clear 23 1017 83 10000 1.5 30 12:40 28.03.2020
5853 Clear 23 1017 83 10000 1.5 30 12:22 28.03.2020
5854 Clear 23 1017 83 10000 1.5 30 12:22 28.03.2020
5855 Clear 22 1017 83 10000 1 30 11:43 28.03.2020
5856 Clouds 21 1016 83 10000 1.5 40 11:23 28.03.2020
5857 Clouds 21 1016 83 10000 1.5 40 10:58 28.03.2020
5858 Clouds 21 1016 83 10000 1.5 40 10:38 28.03.2020
5859 Clouds 23 1016 83 10000 1.5 40 10:18 28.03.2020
5860 Clear 23 1016 88 10000 2.6 330 09:43 28.03.2020
5861 Clear 22 1016 88 10000 2.6 330 09:23 28.03.2020
5862 Clear 22 1016 83 10000 1 20 08:55 28.03.2020
5863 Clear 23 1016 83 10000 1 20 08:37 28.03.2020
5864 Clouds 22 1016 83 10000 1 20 08:18 28.03.2020
5865 Clouds 22 1016 83 10000 1 200 07:42 28.03.2020
5866 Clouds 23 1016 78 10000 1 200 06:59 28.03.2020
5867 Clouds 23 1016 78 10000 1 200 06:35 28.03.2020
5868 Clouds 24 1016 73 10000 0.5 150 05:43 28.03.2020
5869 Clouds 24 1016 73 10000 0.5 150 05:21 28.03.2020
5870 Clouds 24 1016 73 10000 1.5 200 04:41 28.03.2020
5871 Clouds 24 1016 78 10000 1.5 180 03:42 28.03.2020
5872 Clouds 24 1016 78 10000 2.1 180 02:21 28.03.2020
5873 Clouds 24 1016 78 10000 2.1 160 01:30 28.03.2020
5874 Clouds 25 1015 83 10000 3.6 130 00:59 28.03.2020
5875 Clouds 24 1015 83 10000 3.6 130 00:36 28.03.2020
5876 Clouds 24 1014 73 10000 6.2 120 23:57 27.03.2020
5877 Clouds 24 1014 73 10000 6.2 120 23:39 27.03.2020
5878 Clouds 24 1014 73 10000 6.2 120 23:21 27.03.2020
5879 Clouds 24 1014 73 10000 5.1 130 22:56 27.03.2020
5880 Clouds 24 1014 73 10000 5.1 130 22:37 27.03.2020
5881 Clouds 24 1014 73 10000 5.1 130 22:37 27.03.2020
5882 Clouds 26 1014 73 10000 5.1 130 22:19 27.03.2020
5883 Clouds 27 1014 74 10000 6.2 170 21:44 27.03.2020
5884 Clouds 27 1014 74 10000 6.2 170 21:25 27.03.2020
5885 Clouds 27 1014 74 10000 7.2 170 20:59 27.03.2020
5886 Clouds 26 1014 74 10000 7.2 170 20:41 27.03.2020
5887 Clouds 27 1014 74 10000 7.2 170 20:20 27.03.2020
5888 Clouds 27 1014 78 10000 6.7 160 19:58 27.03.2020
5889 Clouds 28 1014 78 10000 6.7 160 19:40 27.03.2020
5890 Clouds 27 1014 78 10000 6.7 160 19:20 27.03.2020
5891 Clouds 28 1014 69 10000 6.2 160 18:44 27.03.2020
5892 Clouds 28 1014 69 10000 6.2 160 18:25 27.03.2020
5893 Clouds 28 1015 74 10000 5.1 160 17:59 27.03.2020
5894 Clouds 28 1015 74 10000 5.1 160 17:39 27.03.2020
5895 Clouds 26 1016 69 10000 3.6 150 17:20 27.03.2020
5896 Clouds 26 1016 69 10000 3.6 150 16:44 27.03.2020
5897 Clouds 28 1016 69 10000 3.6 150 16:25 27.03.2020
5898 Clouds 27 1016 69 10000 2.1 350 15:56 27.03.2020
5899 Clouds 26 1016 69 10000 2.1 350 15:38 27.03.2020
5900 Clouds 27 1016 69 10000 2.1 350 15:20 27.03.2020
5901 Clouds 25 1017 73 10000 2.1 340 14:45 27.03.2020
5902 Clouds 25 1017 73 10000 2.1 340 14:24 27.03.2020
5903 Clouds 25 1017 83 10000 2.1 350 13:56 27.03.2020
5904 Clouds 25 1017 83 10000 2.1 350 13:37 27.03.2020
5905 Clouds 25 1017 83 10000 2.1 350 13:18 27.03.2020
5906 Clouds 24 1017 83 10000 2.6 10 12:45 27.03.2020
5907 Clouds 23 1017 83 10000 2.6 10 12:20 27.03.2020
5908 Clouds 23 1016 88 10000 2.6 350 11:59 27.03.2020
5909 Clouds 23 1016 88 10000 2.6 350 11:59 27.03.2020
5910 Clouds 22 1016 88 10000 2.6 350 11:40 27.03.2020
5911 Clouds 21 1015 88 10000 1 40 11:22 27.03.2020
5912 Clouds 21 1015 88 10000 1 40 10:54 27.03.2020
5913 Clouds 21 1015 88 10000 1 40 10:36 27.03.2020
5914 Clouds 21 1015 88 10000 1 40 10:18 27.03.2020
5915 Clear 22 1015 83 10000 2.1 40 09:54 27.03.2020
5916 Clear 22 1015 83 10000 2.1 40 09:36 27.03.2020
5917 Clear 22 1015 83 10000 2.1 40 09:18 27.03.2020
5918 Clear 23 1015 83 10000 2.6 20 08:54 27.03.2020
5919 Clear 23 1015 83 10000 2.6 20 08:36 27.03.2020
5920 Rain 23 1015 83 10000 2.6 20 08:18 27.03.2020
5921 Rain 23 1015 83 10000 1 70 07:41 27.03.2020
5922 Rain 23 1015 83 10000 1 70 07:21 27.03.2020
5923 Rain 23 1016 83 10000 2.1 120 06:41 27.03.2020
5924 Rain 23 1016 83 10000 1 0 05:57 27.03.2020
5925 Rain 23 1016 78 10000 2.1 90 03:42 27.03.2020
5926 Clouds 24 1016 78 10000 3.1 110 02:19 27.03.2020
5927 Clouds 24 1016 78 10000 3.1 130 01:19 27.03.2020
5928 Clouds 24 1015 78 10000 2.6 140 00:43 27.03.2020
5929 Clouds 24 1015 78 10000 2.6 140 00:20 27.03.2020
5930 Clouds 24 1015 78 10000 4.6 140 23:42 26.03.2020
5931 Clouds 24 1015 78 10000 5.7 150 23:19 26.03.2020
5932 Clouds 24 1015 78 10000 5.7 150 22:57 26.03.2020
5933 Clouds 24 1015 78 10000 5.7 150 22:36 26.03.2020
5934 Clouds 24 1015 78 10000 5.7 150 22:18 26.03.2020
5935 Clouds 25 1014 73 10000 5.7 160 21:40 26.03.2020
5936 Clouds 25 1014 73 10000 5.7 160 21:22 26.03.2020
5937 Clouds 26 1014 69 10000 5.7 160 20:59 26.03.2020
5938 Clouds 26 1014 69 10000 5.7 160 20:39 26.03.2020
5939 Clouds 26 1014 69 10000 5.7 160 20:21 26.03.2020
5940 Clouds 27 1014 69 10000 5.7 170 19:58 26.03.2020
5941 Clouds 26 1014 69 10000 5.7 170 19:40 26.03.2020
5942 Clouds 27 1014 69 10000 5.7 170 19:21 26.03.2020
5943 Clouds 27 1015 73 10000 6.2 160 18:58 26.03.2020
5944 Clouds 27 1015 73 10000 6.2 160 18:40 26.03.2020
5945 Clouds 27 1015 73 10000 6.2 160 18:22 26.03.2020
5946 Clouds 27 1015 65 10000 5.7 160 17:45 26.03.2020
5947 Clouds 27 1016 65 10000 4.1 140 17:20 26.03.2020
5948 Clouds 27 1016 65 10000 4.1 140 16:57 26.03.2020
5949 Clouds 27 1016 65 10000 4.1 140 16:57 26.03.2020
5950 Clouds 26 1016 65 10000 4.1 140 16:38 26.03.2020
5951 Clouds 26 1016 65 10000 4.1 140 16:19 26.03.2020
5952 Clouds 26 1017 69 10000 1.5 130 15:56 26.03.2020
5953 Clouds 26 1017 69 10000 1.5 130 15:38 26.03.2020
5954 Clouds 26 1017 69 10000 1.5 130 15:18 26.03.2020
5955 Clouds 25 1017 83 10000 1.5 30 14:43 26.03.2020
5956 Clouds 25 1017 83 10000 1.5 30 14:24 26.03.2020
5957 Clouds 24 1017 83 7000 3.1 360 13:56 26.03.2020
5958 Clouds 24 1017 83 7000 3.1 360 13:56 26.03.2020
5959 Clouds 24 1017 83 7000 3.1 360 13:38 26.03.2020
5960 Clouds 23 1017 83 7000 3.1 360 13:19 26.03.2020
5961 Mist 22 1016 88 5000 3.1 30 12:39 26.03.2020
5962 Mist 22 1016 88 5000 2.6 10 12:20 26.03.2020
5963 Mist 22 1016 88 5000 2.6 10 11:55 26.03.2020
5964 Mist 22 1016 88 5000 2.6 10 11:36 26.03.2020
5965 Clouds 21 1016 94 10000 2.6 50 11:18 26.03.2020
5966 Clouds 21 1016 94 10000 2.6 50 10:42 26.03.2020
5967 Clouds 21 1015 94 10000 2.6 340 10:20 26.03.2020
5968 Clear 21 1015 88 10000 2.1 350 09:45 26.03.2020
5969 Clear 21 1015 88 10000 2.1 350 09:24 26.03.2020
5970 Clear 21 1015 88 10000 2.1 30 08:58 26.03.2020
5971 Clear 21 1015 88 10000 2.1 30 08:40 26.03.2020
5972 Rain 21 1015 88 10000 2.1 30 08:22 26.03.2020
5973 Rain 22 1015 88 10000 1.5 40 07:56 26.03.2020
5974 Rain 22 1015 88 10000 1.5 40 07:38 26.03.2020
5975 Rain 22 1015 88 10000 1.5 40 07:19 26.03.2020
5976 Clouds 22 1016 83 10000 2.05 332 06:33 26.03.2020
5977 Clouds 23 1016 78 10000 1 70 05:48 26.03.2020
5978 Rain 21 1017 83 0 1.4 10 03:46 26.03.2020
5979 Clouds 26 1017 49 10000 1.5 130 02:58 26.03.2020
5980 Clouds 23 1016 83 10000 2.6 170 01:51 26.03.2020
5981 Clouds 23 1016 83 10000 2.6 170 01:19 26.03.2020
5982 Clouds 23 1016 78 10000 3.6 170 00:32 26.03.2020
5983 Clouds 24 1015 73 10000 5.1 170 23:44 25.03.2020
5984 Clouds 24 1015 73 10000 5.1 170 23:26 25.03.2020
5985 Clouds 24 1015 73 10000 5.7 180 22:55 25.03.2020
5986 Clouds 24 1015 73 10000 5.7 180 22:37 25.03.2020
5987 Clouds 24 1015 73 10000 5.7 180 22:18 25.03.2020
5988 Clouds 25 1015 65 10000 5.7 160 21:43 25.03.2020
5989 Clouds 25 1015 65 10000 5.7 160 21:24 25.03.2020
5990 Clouds 26 1015 65 10000 5.7 160 20:59 25.03.2020
5991 Clouds 26 1015 65 10000 5.7 160 20:39 25.03.2020
5992 Clouds 26 1015 65 10000 5.7 160 20:19 25.03.2020
5993 Clouds 27 1015 61 10000 5.1 160 19:56 25.03.2020
5994 Clouds 26 1015 61 10000 5.1 160 19:38 25.03.2020
5995 Clouds 27 1015 61 10000 5.1 160 19:19 25.03.2020
5996 Clouds 27 1015 65 10000 6.2 160 18:43 25.03.2020
5997 Clouds 27 1015 65 10000 6.2 160 18:25 25.03.2020
5998 Clouds 27 1016 65 10000 4.1 150 17:59 25.03.2020
5999 Clouds 27 1016 65 10000 4.1 150 17:41 25.03.2020
6000 Clouds 27 1016 65 10000 4.1 150 17:22 25.03.2020
6001 Clouds 27 1016 65 10000 4.1 140 16:58 25.03.2020
6002 Clouds 27 1016 61 10000 2.1 10 16:39 25.03.2020
6003 Clouds 27 1016 61 10000 2.1 10 16:20 25.03.2020
6004 Clouds 25 1017 69 10000 2.6 360 15:43 25.03.2020
6005 Clouds 26 1017 69 10000 2.6 360 15:21 25.03.2020
6006 Clouds 25 1017 73 10000 2.6 10 14:59 25.03.2020
6007 Clouds 24 1017 73 10000 2.6 10 14:40 25.03.2020
6008 Clouds 25 1017 73 10000 2.6 10 14:20 25.03.2020
6009 Clouds 23 1017 88 10000 3.1 20 13:45 25.03.2020
6010 Clouds 23 1017 88 10000 3.1 20 13:24 25.03.2020
6011 Clouds 22 1017 83 10000 3.1 20 12:40 25.03.2020
6012 Clouds 22 1017 83 10000 3.1 20 12:21 25.03.2020
6013 Clouds 20 1016 83 10000 2.6 20 11:59 25.03.2020
6014 Clouds 20 1016 83 10000 2.6 20 11:41 25.03.2020
6015 Clouds 20 1016 83 10000 2.6 20 11:21 25.03.2020
6016 Clouds 20 1016 88 10000 2.1 10 10:59 25.03.2020
6017 Clouds 20 1016 88 10000 2.1 10 10:59 25.03.2020
6018 Clouds 20 1016 88 10000 2.1 10 10:40 25.03.2020
6019 Clouds 20 1016 88 10000 2.1 10 10:40 25.03.2020
6020 Clouds 20 1016 88 10000 2.1 10 10:19 25.03.2020
6021 Clouds 21 1016 88 10000 1.5 10 09:58 25.03.2020
6022 Clouds 21 1016 88 10000 1.5 10 09:39 25.03.2020
6023 Clouds 21 1016 88 10000 1.5 10 09:21 25.03.2020
6024 Clouds 21 1016 83 10000 1.5 40 08:43 25.03.2020
6025 Clouds 21 1016 83 10000 1.5 40 08:25 25.03.2020
6026 Clouds 22 1016 78 10000 2.1 10 07:58 25.03.2020
6027 Clouds 22 1016 78 10000 2.1 10 07:38 25.03.2020
6028 Clouds 22 1016 78 10000 2.1 10 07:18 25.03.2020
6029 Clouds 22 1017 83 10000 3.1 20 06:43 25.03.2020
6030 Clouds 22 1017 83 10000 3.1 20 06:25 25.03.2020
6031 Clouds 23 1017 73 10000 1.89 345 05:47 25.03.2020
6032 Clouds 22 1018 73 10000 1 0 04:46 25.03.2020
6033 Clouds 22 1018 78 10000 2.1 30 03:58 25.03.2020
6034 Clouds 23 1018 78 10000 2.1 30 03:34 25.03.2020
6035 Clouds 23 1018 73 10000 2.1 130 01:41 25.03.2020
6036 Clouds 23 1018 73 10000 2.1 130 01:41 25.03.2020
6037 Clouds 23 1018 73 10000 2.1 130 01:41 25.03.2020
6038 Clouds 23 1018 73 10000 2.1 160 00:58 25.03.2020
6039 Clouds 23 1018 73 10000 2.1 160 00:40 25.03.2020
6040 Clouds 23 1018 73 10000 2.1 160 00:18 25.03.2020
6041 Clouds 23 1017 73 10000 2.6 170 23:40 24.03.2020
6042 Clouds 23 1017 73 10000 2.6 170 23:21 24.03.2020
6043 Clouds 24 1016 69 10000 2.6 160 22:55 24.03.2020
6044 Clouds 24 1016 69 10000 2.6 160 22:37 24.03.2020
6045 Clouds 24 1016 69 10000 2.6 160 22:18 24.03.2020
6046 Clouds 25 1017 69 10000 4.1 140 21:54 24.03.2020
6047 Clouds 25 1017 69 10000 4.1 140 21:36 24.03.2020
6048 Clouds 25 1017 69 10000 4.1 140 21:18 24.03.2020
6049 Clouds 25 1017 65 10000 5.1 160 20:41 24.03.2020
6050 Clouds 26 1017 65 10000 5.1 160 20:23 24.03.2020
6051 Clouds 26 1017 69 10000 5.7 160 19:56 24.03.2020
6052 Clouds 25 1017 69 10000 5.7 160 19:38 24.03.2020
6053 Clouds 26 1017 69 10000 5.7 160 19:18 24.03.2020
6054 Clouds 26 1017 73 10000 5.7 150 18:55 24.03.2020
6055 Clouds 25 1017 73 10000 5.7 150 18:36 24.03.2020
6056 Clouds 26 1018 69 10000 4.6 160 18:18 24.03.2020
6057 Clouds 26 1018 69 10000 4.6 160 17:41 24.03.2020
6058 Clouds 26 1018 69 10000 4.6 160 17:22 24.03.2020
6059 Clouds 26 1018 69 10000 5.1 160 16:58 24.03.2020
6060 Clouds 24 1018 69 10000 5.1 160 16:39 24.03.2020
6061 Clouds 26 1018 69 10000 5.1 160 16:21 24.03.2020
6062 Clouds 26 1018 69 10000 5.1 160 16:20 24.03.2020
6063 Clouds 25 1019 73 10000 2.1 140 15:55 24.03.2020
6064 Clouds 25 1019 73 10000 2.1 140 15:37 24.03.2020
6065 Clouds 25 1019 73 10000 2.1 140 15:19 24.03.2020
6066 Clouds 25 1019 83 10000 1.5 90 14:42 24.03.2020
6067 Clouds 25 1019 83 10000 1.5 90 14:18 24.03.2020
6068 Clouds 23 1019 88 10000 2.6 10 13:42 24.03.2020
6069 Clouds 23 1019 88 10000 2.6 10 13:24 24.03.2020
6070 Clouds 23 1018 88 10000 2.6 360 12:55 24.03.2020
6071 Clouds 22 1018 88 10000 2.6 360 12:37 24.03.2020
6072 Clouds 21 1018 94 10000 1.5 10 12:18 24.03.2020
6073 Clouds 21 1018 94 10000 1.5 10 11:39 24.03.2020
6074 Clouds 21 1018 94 10000 1.5 10 11:19 24.03.2020
6075 Clouds 20 1018 88 10000 2.6 350 10:43 24.03.2020
6076 Clouds 20 1018 88 10000 2.6 350 10:20 24.03.2020
6077 Rain 20 1017 83 10000 2.1 360 09:59 24.03.2020
6078 Rain 20 1017 83 10000 2.1 360 09:40 24.03.2020
6079 Rain 20 1017 83 10000 2.1 360 09:22 24.03.2020
6080 Rain 21 1017 78 10000 1.5 30 08:39 24.03.2020
6081 Clear 21 1017 78 10000 1.5 30 08:20 24.03.2020
6082 Clear 21 1018 83 10000 1.5 20 07:48 24.03.2020
6083 Clear 21 1018 83 10000 1.5 20 07:24 24.03.2020
6084 Clouds 22 1018 78 10000 3 345 06:58 24.03.2020
6085 Clouds 22 1018 78 10000 3 345 06:31 24.03.2020
6086 Clouds 22 1019 78 10000 0.5 180 05:22 24.03.2020
6087 Clouds 23 1019 78 10000 1 150 04:27 24.03.2020
6088 Clouds 22 1020 88 10000 2.6 56 03:18 24.03.2020
6089 Clouds 22 1019 78 10000 3.6 170 01:49 24.03.2020
6090 Clouds 24 1019 73 10000 4.1 170 00:49 24.03.2020
6091 Clouds 23 1019 73 10000 4.1 170 00:26 24.03.2020
6092 Clouds 23 1019 73 10000 4.1 170 23:46 23.03.2020
6093 Clouds 23 1019 73 10000 4.1 170 23:26 23.03.2020
6094 Clouds 23 1018 73 10000 4.6 160 22:58 23.03.2020
6095 Clouds 22 1018 73 10000 4.6 160 22:39 23.03.2020
6096 Clouds 23 1018 73 10000 4.6 160 22:21 23.03.2020
6097 Clouds 24 1018 69 10000 5.7 160 21:44 23.03.2020
6098 Clouds 26 1018 69 10000 5.7 160 21:21 23.03.2020
6099 Clouds 27 1017 61 10000 5.7 160 20:59 23.03.2020
6100 Clouds 27 1017 61 10000 5.7 160 20:41 23.03.2020
6101 Clouds 27 1017 61 10000 5.7 160 20:23 23.03.2020
6102 Clouds 27 1018 65 10000 5.7 160 19:55 23.03.2020
6103 Clouds 27 1018 65 10000 5.7 160 19:37 23.03.2020
6104 Clouds 27 1018 65 10000 5.7 160 19:18 23.03.2020
6105 Clouds 28 1018 61 10000 4.6 170 18:43 23.03.2020
6106 Clouds 28 1018 61 10000 4.6 170 18:24 23.03.2020
6107 Clouds 27 1018 61 10000 5.1 170 17:58 23.03.2020
6108 Clouds 27 1018 61 10000 5.1 170 17:39 23.03.2020
6109 Clouds 25 1019 65 10000 3.6 140 17:19 23.03.2020
6110 Clouds 26 1019 65 10000 3.6 140 16:43 23.03.2020
6111 Clouds 26 1019 65 10000 3.6 140 16:25 23.03.2020
6112 Clouds 26 1019 65 10000 2.1 10 15:44 23.03.2020
6113 Clouds 26 1019 65 10000 2.1 10 15:21 23.03.2020
6114 Clouds 26 1020 78 10000 2.1 340 14:58 23.03.2020
6115 Clouds 26 1020 78 10000 2.1 340 14:37 23.03.2020
6116 Clouds 26 1020 78 10000 2.1 340 14:19 23.03.2020
6117 Clouds 25 1020 83 10000 2.6 360 13:55 23.03.2020
6118 Clouds 25 1020 83 10000 2.6 360 13:37 23.03.2020
6119 Clouds 25 1020 83 10000 2.6 360 13:19 23.03.2020
6120 Clouds 22 1019 83 10000 2.6 360 12:42 23.03.2020
6121 Clouds 22 1018 88 10000 2.1 20 12:22 23.03.2020
6122 Clouds 22 1019 83 10000 2.6 360 12:22 23.03.2020
6123 Clouds 22 1018 88 10000 2.1 20 11:55 23.03.2020
6124 Clouds 22 1018 88 10000 2.1 20 11:37 23.03.2020
6125 Clouds 19 1018 88 10000 1 40 11:18 23.03.2020
6126 Clouds 19 1018 88 10000 1 40 10:41 23.03.2020
6127 Clouds 20 1018 88 10000 1 40 10:23 23.03.2020
6128 Clouds 22 1017 88 10000 2.82 92 09:59 23.03.2020
6129 Clouds 22 1017 88 10000 2.82 92 09:41 23.03.2020
6130 Clouds 21 1017 88 10000 2.82 92 09:19 23.03.2020
6131 Clouds 22 1017 83 10000 0.5 0 08:38 23.03.2020
6132 Rain 22 1017 83 10000 0.5 0 08:20 23.03.2020
6133 Rain 22 1017 83 10000 1 20 07:52 23.03.2020
6134 Rain 22 1017 83 10000 1 20 07:33 23.03.2020
6135 Clouds 22 1018 88 10000 2.6 40 06:56 23.03.2020
6136 Clouds 22 1018 88 10000 2.6 40 06:34 23.03.2020
6137 Clouds 22 1018 88 10000 3.6 20 05:44 23.03.2020
6138 Clouds 22 1018 83 10000 1.5 180 03:54 23.03.2020
6139 Rain 22 1019 88 4500 2.1 20 02:59 23.03.2020
6140 Clouds 23 1018 78 10000 2.1 170 01:50 23.03.2020
6141 Clouds 23 1017 83 10000 5.1 130 00:50 23.03.2020
6142 Clouds 23 1017 83 10000 5.1 130 00:29 23.03.2020
6143 Clouds 24 1017 83 10000 7.7 130 23:44 22.03.2020
6144 Clouds 24 1017 83 10000 7.7 130 23:24 22.03.2020
6145 Clouds 24 1016 83 10000 5.1 160 22:42 22.03.2020
6146 Clouds 25 1016 83 10000 5.1 160 22:22 22.03.2020
6147 Clouds 25 1016 69 10000 5.1 170 21:55 22.03.2020
6148 Clouds 24 1016 69 10000 5.1 170 21:36 22.03.2020
6149 Clouds 26 1016 69 10000 5.1 170 21:18 22.03.2020
6150 Clouds 26 1015 78 10000 8.2 180 20:45 22.03.2020
6151 Clouds 26 1015 78 10000 8.2 180 20:24 22.03.2020
6152 Clouds 27 1015 65 10000 3.6 150 19:57 22.03.2020
6153 Clouds 26 1015 65 10000 3.6 150 19:39 22.03.2020
6154 Clouds 27 1015 65 10000 3.6 150 19:20 22.03.2020
6155 Clouds 27 1016 65 10000 4.1 160 18:58 22.03.2020
6156 Clouds 27 1016 65 10000 4.1 160 18:40 22.03.2020
6157 Clouds 27 1016 65 10000 4.1 160 18:21 22.03.2020
6158 Clouds 26 1016 74 10000 3.6 150 17:57 22.03.2020
6159 Clouds 26 1016 74 10000 3.6 150 17:38 22.03.2020
6160 Clouds 27 1016 74 10000 3.6 150 17:20 22.03.2020
6161 Clouds 27 1016 78 10000 3.6 150 16:57 22.03.2020
6162 Clouds 26 1016 78 10000 3.6 150 16:39 22.03.2020
6163 Clouds 26 1016 78 10000 3.6 150 16:21 22.03.2020
6164 Clouds 25 1017 83 10000 1 0 15:44 22.03.2020
6165 Clouds 25 1017 83 10000 1 0 15:26 22.03.2020
6166 Rain 25 1017 88 10000 1 0 14:46 22.03.2020
6167 Rain 25 1017 88 10000 1 0 14:19 22.03.2020
6168 Clouds 25 1016 83 10000 2.1 20 13:55 22.03.2020
6169 Clouds 25 1016 83 10000 2.1 20 13:36 22.03.2020
6170 Clouds 25 1016 83 10000 2.1 20 13:18 22.03.2020
6171 Clouds 23 1016 88 10000 2.6 360 12:43 22.03.2020
6172 Clouds 23 1016 88 10000 2.6 360 12:20 22.03.2020
6173 Clouds 22 1015 88 10000 3.1 20 11:55 22.03.2020
6174 Clouds 23 1015 88 10000 3.1 20 11:36 22.03.2020
6175 Clouds 22 1015 88 10000 3.1 20 11:18 22.03.2020
6176 Clouds 22 1014 94 10000 2.1 360 10:42 22.03.2020
6177 Clouds 22 1014 94 10000 2.1 360 10:23 22.03.2020
6178 Clouds 22 1014 94 8000 2.6 200 09:48 22.03.2020
6179 Clouds 22 1014 94 8000 2.6 200 09:29 22.03.2020
6180 Clouds 23 1013 88 10000 2.1 360 08:54 22.03.2020
6181 Clouds 22 1013 88 10000 2.1 360 08:36 22.03.2020
6182 Clouds 22 1013 88 10000 1.5 330 08:18 22.03.2020
6183 Clouds 22 1013 88 10000 1.5 330 07:41 22.03.2020
6184 Clouds 22 1013 88 10000 1.5 330 07:18 22.03.2020
6185 Clouds 22 1014 88 10000 2.1 290 05:54 22.03.2020
6186 Rain 22 1015 94 8000 2.6 360 04:39 22.03.2020
6187 Rain 22 1015 94 7000 3.6 320 02:43 22.03.2020
6188 Rain 22 1014 94 6000 4.1 330 01:19 22.03.2020
6189 Rain 23 1014 88 7000 4.1 340 00:34 22.03.2020
6190 Rain 23 1013 94 8000 2.6 330 23:57 21.03.2020
6191 Rain 23 1013 94 8000 2.6 330 23:38 21.03.2020
6192 Rain 22 1013 94 8000 2.6 330 23:18 21.03.2020
6193 Clouds 22 1012 88 10000 2.6 340 22:38 21.03.2020
6194 Clouds 23 1012 88 10000 2.6 340 22:20 21.03.2020
6195 Clouds 23 1012 88 10000 3.1 350 21:59 21.03.2020
6196 Rain 23 1011 83 10000 3.1 210 21:39 21.03.2020
6197 Rain 23 1011 83 10000 3.1 210 21:21 21.03.2020
6198 Rain 22 1011 88 7000 6.7 210 20:45 21.03.2020
6199 Rain 23 1011 88 7000 6.7 210 20:23 21.03.2020
6200 Rain 23 1011 88 3500 7.7 190 19:57 21.03.2020
6201 Rain 23 1011 88 3500 5.1 300 19:38 21.03.2020
6202 Rain 23 1011 88 7000 4.6 320 19:19 21.03.2020
6203 Clouds 25 1011 83 10000 1 0 18:54 21.03.2020
6204 Clouds 25 1011 83 10000 1 0 18:36 21.03.2020
6205 Rain 23 1011 83 9000 4.1 340 18:18 21.03.2020
6206 Clouds 24 1011 88 10000 2.1 360 17:42 21.03.2020
6207 Clouds 25 1011 88 10000 2.1 360 17:23 21.03.2020
6208 Mist 25 1011 88 5000 2.6 340 16:56 21.03.2020
6209 Mist 24 1011 88 5000 2.6 340 16:38 21.03.2020
6210 Mist 25 1011 88 5000 2.6 340 16:18 21.03.2020
6211 Mist 25 1011 88 5000 2.6 340 16:18 21.03.2020
6212 Mist 24 1012 94 5000 3.1 320 15:41 21.03.2020
6213 Mist 23 1012 94 5000 3.1 320 15:23 21.03.2020
6214 Rain 23 1012 88 5000 2.6 310 14:58 21.03.2020
6215 Rain 24 1012 88 5000 2.6 310 14:40 21.03.2020
6216 Rain 23 1012 88 5000 2.6 310 14:20 21.03.2020
6217 Rain 23 1012 88 2500 2.6 290 13:59 21.03.2020
6218 Rain 23 1012 88 2500 2.6 290 13:40 21.03.2020
6219 Rain 23 1011 88 5000 3.1 340 13:22 21.03.2020
6220 Clouds 24 1011 94 7000 2.1 320 12:59 21.03.2020
6221 Clouds 24 1011 94 7000 2.1 320 12:38 21.03.2020
6222 Clouds 24 1011 94 7000 2.1 320 12:19 21.03.2020
6223 Rain 23 1010 94 4000 3.1 320 11:56 21.03.2020
6224 Rain 23 1010 94 4000 3.1 320 11:38 21.03.2020
6225 Rain 22 1009 100 4000 2.1 350 11:19 21.03.2020
6226 Rain 22 1009 100 4000 2.1 350 10:57 21.03.2020
6227 Rain 22 1009 100 4000 2.1 350 10:38 21.03.2020
6228 Rain 22 1009 100 4000 2.1 350 10:19 21.03.2020
6229 Rain 22 1008 94 4000 2.1 160 09:56 21.03.2020
6230 Rain 22 1008 94 4000 2.1 160 09:37 21.03.2020
6231 Rain 22 1008 94 4000 2.1 160 09:19 21.03.2020
6232 Mist 23 1007 94 5000 2.1 100 08:44 21.03.2020
6233 Mist 23 1007 94 5000 2.1 100 08:24 21.03.2020
6234 Rain 24 1007 94 6000 1 310 07:47 21.03.2020
6235 Rain 23 1007 94 6000 1 310 07:28 21.03.2020
6236 Rain 23 1008 88 6000 2.6 280 06:48 21.03.2020
6237 Rain 23 1008 88 6000 2.6 280 06:28 21.03.2020
6238 Rain 25 1008 94 8000 3.1 320 05:48 21.03.2020
6239 Rain 23 1008 94 5000 2.6 320 04:47 21.03.2020
6240 Rain 23 1009 94 5000 2.6 330 03:26 21.03.2020
6241 Rain 24 1009 94 4500 2.6 330 02:34 21.03.2020
6242 Rain 24 1008 88 4500 3.6 300 01:38 21.03.2020
6243 Rain 24 1008 88 4500 3.6 300 01:18 21.03.2020
6244 Rain 26 1007 78 7000 2.6 160 00:38 21.03.2020
6245 Clouds 27 1007 78 10000 2.6 160 23:59 20.03.2020
6246 Clouds 27 1007 78 10000 2.6 160 23:40 20.03.2020
6247 Clouds 27 1007 78 10000 2.6 160 23:18 20.03.2020
6248 Clouds 27 1006 78 10000 4.6 180 22:42 20.03.2020
6249 Clouds 27 1006 78 10000 4.6 180 22:24 20.03.2020
6250 Clouds 27 1005 65 10000 5.1 180 21:57 20.03.2020
6251 Clouds 27 1005 65 10000 5.1 180 21:39 20.03.2020
6252 Clouds 28 1005 65 10000 5.1 180 21:18 20.03.2020
6253 Clouds 29 1005 62 10000 8.2 200 20:57 20.03.2020
6254 Clouds 29 1005 62 10000 8.2 200 20:39 20.03.2020
6255 Clouds 28 1005 62 10000 8.2 200 20:18 20.03.2020
6256 Clouds 28 1005 62 10000 8.7 200 19:46 20.03.2020
6257 Clouds 29 1005 62 10000 8.7 200 19:19 20.03.2020
6258 Clouds 29 1005 66 10000 6.7 200 18:56 20.03.2020
6259 Clouds 29 1005 66 10000 6.7 200 18:37 20.03.2020
6260 Clouds 30 1005 58 10000 6.7 200 18:19 20.03.2020
6261 Clouds 30 1006 70 10000 6.2 180 17:40 20.03.2020
6262 Clouds 29 1006 83 10000 3.6 130 17:22 20.03.2020
6263 Clouds 29 1006 83 10000 3.6 130 16:59 20.03.2020
6264 Clouds 29 1006 83 10000 3.6 130 16:41 20.03.2020
6265 Clouds 30 1006 83 10000 3.6 130 16:20 20.03.2020
6266 Clouds 30 1006 83 10000 3.6 130 16:20 20.03.2020
6267 Clouds 30 1006 78 10000 4.1 150 15:43 20.03.2020
6268 Clouds 30 1006 78 10000 4.1 150 15:22 20.03.2020
6269 Clouds 30 1006 70 10000 3.6 120 14:58 20.03.2020
6270 Clouds 29 1006 70 10000 3.6 120 14:40 20.03.2020
6271 Clouds 29 1006 70 10000 3.6 120 14:20 20.03.2020
6272 Clouds 29 1006 70 10000 4.1 350 13:48 20.03.2020
6273 Clouds 29 1006 70 10000 4.1 350 13:21 20.03.2020
6274 Clouds 27 1006 83 10000 3.1 20 12:57 20.03.2020
6275 Clouds 27 1006 83 10000 3.1 20 12:37 20.03.2020
6276 Clouds 26 1006 88 10000 3.6 360 12:18 20.03.2020
6277 Clouds 26 1006 88 10000 3.6 360 11:39 20.03.2020
6278 Clouds 25 1005 83 10000 3.6 330 11:20 20.03.2020
6279 Clouds 25 1005 83 10000 3.6 330 10:54 20.03.2020
6280 Clouds 27 1005 83 10000 3.6 330 10:36 20.03.2020
6281 Clouds 27 1005 83 10000 3.6 330 10:36 20.03.2020
6282 Clouds 27 1005 83 10000 3.6 330 10:18 20.03.2020
6283 Clouds 27 1005 83 10000 3.1 10 09:44 20.03.2020
6284 Clouds 26 1005 83 10000 3.1 10 09:20 20.03.2020
6285 Clouds 26 1005 88 10000 3.6 20 08:43 20.03.2020
6286 Clouds 27 1005 88 10000 3.6 20 08:23 20.03.2020
6287 Clouds 27 1005 88 10000 2.1 20 07:59 20.03.2020
6288 Clouds 27 1005 88 10000 2.1 20 07:38 20.03.2020
6289 Clouds 27 1005 88 10000 2.1 20 07:19 20.03.2020
6290 Clouds 27 1005 88 10000 3.1 20 06:42 20.03.2020
6291 Clouds 27 1005 88 10000 3.1 20 06:18 20.03.2020
6292 Clouds 27 1006 83 10000 1 130 04:36 20.03.2020
6293 Clouds 28 1007 74 10000 1 90 02:50 20.03.2020
6294 Clouds 27 1007 70 10000 1 270 01:50 20.03.2020
6295 Clouds 27 1006 74 10000 1.5 160 00:41 20.03.2020
6296 Clouds 28 1006 74 10000 1.5 160 23:59 19.03.2020
6297 Clouds 28 1006 66 10000 4.1 200 23:40 19.03.2020
6298 Clouds 28 1006 69 10000 5.1 180 23:22 19.03.2020
6299 Clouds 28 1006 69 10000 5.1 180 22:41 19.03.2020
6300 Clouds 28 1006 69 10000 5.1 180 22:22 19.03.2020
6301 Clouds 29 1005 69 10000 5.1 160 21:58 19.03.2020
6302 Clouds 29 1005 69 10000 5.1 160 21:38 19.03.2020
6303 Clouds 29 1005 69 10000 5.1 160 21:19 19.03.2020
6304 Clouds 29 1005 69 10000 5.1 160 21:19 19.03.2020
6305 Clouds 28 1005 69 10000 7.2 170 20:44 19.03.2020
6306 Clouds 28 1005 69 10000 7.2 170 20:25 19.03.2020
6307 Clouds 30 1006 70 10000 6.2 160 19:59 19.03.2020
6308 Clouds 30 1006 70 10000 6.2 160 19:39 19.03.2020
6309 Clouds 31 1006 70 10000 6.2 160 19:21 19.03.2020
6310 Clouds 31 1006 66 10000 3.1 30 18:58 19.03.2020
6311 Clouds 32 1006 66 10000 3.1 30 18:40 19.03.2020
6312 Clouds 33 1006 52 10000 3.1 20 18:22 19.03.2020
6313 Clouds 33 1007 66 10000 4.1 30 17:55 19.03.2020
6314 Clouds 33 1007 66 10000 4.1 30 17:37 19.03.2020
6315 Clear 30 1008 70 10000 3.1 10 17:18 19.03.2020
6316 Clear 31 1008 70 10000 3.1 10 16:42 19.03.2020
6317 Clear 32 1008 70 10000 3.1 10 16:21 19.03.2020
6318 Clear 32 1009 70 10000 3.1 10 15:44 19.03.2020
6319 Clear 32 1009 70 10000 3.1 10 15:25 19.03.2020
6320 Clear 30 1010 78 10000 2.6 360 14:54 19.03.2020
6321 Clear 30 1010 78 10000 2.6 360 14:36 19.03.2020
6322 Clouds 29 1010 78 10000 2.6 360 14:18 19.03.2020
6323 Clouds 28 1010 88 9000 3.1 10 13:39 19.03.2020
6324 Clouds 28 1010 88 9000 3.1 10 13:18 19.03.2020
6325 Clouds 25 1010 83 10000 3.1 10 12:42 19.03.2020
6326 Clouds 26 1010 83 10000 3.1 10 12:24 19.03.2020
6327 Clouds 26 1010 78 7000 1.5 90 11:59 19.03.2020
6328 Clouds 24 1010 88 10000 2.1 30 11:41 19.03.2020
6329 Clouds 22 1010 94 10000 2.6 360 11:22 19.03.2020
6330 Clouds 23 1010 94 10000 2.6 360 10:44 19.03.2020
6331 Clouds 23 1010 94 10000 2.6 360 10:22 19.03.2020
6332 Clouds 24 1009 83 10000 1 20 09:58 19.03.2020
6333 Clouds 24 1009 83 10000 1 20 09:40 19.03.2020
6334 Clouds 24 1009 83 10000 1 20 09:20 19.03.2020
6335 Clouds 24 1009 94 10000 1.5 80 08:47 19.03.2020
6336 Clouds 24 1009 94 10000 1.5 80 08:23 19.03.2020
6337 Clouds 24 1010 83 10000 1.59 1 07:48 19.03.2020
6338 Clouds 24 1010 83 10000 1.59 1 07:30 19.03.2020
6339 Clouds 24 1010 88 10000 1 90 06:55 19.03.2020
6340 Clouds 25 1011 88 10000 1.59 1 06:18 19.03.2020
6341 Clear 25 1012 88 10000 2.1 90 05:23 19.03.2020
6342 Clear 25 1012 88 10000 2.1 90 04:46 19.03.2020
6343 Clouds 25 1012 83 10000 0.5 110 03:44 19.03.2020
6344 Clouds 26 1013 88 10000 2.1 160 01:45 19.03.2020
6345 Clouds 26 1012 88 10000 2.6 160 00:39 19.03.2020
6346 Clouds 27 1013 83 9000 4.1 140 00:19 19.03.2020
6347 Clouds 26 1012 88 10000 4.6 170 23:42 18.03.2020
6348 Clouds 26 1012 88 10000 4.6 170 23:22 18.03.2020
6349 Clouds 27 1012 88 10000 5.1 170 22:43 18.03.2020
6350 Clouds 27 1012 88 10000 5.1 170 22:23 18.03.2020
6351 Clouds 28 1011 83 10000 5.1 170 21:55 18.03.2020
6352 Clouds 28 1011 83 10000 5.1 170 21:37 18.03.2020
6353 Clouds 28 1011 83 10000 5.1 170 21:19 18.03.2020
6354 Clouds 28 1011 83 10000 5.7 170 20:55 18.03.2020
6355 Clouds 28 1011 83 10000 5.7 170 20:37 18.03.2020
6356 Clouds 28 1011 83 10000 5.7 170 20:18 18.03.2020
6357 Clouds 29 1012 78 10000 5.7 160 19:40 18.03.2020
6358 Clouds 29 1012 78 10000 5.7 160 19:21 18.03.2020
6359 Clouds 29 1012 78 10000 5.7 160 19:21 18.03.2020
6360 Clouds 29 1012 78 10000 6.7 160 18:57 18.03.2020
6361 Clouds 29 1012 78 10000 6.7 160 18:38 18.03.2020
6362 Clouds 29 1012 66 10000 6.7 140 18:19 18.03.2020
6363 Clouds 29 1012 66 10000 6.7 140 18:19 18.03.2020
6364 Clouds 29 1012 66 10000 6.7 140 17:55 18.03.2020
6365 Clouds 28 1013 83 10000 5.7 160 17:37 18.03.2020
6366 Clouds 29 1014 78 10000 5.1 160 17:19 18.03.2020
6367 Clouds 28 1014 78 10000 5.1 160 16:42 18.03.2020
6368 Clouds 29 1014 78 10000 5.1 160 16:21 18.03.2020
6369 Clouds 29 1014 78 6000 1.5 110 15:58 18.03.2020
6370 Clouds 29 1014 78 6000 1.5 110 15:38 18.03.2020
6371 Clouds 29 1014 78 6000 1.5 110 15:20 18.03.2020
6372 Clouds 28 1015 83 6000 2.1 10 14:43 18.03.2020
6373 Clouds 27 1015 83 6000 2.1 10 14:21 18.03.2020
6374 Mist 27 1015 83 5000 2.1 10 13:42 18.03.2020
6375 Mist 27 1015 83 5000 2.1 10 13:19 18.03.2020
6376 Mist 26 1015 83 5000 2.1 10 12:55 18.03.2020
6377 Mist 24 1015 88 5000 2.1 40 12:37 18.03.2020
6378 Mist 23 1015 88 3000 1.5 30 12:19 18.03.2020
6379 Mist 23 1014 94 5000 2.1 70 11:39 18.03.2020
6380 Mist 22 1013 94 5000 2.6 30 11:19 18.03.2020
6381 Mist 22 1013 94 5000 2.6 30 10:58 18.03.2020
6382 Mist 23 1013 94 5000 2.6 30 10:38 18.03.2020
6383 Mist 23 1013 94 5000 2.6 30 10:19 18.03.2020
6384 Clouds 23 1013 88 10000 2.1 40 09:43 18.03.2020
6385 Clouds 23 1013 88 10000 2.1 40 09:25 18.03.2020
6386 Clear 23 1013 88 10000 2.1 20 08:56 18.03.2020
6387 Clear 23 1013 88 10000 2.1 20 08:38 18.03.2020
6388 Clear 23 1013 88 10000 2.1 20 08:20 18.03.2020
6389 Clear 24 1013 88 10000 2.1 360 07:44 18.03.2020
6390 Clear 24 1013 88 10000 2.1 360 07:26 18.03.2020
6391 Clear 24 1013 83 10000 1.5 360 06:44 18.03.2020
6392 Clear 24 1014 88 10000 1.57 305 06:22 18.03.2020
6393 Clear 24 1014 88 10000 2.6 30 05:35 18.03.2020
6394 Clear 24 1014 83 10000 2.1 360 04:25 18.03.2020
6395 Clouds 24 1015 78 10000 3.1 320 02:44 18.03.2020
6396 Clouds 25 1015 83 10000 2.1 320 01:48 18.03.2020
6397 Clouds 25 1015 83 10000 2.1 320 01:27 18.03.2020
6398 Rain 24 1014 88 10000 5.1 60 00:25 18.03.2020
6399 Rain 25 1014 88 5000 7.7 90 23:50 17.03.2020
6400 Clouds 26 1014 83 10000 4.1 90 23:28 17.03.2020
6401 Clouds 26 1013 78 10000 4.6 170 22:59 17.03.2020
6402 Clouds 26 1013 78 10000 4.6 170 22:40 17.03.2020
6403 Clouds 27 1013 78 10000 4.6 170 22:22 17.03.2020
6404 Clouds 27 1012 74 10000 5.7 180 21:40 17.03.2020
6405 Clouds 27 1012 74 10000 5.7 180 21:21 17.03.2020
6406 Clouds 27 1012 65 10000 6.7 190 20:41 17.03.2020
6407 Clouds 28 1012 65 10000 6.7 190 20:23 17.03.2020
6408 Clouds 28 1012 65 10000 5.7 170 19:59 17.03.2020
6409 Clouds 28 1012 65 10000 5.7 170 19:40 17.03.2020
6410 Clouds 27 1013 74 10000 6.7 180 19:18 17.03.2020
6411 Clouds 27 1013 74 10000 6.7 180 18:56 17.03.2020
6412 Clouds 27 1013 74 10000 6.7 180 18:37 17.03.2020
6413 Clouds 29 1013 74 10000 3.6 150 18:19 17.03.2020
6414 Clouds 29 1013 74 10000 3.6 150 17:41 17.03.2020
6415 Clouds 29 1013 74 10000 3.6 150 17:41 17.03.2020
6416 Clouds 29 1013 74 10000 3.6 150 17:22 17.03.2020
6417 Clouds 28 1013 78 10000 2.1 140 16:56 17.03.2020
6418 Clouds 27 1013 78 10000 2.1 140 16:38 17.03.2020
6419 Clouds 28 1013 78 10000 2.1 140 16:18 17.03.2020
6420 Clouds 28 1013 78 10000 2.1 120 15:43 17.03.2020
6421 Clouds 28 1014 74 10000 3.1 30 15:21 17.03.2020
6422 Clouds 27 1014 74 10000 2.1 340 14:44 17.03.2020
6423 Clouds 27 1014 74 10000 2.1 340 14:23 17.03.2020
6424 Clouds 26 1014 78 10000 2.1 30 13:56 17.03.2020
6425 Clouds 26 1014 78 10000 2.6 190 13:38 17.03.2020
6426 Clouds 26 1014 78 10000 2.6 190 13:20 17.03.2020
6427 Clouds 25 1014 83 10000 4.1 200 12:42 17.03.2020
6428 Clouds 25 1014 83 10000 4.1 200 12:22 17.03.2020
6429 Clouds 24 1013 83 10000 5.7 200 11:47 17.03.2020
6430 Clouds 25 1013 83 10000 5.7 200 11:29 17.03.2020
6431 Clouds 24 1012 74 10000 1 300 10:58 17.03.2020
6432 Clouds 24 1012 74 10000 1 300 10:39 17.03.2020
6433 Clouds 26 1012 74 10000 1 300 10:21 17.03.2020
6434 Clouds 26 1011 74 10000 2.1 320 09:59 17.03.2020
6435 Clouds 26 1011 74 10000 2.1 320 09:40 17.03.2020
6436 Clouds 26 1011 74 10000 2.1 320 09:19 17.03.2020
6437 Clouds 26 1011 78 10000 2.6 350 08:48 17.03.2020
6438 Clouds 26 1011 78 10000 2.6 350 08:23 17.03.2020
6439 Clouds 26 1011 83 10000 4.1 320 07:56 17.03.2020
6440 Clouds 26 1011 83 10000 4.1 320 07:38 17.03.2020
6441 Clouds 26 1011 83 10000 4.1 320 07:19 17.03.2020
6442 Rain 27 1011 88 9000 4.6 10 06:38 17.03.2020
6443 Clouds 26 1012 83 10000 2.1 310 05:58 17.03.2020
6444 Clouds 28 1012 83 10000 1 60 03:58 17.03.2020
6445 Clouds 28 1012 78 10000 0.5 250 02:54 17.03.2020
6446 Clouds 27 1012 69 10000 1 160 01:49 17.03.2020
6447 Clouds 27 1012 69 10000 1 160 01:25 17.03.2020
6448 Clouds 27 1012 78 10000 2.1 140 00:47 17.03.2020
6449 Clouds 28 1011 69 10000 4.6 140 23:50 16.03.2020
6450 Clouds 28 1011 69 10000 4.6 140 23:32 16.03.2020
6451 Clouds 28 1011 62 10000 4.1 180 22:43 16.03.2020
6452 Clouds 29 1011 62 10000 4.1 180 22:25 16.03.2020
6453 Clouds 29 1010 52 10000 7.2 190 21:59 16.03.2020
6454 Clouds 29 1010 52 10000 7.2 190 21:40 16.03.2020
6455 Clouds 29 1010 52 10000 7.2 190 21:22 16.03.2020
6456 Clouds 30 1010 52 10000 6.7 190 20:57 16.03.2020
6457 Clouds 30 1010 52 10000 6.7 190 20:38 16.03.2020
6458 Clouds 30 1010 52 10000 6.7 190 20:19 16.03.2020
6459 Clouds 32 1010 55 10000 7.7 190 19:42 16.03.2020
6460 Clouds 32 1010 55 10000 7.7 190 19:22 16.03.2020
6461 Clouds 31 1010 70 10000 8.2 180 18:57 16.03.2020
6462 Clouds 32 1010 70 10000 8.2 180 18:37 16.03.2020
6463 Clouds 32 1011 66 10000 5.1 160 18:18 16.03.2020
6464 Clouds 31 1011 66 10000 5.1 160 17:43 16.03.2020
6465 Clouds 32 1011 66 10000 5.1 160 17:24 16.03.2020
6466 Clouds 32 1011 59 10000 2.6 160 16:47 16.03.2020
6467 Clouds 33 1011 62 10000 4.1 30 16:29 16.03.2020
6468 Clouds 32 1012 58 10000 2.6 330 15:58 16.03.2020
6469 Clouds 30 1012 58 10000 2.6 330 15:40 16.03.2020
6470 Clouds 32 1012 58 10000 2.6 330 15:20 16.03.2020
6471 Clouds 31 1012 62 10000 2.6 320 14:44 16.03.2020
6472 Clear 30 1012 62 10000 2.6 320 14:20 16.03.2020
6473 Clear 30 1012 66 10000 2.1 330 13:44 16.03.2020
6474 Clear 30 1012 66 10000 2.1 330 13:25 16.03.2020
6475 Clear 28 1012 74 10000 3.1 330 12:56 16.03.2020
6476 Clear 27 1012 74 10000 3.1 330 12:37 16.03.2020
6477 Clear 27 1012 74 10000 3.1 330 12:19 16.03.2020
6478 Clear 25 1012 83 10000 2.1 350 11:42 16.03.2020
6479 Clear 24 1012 83 10000 2.1 350 11:20 16.03.2020
6480 Clear 23 1011 88 10000 2.6 350 10:43 16.03.2020
6481 Clear 24 1011 88 10000 2.6 350 10:24 16.03.2020
6482 Clear 25 1011 83 10000 2.6 350 09:47 16.03.2020
6483 Clear 25 1011 83 10000 2.6 350 09:28 16.03.2020
6484 Clear 25 1011 88 10000 3.1 20 08:59 16.03.2020
6485 Clear 25 1011 88 10000 3.1 20 08:36 16.03.2020
6486 Clear 25 1011 88 10000 3.1 20 08:18 16.03.2020
6487 Clear 26 1011 83 10000 3.1 350 07:40 16.03.2020
6488 Clear 25 1011 83 10000 3.1 350 07:18 16.03.2020
6489 Clear 26 1011 83 10000 2.1 340 06:28 16.03.2020
6490 Clear 26 1012 83 10000 2.6 90 05:54 16.03.2020
6491 Clear 26 1012 78 10000 2.1 10 03:54 16.03.2020
6492 Rain 26 1012 83 10000 0.5 10 01:44 16.03.2020
6493 Clear 26 1012 83 10000 0.5 50 00:44 16.03.2020
6494 Clear 28 1011 66 10000 4.1 180 23:56 15.03.2020
6495 Clear 28 1011 66 10000 4.1 180 23:37 15.03.2020
6496 Clear 28 1011 66 10000 4.1 180 23:18 15.03.2020
6497 Clouds 29 1011 66 10000 5.1 180 22:41 15.03.2020
6498 Clouds 30 1011 66 10000 5.1 180 22:20 15.03.2020
6499 Clouds 30 1011 62 10000 5.7 180 21:39 15.03.2020
6500 Clouds 31 1011 62 10000 5.7 180 21:21 15.03.2020
6501 Clouds 31 1011 70 10000 5.7 170 20:55 15.03.2020
6502 Clouds 30 1011 70 10000 5.7 170 20:36 15.03.2020
6503 Clouds 30 1011 70 10000 5.7 170 20:18 15.03.2020
6504 Clouds 30 1011 70 10000 5.7 160 19:55 15.03.2020
6505 Clouds 30 1011 70 10000 5.7 160 19:37 15.03.2020
6506 Clouds 31 1011 70 10000 5.7 160 19:18 15.03.2020
6507 Clouds 32 1012 70 10000 5.7 160 18:41 15.03.2020
6508 Clouds 32 1012 70 10000 5.7 160 18:23 15.03.2020
6509 Clouds 31 1013 74 10000 3.6 150 17:58 15.03.2020
6510 Clouds 30 1013 74 10000 3.6 150 17:38 15.03.2020
6511 Clouds 31 1013 74 10000 3.6 150 17:19 15.03.2020
6512 Clouds 32 1013 58 10000 2.6 70 16:55 15.03.2020
6513 Clouds 32 1013 58 10000 2.6 70 16:36 15.03.2020
6514 Clouds 31 1013 58 10000 2.6 70 16:18 15.03.2020
6515 Clear 29 1014 74 10000 2.6 360 15:41 15.03.2020
6516 Clear 29 1014 74 10000 2.6 360 15:20 15.03.2020
6517 Clouds 29 1015 74 10000 2.1 20 14:46 15.03.2020
6518 Clouds 29 1015 74 10000 2.1 20 14:26 15.03.2020
6519 Clouds 28 1015 88 10000 2.6 350 13:59 15.03.2020
6520 Clouds 28 1015 88 10000 2.6 350 13:59 15.03.2020
6521 Clouds 26 1015 88 10000 2.6 350 13:39 15.03.2020
6522 Clouds 27 1015 88 10000 2.6 350 13:20 15.03.2020
6523 Clouds 27 1015 83 10000 2.1 330 12:44 15.03.2020
6524 Clouds 27 1015 83 10000 2.1 330 12:26 15.03.2020
6525 Clouds 25 1014 88 10000 1 330 11:59 15.03.2020
6526 Clouds 24 1014 88 10000 1 330 11:40 15.03.2020
6527 Clouds 24 1014 88 10000 1 330 11:22 15.03.2020
6528 Clouds 24 1014 88 10000 3.1 40 10:56 15.03.2020
6529 Clouds 23 1014 88 10000 3.1 40 10:37 15.03.2020
6530 Clouds 24 1014 88 10000 3.1 40 10:18 15.03.2020
6531 Clouds 24 1014 88 10000 2.6 30 09:40 15.03.2020
6532 Clouds 24 1014 88 10000 2.6 30 09:22 15.03.2020
6533 Clouds 24 1014 88 10000 0.5 310 08:44 15.03.2020
6534 Clear 25 1014 88 10000 0.5 310 08:21 15.03.2020
6535 Clear 25 1014 88 10000 1 80 07:51 15.03.2020
6536 Clear 25 1014 88 10000 1 80 07:32 15.03.2020
6537 Clear 25 1015 88 10000 1.5 170 06:53 15.03.2020
6538 Clear 25 1015 88 10000 1.5 170 06:24 15.03.2020
6539 Clear 25 1015 88 10000 1.5 170 05:21 15.03.2020
6540 Clear 25 1015 88 10000 1.5 150 04:43 15.03.2020
6541 Clear 26 1015 88 10000 1.5 150 04:25 15.03.2020
6542 Clear 26 1016 88 10000 2.1 150 03:54 15.03.2020
6543 Clouds 26 1016 83 10000 1.5 120 02:44 15.03.2020
6544 Clouds 26 1016 88 10000 2.1 150 01:40 15.03.2020
6545 Clouds 26 1015 83 10000 2.6 150 00:47 15.03.2020
6546 Clouds 26 1015 83 10000 2.6 150 00:27 15.03.2020
6547 Clouds 27 1015 83 10000 3.1 170 23:56 14.03.2020
6548 Clouds 27 1015 83 10000 3.1 170 23:37 14.03.2020
6549 Clouds 27 1016 74 10000 3.1 160 23:18 14.03.2020
6550 Clouds 27 1015 88 10000 3.1 150 22:44 14.03.2020
6551 Clouds 27 1015 88 10000 3.1 150 22:26 14.03.2020
6552 Clouds 29 1014 83 10000 6.2 120 21:57 14.03.2020
6553 Clouds 28 1014 83 10000 6.2 120 21:37 14.03.2020
6554 Clouds 28 1014 83 10000 6.2 120 21:18 14.03.2020
6555 Clouds 29 1014 83 10000 6.7 160 20:59 14.03.2020
6556 Clouds 29 1014 83 10000 6.7 160 20:41 14.03.2020
6557 Clouds 29 1014 83 10000 6.7 160 20:20 14.03.2020
6558 Clouds 29 1014 78 10000 5.1 160 19:58 14.03.2020
6559 Clouds 28 1014 78 10000 5.1 160 19:39 14.03.2020
6560 Clouds 29 1015 78 10000 6.2 160 19:19 14.03.2020
6561 Clouds 28 1015 78 10000 6.2 160 18:37 14.03.2020
6562 Clouds 30 1015 70 10000 3.1 150 18:19 14.03.2020
6563 Clouds 30 1015 78 10000 5.7 170 17:40 14.03.2020
6564 Clouds 29 1016 58 10000 1 100 17:21 14.03.2020
6565 Clouds 29 1016 83 10000 5.7 160 16:57 14.03.2020
6566 Clouds 28 1016 83 10000 5.7 160 16:38 14.03.2020
6567 Clouds 29 1016 83 10000 5.7 160 16:18 14.03.2020
6568 Clouds 29 1017 83 10000 5.1 150 15:28 14.03.2020
6569 Clouds 28 1017 78 10000 2.6 130 14:59 14.03.2020
6570 Clouds 28 1017 78 10000 2.6 130 14:39 14.03.2020
6571 Clouds 29 1017 78 10000 2.6 130 14:20 14.03.2020
6572 Clouds 27 1017 78 10000 1 120 13:56 14.03.2020
6573 Clouds 27 1017 78 10000 1 120 13:38 14.03.2020
6574 Clouds 27 1017 78 10000 1 120 13:19 14.03.2020
6575 Clouds 26 1017 88 10000 1 150 12:43 14.03.2020
6576 Clouds 26 1017 88 10000 1 150 12:25 14.03.2020
6577 Clouds 25 1016 88 10000 0.5 170 11:44 14.03.2020
6578 Clouds 23 1016 88 10000 0.5 170 11:25 14.03.2020
6579 Clouds 23 1016 88 10000 0.5 170 10:54 14.03.2020
6580 Clouds 24 1015 94 10000 2.1 130 10:36 14.03.2020
6581 Clouds 24 1015 94 10000 2.1 130 10:18 14.03.2020
6582 Clouds 24 1015 94 10000 2.1 130 09:41 14.03.2020
6583 Clouds 24 1015 94 10000 2.1 130 09:21 14.03.2020
6584 Clouds 24 1015 94 10000 1.5 160 08:47 14.03.2020
6585 Clouds 24 1015 94 10000 1.5 160 08:27 14.03.2020
6586 Clouds 24 1015 88 10000 1 130 07:45 14.03.2020
6587 Clouds 24 1015 88 10000 1 130 07:22 14.03.2020
6588 Clouds 24 1015 88 10000 2.1 200 06:59 14.03.2020
6589 Clouds 24 1015 88 10000 2.1 200 06:39 14.03.2020
6590 Clouds 25 1016 88 10000 3.6 180 04:57 14.03.2020
6591 Clouds 25 1016 88 10000 4.1 170 03:40 14.03.2020
6592 Clouds 26 1016 83 10000 1 150 02:53 14.03.2020
6593 Clouds 26 1016 78 10000 2.1 70 01:50 14.03.2020
6594 Clouds 26 1015 83 10000 1.5 160 00:42 14.03.2020
6595 Clouds 26 1014 78 10000 2.1 150 23:44 13.03.2020
6596 Clouds 27 1014 78 10000 2.1 150 23:25 13.03.2020
6597 Clouds 27 1014 83 10000 3.6 140 22:46 13.03.2020
6598 Clouds 27 1014 83 10000 3.6 140 22:25 13.03.2020
6599 Clouds 27 1014 83 10000 6.2 170 21:42 13.03.2020
6600 Clouds 28 1014 83 10000 6.2 170 21:21 13.03.2020
6601 Clouds 29 1014 78 10000 6.2 160 20:57 13.03.2020
6602 Clouds 27 1014 78 10000 6.2 160 20:38 13.03.2020
6603 Clouds 28 1014 78 10000 6.2 160 20:19 13.03.2020
6604 Clouds 28 1014 69 10000 4.6 150 19:42 13.03.2020
6605 Clouds 28 1014 69 10000 4.6 150 19:42 13.03.2020
6606 Clouds 30 1014 69 10000 4.6 150 19:23 13.03.2020
6607 Clouds 29 1014 69 10000 4.6 150 19:23 13.03.2020
6608 Clouds 30 1015 78 10000 5.7 150 18:47 13.03.2020
6609 Clouds 29 1015 78 10000 5.7 150 18:28 13.03.2020
6610 Clouds 30 1015 78 10000 5.7 150 17:57 13.03.2020
6611 Clouds 30 1015 78 10000 5.7 160 17:37 13.03.2020
6612 Clouds 29 1016 78 10000 5.7 160 17:18 13.03.2020
6613 Clouds 28 1016 78 10000 5.7 160 16:41 13.03.2020
6614 Clouds 28 1016 78 10000 5.7 160 16:23 13.03.2020
6615 Clouds 28 1016 83 10000 5.7 150 15:55 13.03.2020
6616 Clouds 28 1016 83 10000 5.7 150 15:37 13.03.2020
6617 Clouds 28 1016 83 10000 5.7 150 15:18 13.03.2020
6618 Clouds 28 1016 74 10000 4.1 160 14:41 13.03.2020
6619 Clouds 28 1016 74 10000 4.1 160 14:22 13.03.2020
6620 Clouds 27 1016 78 10000 3.1 160 13:56 13.03.2020
6621 Clouds 26 1016 78 10000 3.1 160 13:38 13.03.2020
6622 Clouds 26 1016 78 10000 3.1 160 13:19 13.03.2020
6623 Clouds 26 1016 88 10000 2.1 150 12:40 13.03.2020
6624 Clouds 26 1016 88 10000 2.1 150 12:22 13.03.2020
6625 Clouds 25 1016 78 10000 2.1 150 11:59 13.03.2020
6626 Clouds 25 1015 83 10000 1 80 11:41 13.03.2020
6627 Clouds 22 1015 88 10000 1.5 50 11:22 13.03.2020
6628 Clouds 22 1015 88 10000 1.5 50 10:48 13.03.2020
6629 Clouds 23 1015 88 10000 1.5 50 10:28 13.03.2020
6630 Clouds 23 1014 88 10000 1 50 09:57 13.03.2020
6631 Clouds 23 1014 88 10000 1 50 09:57 13.03.2020
6632 Clouds 23 1014 88 10000 1 50 09:39 13.03.2020
6633 Clouds 23 1014 88 10000 1 50 09:20 13.03.2020
6634 Clouds 23 1014 88 10000 2.6 70 08:45 13.03.2020
6635 Clouds 23 1014 88 10000 2.6 70 08:23 13.03.2020
6636 Clouds 23 1014 88 10000 1.5 90 07:50 13.03.2020
6637 Clouds 23 1014 88 10000 1.5 90 07:28 13.03.2020
6638 Clouds 24 1015 83 10000 3.6 70 06:50 13.03.2020
6639 Clouds 24 1015 83 10000 3.6 70 06:32 13.03.2020
6640 Clouds 25 1016 83 10000 2.6 80 05:54 13.03.2020
6641 Clouds 25 1016 78 10000 3.1 80 05:22 13.03.2020
6642 Clouds 25 1016 78 10000 3.1 80 04:38 13.03.2020
6643 Clouds 25 1016 100 10000 3.1 80 03:42 13.03.2020
6644 Clouds 25 1016 83 10000 2.6 170 01:47 13.03.2020
6645 Clouds 25 1016 83 10000 2.6 170 01:19 13.03.2020
6646 Clouds 26 1015 83 10000 3.1 140 00:53 13.03.2020
6647 Clouds 26 1015 83 10000 3.1 140 00:24 13.03.2020
6648 Clouds 26 1015 83 10000 4.6 140 23:55 12.03.2020
6649 Clouds 25 1015 83 10000 4.6 140 23:28 12.03.2020
6650 Clouds 26 1014 78 10000 5.7 130 22:57 12.03.2020
6651 Clouds 26 1014 78 10000 5.7 130 22:39 12.03.2020
6652 Clouds 26 1014 78 10000 5.7 130 22:21 12.03.2020
6653 Clouds 27 1014 78 10000 5.1 140 21:45 12.03.2020
6654 Clouds 27 1014 78 10000 5.1 140 21:27 12.03.2020
6655 Clouds 27 1014 74 10000 5.7 130 20:57 12.03.2020
6656 Clouds 26 1014 74 10000 5.7 130 20:38 12.03.2020
6657 Clouds 27 1014 74 10000 5.7 130 20:19 12.03.2020
6658 Clouds 27 1015 74 10000 7.2 160 19:41 12.03.2020
6659 Clouds 27 1015 74 10000 7.2 160 19:20 12.03.2020
6660 Clouds 27 1015 74 10000 6.7 150 18:44 12.03.2020
6661 Clouds 27 1015 74 10000 6.7 150 18:24 12.03.2020
6662 Clouds 27 1016 74 10000 7.2 170 17:57 12.03.2020
6663 Clouds 27 1016 74 10000 7.2 170 17:39 12.03.2020
6664 Clouds 27 1016 74 10000 7.2 170 17:20 12.03.2020
6665 Clouds 26 1016 74 10000 5.7 160 16:56 12.03.2020
6666 Clouds 26 1016 74 10000 5.7 160 16:38 12.03.2020
6667 Clouds 28 1016 74 10000 5.7 160 16:19 12.03.2020
6668 Clouds 28 1016 74 10000 4.1 160 15:45 12.03.2020
6669 Clouds 27 1016 74 10000 4.1 160 15:27 12.03.2020
6670 Clouds 27 1017 69 10000 2.1 340 14:41 12.03.2020
6671 Clouds 27 1017 69 10000 2.1 340 14:23 12.03.2020
6672 Clouds 26 1016 69 10000 1 360 13:57 12.03.2020
6673 Clouds 26 1016 69 10000 1 360 13:36 12.03.2020
6674 Clouds 26 1016 69 10000 1 360 13:18 12.03.2020
6675 Clouds 25 1016 73 10000 1.5 40 12:41 12.03.2020
667